<?xml version='1.0' encoding='UTF-8'?><gpx version="1.1" creator="JPX - https://github.com/jenetics/jpx" xmlns="http://www.topografix.com/GPX/1/1"><trk><trkseg><trkpt lat="48.38505152738209" lon="-0.9883835848693239"><ele>176.0</ele><time>2026-04-06T12:22:44.004Z</time></trkpt><trkpt lat="48.384981645065395" lon="-0.9883561361168699"><ele>176.0</ele><time>2026-04-06T12:23:07Z</time></trkpt><trkpt lat="48.38492343347589" lon="-0.9883949565810349"><ele>176.0</ele><time>2026-04-06T12:23:12Z</time></trkpt><trkpt lat="48.384901740449436" lon="-0.9884948437608533"><ele>176.0</ele><time>2026-04-06T12:23:15Z</time></trkpt><trkpt lat="48.38494938898138" lon="-0.9885768773634874"><ele>176.0</ele><time>2026-04-06T12:23:20Z</time></trkpt><trkpt lat="48.38503014852321" lon="-0.9886638316067615"><ele>176.0</ele><time>2026-04-06T12:23:22Z</time></trkpt><trkpt lat="48.385089469592295" lon="-0.9887214136428528"><ele>176.0</ele><time>2026-04-06T12:23:23Z</time></trkpt><trkpt lat="48.38514538321472" lon="-0.9887750080435621"><ele>176.0</ele><time>2026-04-06T12:23:24Z</time></trkpt><trkpt lat="48.38520377890633" lon="-0.9888246751164871"><ele>176.0</ele><time>2026-04-06T12:23:25Z</time></trkpt><trkpt lat="48.385300520815186" lon="-0.9888949427285768"><ele>176.0</ele><time>2026-04-06T12:23:27Z</time></trkpt><trkpt lat="48.38536301905363" lon="-0.9889400967301553"><ele>176.0</ele><time>2026-04-06T12:23:28Z</time></trkpt><trkpt lat="48.3855820671537" lon="-0.9890651164029137"><ele>176.5</ele><time>2026-04-06T12:23:30Z</time></trkpt><trkpt lat="48.385662979643435" lon="-0.9891185863267391"><ele>177.0</ele><time>2026-04-06T12:23:31Z</time></trkpt><trkpt lat="48.38574734204078" lon="-0.9891508188907925"><ele>177.5</ele><time>2026-04-06T12:23:32Z</time></trkpt><trkpt lat="48.38582804063377" lon="-0.989168934577946"><ele>178.0</ele><time>2026-04-06T12:23:33Z</time></trkpt><trkpt lat="48.38591060659251" lon="-0.9892062993621953"><ele>178.5</ele><time>2026-04-06T12:23:34Z</time></trkpt><trkpt lat="48.38599346930447" lon="-0.9892403326355353"><ele>179.0</ele><time>2026-04-06T12:23:35Z</time></trkpt><trkpt lat="48.38607458565589" lon="-0.9892554942593468"><ele>179.39999999999998</ele><time>2026-04-06T12:23:36Z</time></trkpt><trkpt lat="48.3861602588668" lon="-0.9892786171636163"><ele>179.8</ele><time>2026-04-06T12:23:37Z</time></trkpt><trkpt lat="48.38625478649695" lon="-0.9893045747427544"><ele>180.2</ele><time>2026-04-06T12:23:38Z</time></trkpt><trkpt lat="48.3863493103299" lon="-0.9892983590370782"><ele>180.60000000000002</ele><time>2026-04-06T12:23:39Z</time></trkpt><trkpt lat="48.386440822263175" lon="-0.9893302856832865"><ele>181.0</ele><time>2026-04-06T12:23:40Z</time></trkpt><trkpt lat="48.38654799470603" lon="-0.9893451798998554"><ele>181.0</ele><time>2026-04-06T12:23:41Z</time></trkpt><trkpt lat="48.38664778648369" lon="-0.9893507116499636"><ele>181.0</ele><time>2026-04-06T12:23:42Z</time></trkpt><trkpt lat="48.3867482860125" lon="-0.9893468257381408"><ele>181.0</ele><time>2026-04-06T12:23:43Z</time></trkpt><trkpt lat="48.38684475056427" lon="-0.9893488976325561"><ele>181.0</ele><time>2026-04-06T12:23:44Z</time></trkpt><trkpt lat="48.38694548049238" lon="-0.9893283294797798"><ele>181.0</ele><time>2026-04-06T12:23:45Z</time></trkpt><trkpt lat="48.38704543352719" lon="-0.9893264632541605"><ele>181.0</ele><time>2026-04-06T12:23:46Z</time></trkpt><trkpt lat="48.38715338058311" lon="-0.989323119538027"><ele>181.0</ele><time>2026-04-06T12:23:47Z</time></trkpt><trkpt lat="48.38725804447155" lon="-0.9893152966496366"><ele>181.0</ele><time>2026-04-06T12:23:48Z</time></trkpt><trkpt lat="48.38735822835224" lon="-0.9893078086058342"><ele>181.0</ele><time>2026-04-06T12:23:49Z</time></trkpt><trkpt lat="48.387460739560666" lon="-0.9893001466085003"><ele>181.0</ele><time>2026-04-06T12:23:50Z</time></trkpt><trkpt lat="48.38756845222211" lon="-0.9892920958381871"><ele>181.25</ele><time>2026-04-06T12:23:51Z</time></trkpt><trkpt lat="48.38767554541935" lon="-0.9892876648029859"><ele>181.5</ele><time>2026-04-06T12:23:52Z</time></trkpt><trkpt lat="48.38779004940827" lon="-0.9893039184280116"><ele>181.75</ele><time>2026-04-06T12:23:53Z</time></trkpt><trkpt lat="48.38790946471895" lon="-0.9892896375854201"><ele>182.0</ele><time>2026-04-06T12:23:54Z</time></trkpt><trkpt lat="48.38803270293228" lon="-0.9892803576848912"><ele>182.0</ele><time>2026-04-06T12:23:55Z</time></trkpt><trkpt lat="48.388157663146224" lon="-0.9892807575684542"><ele>182.0</ele><time>2026-04-06T12:23:56Z</time></trkpt><trkpt lat="48.38828331379462" lon="-0.9892756492676956"><ele>182.0</ele><time>2026-04-06T12:23:57Z</time></trkpt><trkpt lat="48.388405893031994" lon="-0.9892621157540312"><ele>182.0</ele><time>2026-04-06T12:23:58Z</time></trkpt><trkpt lat="48.38853459850405" lon="-0.9892591227630423"><ele>182.0</ele><time>2026-04-06T12:23:59Z</time></trkpt><trkpt lat="48.3886597112056" lon="-0.9892541959624073"><ele>182.0</ele><time>2026-04-06T12:24:00Z</time></trkpt><trkpt lat="48.38878668868017" lon="-0.9892489231779357"><ele>182.0</ele><time>2026-04-06T12:24:01Z</time></trkpt><trkpt lat="48.38891413001683" lon="-0.989247055598577"><ele>182.0</ele><time>2026-04-06T12:24:02Z</time></trkpt><trkpt lat="48.389041920793055" lon="-0.9892371746872494"><ele>181.5</ele><time>2026-04-06T12:24:03Z</time></trkpt><trkpt lat="48.38917519906745" lon="-0.9892335633735523"><ele>181.0</ele><time>2026-04-06T12:24:04Z</time></trkpt><trkpt lat="48.3893087821817" lon="-0.9892264345352567"><ele>180.5</ele><time>2026-04-06T12:24:05Z</time></trkpt><trkpt lat="48.38944308424649" lon="-0.9892244808598161"><ele>180.0</ele><time>2026-04-06T12:24:06Z</time></trkpt><trkpt lat="48.38957873194014" lon="-0.9892225049410944"><ele>180.25</ele><time>2026-04-06T12:24:07Z</time></trkpt><trkpt lat="48.38970957974709" lon="-0.9892194247228814"><ele>180.5</ele><time>2026-04-06T12:24:08Z</time></trkpt><trkpt lat="48.38984706895045" lon="-0.9892018379576848"><ele>180.75</ele><time>2026-04-06T12:24:09Z</time></trkpt><trkpt lat="48.389990852145395" lon="-0.9891961288747195"><ele>181.0</ele><time>2026-04-06T12:24:10Z</time></trkpt><trkpt lat="48.39014310534564" lon="-0.9891898514090369"><ele>180.33333333333334</ele><time>2026-04-06T12:24:11Z</time></trkpt><trkpt lat="48.39030491328807" lon="-0.9891683539084045"><ele>179.66666666666666</ele><time>2026-04-06T12:24:12Z</time></trkpt><trkpt lat="48.39046635866561" lon="-0.9891603438377928"><ele>179.0</ele><time>2026-04-06T12:24:13Z</time></trkpt><trkpt lat="48.390639669638226" lon="-0.989152600138694"><ele>179.0</ele><time>2026-04-06T12:24:14Z</time></trkpt><trkpt lat="48.390828230541885" lon="-0.9891459313196144"><ele>179.0</ele><time>2026-04-06T12:24:15Z</time></trkpt><trkpt lat="48.391044626422094" lon="-0.9891373344660906"><ele>179.0</ele><time>2026-04-06T12:24:16Z</time></trkpt><trkpt lat="48.391274309762636" lon="-0.989127875134825"><ele>179.0</ele><time>2026-04-06T12:24:17Z</time></trkpt><trkpt lat="48.39153871990816" lon="-0.9891169856094585"><ele>179.0</ele><time>2026-04-06T12:24:18Z</time></trkpt><trkpt lat="48.391778886726556" lon="-0.9891050880717954"><ele>179.0</ele><time>2026-04-06T12:24:19Z</time></trkpt><trkpt lat="48.39201600773512" lon="-0.9890922312878792"><ele>179.0</ele><time>2026-04-06T12:24:20Z</time></trkpt><trkpt lat="48.392252253468016" lon="-0.9890794219635665"><ele>180.0</ele><time>2026-04-06T12:24:21Z</time></trkpt><trkpt lat="48.39248459168419" lon="-0.9890668245069478"><ele>181.0</ele><time>2026-04-06T12:24:22Z</time></trkpt><trkpt lat="48.39271637402011" lon="-0.989054196609985"><ele>181.0</ele><time>2026-04-06T12:24:23Z</time></trkpt><trkpt lat="48.3929501524794" lon="-0.989041398824245"><ele>181.0</ele><time>2026-04-06T12:24:24Z</time></trkpt><trkpt lat="48.39318540741237" lon="-0.9890285354319205"><ele>181.5</ele><time>2026-04-06T12:24:25Z</time></trkpt><trkpt lat="48.393418917456614" lon="-0.9890157674441533"><ele>182.0</ele><time>2026-04-06T12:24:26Z</time></trkpt><trkpt lat="48.39365484992886" lon="-0.9890028670008301"><ele>180.0</ele><time>2026-04-06T12:24:27Z</time></trkpt><trkpt lat="48.39388841271427" lon="-0.9890097256625769"><ele>178.0</ele><time>2026-04-06T12:24:28Z</time></trkpt><trkpt lat="48.39412989913127" lon="-0.9889961104971311"><ele>178.0</ele><time>2026-04-06T12:24:29Z</time></trkpt><trkpt lat="48.39436773239978" lon="-0.9889804032292104"><ele>178.0</ele><time>2026-04-06T12:24:30Z</time></trkpt><trkpt lat="48.39461554567415" lon="-0.9889667964793485"><ele>176.5</ele><time>2026-04-06T12:24:31Z</time></trkpt><trkpt lat="48.394857580326956" lon="-0.9889537212887826"><ele>175.0</ele><time>2026-04-06T12:24:32Z</time></trkpt><trkpt lat="48.3950993911717" lon="-0.988949098072534"><ele>175.0</ele><time>2026-04-06T12:24:33Z</time></trkpt><trkpt lat="48.395340338855306" lon="-0.988949381434026"><ele>175.0</ele><time>2026-04-06T12:24:34Z</time></trkpt><trkpt lat="48.39557686625734" lon="-0.9889338086572105"><ele>175.5</ele><time>2026-04-06T12:24:35Z</time></trkpt><trkpt lat="48.395814444005836" lon="-0.9889194741872255"><ele>176.0</ele><time>2026-04-06T12:24:36Z</time></trkpt><trkpt lat="48.396053220540914" lon="-0.9889037748611847"><ele>176.0</ele><time>2026-04-06T12:24:37Z</time></trkpt><trkpt lat="48.396283517970616" lon="-0.9889058853671987"><ele>176.0</ele><time>2026-04-06T12:24:38Z</time></trkpt><trkpt lat="48.396512453216246" lon="-0.9889002129886094"><ele>176.5</ele><time>2026-04-06T12:24:39Z</time></trkpt><trkpt lat="48.39673664872629" lon="-0.9888760044727158"><ele>177.0</ele><time>2026-04-06T12:24:40Z</time></trkpt><trkpt lat="48.396978763065086" lon="-0.98887110918581"><ele>179.0</ele><time>2026-04-06T12:24:41Z</time></trkpt><trkpt lat="48.39720790687247" lon="-0.9888581241490029"><ele>181.0</ele><time>2026-04-06T12:24:42Z</time></trkpt><trkpt lat="48.397438711501636" lon="-0.9888394251544061"><ele>181.0</ele><time>2026-04-06T12:24:43Z</time></trkpt><trkpt lat="48.39766660732329" lon="-0.9888314239774068"><ele>181.0</ele><time>2026-04-06T12:24:44Z</time></trkpt><trkpt lat="48.39789484469542" lon="-0.988810487033048"><ele>179.5</ele><time>2026-04-06T12:24:45Z</time></trkpt><trkpt lat="48.398124482422475" lon="-0.9887958081586126"><ele>178.0</ele><time>2026-04-06T12:24:45.999Z</time></trkpt><trkpt lat="48.398353844289545" lon="-0.9887864314621819"><ele>178.0</ele><time>2026-04-06T12:24:46.999Z</time></trkpt><trkpt lat="48.39857678063993" lon="-0.9887710718512746"><ele>178.0</ele><time>2026-04-06T12:24:47.999Z</time></trkpt><trkpt lat="48.39880763042832" lon="-0.9887632098671538"><ele>177.5</ele><time>2026-04-06T12:24:48.999Z</time></trkpt><trkpt lat="48.39903937068118" lon="-0.9887580514179511"><ele>177.0</ele><time>2026-04-06T12:24:49.999Z</time></trkpt><trkpt lat="48.39926923488131" lon="-0.9887494650926933"><ele>177.0</ele><time>2026-04-06T12:24:51Z</time></trkpt><trkpt lat="48.399498156257934" lon="-0.9887391226197803"><ele>177.0</ele><time>2026-04-06T12:24:52Z</time></trkpt><trkpt lat="48.39972996968056" lon="-0.9887376858930813"><ele>176.5</ele><time>2026-04-06T12:24:53Z</time></trkpt><trkpt lat="48.39995971657365" lon="-0.9887247548778273"><ele>176.0</ele><time>2026-04-06T12:24:54Z</time></trkpt><trkpt lat="48.40019298032493" lon="-0.9887108804099005"><ele>176.0</ele><time>2026-04-06T12:24:55Z</time></trkpt><trkpt lat="48.40042616365936" lon="-0.9887002713723656"><ele>176.0</ele><time>2026-04-06T12:24:56Z</time></trkpt><trkpt lat="48.400651983266556" lon="-0.9886916806958029"><ele>174.0</ele><time>2026-04-06T12:24:57Z</time></trkpt><trkpt lat="48.400879817959485" lon="-0.9886788951594878"><ele>172.0</ele><time>2026-04-06T12:24:58Z</time></trkpt><trkpt lat="48.40110436436138" lon="-0.9886595717491827"><ele>169.5</ele><time>2026-04-06T12:24:59Z</time></trkpt><trkpt lat="48.40133591641356" lon="-0.9886450314514362"><ele>167.0</ele><time>2026-04-06T12:25:00Z</time></trkpt><trkpt lat="48.401561975730786" lon="-0.98863200941428"><ele>167.0</ele><time>2026-04-06T12:25:01Z</time></trkpt><trkpt lat="48.4017920193687" lon="-0.9886188620511137"><ele>167.0</ele><time>2026-04-06T12:25:02Z</time></trkpt><trkpt lat="48.402019211820466" lon="-0.9886056830558887"><ele>166.0</ele><time>2026-04-06T12:25:03Z</time></trkpt><trkpt lat="48.402248011314704" lon="-0.9886023133868828"><ele>165.0</ele><time>2026-04-06T12:25:04Z</time></trkpt><trkpt lat="48.40247614885126" lon="-0.9885931858590186"><ele>165.0</ele><time>2026-04-06T12:25:05Z</time></trkpt><trkpt lat="48.402705812400775" lon="-0.98857641193757"><ele>165.0</ele><time>2026-04-06T12:25:06Z</time></trkpt><trkpt lat="48.40292989900756" lon="-0.9885679781629653"><ele>165.66666666666666</ele><time>2026-04-06T12:25:07Z</time></trkpt><trkpt lat="48.403154439088404" lon="-0.9885625654143242"><ele>166.33333333333331</ele><time>2026-04-06T12:25:08Z</time></trkpt><trkpt lat="48.40337902018578" lon="-0.9885560657332"><ele>167.0</ele><time>2026-04-06T12:25:09Z</time></trkpt><trkpt lat="48.403603725586905" lon="-0.9885450382060191"><ele>167.0</ele><time>2026-04-06T12:25:10Z</time></trkpt><trkpt lat="48.40382882625582" lon="-0.9885229634461505"><ele>167.0</ele><time>2026-04-06T12:25:11Z</time></trkpt><trkpt lat="48.40405424476153" lon="-0.9885229754673028"><ele>167.33333333333331</ele><time>2026-04-06T12:25:12Z</time></trkpt><trkpt lat="48.404274328817124" lon="-0.9885060209697968"><ele>167.66666666666666</ele><time>2026-04-06T12:25:13Z</time></trkpt><trkpt lat="48.40450099060873" lon="-0.9884870820588874"><ele>168.0</ele><time>2026-04-06T12:25:14Z</time></trkpt><trkpt lat="48.4047256522152" lon="-0.9884823068483957"><ele>168.0</ele><time>2026-04-06T12:25:15Z</time></trkpt><trkpt lat="48.40495118490264" lon="-0.9884733361733468"><ele>168.0</ele><time>2026-04-06T12:25:16Z</time></trkpt><trkpt lat="48.40517994189301" lon="-0.988464814171877"><ele>168.0</ele><time>2026-04-06T12:25:17Z</time></trkpt><trkpt lat="48.405406085656494" lon="-0.988454375031949"><ele>168.0</ele><time>2026-04-06T12:25:18Z</time></trkpt><trkpt lat="48.40561886255055" lon="-0.9884403497513146"><ele>168.0</ele><time>2026-04-06T12:25:19Z</time></trkpt><trkpt lat="48.405819974979885" lon="-0.9884241580925904"><ele>167.66666666666666</ele><time>2026-04-06T12:25:20Z</time></trkpt><trkpt lat="48.4060123431967" lon="-0.9884110910777902"><ele>167.33333333333331</ele><time>2026-04-06T12:25:21Z</time></trkpt><trkpt lat="48.40618660762905" lon="-0.9883908239983406"><ele>167.0</ele><time>2026-04-06T12:25:22Z</time></trkpt><trkpt lat="48.40636536408348" lon="-0.9883922083126615"><ele>165.66666666666666</ele><time>2026-04-06T12:25:23Z</time></trkpt><trkpt lat="48.406531666347455" lon="-0.9883865188635024"><ele>164.33333333333334</ele><time>2026-04-06T12:25:24Z</time></trkpt><trkpt lat="48.406690400459404" lon="-0.9883833243242856"><ele>163.0</ele><time>2026-04-06T12:25:25Z</time></trkpt><trkpt lat="48.406836397517964" lon="-0.9883793782753749"><ele>163.0</ele><time>2026-04-06T12:25:26Z</time></trkpt><trkpt lat="48.406976870670626" lon="-0.9883767187977025"><ele>163.0</ele><time>2026-04-06T12:25:27Z</time></trkpt><trkpt lat="48.407109743984996" lon="-0.9883725098658"><ele>163.0</ele><time>2026-04-06T12:25:28Z</time></trkpt><trkpt lat="48.407237380662686" lon="-0.988368846994873"><ele>163.0</ele><time>2026-04-06T12:25:29Z</time></trkpt><trkpt lat="48.407353165892324" lon="-0.98836189513704"><ele>162.8</ele><time>2026-04-06T12:25:30Z</time></trkpt><trkpt lat="48.40746118359859" lon="-0.9883510432184348"><ele>162.60000000000002</ele><time>2026-04-06T12:25:31Z</time></trkpt><trkpt lat="48.40756004161692" lon="-0.9883290796380855"><ele>162.39999999999998</ele><time>2026-04-06T12:25:32Z</time></trkpt><trkpt lat="48.40763294609723" lon="-0.9882616707287541"><ele>162.2</ele><time>2026-04-06T12:25:33Z</time></trkpt><trkpt lat="48.40769618435117" lon="-0.9881828659830366"><ele>162.0</ele><time>2026-04-06T12:25:34Z</time></trkpt><trkpt lat="48.40783611107682" lon="-0.9881600686506958"><ele>162.0</ele><time>2026-04-06T12:25:36Z</time></trkpt><trkpt lat="48.40792660502686" lon="-0.9882187843408299"><ele>162.0</ele><time>2026-04-06T12:25:37Z</time></trkpt><trkpt lat="48.40795694010497" lon="-0.9883116834223009"><ele>162.0</ele><time>2026-04-06T12:25:38Z</time></trkpt><trkpt lat="48.40795305334638" lon="-0.9884528825217916"><ele>162.0</ele><time>2026-04-06T12:25:40Z</time></trkpt><trkpt lat="48.40792568745986" lon="-0.9886371986629092"><ele>162.0</ele><time>2026-04-06T12:25:42Z</time></trkpt><trkpt lat="48.407866360787516" lon="-0.9888408432278109"><ele>162.0</ele><time>2026-04-06T12:25:43Z</time></trkpt><trkpt lat="48.40788494252822" lon="-0.9890913761057059"><ele>162.0</ele><time>2026-04-06T12:25:44Z</time></trkpt><trkpt lat="48.40782779189303" lon="-0.9894383883040044"><ele>162.0</ele><time>2026-04-06T12:25:45Z</time></trkpt><trkpt lat="48.4077854566039" lon="-0.989755740302849"><ele>164.0</ele><time>2026-04-06T12:25:46Z</time></trkpt><trkpt lat="48.40771741000919" lon="-0.9901004886954027"><ele>166.0</ele><time>2026-04-06T12:25:47Z</time></trkpt><trkpt lat="48.40763961215239" lon="-0.9904756201942119"><ele>165.5</ele><time>2026-04-06T12:25:48Z</time></trkpt><trkpt lat="48.407557848581675" lon="-0.9908658018844538"><ele>165.0</ele><time>2026-04-06T12:25:49Z</time></trkpt><trkpt lat="48.40747990216851" lon="-0.9912476150022894"><ele>165.0</ele><time>2026-04-06T12:25:50Z</time></trkpt><trkpt lat="48.407409896638576" lon="-0.9916123306651786"><ele>165.0</ele><time>2026-04-06T12:25:51Z</time></trkpt><trkpt lat="48.40735134210152" lon="-0.9919712434293474"><ele>165.5</ele><time>2026-04-06T12:25:52Z</time></trkpt><trkpt lat="48.40728337415768" lon="-0.9923511580643082"><ele>166.0</ele><time>2026-04-06T12:25:53Z</time></trkpt><trkpt lat="48.40721905285144" lon="-0.992709037143875"><ele>168.0</ele><time>2026-04-06T12:25:54Z</time></trkpt><trkpt lat="48.40715766133269" lon="-0.9930631404037801"><ele>170.0</ele><time>2026-04-06T12:25:55Z</time></trkpt><trkpt lat="48.40710357442241" lon="-0.9934088742056503"><ele>170.0</ele><time>2026-04-06T12:25:56Z</time></trkpt><trkpt lat="48.40705344275528" lon="-0.9937466962647573"><ele>170.0</ele><time>2026-04-06T12:25:57Z</time></trkpt><trkpt lat="48.40700413654732" lon="-0.9940877282806917"><ele>171.0</ele><time>2026-04-06T12:25:58Z</time></trkpt><trkpt lat="48.40696218231663" lon="-0.9944297890107088"><ele>172.0</ele><time>2026-04-06T12:25:59Z</time></trkpt><trkpt lat="48.40692252385572" lon="-0.9947714605734692"><ele>173.5</ele><time>2026-04-06T12:26:00Z</time></trkpt><trkpt lat="48.40688238137837" lon="-0.9951152459183409"><ele>175.0</ele><time>2026-04-06T12:26:01Z</time></trkpt><trkpt lat="48.40683048271952" lon="-0.9954615333758631"><ele>175.0</ele><time>2026-04-06T12:26:02Z</time></trkpt><trkpt lat="48.40678010993862" lon="-0.9958099121079494"><ele>175.0</ele><time>2026-04-06T12:26:03Z</time></trkpt><trkpt lat="48.406741338105164" lon="-0.9961627766059433"><ele>175.5</ele><time>2026-04-06T12:26:04Z</time></trkpt><trkpt lat="48.40670055052882" lon="-0.9965111329022931"><ele>176.0</ele><time>2026-04-06T12:26:05Z</time></trkpt><trkpt lat="48.40664741336664" lon="-0.9968549482183341"><ele>176.0</ele><time>2026-04-06T12:26:06Z</time></trkpt><trkpt lat="48.406615507011956" lon="-0.9972186208782446"><ele>176.0</ele><time>2026-04-06T12:26:07Z</time></trkpt><trkpt lat="48.40657738075083" lon="-0.9975745468782248"><ele>176.0</ele><time>2026-04-06T12:26:08Z</time></trkpt><trkpt lat="48.406515653961954" lon="-0.9979377746480294"><ele>176.0</ele><time>2026-04-06T12:26:09Z</time></trkpt><trkpt lat="48.406468654215864" lon="-0.9983075241560623"><ele>175.0</ele><time>2026-04-06T12:26:10Z</time></trkpt><trkpt lat="48.406432649935205" lon="-0.9986831907579469"><ele>174.0</ele><time>2026-04-06T12:26:11Z</time></trkpt><trkpt lat="48.40638820324834" lon="-0.9990473609811956"><ele>173.0</ele><time>2026-04-06T12:26:12Z</time></trkpt><trkpt lat="48.40633728669384" lon="-0.9993842767443288"><ele>172.0</ele><time>2026-04-06T12:26:13Z</time></trkpt><trkpt lat="48.406271891574335" lon="-0.9997046547525331"><ele>171.5</ele><time>2026-04-06T12:26:14Z</time></trkpt><trkpt lat="48.40619713101373" lon="-1.0000244635544209"><ele>171.0</ele><time>2026-04-06T12:26:15Z</time></trkpt><trkpt lat="48.40611794211474" lon="-1.00034391653122"><ele>171.0</ele><time>2026-04-06T12:26:16Z</time></trkpt><trkpt lat="48.406043796174544" lon="-1.0006611623188189"><ele>171.0</ele><time>2026-04-06T12:26:17Z</time></trkpt><trkpt lat="48.405958665249166" lon="-1.0009847908827925"><ele>170.5</ele><time>2026-04-06T12:26:18Z</time></trkpt><trkpt lat="48.405876921425104" lon="-1.001307710875574"><ele>170.0</ele><time>2026-04-06T12:26:19Z</time></trkpt><trkpt lat="48.40579161671992" lon="-1.0016318383607834"><ele>169.0</ele><time>2026-04-06T12:26:20Z</time></trkpt><trkpt lat="48.405719476756396" lon="-1.0019521974491281"><ele>168.0</ele><time>2026-04-06T12:26:21Z</time></trkpt><trkpt lat="48.40563329974887" lon="-1.0022796026114913"><ele>168.0</ele><time>2026-04-06T12:26:22Z</time></trkpt><trkpt lat="48.40554307259457" lon="-1.0026077802802806"><ele>168.0</ele><time>2026-04-06T12:26:23Z</time></trkpt><trkpt lat="48.405473228746985" lon="-1.0029603144601233"><ele>169.5</ele><time>2026-04-06T12:26:24Z</time></trkpt><trkpt lat="48.40540014311284" lon="-1.00328449802183"><ele>171.0</ele><time>2026-04-06T12:26:25Z</time></trkpt><trkpt lat="48.40536013280291" lon="-1.0036212838105647"><ele>171.5</ele><time>2026-04-06T12:26:26Z</time></trkpt><trkpt lat="48.40530931782146" lon="-1.003944968559643"><ele>172.0</ele><time>2026-04-06T12:26:27Z</time></trkpt><trkpt lat="48.405259376969376" lon="-1.0042835215371442"><ele>172.5</ele><time>2026-04-06T12:26:28Z</time></trkpt><trkpt lat="48.40520833821514" lon="-1.004622868182159"><ele>173.0</ele><time>2026-04-06T12:26:29Z</time></trkpt><trkpt lat="48.40516160350371" lon="-1.0049520154084794"><ele>173.0</ele><time>2026-04-06T12:26:30Z</time></trkpt><trkpt lat="48.40511900826867" lon="-1.0052903553921937"><ele>173.0</ele><time>2026-04-06T12:26:31Z</time></trkpt><trkpt lat="48.4050743237845" lon="-1.0056256650536615"><ele>172.5</ele><time>2026-04-06T12:26:32Z</time></trkpt><trkpt lat="48.40502658962358" lon="-1.0059614943712567"><ele>172.0</ele><time>2026-04-06T12:26:33Z</time></trkpt><trkpt lat="48.4049787181591" lon="-1.0062962751567446"><ele>172.0</ele><time>2026-04-06T12:26:34Z</time></trkpt><trkpt lat="48.40493950051412" lon="-1.0066427943659895"><ele>172.0</ele><time>2026-04-06T12:26:35Z</time></trkpt><trkpt lat="48.404893780686486" lon="-1.006974896134183"><ele>173.0</ele><time>2026-04-06T12:26:36Z</time></trkpt><trkpt lat="48.40484605847856" lon="-1.0073163061463701"><ele>174.0</ele><time>2026-04-06T12:26:37Z</time></trkpt><trkpt lat="48.40480045027533" lon="-1.007642264789843"><ele>174.5</ele><time>2026-04-06T12:26:38Z</time></trkpt><trkpt lat="48.40475604541938" lon="-1.0079754477707275"><ele>175.0</ele><time>2026-04-06T12:26:39Z</time></trkpt><trkpt lat="48.40471031691397" lon="-1.0083069453531157"><ele>174.5</ele><time>2026-04-06T12:26:40Z</time></trkpt><trkpt lat="48.40466409075584" lon="-1.008640973056425"><ele>174.0</ele><time>2026-04-06T12:26:41Z</time></trkpt><trkpt lat="48.404620164340464" lon="-1.0089729866991488"><ele>175.5</ele><time>2026-04-06T12:26:42Z</time></trkpt><trkpt lat="48.40457479480656" lon="-1.0093105670337248"><ele>177.0</ele><time>2026-04-06T12:26:43Z</time></trkpt><trkpt lat="48.404527105326444" lon="-1.009648725077527"><ele>177.0</ele><time>2026-04-06T12:26:44Z</time></trkpt><trkpt lat="48.40447997709214" lon="-1.009982903412921"><ele>177.0</ele><time>2026-04-06T12:26:45Z</time></trkpt><trkpt lat="48.40443256427134" lon="-1.0103229756845784"><ele>177.0</ele><time>2026-04-06T12:26:46Z</time></trkpt><trkpt lat="48.40437926127834" lon="-1.0106620302475435"><ele>177.0</ele><time>2026-04-06T12:26:47Z</time></trkpt><trkpt lat="48.40432485242989" lon="-1.0109966955631016"><ele>178.0</ele><time>2026-04-06T12:26:48Z</time></trkpt><trkpt lat="48.404277283547074" lon="-1.011330654715062"><ele>179.0</ele><time>2026-04-06T12:26:49Z</time></trkpt><trkpt lat="48.404244344581805" lon="-1.0116669504377163"><ele>180.0</ele><time>2026-04-06T12:26:50Z</time></trkpt><trkpt lat="48.4041918203404" lon="-1.0120009762868027"><ele>181.0</ele><time>2026-04-06T12:26:51Z</time></trkpt><trkpt lat="48.40401635277912" lon="-1.0122901613435573"><ele>180.5</ele><time>2026-04-06T12:26:52Z</time></trkpt><trkpt lat="48.40390500487677" lon="-1.0126019151522188"><ele>180.0</ele><time>2026-04-06T12:26:53Z</time></trkpt><trkpt lat="48.40379493396193" lon="-1.0129192969836527"><ele>179.0</ele><time>2026-04-06T12:26:54Z</time></trkpt><trkpt lat="48.40368019699555" lon="-1.013240489500527"><ele>178.0</ele><time>2026-04-06T12:26:55Z</time></trkpt><trkpt lat="48.40356444075772" lon="-1.0135564803472947"><ele>177.5</ele><time>2026-04-06T12:26:56Z</time></trkpt><trkpt lat="48.403442690481086" lon="-1.0138711183556337"><ele>177.0</ele><time>2026-04-06T12:26:57Z</time></trkpt><trkpt lat="48.403320851831204" lon="-1.014191618384069"><ele>176.5</ele><time>2026-04-06T12:26:58Z</time></trkpt><trkpt lat="48.403201907842" lon="-1.014514508925996"><ele>176.0</ele><time>2026-04-06T12:26:59Z</time></trkpt><trkpt lat="48.4030845039738" lon="-1.0148399160828827"><ele>173.5</ele><time>2026-04-06T12:27:00Z</time></trkpt><trkpt lat="48.402965339559984" lon="-1.0151667350926312"><ele>171.0</ele><time>2026-04-06T12:27:01Z</time></trkpt><trkpt lat="48.402857636859295" lon="-1.0154988676198067"><ele>171.0</ele><time>2026-04-06T12:27:02Z</time></trkpt><trkpt lat="48.40276388089519" lon="-1.0158433591232645"><ele>171.0</ele><time>2026-04-06T12:27:03Z</time></trkpt><trkpt lat="48.402676753899485" lon="-1.0161857886700711"><ele>171.0</ele><time>2026-04-06T12:27:04Z</time></trkpt><trkpt lat="48.40259758272148" lon="-1.016526630828271"><ele>171.0</ele><time>2026-04-06T12:27:05Z</time></trkpt><trkpt lat="48.402531573926055" lon="-1.016868558569861"><ele>170.0</ele><time>2026-04-06T12:27:06Z</time></trkpt><trkpt lat="48.40247339624505" lon="-1.0172105714056578"><ele>169.0</ele><time>2026-04-06T12:27:07Z</time></trkpt><trkpt lat="48.40242465522899" lon="-1.0175565225406178"><ele>169.0</ele><time>2026-04-06T12:27:08Z</time></trkpt><trkpt lat="48.40238628370269" lon="-1.017908771956334"><ele>169.0</ele><time>2026-04-06T12:27:09Z</time></trkpt><trkpt lat="48.40235859311182" lon="-1.018267077462305"><ele>168.5</ele><time>2026-04-06T12:27:10Z</time></trkpt><trkpt lat="48.40233456735069" lon="-1.0186227903386411"><ele>168.0</ele><time>2026-04-06T12:27:11Z</time></trkpt><trkpt lat="48.40231555192321" lon="-1.0189798223062012"><ele>168.0</ele><time>2026-04-06T12:27:12Z</time></trkpt><trkpt lat="48.40231745152108" lon="-1.0193390694441238"><ele>168.0</ele><time>2026-04-06T12:27:13Z</time></trkpt><trkpt lat="48.40232222649855" lon="-1.0196948982319554"><ele>167.5</ele><time>2026-04-06T12:27:14Z</time></trkpt><trkpt lat="48.40233328304485" lon="-1.020051184127818"><ele>167.0</ele><time>2026-04-06T12:27:15Z</time></trkpt><trkpt lat="48.40236718930181" lon="-1.0204024183617482"><ele>167.0</ele><time>2026-04-06T12:27:16Z</time></trkpt><trkpt lat="48.40240005541737" lon="-1.0207545450483446"><ele>167.0</ele><time>2026-04-06T12:27:17Z</time></trkpt><trkpt lat="48.402435688309026" lon="-1.0211077046584602"><ele>168.5</ele><time>2026-04-06T12:27:18Z</time></trkpt><trkpt lat="48.40247729997035" lon="-1.0214652718418262"><ele>170.0</ele><time>2026-04-06T12:27:19Z</time></trkpt><trkpt lat="48.4025253067288" lon="-1.0218224918794192"><ele>170.5</ele><time>2026-04-06T12:27:20Z</time></trkpt><trkpt lat="48.40256879720201" lon="-1.022180969381289"><ele>171.0</ele><time>2026-04-06T12:27:21Z</time></trkpt><trkpt lat="48.40260662151775" lon="-1.0225402275818678"><ele>173.0</ele><time>2026-04-06T12:27:22Z</time></trkpt><trkpt lat="48.40264670105897" lon="-1.0228969823536689"><ele>175.0</ele><time>2026-04-06T12:27:23Z</time></trkpt><trkpt lat="48.40268669948694" lon="-1.023257715030623"><ele>176.5</ele><time>2026-04-06T12:27:24Z</time></trkpt><trkpt lat="48.40272483431199" lon="-1.0236191897105313"><ele>178.0</ele><time>2026-04-06T12:27:25Z</time></trkpt><trkpt lat="48.40275902073687" lon="-1.0239827356847706"><ele>178.5</ele><time>2026-04-06T12:27:26Z</time></trkpt><trkpt lat="48.40279105013311" lon="-1.02434933608947"><ele>179.0</ele><time>2026-04-06T12:27:27Z</time></trkpt><trkpt lat="48.40281835435456" lon="-1.0247180397603368"><ele>180.0</ele><time>2026-04-06T12:27:28Z</time></trkpt><trkpt lat="48.402843714035" lon="-1.025080472691002"><ele>181.0</ele><time>2026-04-06T12:27:29Z</time></trkpt><trkpt lat="48.402866576569195" lon="-1.0254431648860365"><ele>181.0</ele><time>2026-04-06T12:27:30Z</time></trkpt><trkpt lat="48.402891337725826" lon="-1.0258039516211417"><ele>181.0</ele><time>2026-04-06T12:27:31Z</time></trkpt><trkpt lat="48.40291692448345" lon="-1.026165077422574"><ele>180.5</ele><time>2026-04-06T12:27:32Z</time></trkpt><trkpt lat="48.402946008960214" lon="-1.0265236789522791"><ele>180.0</ele><time>2026-04-06T12:27:33Z</time></trkpt><trkpt lat="48.40297559188955" lon="-1.026880517328353"><ele>180.0</ele><time>2026-04-06T12:27:34Z</time></trkpt><trkpt lat="48.402980954116686" lon="-1.027234100872934"><ele>180.0</ele><time>2026-04-06T12:27:35Z</time></trkpt><trkpt lat="48.40295524199569" lon="-1.027582483546633"><ele>180.0</ele><time>2026-04-06T12:27:36Z</time></trkpt><trkpt lat="48.40291436219431" lon="-1.0279288890880274"><ele>180.0</ele><time>2026-04-06T12:27:37Z</time></trkpt><trkpt lat="48.40287468087914" lon="-1.0282686423454852"><ele>179.0</ele><time>2026-04-06T12:27:38Z</time></trkpt><trkpt lat="48.40283507135035" lon="-1.0286071682998676"><ele>178.0</ele><time>2026-04-06T12:27:39Z</time></trkpt><trkpt lat="48.40279483896563" lon="-1.0289469559017974"><ele>179.5</ele><time>2026-04-06T12:27:40Z</time></trkpt><trkpt lat="48.40275175601586" lon="-1.0292868319641004"><ele>181.0</ele><time>2026-04-06T12:27:41Z</time></trkpt><trkpt lat="48.40271136258128" lon="-1.0296208225872556"><ele>181.0</ele><time>2026-04-06T12:27:42Z</time></trkpt><trkpt lat="48.40267411296486" lon="-1.0299697993490347"><ele>181.0</ele><time>2026-04-06T12:27:43Z</time></trkpt><trkpt lat="48.402630251246194" lon="-1.0303200869775089"><ele>182.5</ele><time>2026-04-06T12:27:44Z</time></trkpt><trkpt lat="48.40258623320783" lon="-1.0306681992891304"><ele>184.0</ele><time>2026-04-06T12:27:45Z</time></trkpt><trkpt lat="48.40254432265726" lon="-1.0310184029696383"><ele>184.0</ele><time>2026-04-06T12:27:46Z</time></trkpt><trkpt lat="48.402502115360065" lon="-1.0313754126695627"><ele>184.0</ele><time>2026-04-06T12:27:47Z</time></trkpt><trkpt lat="48.40246156097311" lon="-1.031735019424213"><ele>184.5</ele><time>2026-04-06T12:27:48Z</time></trkpt><trkpt lat="48.40241898932474" lon="-1.0320962654353065"><ele>185.0</ele><time>2026-04-06T12:27:49Z</time></trkpt><trkpt lat="48.40237349714213" lon="-1.0324542212380041"><ele>185.5</ele><time>2026-04-06T12:27:50Z</time></trkpt><trkpt lat="48.40232727757001" lon="-1.0328109855813348"><ele>186.0</ele><time>2026-04-06T12:27:51Z</time></trkpt><trkpt lat="48.40228318827941" lon="-1.0331672064811448"><ele>186.5</ele><time>2026-04-06T12:27:52Z</time></trkpt><trkpt lat="48.40224204116433" lon="-1.0335279580685135"><ele>187.0</ele><time>2026-04-06T12:27:53Z</time></trkpt><trkpt lat="48.402200274921235" lon="-1.033882764335768"><ele>187.5</ele><time>2026-04-06T12:27:54Z</time></trkpt><trkpt lat="48.40215689889061" lon="-1.0342323701229192"><ele>188.0</ele><time>2026-04-06T12:27:55Z</time></trkpt><trkpt lat="48.4021150696934" lon="-1.034580338879653"><ele>188.0</ele><time>2026-04-06T12:27:56Z</time></trkpt><trkpt lat="48.40207116375762" lon="-1.0349264466511097"><ele>188.0</ele><time>2026-04-06T12:27:57Z</time></trkpt><trkpt lat="48.40202806371436" lon="-1.0352735063480416"><ele>189.0</ele><time>2026-04-06T12:27:58Z</time></trkpt><trkpt lat="48.40198783601134" lon="-1.0356229867389"><ele>190.0</ele><time>2026-04-06T12:27:59Z</time></trkpt><trkpt lat="48.40194602207735" lon="-1.0359702789532508"><ele>190.0</ele><time>2026-04-06T12:28:00Z</time></trkpt><trkpt lat="48.401907191662175" lon="-1.0363096982436093"><ele>190.0</ele><time>2026-04-06T12:28:01Z</time></trkpt><trkpt lat="48.401863902633366" lon="-1.036656063726152"><ele>189.5</ele><time>2026-04-06T12:28:02Z</time></trkpt><trkpt lat="48.40182189939777" lon="-1.0370046277460265"><ele>189.0</ele><time>2026-04-06T12:28:03Z</time></trkpt><trkpt lat="48.40177896218659" lon="-1.0373527342955566"><ele>190.0</ele><time>2026-04-06T12:28:04Z</time></trkpt><trkpt lat="48.40173499269993" lon="-1.0377092439188678"><ele>191.0</ele><time>2026-04-06T12:28:05Z</time></trkpt><trkpt lat="48.401688678815646" lon="-1.0380590545881636"><ele>191.0</ele><time>2026-04-06T12:28:06Z</time></trkpt><trkpt lat="48.40164625269996" lon="-1.0384099350861955"><ele>191.0</ele><time>2026-04-06T12:28:07Z</time></trkpt><trkpt lat="48.401604095802526" lon="-1.0387593693994481"><ele>191.0</ele><time>2026-04-06T12:28:08Z</time></trkpt><trkpt lat="48.401560386473626" lon="-1.039109194806268"><ele>191.0</ele><time>2026-04-06T12:28:09Z</time></trkpt><trkpt lat="48.401517794146805" lon="-1.039458215510329"><ele>190.66666666666666</ele><time>2026-04-06T12:28:10Z</time></trkpt><trkpt lat="48.40148239922001" lon="-1.0397785146246725"><ele>190.33333333333334</ele><time>2026-04-06T12:28:11Z</time></trkpt><trkpt lat="48.40144612844224" lon="-1.0400934774882573"><ele>190.0</ele><time>2026-04-06T12:28:12Z</time></trkpt><trkpt lat="48.40141081294757" lon="-1.0403960102755476"><ele>190.0</ele><time>2026-04-06T12:28:13Z</time></trkpt><trkpt lat="48.40136904094463" lon="-1.0406950804034965"><ele>190.0</ele><time>2026-04-06T12:28:14Z</time></trkpt><trkpt lat="48.40133995843771" lon="-1.0409763463639676"><ele>190.0</ele><time>2026-04-06T12:28:15Z</time></trkpt><trkpt lat="48.401306881799734" lon="-1.0412424780462854"><ele>190.0</ele><time>2026-04-06T12:28:16Z</time></trkpt><trkpt lat="48.40127027348166" lon="-1.041500726872797"><ele>190.0</ele><time>2026-04-06T12:28:17Z</time></trkpt><trkpt lat="48.40123651929939" lon="-1.0417422778938867"><ele>190.0</ele><time>2026-04-06T12:28:18Z</time></trkpt><trkpt lat="48.40121865029601" lon="-1.0419784599998427"><ele>190.0</ele><time>2026-04-06T12:28:19Z</time></trkpt><trkpt lat="48.40119041168266" lon="-1.0421966612881712"><ele>190.0</ele><time>2026-04-06T12:28:20Z</time></trkpt><trkpt lat="48.40114941777142" lon="-1.0423944669611718"><ele>190.0</ele><time>2026-04-06T12:28:21Z</time></trkpt><trkpt lat="48.401129631162576" lon="-1.042596504643017"><ele>190.0</ele><time>2026-04-06T12:28:22Z</time></trkpt><trkpt lat="48.40110698013006" lon="-1.042772637333019"><ele>189.85714285714286</ele><time>2026-04-06T12:28:23Z</time></trkpt><trkpt lat="48.40109038285242" lon="-1.0429044506864285"><ele>189.71428571428572</ele><time>2026-04-06T12:28:24Z</time></trkpt><trkpt lat="48.40108401922401" lon="-1.0430160196058351"><ele>189.57142857142856</ele><time>2026-04-06T12:28:25Z</time></trkpt><trkpt lat="48.40106757037594" lon="-1.0431287088954848"><ele>189.42857142857144</ele><time>2026-04-06T12:28:26Z</time></trkpt><trkpt lat="48.40105177603429" lon="-1.0432311851454321"><ele>189.28571428571428</ele><time>2026-04-06T12:28:27Z</time></trkpt><trkpt lat="48.40104049706507" lon="-1.0433295791144883"><ele>189.14285714285714</ele><time>2026-04-06T12:28:28Z</time></trkpt><trkpt lat="48.401026931896034" lon="-1.0434260938449047"><ele>189.0</ele><time>2026-04-06T12:28:29Z</time></trkpt><trkpt lat="48.40101252068929" lon="-1.0435282271366284"><ele>188.75</ele><time>2026-04-06T12:28:30Z</time></trkpt><trkpt lat="48.40101505481091" lon="-1.0436470731763807"><ele>188.5</ele><time>2026-04-06T12:28:31Z</time></trkpt><trkpt lat="48.40099515653447" lon="-1.0438120821469155"><ele>188.25</ele><time>2026-04-06T12:28:32Z</time></trkpt><trkpt lat="48.40096850726759" lon="-1.044027274136026"><ele>188.0</ele><time>2026-04-06T12:28:33Z</time></trkpt><trkpt lat="48.40093576346502" lon="-1.0442833057131635"><ele>188.0</ele><time>2026-04-06T12:28:34Z</time></trkpt><trkpt lat="48.40090694720732" lon="-1.0445086268887807"><ele>188.0</ele><time>2026-04-06T12:28:35Z</time></trkpt><trkpt lat="48.40087727306638" lon="-1.04474065607737"><ele>188.0</ele><time>2026-04-06T12:28:36Z</time></trkpt><trkpt lat="48.4008491347358" lon="-1.0449606763836912"><ele>188.5</ele><time>2026-04-06T12:28:37Z</time></trkpt><trkpt lat="48.400821475735576" lon="-1.0451797742112978"><ele>189.0</ele><time>2026-04-06T12:28:38Z</time></trkpt><trkpt lat="48.40079724702611" lon="-1.0453835384484071"><ele>189.5</ele><time>2026-04-06T12:28:39Z</time></trkpt><trkpt lat="48.40077338632289" lon="-1.0455842077377389"><ele>190.0</ele><time>2026-04-06T12:28:40Z</time></trkpt><trkpt lat="48.40075104917126" lon="-1.045772063922136"><ele>190.0</ele><time>2026-04-06T12:28:41Z</time></trkpt><trkpt lat="48.40072925583381" lon="-1.0459553466567793"><ele>190.0</ele><time>2026-04-06T12:28:42Z</time></trkpt><trkpt lat="48.400706270780866" lon="-1.0461288600547969"><ele>190.0</ele><time>2026-04-06T12:28:43Z</time></trkpt><trkpt lat="48.400684730765924" lon="-1.046295725262677"><ele>190.0</ele><time>2026-04-06T12:28:44Z</time></trkpt><trkpt lat="48.40066447768954" lon="-1.0464541542086192"><ele>190.0</ele><time>2026-04-06T12:28:45Z</time></trkpt><trkpt lat="48.40064868825312" lon="-1.0465969973726499"><ele>190.0</ele><time>2026-04-06T12:28:46Z</time></trkpt><trkpt lat="48.40064231092725" lon="-1.0467357271589635"><ele>190.0</ele><time>2026-04-06T12:28:47Z</time></trkpt><trkpt lat="48.400719606767225" lon="-1.0468374482028333"><ele>190.0</ele><time>2026-04-06T12:28:48Z</time></trkpt><trkpt lat="48.40077518795723" lon="-1.0469631760538982"><ele>190.0</ele><time>2026-04-06T12:28:49Z</time></trkpt><trkpt lat="48.40083658040568" lon="-1.0470855478269114"><ele>190.0</ele><time>2026-04-06T12:28:50Z</time></trkpt><trkpt lat="48.40090135913471" lon="-1.047202656091105"><ele>190.0</ele><time>2026-04-06T12:28:51Z</time></trkpt><trkpt lat="48.40097057044867" lon="-1.047324891222605"><ele>190.0</ele><time>2026-04-06T12:28:52Z</time></trkpt><trkpt lat="48.40100096639094" lon="-1.0474992022302845"><ele>190.0</ele><time>2026-04-06T12:28:53Z</time></trkpt><trkpt lat="48.40105117050274" lon="-1.047640286634246"><ele>190.0</ele><time>2026-04-06T12:28:54Z</time></trkpt><trkpt lat="48.40110114153014" lon="-1.0477709032406337"><ele>190.0</ele><time>2026-04-06T12:28:55Z</time></trkpt><trkpt lat="48.401184703618966" lon="-1.0478571765980464"><ele>190.0</ele><time>2026-04-06T12:28:56Z</time></trkpt><trkpt lat="48.40129368922993" lon="-1.0478641943087137"><ele>190.0</ele><time>2026-04-06T12:28:57Z</time></trkpt><trkpt lat="48.40139242319533" lon="-1.0478460444720579"><ele>190.0</ele><time>2026-04-06T12:28:58Z</time></trkpt><trkpt lat="48.40150214316861" lon="-1.0478167435687458"><ele>190.0</ele><time>2026-04-06T12:28:59Z</time></trkpt><trkpt lat="48.40162121413476" lon="-1.0477796952675973"><ele>190.25</ele><time>2026-04-06T12:29:00Z</time></trkpt><trkpt lat="48.40174084571004" lon="-1.0477346410370205"><ele>190.5</ele><time>2026-04-06T12:29:01Z</time></trkpt><trkpt lat="48.40186660627305" lon="-1.047689468138973"><ele>190.75</ele><time>2026-04-06T12:29:02Z</time></trkpt><trkpt lat="48.40200698649761" lon="-1.0476631817265294"><ele>191.0</ele><time>2026-04-06T12:29:03Z</time></trkpt><trkpt lat="48.402156164007714" lon="-1.0477004479166019"><ele>190.66666666666666</ele><time>2026-04-06T12:29:04Z</time></trkpt><trkpt lat="48.4023063144128" lon="-1.0477835073077166"><ele>190.33333333333334</ele><time>2026-04-06T12:29:05Z</time></trkpt><trkpt lat="48.40245399656948" lon="-1.047854675577028"><ele>190.0</ele><time>2026-04-06T12:29:06Z</time></trkpt><trkpt lat="48.402602844003866" lon="-1.0478867985996276"><ele>190.0</ele><time>2026-04-06T12:29:07Z</time></trkpt><trkpt lat="48.402745121853755" lon="-1.0479128154953303"><ele>190.0</ele><time>2026-04-06T12:29:08Z</time></trkpt><trkpt lat="48.40287981389552" lon="-1.0479374556007068"><ele>190.0</ele><time>2026-04-06T12:29:09Z</time></trkpt><trkpt lat="48.40301187148419" lon="-1.0479657889737437"><ele>190.0</ele><time>2026-04-06T12:29:10Z</time></trkpt><trkpt lat="48.403136768511466" lon="-1.04805108833344"><ele>190.0</ele><time>2026-04-06T12:29:11Z</time></trkpt><trkpt lat="48.403216298828674" lon="-1.0482452460536702"><ele>190.0</ele><time>2026-04-06T12:29:12Z</time></trkpt><trkpt lat="48.40329435931719" lon="-1.048436027736829"><ele>190.0</ele><time>2026-04-06T12:29:13Z</time></trkpt><trkpt lat="48.403378561902244" lon="-1.0486804678665678"><ele>189.66666666666669</ele><time>2026-04-06T12:29:14Z</time></trkpt><trkpt lat="48.40348069304588" lon="-1.0489394982857239"><ele>189.33333333333334</ele><time>2026-04-06T12:29:15Z</time></trkpt><trkpt lat="48.403616364669496" lon="-1.0491801233820919"><ele>189.0</ele><time>2026-04-06T12:29:16Z</time></trkpt><trkpt lat="48.40374655524484" lon="-1.0494235582721776"><ele>189.0</ele><time>2026-04-06T12:29:17Z</time></trkpt><trkpt lat="48.40390419247168" lon="-1.0496156327380204"><ele>189.0</ele><time>2026-04-06T12:29:18Z</time></trkpt><trkpt lat="48.40408004045059" lon="-1.0497585277982253"><ele>189.0</ele><time>2026-04-06T12:29:19Z</time></trkpt><trkpt lat="48.40426067818414" lon="-1.0498680787353805"><ele>189.0</ele><time>2026-04-06T12:29:20Z</time></trkpt><trkpt lat="48.40446722368405" lon="-1.0498999525516484"><ele>189.0</ele><time>2026-04-06T12:29:21Z</time></trkpt><trkpt lat="48.4046746033715" lon="-1.049973409654344"><ele>189.0</ele><time>2026-04-06T12:29:22Z</time></trkpt><trkpt lat="48.404881247577734" lon="-1.0500359357704618"><ele>189.66666666666666</ele><time>2026-04-06T12:29:23Z</time></trkpt><trkpt lat="48.40510037053012" lon="-1.0501039045605878"><ele>190.33333333333331</ele><time>2026-04-06T12:29:24Z</time></trkpt><trkpt lat="48.405300474888165" lon="-1.0501995345704982"><ele>191.0</ele><time>2026-04-06T12:29:25Z</time></trkpt><trkpt lat="48.405502314205755" lon="-1.0502963701380224"><ele>191.0</ele><time>2026-04-06T12:29:26Z</time></trkpt><trkpt lat="48.40570659705823" lon="-1.050401800792918"><ele>191.0</ele><time>2026-04-06T12:29:27Z</time></trkpt><trkpt lat="48.405908750777684" lon="-1.0505094458424813"><ele>191.0</ele><time>2026-04-06T12:29:28Z</time></trkpt><trkpt lat="48.40611283293495" lon="-1.050620310662086"><ele>191.0</ele><time>2026-04-06T12:29:29Z</time></trkpt><trkpt lat="48.40631934587593" lon="-1.0507342793883134"><ele>191.0</ele><time>2026-04-06T12:29:30Z</time></trkpt><trkpt lat="48.406527282081385" lon="-1.0508489479617569"><ele>191.0</ele><time>2026-04-06T12:29:31Z</time></trkpt><trkpt lat="48.40673461122617" lon="-1.050962075999856"><ele>192.33333333333331</ele><time>2026-04-06T12:29:32Z</time></trkpt><trkpt lat="48.40694395299258" lon="-1.0510763044663802"><ele>193.66666666666666</ele><time>2026-04-06T12:29:33Z</time></trkpt><trkpt lat="48.40715256984041" lon="-1.0511901688168466"><ele>195.0</ele><time>2026-04-06T12:29:34Z</time></trkpt><trkpt lat="48.40736019699796" lon="-1.051303042685248"><ele>195.66666666666669</ele><time>2026-04-06T12:29:35Z</time></trkpt><trkpt lat="48.40756861248951" lon="-1.051413271079552"><ele>196.33333333333334</ele><time>2026-04-06T12:29:36Z</time></trkpt><trkpt lat="48.4077773335331" lon="-1.0515246276064403"><ele>197.0</ele><time>2026-04-06T12:29:37Z</time></trkpt><trkpt lat="48.40798470667746" lon="-1.051642297157579"><ele>198.66666666666669</ele><time>2026-04-06T12:29:38Z</time></trkpt><trkpt lat="48.40818853444856" lon="-1.0517714734589723"><ele>200.33333333333331</ele><time>2026-04-06T12:29:39Z</time></trkpt><trkpt lat="48.40839059391706" lon="-1.051916026045703"><ele>202.0</ele><time>2026-04-06T12:29:40Z</time></trkpt><trkpt lat="48.40859443365308" lon="-1.0520672033979395"><ele>202.0</ele><time>2026-04-06T12:29:41Z</time></trkpt><trkpt lat="48.408796994788815" lon="-1.0522176656031041"><ele>202.0</ele><time>2026-04-06T12:29:42Z</time></trkpt><trkpt lat="48.4089974630673" lon="-1.0523665732301697"><ele>202.0</ele><time>2026-04-06T12:29:43Z</time></trkpt><trkpt lat="48.409197709678054" lon="-1.0525153162060448"><ele>204.0</ele><time>2026-04-06T12:29:44Z</time></trkpt><trkpt lat="48.40939965627668" lon="-1.0526653219351065"><ele>206.0</ele><time>2026-04-06T12:29:45Z</time></trkpt><trkpt lat="48.40960196334982" lon="-1.0528146152780165"><ele>204.5</ele><time>2026-04-06T12:29:46Z</time></trkpt><trkpt lat="48.40980469932767" lon="-1.0529640378604552"><ele>203.0</ele><time>2026-04-06T12:29:47Z</time></trkpt><trkpt lat="48.41000919480371" lon="-1.0531147572536657"><ele>203.0</ele><time>2026-04-06T12:29:48Z</time></trkpt><trkpt lat="48.410206832621604" lon="-1.0532863537536485"><ele>203.0</ele><time>2026-04-06T12:29:49Z</time></trkpt><trkpt lat="48.410415647734986" lon="-1.0534372270046057"><ele>203.0</ele><time>2026-04-06T12:29:50Z</time></trkpt><trkpt lat="48.410623847031765" lon="-1.0535883071232317"><ele>203.0</ele><time>2026-04-06T12:29:51Z</time></trkpt><trkpt lat="48.41083602195518" lon="-1.0537372445226212"><ele>203.0</ele><time>2026-04-06T12:29:52Z</time></trkpt><trkpt lat="48.4110472122185" lon="-1.053885861255163"><ele>203.0</ele><time>2026-04-06T12:29:53Z</time></trkpt><trkpt lat="48.41125806790347" lon="-1.054038732199856"><ele>203.5</ele><time>2026-04-06T12:29:54Z</time></trkpt><trkpt lat="48.411478720239266" lon="-1.054160151960554"><ele>204.0</ele><time>2026-04-06T12:29:55Z</time></trkpt><trkpt lat="48.411703276379505" lon="-1.0542672636547858"><ele>204.0</ele><time>2026-04-06T12:29:56Z</time></trkpt><trkpt lat="48.411931506260046" lon="-1.0543575245734618"><ele>204.0</ele><time>2026-04-06T12:29:57Z</time></trkpt><trkpt lat="48.41216262002846" lon="-1.0544136807825566"><ele>203.33333333333331</ele><time>2026-04-06T12:29:58Z</time></trkpt><trkpt lat="48.41238683558133" lon="-1.0544450486821573"><ele>202.66666666666666</ele><time>2026-04-06T12:29:59Z</time></trkpt><trkpt lat="48.41260784640923" lon="-1.0545003243932767"><ele>202.0</ele><time>2026-04-06T12:30:00Z</time></trkpt><trkpt lat="48.4128287068206" lon="-1.054567228335886"><ele>201.66666666666666</ele><time>2026-04-06T12:30:01Z</time></trkpt><trkpt lat="48.413045465978676" lon="-1.0546446152072766"><ele>201.33333333333331</ele><time>2026-04-06T12:30:02Z</time></trkpt><trkpt lat="48.41326105666122" lon="-1.054723539715182"><ele>201.0</ele><time>2026-04-06T12:30:03Z</time></trkpt><trkpt lat="48.41347688622238" lon="-1.0548044147933608"><ele>201.0</ele><time>2026-04-06T12:30:04Z</time></trkpt><trkpt lat="48.4136930534337" lon="-1.0548948899839903"><ele>201.0</ele><time>2026-04-06T12:30:05Z</time></trkpt><trkpt lat="48.41390846923669" lon="-1.0550053752514992"><ele>201.0</ele><time>2026-04-06T12:30:06Z</time></trkpt><trkpt lat="48.414111747070535" lon="-1.0551648089841075"><ele>201.0</ele><time>2026-04-06T12:30:07Z</time></trkpt><trkpt lat="48.41431015516389" lon="-1.0553165157833078"><ele>201.0</ele><time>2026-04-06T12:30:08Z</time></trkpt><trkpt lat="48.41451098736508" lon="-1.0554760421824159"><ele>201.0</ele><time>2026-04-06T12:30:09Z</time></trkpt><trkpt lat="48.41471285420768" lon="-1.0556522595414988"><ele>200.5</ele><time>2026-04-06T12:30:10Z</time></trkpt><trkpt lat="48.41491624691804" lon="-1.0558153737011646"><ele>200.0</ele><time>2026-04-06T12:30:11Z</time></trkpt><trkpt lat="48.41512304925484" lon="-1.0559759552403705"><ele>200.0</ele><time>2026-04-06T12:30:12Z</time></trkpt><trkpt lat="48.41533039986973" lon="-1.056142301591848"><ele>200.0</ele><time>2026-04-06T12:30:13Z</time></trkpt><trkpt lat="48.41553834638143" lon="-1.0563119336976188"><ele>199.5</ele><time>2026-04-06T12:30:14Z</time></trkpt><trkpt lat="48.41574744716102" lon="-1.0564869312410998"><ele>199.0</ele><time>2026-04-06T12:30:15Z</time></trkpt><trkpt lat="48.41594710395398" lon="-1.0566595066469167"><ele>197.5</ele><time>2026-04-06T12:30:16Z</time></trkpt><trkpt lat="48.416151504921984" lon="-1.0568199625973091"><ele>196.0</ele><time>2026-04-06T12:30:17Z</time></trkpt><trkpt lat="48.4163550296934" lon="-1.0569887502084327"><ele>195.5</ele><time>2026-04-06T12:30:18Z</time></trkpt><trkpt lat="48.41656018322355" lon="-1.0571593632012104"><ele>195.0</ele><time>2026-04-06T12:30:19Z</time></trkpt><trkpt lat="48.416768370603194" lon="-1.0573301055049333"><ele>194.0</ele><time>2026-04-06T12:30:20Z</time></trkpt><trkpt lat="48.41697736957708" lon="-1.0574966122011236"><ele>193.0</ele><time>2026-04-06T12:30:21Z</time></trkpt><trkpt lat="48.417184000510545" lon="-1.0576647830548447"><ele>193.0</ele><time>2026-04-06T12:30:22Z</time></trkpt><trkpt lat="48.417387122746625" lon="-1.0578341685393085"><ele>193.0</ele><time>2026-04-06T12:30:23Z</time></trkpt><trkpt lat="48.41759072251887" lon="-1.0579998962804262"><ele>193.0</ele><time>2026-04-06T12:30:24Z</time></trkpt><trkpt lat="48.41779652637365" lon="-1.0581566433860359"><ele>193.0</ele><time>2026-04-06T12:30:25Z</time></trkpt><trkpt lat="48.41800896758549" lon="-1.0582916495245915"><ele>191.0</ele><time>2026-04-06T12:30:26Z</time></trkpt><trkpt lat="48.41822987351351" lon="-1.0583967436324015"><ele>189.0</ele><time>2026-04-06T12:30:27Z</time></trkpt><trkpt lat="48.41845152526416" lon="-1.0584951140172802"><ele>189.0</ele><time>2026-04-06T12:30:28Z</time></trkpt><trkpt lat="48.418672880253034" lon="-1.0585973405952895"><ele>189.0</ele><time>2026-04-06T12:30:29Z</time></trkpt><trkpt lat="48.418891975488364" lon="-1.058694365259008"><ele>190.0</ele><time>2026-04-06T12:30:30Z</time></trkpt><trkpt lat="48.41911225429796" lon="-1.0587909907646726"><ele>191.0</ele><time>2026-04-06T12:30:31Z</time></trkpt><trkpt lat="48.41932876439993" lon="-1.0589040853187917"><ele>191.0</ele><time>2026-04-06T12:30:32Z</time></trkpt><trkpt lat="48.419539349113556" lon="-1.0590494201483387"><ele>191.0</ele><time>2026-04-06T12:30:33Z</time></trkpt><trkpt lat="48.419746471314475" lon="-1.0591999973665325"><ele>190.0</ele><time>2026-04-06T12:30:34Z</time></trkpt><trkpt lat="48.419957820725244" lon="-1.0593466566093819"><ele>189.0</ele><time>2026-04-06T12:30:35Z</time></trkpt><trkpt lat="48.42016999726456" lon="-1.0595042251052493"><ele>189.0</ele><time>2026-04-06T12:30:36Z</time></trkpt><trkpt lat="48.4203823551889" lon="-1.0596548613915164"><ele>189.0</ele><time>2026-04-06T12:30:37Z</time></trkpt><trkpt lat="48.4205927187039" lon="-1.0598070665977186"><ele>189.5</ele><time>2026-04-06T12:30:38Z</time></trkpt><trkpt lat="48.42080112579884" lon="-1.0599621122817746"><ele>190.0</ele><time>2026-04-06T12:30:39Z</time></trkpt><trkpt lat="48.42100113870361" lon="-1.0601374958127971"><ele>190.0</ele><time>2026-04-06T12:30:40Z</time></trkpt><trkpt lat="48.421186152488005" lon="-1.0603389431884378"><ele>190.0</ele><time>2026-04-06T12:30:41Z</time></trkpt><trkpt lat="48.42135864708831" lon="-1.0605621946524926"><ele>190.5</ele><time>2026-04-06T12:30:42Z</time></trkpt><trkpt lat="48.42151983251682" lon="-1.060812291771585"><ele>191.0</ele><time>2026-04-06T12:30:43Z</time></trkpt><trkpt lat="48.42167563731167" lon="-1.0610808656539368"><ele>191.0</ele><time>2026-04-06T12:30:44Z</time></trkpt><trkpt lat="48.42182385606125" lon="-1.061352976274695"><ele>191.0</ele><time>2026-04-06T12:30:45Z</time></trkpt><trkpt lat="48.421957564537976" lon="-1.0616428262948603"><ele>191.0</ele><time>2026-04-06T12:30:46Z</time></trkpt><trkpt lat="48.422094234391274" lon="-1.0619354018671059"><ele>191.0</ele><time>2026-04-06T12:30:47Z</time></trkpt><trkpt lat="48.422253155044615" lon="-1.0621932520328712"><ele>191.0</ele><time>2026-04-06T12:30:48Z</time></trkpt><trkpt lat="48.42242796225673" lon="-1.0624411515831962"><ele>191.0</ele><time>2026-04-06T12:30:49Z</time></trkpt><trkpt lat="48.422598364900665" lon="-1.0626879719917481"><ele>191.0</ele><time>2026-04-06T12:30:50Z</time></trkpt><trkpt lat="48.42278371395563" lon="-1.062898525243409"><ele>191.0</ele><time>2026-04-06T12:30:51Z</time></trkpt><trkpt lat="48.42299428719215" lon="-1.0630538091630994"><ele>191.0</ele><time>2026-04-06T12:30:52Z</time></trkpt><trkpt lat="48.42320713023886" lon="-1.0632000225652782"><ele>191.0</ele><time>2026-04-06T12:30:53Z</time></trkpt><trkpt lat="48.42341844001991" lon="-1.063348961402238"><ele>191.0</ele><time>2026-04-06T12:30:54Z</time></trkpt><trkpt lat="48.42363490721088" lon="-1.0634820127934816"><ele>191.0</ele><time>2026-04-06T12:30:55Z</time></trkpt><trkpt lat="48.42385679622492" lon="-1.0635877953631534"><ele>193.0</ele><time>2026-04-06T12:30:56Z</time></trkpt><trkpt lat="48.42408230602359" lon="-1.06367848950203"><ele>195.0</ele><time>2026-04-06T12:30:57Z</time></trkpt><trkpt lat="48.424306378040896" lon="-1.0637757304694495"><ele>195.0</ele><time>2026-04-06T12:30:58Z</time></trkpt><trkpt lat="48.42453021370582" lon="-1.0638786904818451"><ele>195.0</ele><time>2026-04-06T12:30:59Z</time></trkpt><trkpt lat="48.42475448589213" lon="-1.0639894072639855"><ele>195.0</ele><time>2026-04-06T12:31:00Z</time></trkpt><trkpt lat="48.42497656038058" lon="-1.0641131367644385"><ele>195.0</ele><time>2026-04-06T12:31:01Z</time></trkpt><trkpt lat="48.425191168641796" lon="-1.0642437902176674"><ele>195.0</ele><time>2026-04-06T12:31:02Z</time></trkpt><trkpt lat="48.42541161026787" lon="-1.0643554587752166"><ele>195.0</ele><time>2026-04-06T12:31:03Z</time></trkpt><trkpt lat="48.42563757449335" lon="-1.0644371997336357"><ele>196.5</ele><time>2026-04-06T12:31:04Z</time></trkpt><trkpt lat="48.42586283598923" lon="-1.0645315234768498"><ele>198.0</ele><time>2026-04-06T12:31:05Z</time></trkpt><trkpt lat="48.42609170381485" lon="-1.0646189031377722"><ele>199.5</ele><time>2026-04-06T12:31:06Z</time></trkpt><trkpt lat="48.4263231358575" lon="-1.0646955234780726"><ele>201.0</ele><time>2026-04-06T12:31:07Z</time></trkpt><trkpt lat="48.42655317980346" lon="-1.0647727231761592"><ele>201.0</ele><time>2026-04-06T12:31:08Z</time></trkpt><trkpt lat="48.426782165609275" lon="-1.0648510336992738"><ele>201.0</ele><time>2026-04-06T12:31:09Z</time></trkpt><trkpt lat="48.42700729015168" lon="-1.0649279675447005"><ele>202.0</ele><time>2026-04-06T12:31:10Z</time></trkpt><trkpt lat="48.42723562193458" lon="-1.0650015111061728"><ele>203.0</ele><time>2026-04-06T12:31:11Z</time></trkpt><trkpt lat="48.42746260960095" lon="-1.0650763284137983"><ele>203.0</ele><time>2026-04-06T12:31:12Z</time></trkpt><trkpt lat="48.42768867946047" lon="-1.0651492955103532"><ele>203.0</ele><time>2026-04-06T12:31:13Z</time></trkpt><trkpt lat="48.42791385684198" lon="-1.0652158978448827"><ele>203.66666666666669</ele><time>2026-04-06T12:31:14Z</time></trkpt><trkpt lat="48.42812297405217" lon="-1.0653006523991384"><ele>204.33333333333331</ele><time>2026-04-06T12:31:15Z</time></trkpt><trkpt lat="48.42830887398926" lon="-1.0654319814287245"><ele>205.0</ele><time>2026-04-06T12:31:16Z</time></trkpt><trkpt lat="48.42848349030867" lon="-1.0656072639139926"><ele>204.66666666666666</ele><time>2026-04-06T12:31:17Z</time></trkpt><trkpt lat="48.42865273835388" lon="-1.0658269550103496"><ele>204.33333333333331</ele><time>2026-04-06T12:31:18Z</time></trkpt><trkpt lat="48.42883338112378" lon="-1.0660263045931637"><ele>204.0</ele><time>2026-04-06T12:31:19Z</time></trkpt><trkpt lat="48.42899773393666" lon="-1.066261285435493"><ele>203.5</ele><time>2026-04-06T12:31:20Z</time></trkpt><trkpt lat="48.42917289126672" lon="-1.066474436785488"><ele>203.0</ele><time>2026-04-06T12:31:21Z</time></trkpt><trkpt lat="48.42936616836472" lon="-1.0666687876778167"><ele>203.0</ele><time>2026-04-06T12:31:22Z</time></trkpt><trkpt lat="48.42955518913619" lon="-1.0669004874783188"><ele>203.0</ele><time>2026-04-06T12:31:23Z</time></trkpt><trkpt lat="48.42976052637038" lon="-1.0670965731931745"><ele>201.0</ele><time>2026-04-06T12:31:24Z</time></trkpt><trkpt lat="48.429979185732705" lon="-1.0672837394502068"><ele>199.0</ele><time>2026-04-06T12:31:25Z</time></trkpt><trkpt lat="48.43021080856698" lon="-1.067440417862346"><ele>200.0</ele><time>2026-04-06T12:31:26Z</time></trkpt><trkpt lat="48.430423216959234" lon="-1.0676309258142032"><ele>201.0</ele><time>2026-04-06T12:31:27Z</time></trkpt><trkpt lat="48.43063395481355" lon="-1.0678008760494841"><ele>198.0</ele><time>2026-04-06T12:31:28Z</time></trkpt><trkpt lat="48.43085635568182" lon="-1.06795309231525"><ele>195.0</ele><time>2026-04-06T12:31:29Z</time></trkpt><trkpt lat="48.43104828824283" lon="-1.0681069733835225"><ele>195.0</ele><time>2026-04-06T12:31:30Z</time></trkpt><trkpt lat="48.43122857775999" lon="-1.0682371848116383"><ele>195.0</ele><time>2026-04-06T12:31:31Z</time></trkpt><trkpt lat="48.43141496518182" lon="-1.0683200967054136"><ele>195.0</ele><time>2026-04-06T12:31:32Z</time></trkpt><trkpt lat="48.431611782089306" lon="-1.0683460981360966"><ele>195.0</ele><time>2026-04-06T12:31:33Z</time></trkpt><trkpt lat="48.431819760023295" lon="-1.0683501114252993"><ele>195.0</ele><time>2026-04-06T12:31:34Z</time></trkpt><trkpt lat="48.432042160271116" lon="-1.0683562165642697"><ele>195.0</ele><time>2026-04-06T12:31:35Z</time></trkpt><trkpt lat="48.43227870318575" lon="-1.0683649378526532"><ele>192.5</ele><time>2026-04-06T12:31:36Z</time></trkpt><trkpt lat="48.43252225982501" lon="-1.0683738999459744"><ele>190.0</ele><time>2026-04-06T12:31:37Z</time></trkpt><trkpt lat="48.43278154630506" lon="-1.068377718277929"><ele>186.5</ele><time>2026-04-06T12:31:38Z</time></trkpt><trkpt lat="48.433022489026754" lon="-1.0683664302109885"><ele>183.0</ele><time>2026-04-06T12:31:39Z</time></trkpt><trkpt lat="48.43325326105888" lon="-1.0683380059709846"><ele>183.0</ele><time>2026-04-06T12:31:40Z</time></trkpt><trkpt lat="48.43348133876292" lon="-1.0683074536935189"><ele>183.0</ele><time>2026-04-06T12:31:41Z</time></trkpt><trkpt lat="48.43371488300493" lon="-1.0682761691489557"><ele>178.5</ele><time>2026-04-06T12:31:42Z</time></trkpt><trkpt lat="48.43395930119056" lon="-1.0682434279831805"><ele>174.0</ele><time>2026-04-06T12:31:43Z</time></trkpt><trkpt lat="48.43420238513342" lon="-1.0682108803378376"><ele>174.0</ele><time>2026-04-06T12:31:44Z</time></trkpt><trkpt lat="48.43444570333987" lon="-1.0681784090970894"><ele>174.0</ele><time>2026-04-06T12:31:45Z</time></trkpt><trkpt lat="48.434691383482" lon="-1.0681456226468464"><ele>173.5</ele><time>2026-04-06T12:31:46Z</time></trkpt><trkpt lat="48.434932523025125" lon="-1.0681134421525473"><ele>173.0</ele><time>2026-04-06T12:31:47Z</time></trkpt><trkpt lat="48.435177925768684" lon="-1.0680806927258737"><ele>173.0</ele><time>2026-04-06T12:31:48Z</time></trkpt><trkpt lat="48.43542255122205" lon="-1.0680480470324885"><ele>173.0</ele><time>2026-04-06T12:31:49Z</time></trkpt><trkpt lat="48.435667714574606" lon="-1.0680153295539152"><ele>173.0</ele><time>2026-04-06T12:31:50Z</time></trkpt><trkpt lat="48.435911161105004" lon="-1.0679830433607058"><ele>173.0</ele><time>2026-04-06T12:31:51Z</time></trkpt><trkpt lat="48.436153233513394" lon="-1.0679517349065104"><ele>174.0</ele><time>2026-04-06T12:31:52Z</time></trkpt><trkpt lat="48.4363888823769" lon="-1.0679216278192776"><ele>175.0</ele><time>2026-04-06T12:31:53Z</time></trkpt><trkpt lat="48.43661295174308" lon="-1.0678927713849666"><ele>175.0</ele><time>2026-04-06T12:31:54Z</time></trkpt><trkpt lat="48.43682374090562" lon="-1.0678652814481244"><ele>175.0</ele><time>2026-04-06T12:31:55Z</time></trkpt><trkpt lat="48.43701473025369" lon="-1.067840373680732"><ele>175.0</ele><time>2026-04-06T12:31:56Z</time></trkpt><trkpt lat="48.43719619071825" lon="-1.067816708618259"><ele>175.33333333333334</ele><time>2026-04-06T12:31:57Z</time></trkpt><trkpt lat="48.43736301164006" lon="-1.067794900546093"><ele>175.66666666666666</ele><time>2026-04-06T12:31:58Z</time></trkpt><trkpt lat="48.43751756803356" lon="-1.0677743459041207"><ele>176.0</ele><time>2026-04-06T12:31:59Z</time></trkpt><trkpt lat="48.43766439012827" lon="-1.0677548198550357"><ele>176.0</ele><time>2026-04-06T12:32:00Z</time></trkpt><trkpt lat="48.437808764304805" lon="-1.0677356193622702"><ele>176.0</ele><time>2026-04-06T12:32:01Z</time></trkpt><trkpt lat="48.437954995986985" lon="-1.0677161694802597"><ele>176.0</ele><time>2026-04-06T12:32:02Z</time></trkpt><trkpt lat="48.43810139280363" lon="-1.0676966999842379"><ele>176.0</ele><time>2026-04-06T12:32:03Z</time></trkpt><trkpt lat="48.43824299066717" lon="-1.067677868721054"><ele>176.0</ele><time>2026-04-06T12:32:04Z</time></trkpt><trkpt lat="48.43838901501022" lon="-1.067658448770284"><ele>176.0</ele><time>2026-04-06T12:32:05Z</time></trkpt><trkpt lat="48.43853590550671" lon="-1.0676633701150038"><ele>176.0</ele><time>2026-04-06T12:32:06Z</time></trkpt><trkpt lat="48.438678312578055" lon="-1.067619893963879"><ele>176.0</ele><time>2026-04-06T12:32:07Z</time></trkpt><trkpt lat="48.43882187413725" lon="-1.0676007391598603"><ele>176.0</ele><time>2026-04-06T12:32:08Z</time></trkpt><trkpt lat="48.43896513547655" lon="-1.0675816244113543"><ele>176.0</ele><time>2026-04-06T12:32:09Z</time></trkpt><trkpt lat="48.439106664024116" lon="-1.0675627408596893"><ele>176.0</ele><time>2026-04-06T12:32:10Z</time></trkpt><trkpt lat="48.439248618861484" lon="-1.0675438004332494"><ele>176.0</ele><time>2026-04-06T12:32:11Z</time></trkpt><trkpt lat="48.43939286343291" lon="-1.0675491720440207"><ele>176.0</ele><time>2026-04-06T12:32:12Z</time></trkpt><trkpt lat="48.43953090700288" lon="-1.0675058141059635"><ele>176.0</ele><time>2026-04-06T12:32:13Z</time></trkpt><trkpt lat="48.4396724881093" lon="-1.0674867374051438"><ele>176.0</ele><time>2026-04-06T12:32:14Z</time></trkpt><trkpt lat="48.43981483103305" lon="-1.0674675580563635"><ele>176.0</ele><time>2026-04-06T12:32:15Z</time></trkpt><trkpt lat="48.43995025117396" lon="-1.0674493114830195"><ele>175.5</ele><time>2026-04-06T12:32:16Z</time></trkpt><trkpt lat="48.44008061009292" lon="-1.067456090501076"><ele>175.0</ele><time>2026-04-06T12:32:17Z</time></trkpt><trkpt lat="48.440203648328605" lon="-1.0674342243217083"><ele>174.5</ele><time>2026-04-06T12:32:18Z</time></trkpt><trkpt lat="48.440322544475364" lon="-1.0674117170735948"><ele>174.0</ele><time>2026-04-06T12:32:19Z</time></trkpt><trkpt lat="48.440429505565845" lon="-1.0673990772064006"><ele>173.79999999999998</ele><time>2026-04-06T12:32:20Z</time></trkpt><trkpt lat="48.44052643978974" lon="-1.0673904766655513"><ele>173.6</ele><time>2026-04-06T12:32:21Z</time></trkpt><trkpt lat="48.44062107936624" lon="-1.0673735831012794"><ele>173.4</ele><time>2026-04-06T12:32:22Z</time></trkpt><trkpt lat="48.44070653863025" lon="-1.067346006951747"><ele>173.2</ele><time>2026-04-06T12:32:23Z</time></trkpt><trkpt lat="48.44077690386283" lon="-1.0673174054955965"><ele>173.0</ele><time>2026-04-06T12:32:24Z</time></trkpt><trkpt lat="48.440881208899285" lon="-1.0672701174759749"><ele>173.0</ele><time>2026-04-06T12:32:26Z</time></trkpt><trkpt lat="48.44095847508228" lon="-1.0672441381349238"><ele>173.0</ele><time>2026-04-06T12:32:28Z</time></trkpt><trkpt lat="48.44105317322134" lon="-1.067249576425949"><ele>173.0</ele><time>2026-04-06T12:32:34Z</time></trkpt><trkpt lat="48.44107543726166" lon="-1.0674835187923946"><ele>173.0</ele><time>2026-04-06T12:32:35Z</time></trkpt><trkpt lat="48.44108916216351" lon="-1.0676467089305934"><ele>173.0</ele><time>2026-04-06T12:32:36Z</time></trkpt><trkpt lat="48.441109615534494" lon="-1.0678045800100624"><ele>173.25</ele><time>2026-04-06T12:32:37Z</time></trkpt><trkpt lat="48.44113455670048" lon="-1.0679953530120043"><ele>173.5</ele><time>2026-04-06T12:32:38Z</time></trkpt><trkpt lat="48.441158250435436" lon="-1.068206533837499"><ele>173.75</ele><time>2026-04-06T12:32:39Z</time></trkpt><trkpt lat="48.44118057137987" lon="-1.0684112483793025"><ele>174.0</ele><time>2026-04-06T12:32:40Z</time></trkpt><trkpt lat="48.44120735818101" lon="-1.068640646343483"><ele>174.33333333333334</ele><time>2026-04-06T12:32:41Z</time></trkpt><trkpt lat="48.441240242963474" lon="-1.068882985063256"><ele>174.66666666666669</ele><time>2026-04-06T12:32:42Z</time></trkpt><trkpt lat="48.441278790910935" lon="-1.0691191161760143"><ele>175.0</ele><time>2026-04-06T12:32:43Z</time></trkpt><trkpt lat="48.44131854995582" lon="-1.0693450390695534"><ele>175.0</ele><time>2026-04-06T12:32:44Z</time></trkpt><trkpt lat="48.44136316049388" lon="-1.069561220384423"><ele>175.0</ele><time>2026-04-06T12:32:45Z</time></trkpt><trkpt lat="48.441411543821985" lon="-1.0697753206212095"><ele>175.0</ele><time>2026-04-06T12:32:46Z</time></trkpt><trkpt lat="48.44146494581811" lon="-1.0699835009865963"><ele>175.0</ele><time>2026-04-06T12:32:47Z</time></trkpt><trkpt lat="48.44152456115988" lon="-1.0702026607637654"><ele>174.33333333333334</ele><time>2026-04-06T12:32:48Z</time></trkpt><trkpt lat="48.441590107862645" lon="-1.070426421758107"><ele>173.66666666666666</ele><time>2026-04-06T12:32:49Z</time></trkpt><trkpt lat="48.44165461683603" lon="-1.070648608353651"><ele>173.0</ele><time>2026-04-06T12:32:50Z</time></trkpt><trkpt lat="48.441720717642774" lon="-1.07088327713289"><ele>171.33333333333331</ele><time>2026-04-06T12:32:51Z</time></trkpt><trkpt lat="48.44178694039615" lon="-1.071128782060029"><ele>169.66666666666666</ele><time>2026-04-06T12:32:52Z</time></trkpt><trkpt lat="48.44186881908468" lon="-1.0713695649971362"><ele>168.0</ele><time>2026-04-06T12:32:53Z</time></trkpt><trkpt lat="48.44192231467462" lon="-1.0716213430126418"><ele>166.33333333333334</ele><time>2026-04-06T12:32:54Z</time></trkpt><trkpt lat="48.44199055519497" lon="-1.0718624846837843"><ele>164.66666666666669</ele><time>2026-04-06T12:32:55Z</time></trkpt><trkpt lat="48.442072938760624" lon="-1.0720956083234663"><ele>163.0</ele><time>2026-04-06T12:32:56Z</time></trkpt><trkpt lat="48.442142354230924" lon="-1.0723425156090067"><ele>162.66666666666669</ele><time>2026-04-06T12:32:57Z</time></trkpt><trkpt lat="48.442211876189724" lon="-1.07258980169901"><ele>162.33333333333334</ele><time>2026-04-06T12:32:58Z</time></trkpt><trkpt lat="48.442279439873595" lon="-1.0728321319787308"><ele>162.0</ele><time>2026-04-06T12:32:59Z</time></trkpt><trkpt lat="48.44234922937257" lon="-1.0730707877326706"><ele>161.0</ele><time>2026-04-06T12:33:00Z</time></trkpt><trkpt lat="48.44241960822911" lon="-1.0733084893648204"><ele>160.0</ele><time>2026-04-06T12:33:01Z</time></trkpt><trkpt lat="48.442477244154844" lon="-1.0735572198206258"><ele>159.0</ele><time>2026-04-06T12:33:02Z</time></trkpt><trkpt lat="48.44255232881486" lon="-1.0737985846291442"><ele>159.0</ele><time>2026-04-06T12:33:03Z</time></trkpt><trkpt lat="48.44262413232162" lon="-1.074045874756972"><ele>159.0</ele><time>2026-04-06T12:33:04Z</time></trkpt><trkpt lat="48.44269765575475" lon="-1.0742933298483346"><ele>159.0</ele><time>2026-04-06T12:33:05Z</time></trkpt><trkpt lat="48.44277020008276" lon="-1.0745396120812214"><ele>157.66666666666666</ele><time>2026-04-06T12:33:06Z</time></trkpt><trkpt lat="48.44286625379199" lon="-1.0747724747265377"><ele>156.33333333333331</ele><time>2026-04-06T12:33:07Z</time></trkpt><trkpt lat="48.4429417751142" lon="-1.0750215054146688"><ele>155.0</ele><time>2026-04-06T12:33:08Z</time></trkpt><trkpt lat="48.44300444316328" lon="-1.0752778720296943"><ele>154.33333333333331</ele><time>2026-04-06T12:33:09Z</time></trkpt><trkpt lat="48.44309168538799" lon="-1.0755073023226707"><ele>153.66666666666666</ele><time>2026-04-06T12:33:10Z</time></trkpt><trkpt lat="48.44316663940102" lon="-1.0757479027695103"><ele>153.0</ele><time>2026-04-06T12:33:11Z</time></trkpt><trkpt lat="48.4432333189496" lon="-1.0759866292752702"><ele>152.33333333333334</ele><time>2026-04-06T12:33:12Z</time></trkpt><trkpt lat="48.44328318170895" lon="-1.076224245273815"><ele>151.66666666666669</ele><time>2026-04-06T12:33:13Z</time></trkpt><trkpt lat="48.44331451011955" lon="-1.0764663502159488"><ele>151.0</ele><time>2026-04-06T12:33:14Z</time></trkpt><trkpt lat="48.443330723717025" lon="-1.076702866849341"><ele>150.25</ele><time>2026-04-06T12:33:15Z</time></trkpt><trkpt lat="48.443338275605775" lon="-1.076933478274398"><ele>149.5</ele><time>2026-04-06T12:33:16Z</time></trkpt><trkpt lat="48.44332876539811" lon="-1.0771467014288802"><ele>148.75</ele><time>2026-04-06T12:33:17Z</time></trkpt><trkpt lat="48.44330801003759" lon="-1.0773299642519238"><ele>148.0</ele><time>2026-04-06T12:33:18Z</time></trkpt><trkpt lat="48.44332645364688" lon="-1.0774888280610593"><ele>148.0</ele><time>2026-04-06T12:33:19Z</time></trkpt><trkpt lat="48.44334027357099" lon="-1.077646977619614"><ele>148.0</ele><time>2026-04-06T12:33:20Z</time></trkpt><trkpt lat="48.443361255190325" lon="-1.0777759123031776"><ele>148.0</ele><time>2026-04-06T12:33:21Z</time></trkpt><trkpt lat="48.44337357893366" lon="-1.0778978047645342"><ele>148.0</ele><time>2026-04-06T12:33:22Z</time></trkpt><trkpt lat="48.44342396209156" lon="-1.0779570594790682"><ele>148.0</ele><time>2026-04-06T12:33:23Z</time></trkpt><trkpt lat="48.443487454276806" lon="-1.0780253207590655"><ele>148.0</ele><time>2026-04-06T12:33:25Z</time></trkpt><trkpt lat="48.443551307935515" lon="-1.0780678802274641"><ele>148.25</ele><time>2026-04-06T12:33:27Z</time></trkpt><trkpt lat="48.44358562326784" lon="-1.0783054419156954"><ele>148.5</ele><time>2026-04-06T12:33:32Z</time></trkpt><trkpt lat="48.443554191877354" lon="-1.0784852952095563"><ele>148.75</ele><time>2026-04-06T12:33:33Z</time></trkpt><trkpt lat="48.44352717915684" lon="-1.078724353665669"><ele>149.0</ele><time>2026-04-06T12:33:34Z</time></trkpt><trkpt lat="48.44352346636735" lon="-1.0790021075260094"><ele>148.5</ele><time>2026-04-06T12:33:35Z</time></trkpt><trkpt lat="48.44355597787681" lon="-1.0793284788448425"><ele>148.0</ele><time>2026-04-06T12:33:36Z</time></trkpt><trkpt lat="48.4435901472416" lon="-1.0797066301405567"><ele>148.5</ele><time>2026-04-06T12:33:37Z</time></trkpt><trkpt lat="48.44361758630625" lon="-1.0800954673854877"><ele>149.0</ele><time>2026-04-06T12:33:38Z</time></trkpt><trkpt lat="48.443621790353696" lon="-1.0805032361369258"><ele>150.5</ele><time>2026-04-06T12:33:39Z</time></trkpt><trkpt lat="48.44363038974161" lon="-1.0809088427514808"><ele>152.0</ele><time>2026-04-06T12:33:40Z</time></trkpt><trkpt lat="48.44361216343054" lon="-1.0813337755469732"><ele>154.5</ele><time>2026-04-06T12:33:41Z</time></trkpt><trkpt lat="48.44358205137931" lon="-1.0817678848462557"><ele>157.0</ele><time>2026-04-06T12:33:42Z</time></trkpt><trkpt lat="48.44355261023118" lon="-1.0821616427438858"><ele>159.0</ele><time>2026-04-06T12:33:43Z</time></trkpt><trkpt lat="48.44353181446919" lon="-1.082527550478188"><ele>161.0</ele><time>2026-04-06T12:33:44Z</time></trkpt><trkpt lat="48.443511888673264" lon="-1.0828726561048603"><ele>161.0</ele><time>2026-04-06T12:33:45Z</time></trkpt><trkpt lat="48.44348999238117" lon="-1.0832030717204144"><ele>161.0</ele><time>2026-04-06T12:33:46Z</time></trkpt><trkpt lat="48.44350297781938" lon="-1.0835309821833063"><ele>161.0</ele><time>2026-04-06T12:33:47Z</time></trkpt><trkpt lat="48.4435352474614" lon="-1.0838479337877296"><ele>159.5</ele><time>2026-04-06T12:33:48Z</time></trkpt><trkpt lat="48.443587670877626" lon="-1.084183740263479"><ele>158.0</ele><time>2026-04-06T12:33:49Z</time></trkpt><trkpt lat="48.443639272504534" lon="-1.0845103592966203"><ele>158.0</ele><time>2026-04-06T12:33:50Z</time></trkpt><trkpt lat="48.44369411618956" lon="-1.0848536374779782"><ele>158.0</ele><time>2026-04-06T12:33:51Z</time></trkpt><trkpt lat="48.44374027337478" lon="-1.0851864737494257"><ele>157.66666666666666</ele><time>2026-04-06T12:33:52Z</time></trkpt><trkpt lat="48.44378672349557" lon="-1.085504999900448"><ele>157.33333333333334</ele><time>2026-04-06T12:33:53Z</time></trkpt><trkpt lat="48.44384025164755" lon="-1.085845644105459"><ele>157.0</ele><time>2026-04-06T12:33:54Z</time></trkpt><trkpt lat="48.44388300760809" lon="-1.0861815273603832"><ele>157.0</ele><time>2026-04-06T12:33:55Z</time></trkpt><trkpt lat="48.44389419093625" lon="-1.0865277331121392"><ele>157.0</ele><time>2026-04-06T12:33:56Z</time></trkpt><trkpt lat="48.44389085981744" lon="-1.086860717942975"><ele>156.66666666666669</ele><time>2026-04-06T12:33:57Z</time></trkpt><trkpt lat="48.443881350431965" lon="-1.0871805564011943"><ele>156.33333333333334</ele><time>2026-04-06T12:33:58Z</time></trkpt><trkpt lat="48.44385163654247" lon="-1.0874795488937967"><ele>156.0</ele><time>2026-04-06T12:33:59Z</time></trkpt><trkpt lat="48.4437917295235" lon="-1.0877754117056126"><ele>156.0</ele><time>2026-04-06T12:34:00Z</time></trkpt><trkpt lat="48.44368980703879" lon="-1.088054599591139"><ele>156.0</ele><time>2026-04-06T12:34:01Z</time></trkpt><trkpt lat="48.44356179611868" lon="-1.088314777877587"><ele>156.0</ele><time>2026-04-06T12:34:02Z</time></trkpt><trkpt lat="48.44341082726888" lon="-1.0885691170472644"><ele>157.0</ele><time>2026-04-06T12:34:03Z</time></trkpt><trkpt lat="48.443257581781" lon="-1.0888454659428735"><ele>158.0</ele><time>2026-04-06T12:34:04Z</time></trkpt><trkpt lat="48.44311265743298" lon="-1.0891262252987486"><ele>158.5</ele><time>2026-04-06T12:34:05Z</time></trkpt><trkpt lat="48.4429775691442" lon="-1.08941116108485"><ele>159.0</ele><time>2026-04-06T12:34:06Z</time></trkpt><trkpt lat="48.442834095756034" lon="-1.089693811475647"><ele>158.0</ele><time>2026-04-06T12:34:07Z</time></trkpt><trkpt lat="48.44268983927588" lon="-1.0899750560689694"><ele>157.0</ele><time>2026-04-06T12:34:08Z</time></trkpt><trkpt lat="48.44254706422247" lon="-1.0902586447667717"><ele>157.0</ele><time>2026-04-06T12:34:09Z</time></trkpt><trkpt lat="48.44240803494579" lon="-1.0905416683570759"><ele>157.0</ele><time>2026-04-06T12:34:10Z</time></trkpt><trkpt lat="48.44227150198709" lon="-1.0908219920977287"><ele>157.0</ele><time>2026-04-06T12:34:11Z</time></trkpt><trkpt lat="48.442134944321616" lon="-1.091096714884134"><ele>157.0</ele><time>2026-04-06T12:34:12Z</time></trkpt><trkpt lat="48.441996848528326" lon="-1.0913742128969166"><ele>158.5</ele><time>2026-04-06T12:34:13Z</time></trkpt><trkpt lat="48.44185997153286" lon="-1.0916562812538815"><ele>160.0</ele><time>2026-04-06T12:34:14Z</time></trkpt><trkpt lat="48.44172282082947" lon="-1.09193790400907"><ele>160.0</ele><time>2026-04-06T12:34:15Z</time></trkpt><trkpt lat="48.44158398238228" lon="-1.0922161148447072"><ele>160.0</ele><time>2026-04-06T12:34:16Z</time></trkpt><trkpt lat="48.44144427623817" lon="-1.09249463949608"><ele>161.5</ele><time>2026-04-06T12:34:17Z</time></trkpt><trkpt lat="48.441312411561924" lon="-1.0927825297348812"><ele>163.0</ele><time>2026-04-06T12:34:18Z</time></trkpt><trkpt lat="48.4411658796764" lon="-1.0930544875729977"><ele>165.5</ele><time>2026-04-06T12:34:19Z</time></trkpt><trkpt lat="48.441029452429184" lon="-1.093337266318495"><ele>168.0</ele><time>2026-04-06T12:34:20Z</time></trkpt><trkpt lat="48.44089120727107" lon="-1.0936256399747353"><ele>168.0</ele><time>2026-04-06T12:34:21Z</time></trkpt><trkpt lat="48.44075374444242" lon="-1.0939090963755298"><ele>168.0</ele><time>2026-04-06T12:34:22Z</time></trkpt><trkpt lat="48.44061937997768" lon="-1.0941935344530278"><ele>169.5</ele><time>2026-04-06T12:34:23Z</time></trkpt><trkpt lat="48.44050535671766" lon="-1.0944974828453262"><ele>171.0</ele><time>2026-04-06T12:34:24Z</time></trkpt><trkpt lat="48.44039638556747" lon="-1.0948064289603718"><ele>172.66666666666666</ele><time>2026-04-06T12:34:25Z</time></trkpt><trkpt lat="48.44029514728229" lon="-1.095105034211962"><ele>174.33333333333331</ele><time>2026-04-06T12:34:26Z</time></trkpt><trkpt lat="48.4401904122664" lon="-1.095404691731567"><ele>176.0</ele><time>2026-04-06T12:34:27Z</time></trkpt><trkpt lat="48.440087980166" lon="-1.0956977608851457"><ele>176.66666666666666</ele><time>2026-04-06T12:34:28Z</time></trkpt><trkpt lat="48.439987513091125" lon="-1.0959852072627907"><ele>177.33333333333334</ele><time>2026-04-06T12:34:29Z</time></trkpt><trkpt lat="48.43988836752226" lon="-1.0962688895188313"><ele>178.0</ele><time>2026-04-06T12:34:30Z</time></trkpt><trkpt lat="48.43979605690218" lon="-1.096533017538949"><ele>178.66666666666669</ele><time>2026-04-06T12:34:31Z</time></trkpt><trkpt lat="48.43968810141747" lon="-1.096775074875146"><ele>179.33333333333334</ele><time>2026-04-06T12:34:32Z</time></trkpt><trkpt lat="48.43960372651392" lon="-1.0970309542108323"><ele>180.0</ele><time>2026-04-06T12:34:33Z</time></trkpt><trkpt lat="48.439531821941074" lon="-1.0972755297572072"><ele>180.66666666666666</ele><time>2026-04-06T12:34:34Z</time></trkpt><trkpt lat="48.439458497464734" lon="-1.097511042390944"><ele>181.33333333333331</ele><time>2026-04-06T12:34:35Z</time></trkpt><trkpt lat="48.43941611421358" lon="-1.097767632084797"><ele>182.0</ele><time>2026-04-06T12:34:36Z</time></trkpt><trkpt lat="48.43940095555366" lon="-1.098045069250219"><ele>182.33333333333331</ele><time>2026-04-06T12:34:37Z</time></trkpt><trkpt lat="48.43940199296355" lon="-1.0983402164658682"><ele>182.66666666666666</ele><time>2026-04-06T12:34:38Z</time></trkpt><trkpt lat="48.439405066805406" lon="-1.0986655246997503"><ele>183.0</ele><time>2026-04-06T12:34:39Z</time></trkpt><trkpt lat="48.4394006755913" lon="-1.0990164200077583"><ele>183.0</ele><time>2026-04-06T12:34:40Z</time></trkpt><trkpt lat="48.43940278418714" lon="-1.0993769182051323"><ele>183.0</ele><time>2026-04-06T12:34:41Z</time></trkpt><trkpt lat="48.43940821140783" lon="-1.099722151624346"><ele>183.0</ele><time>2026-04-06T12:34:42Z</time></trkpt><trkpt lat="48.439373371403946" lon="-1.1000662684059894"><ele>183.0</ele><time>2026-04-06T12:34:43Z</time></trkpt><trkpt lat="48.43930742435739" lon="-1.1003924696424814"><ele>183.0</ele><time>2026-04-06T12:34:44Z</time></trkpt><trkpt lat="48.439212671546805" lon="-1.100708174882554"><ele>183.0</ele><time>2026-04-06T12:34:45Z</time></trkpt><trkpt lat="48.43911200528589" lon="-1.1010274594140261"><ele>183.5</ele><time>2026-04-06T12:34:46Z</time></trkpt><trkpt lat="48.43900871305905" lon="-1.1013517705327194"><ele>184.0</ele><time>2026-04-06T12:34:47Z</time></trkpt><trkpt lat="48.438898995772995" lon="-1.101670107482337"><ele>183.5</ele><time>2026-04-06T12:34:48Z</time></trkpt><trkpt lat="48.43877583710151" lon="-1.1019659262531774"><ele>183.0</ele><time>2026-04-06T12:34:49Z</time></trkpt><trkpt lat="48.43864511912843" lon="-1.1022388819011006"><ele>183.5</ele><time>2026-04-06T12:34:50Z</time></trkpt><trkpt lat="48.438505913556135" lon="-1.1025075956668637"><ele>184.0</ele><time>2026-04-06T12:34:51Z</time></trkpt><trkpt lat="48.43836620497178" lon="-1.102770816829568"><ele>184.0</ele><time>2026-04-06T12:34:52Z</time></trkpt><trkpt lat="48.43822453406646" lon="-1.1030327760127894"><ele>184.0</ele><time>2026-04-06T12:34:53Z</time></trkpt><trkpt lat="48.43808513454591" lon="-1.1032951249292564"><ele>184.0</ele><time>2026-04-06T12:34:54Z</time></trkpt><trkpt lat="48.43794663201741" lon="-1.1035558113296866"><ele>184.33333333333334</ele><time>2026-04-06T12:34:55Z</time></trkpt><trkpt lat="48.43781213838896" lon="-1.1038142600505139"><ele>184.66666666666666</ele><time>2026-04-06T12:34:56Z</time></trkpt><trkpt lat="48.437678495610086" lon="-1.1040784308854317"><ele>185.0</ele><time>2026-04-06T12:34:57Z</time></trkpt><trkpt lat="48.43754942773534" lon="-1.1043451415186198"><ele>186.33333333333331</ele><time>2026-04-06T12:34:58Z</time></trkpt><trkpt lat="48.43743610288759" lon="-1.1046238159210064"><ele>187.66666666666666</ele><time>2026-04-06T12:34:59Z</time></trkpt><trkpt lat="48.43733632486084" lon="-1.104912998570521"><ele>189.0</ele><time>2026-04-06T12:35:00Z</time></trkpt><trkpt lat="48.437241800682884" lon="-1.1052030957827093"><ele>189.66666666666666</ele><time>2026-04-06T12:35:01Z</time></trkpt><trkpt lat="48.437151482361145" lon="-1.1054775869830429"><ele>190.33333333333331</ele><time>2026-04-06T12:35:02Z</time></trkpt><trkpt lat="48.437063550762055" lon="-1.1057561756340462"><ele>191.0</ele><time>2026-04-06T12:35:03Z</time></trkpt><trkpt lat="48.43696860492146" lon="-1.1060333591842646"><ele>191.0</ele><time>2026-04-06T12:35:04Z</time></trkpt><trkpt lat="48.43685531856492" lon="-1.1062956339991417"><ele>191.0</ele><time>2026-04-06T12:35:05Z</time></trkpt><trkpt lat="48.43671648367448" lon="-1.1065257547977465"><ele>191.0</ele><time>2026-04-06T12:35:06Z</time></trkpt><trkpt lat="48.43655439216313" lon="-1.1067283930887228"><ele>191.0</ele><time>2026-04-06T12:35:07Z</time></trkpt><trkpt lat="48.43637446590322" lon="-1.106913627829642"><ele>191.0</ele><time>2026-04-06T12:35:08Z</time></trkpt><trkpt lat="48.43618032389212" lon="-1.1071091920491956"><ele>190.5</ele><time>2026-04-06T12:35:09Z</time></trkpt><trkpt lat="48.43599231457026" lon="-1.1073178124917742"><ele>190.0</ele><time>2026-04-06T12:35:10Z</time></trkpt><trkpt lat="48.435803980678685" lon="-1.1075233157678588"><ele>190.0</ele><time>2026-04-06T12:35:11Z</time></trkpt><trkpt lat="48.43562051683541" lon="-1.1077367366324806"><ele>190.0</ele><time>2026-04-06T12:35:12Z</time></trkpt><trkpt lat="48.4354214137303" lon="-1.1079395317721548"><ele>190.5</ele><time>2026-04-06T12:35:13Z</time></trkpt><trkpt lat="48.43523480514564" lon="-1.1081552347081485"><ele>191.0</ele><time>2026-04-06T12:35:14Z</time></trkpt><trkpt lat="48.4350578610169" lon="-1.1083831700999853"><ele>191.0</ele><time>2026-04-06T12:35:15Z</time></trkpt><trkpt lat="48.434880510385106" lon="-1.1086246547745384"><ele>191.0</ele><time>2026-04-06T12:35:16Z</time></trkpt><trkpt lat="48.434702281443464" lon="-1.1088736752202086"><ele>189.0</ele><time>2026-04-06T12:35:17Z</time></trkpt><trkpt lat="48.434526165165224" lon="-1.1091332923022703"><ele>187.0</ele><time>2026-04-06T12:35:18Z</time></trkpt><trkpt lat="48.434352758867085" lon="-1.1094014566496575"><ele>187.0</ele><time>2026-04-06T12:35:19Z</time></trkpt><trkpt lat="48.434186559065395" lon="-1.109663924825633"><ele>187.0</ele><time>2026-04-06T12:35:20Z</time></trkpt><trkpt lat="48.43402479816082" lon="-1.1099198141833477"><ele>185.5</ele><time>2026-04-06T12:35:21Z</time></trkpt><trkpt lat="48.433853095366096" lon="-1.1101676197683485"><ele>184.0</ele><time>2026-04-06T12:35:22Z</time></trkpt><trkpt lat="48.433666119837525" lon="-1.1104185364479662"><ele>182.5</ele><time>2026-04-06T12:35:23Z</time></trkpt><trkpt lat="48.433469644457396" lon="-1.110651242318811"><ele>181.0</ele><time>2026-04-06T12:35:24Z</time></trkpt><trkpt lat="48.43327994737366" lon="-1.1108786345223487"><ele>180.5</ele><time>2026-04-06T12:35:25Z</time></trkpt><trkpt lat="48.43309254726887" lon="-1.1111096176823128"><ele>180.0</ele><time>2026-04-06T12:35:26Z</time></trkpt><trkpt lat="48.43290448542583" lon="-1.1113426833007212"><ele>180.0</ele><time>2026-04-06T12:35:27Z</time></trkpt><trkpt lat="48.43271150075244" lon="-1.111570148820845"><ele>180.0</ele><time>2026-04-06T12:35:28Z</time></trkpt><trkpt lat="48.43251491171911" lon="-1.1117958202325577"><ele>180.0</ele><time>2026-04-06T12:35:29Z</time></trkpt><trkpt lat="48.4323224965815" lon="-1.1120222649725604"><ele>180.0</ele><time>2026-04-06T12:35:30Z</time></trkpt><trkpt lat="48.43214198748264" lon="-1.1122705190045368"><ele>179.0</ele><time>2026-04-06T12:35:31Z</time></trkpt><trkpt lat="48.43197817407988" lon="-1.1125413490255487"><ele>178.0</ele><time>2026-04-06T12:35:32Z</time></trkpt><trkpt lat="48.43182623523277" lon="-1.1128216887650388"><ele>178.0</ele><time>2026-04-06T12:35:33Z</time></trkpt><trkpt lat="48.431679404212424" lon="-1.11310446531019"><ele>178.0</ele><time>2026-04-06T12:35:34Z</time></trkpt><trkpt lat="48.43153491426547" lon="-1.1133722891678137"><ele>178.0</ele><time>2026-04-06T12:35:35Z</time></trkpt><trkpt lat="48.43138676398799" lon="-1.1136403875841798"><ele>178.0</ele><time>2026-04-06T12:35:36Z</time></trkpt><trkpt lat="48.431236733884575" lon="-1.1139101786517773"><ele>177.0</ele><time>2026-04-06T12:35:37Z</time></trkpt><trkpt lat="48.43108484373473" lon="-1.1141829212968166"><ele>176.0</ele><time>2026-04-06T12:35:38Z</time></trkpt><trkpt lat="48.430936090999396" lon="-1.1144555037903017"><ele>176.0</ele><time>2026-04-06T12:35:39Z</time></trkpt><trkpt lat="48.4307984906748" lon="-1.1147460257519313"><ele>176.0</ele><time>2026-04-06T12:35:40Z</time></trkpt><trkpt lat="48.43064683636831" lon="-1.115022954753259"><ele>177.0</ele><time>2026-04-06T12:35:41Z</time></trkpt><trkpt lat="48.430496801175565" lon="-1.115296329080425"><ele>178.0</ele><time>2026-04-06T12:35:42Z</time></trkpt><trkpt lat="48.430346116778374" lon="-1.1155708863056069"><ele>179.5</ele><time>2026-04-06T12:35:43Z</time></trkpt><trkpt lat="48.430196460122474" lon="-1.1158444199911104"><ele>181.0</ele><time>2026-04-06T12:35:44Z</time></trkpt><trkpt lat="48.4300471224058" lon="-1.116117133339995"><ele>181.0</ele><time>2026-04-06T12:35:45Z</time></trkpt><trkpt lat="48.429897310402595" lon="-1.1163886314976808"><ele>181.0</ele><time>2026-04-06T12:35:46Z</time></trkpt><trkpt lat="48.429747138584496" lon="-1.116660781735388"><ele>182.0</ele><time>2026-04-06T12:35:47Z</time></trkpt><trkpt lat="48.429597433520435" lon="-1.116931700343332"><ele>183.0</ele><time>2026-04-06T12:35:48Z</time></trkpt><trkpt lat="48.429446692323786" lon="-1.1172003502392003"><ele>183.5</ele><time>2026-04-06T12:35:49Z</time></trkpt><trkpt lat="48.42929377608502" lon="-1.117467068334252"><ele>184.0</ele><time>2026-04-06T12:35:50Z</time></trkpt><trkpt lat="48.42914074044969" lon="-1.1177314572812556"><ele>184.0</ele><time>2026-04-06T12:35:51Z</time></trkpt><trkpt lat="48.42898604352078" lon="-1.1179947408525472"><ele>184.0</ele><time>2026-04-06T12:35:52Z</time></trkpt><trkpt lat="48.42883083332968" lon="-1.1182575907021672"><ele>184.5</ele><time>2026-04-06T12:35:53Z</time></trkpt><trkpt lat="48.42866551288215" lon="-1.118507567453292"><ele>185.0</ele><time>2026-04-06T12:35:54Z</time></trkpt><trkpt lat="48.428513183188876" lon="-1.118773663347012"><ele>185.0</ele><time>2026-04-06T12:35:55Z</time></trkpt><trkpt lat="48.42835634055693" lon="-1.1190266280850536"><ele>185.0</ele><time>2026-04-06T12:35:56Z</time></trkpt><trkpt lat="48.42821850257329" lon="-1.1192966607310666"><ele>184.5</ele><time>2026-04-06T12:35:57Z</time></trkpt><trkpt lat="48.42805946739901" lon="-1.1195387694284054"><ele>184.0</ele><time>2026-04-06T12:35:58Z</time></trkpt><trkpt lat="48.42790874796579" lon="-1.1197964350149807"><ele>184.0</ele><time>2026-04-06T12:35:59Z</time></trkpt><trkpt lat="48.42775199316447" lon="-1.1200472539241115"><ele>184.0</ele><time>2026-04-06T12:36:00Z</time></trkpt><trkpt lat="48.4275980830697" lon="-1.1203073613950039"><ele>184.0</ele><time>2026-04-06T12:36:01Z</time></trkpt><trkpt lat="48.4274446064637" lon="-1.1205700162676306"><ele>184.0</ele><time>2026-04-06T12:36:02Z</time></trkpt><trkpt lat="48.42728965687094" lon="-1.120833221774236"><ele>185.5</ele><time>2026-04-06T12:36:03Z</time></trkpt><trkpt lat="48.42713410042608" lon="-1.1211004889618732"><ele>187.0</ele><time>2026-04-06T12:36:04Z</time></trkpt><trkpt lat="48.426976363690756" lon="-1.121368725107458"><ele>187.0</ele><time>2026-04-06T12:36:05Z</time></trkpt><trkpt lat="48.42682136364736" lon="-1.1216400524867731"><ele>187.0</ele><time>2026-04-06T12:36:06Z</time></trkpt><trkpt lat="48.426667209060724" lon="-1.1219125666586585"><ele>187.0</ele><time>2026-04-06T12:36:07Z</time></trkpt><trkpt lat="48.42650258787585" lon="-1.1221902047942491"><ele>187.0</ele><time>2026-04-06T12:36:08Z</time></trkpt><trkpt lat="48.42633926670975" lon="-1.1224651253863254"><ele>187.5</ele><time>2026-04-06T12:36:09Z</time></trkpt><trkpt lat="48.426173506016056" lon="-1.122741699077059"><ele>188.0</ele><time>2026-04-06T12:36:10Z</time></trkpt><trkpt lat="48.4260079573341" lon="-1.1230157903545108"><ele>188.0</ele><time>2026-04-06T12:36:11Z</time></trkpt><trkpt lat="48.42584349895951" lon="-1.1232890067017003"><ele>188.0</ele><time>2026-04-06T12:36:12Z</time></trkpt><trkpt lat="48.425682081892774" lon="-1.1235602433104506"><ele>188.0</ele><time>2026-04-06T12:36:13Z</time></trkpt><trkpt lat="48.42552109315299" lon="-1.1238312280598848"><ele>188.0</ele><time>2026-04-06T12:36:14Z</time></trkpt><trkpt lat="48.42535955198836" lon="-1.1241006087682308"><ele>188.0</ele><time>2026-04-06T12:36:15Z</time></trkpt><trkpt lat="48.42519827693348" lon="-1.1243749096735272"><ele>188.0</ele><time>2026-04-06T12:36:16Z</time></trkpt><trkpt lat="48.4250360918986" lon="-1.1246472413883255"><ele>186.5</ele><time>2026-04-06T12:36:17Z</time></trkpt><trkpt lat="48.42487709887427" lon="-1.1249188371221144"><ele>185.0</ele><time>2026-04-06T12:36:18Z</time></trkpt><trkpt lat="48.42471681307443" lon="-1.125188132992662"><ele>186.0</ele><time>2026-04-06T12:36:19Z</time></trkpt><trkpt lat="48.42455750121256" lon="-1.125459175385615"><ele>187.0</ele><time>2026-04-06T12:36:20Z</time></trkpt><trkpt lat="48.424398029379056" lon="-1.1257310476810163"><ele>187.0</ele><time>2026-04-06T12:36:21Z</time></trkpt><trkpt lat="48.42423687303151" lon="-1.1259996931345873"><ele>187.0</ele><time>2026-04-06T12:36:22Z</time></trkpt><trkpt lat="48.424076950751946" lon="-1.1262745088524129"><ele>187.0</ele><time>2026-04-06T12:36:23Z</time></trkpt><trkpt lat="48.42391658647981" lon="-1.1265482114605598"><ele>187.0</ele><time>2026-04-06T12:36:24Z</time></trkpt><trkpt lat="48.42375380172935" lon="-1.1268208424171586"><ele>188.0</ele><time>2026-04-06T12:36:25Z</time></trkpt><trkpt lat="48.4235897637321" lon="-1.1270891568108945"><ele>189.0</ele><time>2026-04-06T12:36:26Z</time></trkpt><trkpt lat="48.42342630663206" lon="-1.1273548748682434"><ele>188.5</ele><time>2026-04-06T12:36:27Z</time></trkpt><trkpt lat="48.42326186816478" lon="-1.1276191605260721"><ele>188.0</ele><time>2026-04-06T12:36:28Z</time></trkpt><trkpt lat="48.4231145740069" lon="-1.1278986010397076"><ele>188.0</ele><time>2026-04-06T12:36:29Z</time></trkpt><trkpt lat="48.42299969062777" lon="-1.128206108030471"><ele>188.0</ele><time>2026-04-06T12:36:30Z</time></trkpt><trkpt lat="48.422912660547205" lon="-1.1285454547048208"><ele>189.0</ele><time>2026-04-06T12:36:31Z</time></trkpt><trkpt lat="48.422837294169284" lon="-1.1288867253120327"><ele>190.0</ele><time>2026-04-06T12:36:32Z</time></trkpt><trkpt lat="48.42276541840449" lon="-1.1292294728639851"><ele>190.0</ele><time>2026-04-06T12:36:33Z</time></trkpt><trkpt lat="48.42268704828291" lon="-1.1295736005094423"><ele>190.0</ele><time>2026-04-06T12:36:34Z</time></trkpt><trkpt lat="48.42260938342003" lon="-1.1299169226589119"><ele>189.0</ele><time>2026-04-06T12:36:35Z</time></trkpt><trkpt lat="48.422532153099766" lon="-1.1302675566796967"><ele>188.0</ele><time>2026-04-06T12:36:36Z</time></trkpt><trkpt lat="48.42245763130253" lon="-1.13062153639163"><ele>186.0</ele><time>2026-04-06T12:36:37Z</time></trkpt><trkpt lat="48.42238331423034" lon="-1.1309729001654834"><ele>184.0</ele><time>2026-04-06T12:36:38Z</time></trkpt><trkpt lat="48.42230918157394" lon="-1.1313205302770042"><ele>182.5</ele><time>2026-04-06T12:36:39Z</time></trkpt><trkpt lat="48.42225395720669" lon="-1.131675627118376"><ele>181.0</ele><time>2026-04-06T12:36:40Z</time></trkpt><trkpt lat="48.422224650063015" lon="-1.1320384515251998"><ele>180.0</ele><time>2026-04-06T12:36:41Z</time></trkpt><trkpt lat="48.42219999476821" lon="-1.132399346599724"><ele>179.0</ele><time>2026-04-06T12:36:42Z</time></trkpt><trkpt lat="48.422177146539994" lon="-1.1327634147640155"><ele>179.0</ele><time>2026-04-06T12:36:43Z</time></trkpt><trkpt lat="48.422154035970074" lon="-1.1331329824232415"><ele>179.0</ele><time>2026-04-06T12:36:44Z</time></trkpt><trkpt lat="48.4221195833619" lon="-1.1335002996477561"><ele>179.5</ele><time>2026-04-06T12:36:45Z</time></trkpt><trkpt lat="48.42206656317747" lon="-1.1338650975880444"><ele>180.0</ele><time>2026-04-06T12:36:46Z</time></trkpt><trkpt lat="48.42199748538581" lon="-1.134224873656833"><ele>178.0</ele><time>2026-04-06T12:36:47Z</time></trkpt><trkpt lat="48.42191283289539" lon="-1.1345678977151712"><ele>176.0</ele><time>2026-04-06T12:36:48Z</time></trkpt><trkpt lat="48.42181486816866" lon="-1.1349139828150376"><ele>174.0</ele><time>2026-04-06T12:36:49Z</time></trkpt><trkpt lat="48.42169956669206" lon="-1.1352543138399698"><ele>172.0</ele><time>2026-04-06T12:36:50Z</time></trkpt><trkpt lat="48.421569831840664" lon="-1.1355743140819727"><ele>170.5</ele><time>2026-04-06T12:36:51Z</time></trkpt><trkpt lat="48.421423420745334" lon="-1.1358813414003417"><ele>169.0</ele><time>2026-04-06T12:36:52Z</time></trkpt><trkpt lat="48.42125526071834" lon="-1.1361801689718756"><ele>168.5</ele><time>2026-04-06T12:36:53Z</time></trkpt><trkpt lat="48.42109705271647" lon="-1.1364796112658029"><ele>168.0</ele><time>2026-04-06T12:36:54Z</time></trkpt><trkpt lat="48.42093275755682" lon="-1.1367887382180026"><ele>167.5</ele><time>2026-04-06T12:36:55Z</time></trkpt><trkpt lat="48.42077660589458" lon="-1.1370962409265069"><ele>167.0</ele><time>2026-04-06T12:36:56Z</time></trkpt><trkpt lat="48.42061502417987" lon="-1.1374018331084637"><ele>165.5</ele><time>2026-04-06T12:36:57Z</time></trkpt><trkpt lat="48.42045661888728" lon="-1.1377058896652872"><ele>164.0</ele><time>2026-04-06T12:36:58Z</time></trkpt><trkpt lat="48.42029770012396" lon="-1.1380054250352305"><ele>163.0</ele><time>2026-04-06T12:36:59Z</time></trkpt><trkpt lat="48.42014112379117" lon="-1.1383028331934801"><ele>162.0</ele><time>2026-04-06T12:37:00Z</time></trkpt><trkpt lat="48.419988912741886" lon="-1.1386068454010563"><ele>162.0</ele><time>2026-04-06T12:37:01Z</time></trkpt><trkpt lat="48.4198478838919" lon="-1.1389183490817452"><ele>162.0</ele><time>2026-04-06T12:37:02Z</time></trkpt><trkpt lat="48.41971353167751" lon="-1.1392340919933863"><ele>162.0</ele><time>2026-04-06T12:37:03Z</time></trkpt><trkpt lat="48.419588118135955" lon="-1.1395524046395458"><ele>162.0</ele><time>2026-04-06T12:37:04Z</time></trkpt><trkpt lat="48.41946858330095" lon="-1.1398736576399497"><ele>161.0</ele><time>2026-04-06T12:37:05Z</time></trkpt><trkpt lat="48.41935271260604" lon="-1.1401952564281956"><ele>160.0</ele><time>2026-04-06T12:37:06Z</time></trkpt><trkpt lat="48.419241668622334" lon="-1.1405133184365808"><ele>160.0</ele><time>2026-04-06T12:37:07Z</time></trkpt><trkpt lat="48.419128665335656" lon="-1.1408375959432135"><ele>160.0</ele><time>2026-04-06T12:37:08Z</time></trkpt><trkpt lat="48.41901452818432" lon="-1.1411619521170004"><ele>160.0</ele><time>2026-04-06T12:37:09Z</time></trkpt><trkpt lat="48.41889802514985" lon="-1.1414872179343174"><ele>160.0</ele><time>2026-04-06T12:37:10Z</time></trkpt><trkpt lat="48.4187875299233" lon="-1.141801386703155"><ele>159.66666666666669</ele><time>2026-04-06T12:37:11Z</time></trkpt><trkpt lat="48.41868635835611" lon="-1.1420962469358584"><ele>159.33333333333334</ele><time>2026-04-06T12:37:12Z</time></trkpt><trkpt lat="48.41857988881781" lon="-1.1423781668707154"><ele>159.0</ele><time>2026-04-06T12:37:13Z</time></trkpt><trkpt lat="48.41845361136572" lon="-1.1426401091076803"><ele>158.0</ele><time>2026-04-06T12:37:14Z</time></trkpt><trkpt lat="48.41830441847972" lon="-1.1428877363023444"><ele>157.0</ele><time>2026-04-06T12:37:15Z</time></trkpt><trkpt lat="48.41813799415982" lon="-1.1431219870352187"><ele>154.0</ele><time>2026-04-06T12:37:16Z</time></trkpt><trkpt lat="48.41796561183555" lon="-1.1433635610191233"><ele>151.0</ele><time>2026-04-06T12:37:17Z</time></trkpt><trkpt lat="48.41779053359785" lon="-1.1436173547718542"><ele>151.0</ele><time>2026-04-06T12:37:18Z</time></trkpt><trkpt lat="48.41762223785015" lon="-1.1438825762987304"><ele>151.0</ele><time>2026-04-06T12:37:19Z</time></trkpt><trkpt lat="48.41747382723055" lon="-1.1441736858907485"><ele>149.0</ele><time>2026-04-06T12:37:20Z</time></trkpt><trkpt lat="48.417339529857564" lon="-1.1444881047929558"><ele>147.0</ele><time>2026-04-06T12:37:21Z</time></trkpt><trkpt lat="48.41720833056325" lon="-1.1448065624794217"><ele>146.5</ele><time>2026-04-06T12:37:22.001Z</time></trkpt><trkpt lat="48.4170797236635" lon="-1.1451301627823867"><ele>146.0</ele><time>2026-04-06T12:37:23.001Z</time></trkpt><trkpt lat="48.41695905423077" lon="-1.1454622364955105"><ele>146.5</ele><time>2026-04-06T12:37:24.001Z</time></trkpt><trkpt lat="48.41685632417736" lon="-1.145807346882186"><ele>147.0</ele><time>2026-04-06T12:37:25.001Z</time></trkpt><trkpt lat="48.416757172533565" lon="-1.1461531432402188"><ele>147.0</ele><time>2026-04-06T12:37:26.001Z</time></trkpt><trkpt lat="48.41665746321675" lon="-1.1464954871480868"><ele>147.0</ele><time>2026-04-06T12:37:27.001Z</time></trkpt><trkpt lat="48.416565685634055" lon="-1.146816679813993"><ele>147.33333333333334</ele><time>2026-04-06T12:37:28.001Z</time></trkpt><trkpt lat="48.4164831853581" lon="-1.1471174259185508"><ele>147.66666666666669</ele><time>2026-04-06T12:37:29.001Z</time></trkpt><trkpt lat="48.41640328829353" lon="-1.147408501357072"><ele>148.0</ele><time>2026-04-06T12:37:30.001Z</time></trkpt><trkpt lat="48.416348855636414" lon="-1.147703571967945"><ele>148.33333333333334</ele><time>2026-04-06T12:37:31.001Z</time></trkpt><trkpt lat="48.41627400363475" lon="-1.1479736365221758"><ele>148.66666666666666</ele><time>2026-04-06T12:37:32.001Z</time></trkpt><trkpt lat="48.41620047931699" lon="-1.1482318454793274"><ele>149.0</ele><time>2026-04-06T12:37:33.001Z</time></trkpt><trkpt lat="48.416131855785025" lon="-1.1484800506159774"><ele>148.0</ele><time>2026-04-06T12:37:34.001Z</time></trkpt><trkpt lat="48.41605070285505" lon="-1.1487073617598493"><ele>147.0</ele><time>2026-04-06T12:37:35.001Z</time></trkpt><trkpt lat="48.416002492305736" lon="-1.148945413883047"><ele>146.0</ele><time>2026-04-06T12:37:36.001Z</time></trkpt><trkpt lat="48.41594101766084" lon="-1.149166549037668"><ele>146.0</ele><time>2026-04-06T12:37:37Z</time></trkpt><trkpt lat="48.41588210115578" lon="-1.1493784824465683"><ele>146.0</ele><time>2026-04-06T12:37:38Z</time></trkpt><trkpt lat="48.41582567895374" lon="-1.149582293759081"><ele>146.0</ele><time>2026-04-06T12:37:39Z</time></trkpt><trkpt lat="48.41577178779593" lon="-1.1497767133709067"><ele>146.0</ele><time>2026-04-06T12:37:40Z</time></trkpt><trkpt lat="48.41571953420901" lon="-1.1499652251978352"><ele>145.5</ele><time>2026-04-06T12:37:41Z</time></trkpt><trkpt lat="48.4156698370562" lon="-1.1501451211523592"><ele>145.0</ele><time>2026-04-06T12:37:42Z</time></trkpt><trkpt lat="48.415622410499495" lon="-1.1503186297061472"><ele>144.5</ele><time>2026-04-06T12:37:43Z</time></trkpt><trkpt lat="48.415576696441775" lon="-1.1504858731463747"><ele>144.0</ele><time>2026-04-06T12:37:44Z</time></trkpt><trkpt lat="48.41553282834424" lon="-1.1506463632144333"><ele>144.0</ele><time>2026-04-06T12:37:45Z</time></trkpt><trkpt lat="48.41549119404241" lon="-1.150798667355925"><ele>144.0</ele><time>2026-04-06T12:37:46Z</time></trkpt><trkpt lat="48.415436185517876" lon="-1.150937200758031"><ele>144.0</ele><time>2026-04-06T12:37:47Z</time></trkpt><trkpt lat="48.41540025386575" lon="-1.1510809230346937"><ele>144.0</ele><time>2026-04-06T12:37:48Z</time></trkpt><trkpt lat="48.41536479247701" lon="-1.1512129530253656"><ele>144.0</ele><time>2026-04-06T12:37:49Z</time></trkpt><trkpt lat="48.41534178637362" lon="-1.1513391321592472"><ele>143.66666666666666</ele><time>2026-04-06T12:37:50Z</time></trkpt><trkpt lat="48.415304802330944" lon="-1.1514375137531376"><ele>143.33333333333334</ele><time>2026-04-06T12:37:51Z</time></trkpt><trkpt lat="48.415300728700316" lon="-1.1515533201378432"><ele>143.0</ele><time>2026-04-06T12:37:52Z</time></trkpt><trkpt lat="48.41532457006289" lon="-1.151673638364751"><ele>142.66666666666669</ele><time>2026-04-06T12:37:54Z</time></trkpt><trkpt lat="48.41533656126456" lon="-1.1517769534413016"><ele>142.33333333333334</ele><time>2026-04-06T12:37:59Z</time></trkpt><trkpt lat="48.41521554057289" lon="-1.1518382610347773"><ele>142.0</ele><time>2026-04-06T12:38:00Z</time></trkpt><trkpt lat="48.41512938250066" lon="-1.1518578411444558"><ele>142.0</ele><time>2026-04-06T12:38:01Z</time></trkpt><trkpt lat="48.41504099324544" lon="-1.151900532406424"><ele>142.0</ele><time>2026-04-06T12:38:02Z</time></trkpt><trkpt lat="48.41492731390793" lon="-1.151965456679781"><ele>142.0</ele><time>2026-04-06T12:38:03Z</time></trkpt><trkpt lat="48.414819521082336" lon="-1.152023159968094"><ele>142.0</ele><time>2026-04-06T12:38:04Z</time></trkpt><trkpt lat="48.41470970534803" lon="-1.15207815034184"><ele>142.0</ele><time>2026-04-06T12:38:05Z</time></trkpt><trkpt lat="48.41459716368688" lon="-1.1521301022984176"><ele>142.25</ele><time>2026-04-06T12:38:06Z</time></trkpt><trkpt lat="48.41448532608097" lon="-1.1521852975217564"><ele>142.5</ele><time>2026-04-06T12:38:07Z</time></trkpt><trkpt lat="48.4143696803519" lon="-1.1522382727527372"><ele>142.75</ele><time>2026-04-06T12:38:08Z</time></trkpt><trkpt lat="48.414249899543535" lon="-1.1522886767204072"><ele>143.0</ele><time>2026-04-06T12:38:09Z</time></trkpt><trkpt lat="48.41413373935801" lon="-1.1523398433046725"><ele>142.75</ele><time>2026-04-06T12:38:10Z</time></trkpt><trkpt lat="48.41402001368999" lon="-1.1524168643794828"><ele>142.5</ele><time>2026-04-06T12:38:11Z</time></trkpt><trkpt lat="48.413899238090764" lon="-1.1524773848954686"><ele>142.25</ele><time>2026-04-06T12:38:12Z</time></trkpt><trkpt lat="48.413773920357166" lon="-1.1525194862091774"><ele>142.0</ele><time>2026-04-06T12:38:13Z</time></trkpt><trkpt lat="48.41364336910276" lon="-1.1525831231732775"><ele>142.5</ele><time>2026-04-06T12:38:14Z</time></trkpt><trkpt lat="48.41351867184977" lon="-1.1526541233350625"><ele>143.0</ele><time>2026-04-06T12:38:15Z</time></trkpt><trkpt lat="48.413393116680155" lon="-1.152722532474134"><ele>143.5</ele><time>2026-04-06T12:38:16Z</time></trkpt><trkpt lat="48.413264465745975" lon="-1.1527911212215132"><ele>144.0</ele><time>2026-04-06T12:38:17Z</time></trkpt><trkpt lat="48.41313527496366" lon="-1.1528588121497048"><ele>144.0</ele><time>2026-04-06T12:38:18Z</time></trkpt><trkpt lat="48.41300424433472" lon="-1.1529181609728443"><ele>144.0</ele><time>2026-04-06T12:38:19Z</time></trkpt><trkpt lat="48.41287279657358" lon="-1.1529875115320496"><ele>144.0</ele><time>2026-04-06T12:38:20Z</time></trkpt><trkpt lat="48.412742624008445" lon="-1.1530659130230143"><ele>144.0</ele><time>2026-04-06T12:38:21Z</time></trkpt><trkpt lat="48.41261003844781" lon="-1.1531339773322924"><ele>144.25</ele><time>2026-04-06T12:38:22Z</time></trkpt><trkpt lat="48.41247387019299" lon="-1.1531971699620636"><ele>144.5</ele><time>2026-04-06T12:38:23Z</time></trkpt><trkpt lat="48.4123398952092" lon="-1.1532614450453993"><ele>144.75</ele><time>2026-04-06T12:38:24Z</time></trkpt><trkpt lat="48.41220897535017" lon="-1.1533405676240704"><ele>145.0</ele><time>2026-04-06T12:38:25Z</time></trkpt><trkpt lat="48.41207315008811" lon="-1.1534097299974482"><ele>145.5</ele><time>2026-04-06T12:38:26Z</time></trkpt><trkpt lat="48.41193886851297" lon="-1.1534808158060457"><ele>146.0</ele><time>2026-04-06T12:38:27Z</time></trkpt><trkpt lat="48.411803031358225" lon="-1.153550010082115"><ele>146.5</ele><time>2026-04-06T12:38:28Z</time></trkpt><trkpt lat="48.41167056984444" lon="-1.153627527195736"><ele>147.0</ele><time>2026-04-06T12:38:29Z</time></trkpt><trkpt lat="48.41153697564425" lon="-1.1537018046673706"><ele>147.0</ele><time>2026-04-06T12:38:30Z</time></trkpt><trkpt lat="48.411403748747965" lon="-1.153778883272608"><ele>147.0</ele><time>2026-04-06T12:38:31Z</time></trkpt><trkpt lat="48.41127139267803" lon="-1.1538373276488727"><ele>147.0</ele><time>2026-04-06T12:38:32Z</time></trkpt><trkpt lat="48.411135067253475" lon="-1.1538823095339372"><ele>147.0</ele><time>2026-04-06T12:38:33Z</time></trkpt><trkpt lat="48.411008489521194" lon="-1.1539737427741081"><ele>148.5</ele><time>2026-04-06T12:38:34Z</time></trkpt><trkpt lat="48.41088306527108" lon="-1.1540547201570948"><ele>150.0</ele><time>2026-04-06T12:38:35Z</time></trkpt><trkpt lat="48.41074931637829" lon="-1.154120530178165"><ele>151.5</ele><time>2026-04-06T12:38:36Z</time></trkpt><trkpt lat="48.410615267094435" lon="-1.1541890800675083"><ele>153.0</ele><time>2026-04-06T12:38:37Z</time></trkpt><trkpt lat="48.41047765073248" lon="-1.1542603012668977"><ele>154.0</ele><time>2026-04-06T12:38:38Z</time></trkpt><trkpt lat="48.41034183137535" lon="-1.1543288565578713"><ele>155.0</ele><time>2026-04-06T12:38:39Z</time></trkpt><trkpt lat="48.410205224449626" lon="-1.1544035346539125"><ele>156.0</ele><time>2026-04-06T12:38:40Z</time></trkpt><trkpt lat="48.41006757490137" lon="-1.1544724549192642"><ele>157.0</ele><time>2026-04-06T12:38:41Z</time></trkpt><trkpt lat="48.40992638407172" lon="-1.1545420109038622"><ele>157.0</ele><time>2026-04-06T12:38:42Z</time></trkpt><trkpt lat="48.40977769823767" lon="-1.154608847935736"><ele>157.0</ele><time>2026-04-06T12:38:43Z</time></trkpt><trkpt lat="48.409601542285245" lon="-1.154686059260376"><ele>157.0</ele><time>2026-04-06T12:38:44Z</time></trkpt><trkpt lat="48.409405592069845" lon="-1.154770614081489"><ele>160.5</ele><time>2026-04-06T12:38:45Z</time></trkpt><trkpt lat="48.40919190043173" lon="-1.154891625528246"><ele>164.0</ele><time>2026-04-06T12:38:46Z</time></trkpt><trkpt lat="48.408956659938546" lon="-1.1550129636754223"><ele>167.5</ele><time>2026-04-06T12:38:47Z</time></trkpt><trkpt lat="48.408708047483" lon="-1.1551411991821796"><ele>171.0</ele><time>2026-04-06T12:38:48Z</time></trkpt><trkpt lat="48.40844773054962" lon="-1.155274255148261"><ele>171.0</ele><time>2026-04-06T12:38:49Z</time></trkpt><trkpt lat="48.408198782782954" lon="-1.1554020931508562"><ele>171.0</ele><time>2026-04-06T12:38:50Z</time></trkpt><trkpt lat="48.40795096596665" lon="-1.1555297115362337"><ele>172.5</ele><time>2026-04-06T12:38:51Z</time></trkpt><trkpt lat="48.407699086297725" lon="-1.1556594222234864"><ele>174.0</ele><time>2026-04-06T12:38:52Z</time></trkpt><trkpt lat="48.40743078521132" lon="-1.1557759806302232"><ele>174.0</ele><time>2026-04-06T12:38:53Z</time></trkpt><trkpt lat="48.40716717697645" lon="-1.1559320669960258"><ele>174.0</ele><time>2026-04-06T12:38:54Z</time></trkpt><trkpt lat="48.40692003420423" lon="-1.1560604024659298"><ele>175.5</ele><time>2026-04-06T12:38:55Z</time></trkpt><trkpt lat="48.40668214329787" lon="-1.1561839357827286"><ele>177.0</ele><time>2026-04-06T12:38:56Z</time></trkpt><trkpt lat="48.40642663597396" lon="-1.1563179256827576"><ele>177.0</ele><time>2026-04-06T12:38:57Z</time></trkpt><trkpt lat="48.40618844490028" lon="-1.1564185184446636"><ele>177.0</ele><time>2026-04-06T12:38:58Z</time></trkpt><trkpt lat="48.40597717049546" lon="-1.156535205692474"><ele>175.5</ele><time>2026-04-06T12:38:59Z</time></trkpt><trkpt lat="48.40575320611909" lon="-1.1566588125257355"><ele>174.0</ele><time>2026-04-06T12:39:00Z</time></trkpt><trkpt lat="48.40552844416818" lon="-1.1567825293355405"><ele>175.0</ele><time>2026-04-06T12:39:01Z</time></trkpt><trkpt lat="48.40530444997641" lon="-1.1569040133228132"><ele>176.0</ele><time>2026-04-06T12:39:02Z</time></trkpt><trkpt lat="48.40508145831591" lon="-1.157019474644336"><ele>176.0</ele><time>2026-04-06T12:39:03Z</time></trkpt><trkpt lat="48.40486596018018" lon="-1.1571348530819583"><ele>176.0</ele><time>2026-04-06T12:39:04Z</time></trkpt><trkpt lat="48.40465064997515" lon="-1.1572524119823797"><ele>175.33333333333331</ele><time>2026-04-06T12:39:05Z</time></trkpt><trkpt lat="48.40444195913729" lon="-1.157371865560069"><ele>174.66666666666666</ele><time>2026-04-06T12:39:06Z</time></trkpt><trkpt lat="48.40423492171961" lon="-1.1574941718677332"><ele>174.0</ele><time>2026-04-06T12:39:07Z</time></trkpt><trkpt lat="48.40402121225386" lon="-1.1576188953541438"><ele>172.5</ele><time>2026-04-06T12:39:08Z</time></trkpt><trkpt lat="48.40380858109776" lon="-1.1577408963480142"><ele>171.0</ele><time>2026-04-06T12:39:09Z</time></trkpt><trkpt lat="48.40359080359515" lon="-1.1578655693479345"><ele>171.0</ele><time>2026-04-06T12:39:10Z</time></trkpt><trkpt lat="48.403373709861356" lon="-1.1579904645260322"><ele>171.0</ele><time>2026-04-06T12:39:11Z</time></trkpt><trkpt lat="48.4031536315057" lon="-1.1581192332752308"><ele>174.0</ele><time>2026-04-06T12:39:12Z</time></trkpt><trkpt lat="48.402928032351554" lon="-1.1582488404659645"><ele>177.0</ele><time>2026-04-06T12:39:13Z</time></trkpt><trkpt lat="48.40270605195997" lon="-1.1583771522623243"><ele>177.0</ele><time>2026-04-06T12:39:14Z</time></trkpt><trkpt lat="48.40248511367192" lon="-1.158502177504382"><ele>177.0</ele><time>2026-04-06T12:39:15Z</time></trkpt><trkpt lat="48.40226588650781" lon="-1.1586228446131186"><ele>180.5</ele><time>2026-04-06T12:39:16Z</time></trkpt><trkpt lat="48.4020506899676" lon="-1.1587453591261763"><ele>184.0</ele><time>2026-04-06T12:39:17Z</time></trkpt><trkpt lat="48.40183596893763" lon="-1.1588714084032494"><ele>184.0</ele><time>2026-04-06T12:39:18Z</time></trkpt><trkpt lat="48.401621333146835" lon="-1.1589945359688534"><ele>184.0</ele><time>2026-04-06T12:39:19Z</time></trkpt><trkpt lat="48.40140813380903" lon="-1.1591181078471264"><ele>182.0</ele><time>2026-04-06T12:39:20Z</time></trkpt><trkpt lat="48.40119357051471" lon="-1.1592377154637257"><ele>180.0</ele><time>2026-04-06T12:39:21Z</time></trkpt><trkpt lat="48.40097928726039" lon="-1.159356949505677"><ele>180.0</ele><time>2026-04-06T12:39:22Z</time></trkpt><trkpt lat="48.40076317387348" lon="-1.15947946193169"><ele>180.0</ele><time>2026-04-06T12:39:23Z</time></trkpt><trkpt lat="48.40054961390069" lon="-1.1596020745826494"><ele>182.0</ele><time>2026-04-06T12:39:24Z</time></trkpt><trkpt lat="48.40033538262114" lon="-1.1597236178609818"><ele>184.0</ele><time>2026-04-06T12:39:25Z</time></trkpt><trkpt lat="48.40012507868464" lon="-1.1598466199251791"><ele>182.5</ele><time>2026-04-06T12:39:26Z</time></trkpt><trkpt lat="48.39990742471487" lon="-1.1599710564414907"><ele>181.0</ele><time>2026-04-06T12:39:27Z</time></trkpt><trkpt lat="48.39969527806652" lon="-1.1600945239041285"><ele>183.5</ele><time>2026-04-06T12:39:28.001Z</time></trkpt><trkpt lat="48.3994812640798" lon="-1.1602158968941965"><ele>186.0</ele><time>2026-04-06T12:39:29.001Z</time></trkpt><trkpt lat="48.399263669520224" lon="-1.1603368366207616"><ele>186.0</ele><time>2026-04-06T12:39:30.001Z</time></trkpt><trkpt lat="48.39905767011324" lon="-1.160480862175993"><ele>186.0</ele><time>2026-04-06T12:39:31.001Z</time></trkpt><trkpt lat="48.398839195071176" lon="-1.1605985683297038"><ele>186.0</ele><time>2026-04-06T12:39:32.001Z</time></trkpt><trkpt lat="48.39862163254084" lon="-1.1607146679323164"><ele>186.0</ele><time>2026-04-06T12:39:33.001Z</time></trkpt><trkpt lat="48.39840095497372" lon="-1.1608053840428763"><ele>186.0</ele><time>2026-04-06T12:39:34.001Z</time></trkpt><trkpt lat="48.39819323629805" lon="-1.1609369707025032"><ele>186.0</ele><time>2026-04-06T12:39:35.001Z</time></trkpt><trkpt lat="48.39798528842222" lon="-1.1610691091646317"><ele>189.0</ele><time>2026-04-06T12:39:36.001Z</time></trkpt><trkpt lat="48.39777524034339" lon="-1.1611984451275335"><ele>192.0</ele><time>2026-04-06T12:39:37.001Z</time></trkpt><trkpt lat="48.39755775680342" lon="-1.1613068321691973"><ele>192.0</ele><time>2026-04-06T12:39:38.001Z</time></trkpt><trkpt lat="48.39734173933325" lon="-1.1614358455248426"><ele>192.0</ele><time>2026-04-06T12:39:39.001Z</time></trkpt><trkpt lat="48.39712289362072" lon="-1.1615631343408153"><ele>191.0</ele><time>2026-04-06T12:39:40.001Z</time></trkpt><trkpt lat="48.396907127015055" lon="-1.1616810006086906"><ele>190.0</ele><time>2026-04-06T12:39:41.001Z</time></trkpt><trkpt lat="48.39669803443543" lon="-1.161825444460585"><ele>190.0</ele><time>2026-04-06T12:39:42.001Z</time></trkpt><trkpt lat="48.396498289523265" lon="-1.1619722588244268"><ele>190.0</ele><time>2026-04-06T12:39:43.001Z</time></trkpt><trkpt lat="48.39628918078682" lon="-1.162105453811025"><ele>190.0</ele><time>2026-04-06T12:39:44Z</time></trkpt><trkpt lat="48.39607894755487" lon="-1.162232387300478"><ele>189.0</ele><time>2026-04-06T12:39:45Z</time></trkpt><trkpt lat="48.39587095418801" lon="-1.162375695258616"><ele>188.0</ele><time>2026-04-06T12:39:46Z</time></trkpt><trkpt lat="48.395664306981814" lon="-1.1625175912526347"><ele>187.0</ele><time>2026-04-06T12:39:47Z</time></trkpt><trkpt lat="48.39545348839004" lon="-1.162649796503835"><ele>186.0</ele><time>2026-04-06T12:39:48Z</time></trkpt><trkpt lat="48.39525613847937" lon="-1.162782125151369"><ele>185.0</ele><time>2026-04-06T12:39:49Z</time></trkpt><trkpt lat="48.39505770005724" lon="-1.1629112014449683"><ele>185.0</ele><time>2026-04-06T12:39:50Z</time></trkpt><trkpt lat="48.39485396286147" lon="-1.1630381463083836"><ele>185.0</ele><time>2026-04-06T12:39:51Z</time></trkpt><trkpt lat="48.394643367407625" lon="-1.163157824690013"><ele>185.0</ele><time>2026-04-06T12:39:52Z</time></trkpt><trkpt lat="48.39443095230442" lon="-1.1632900664046877"><ele>181.66666666666666</ele><time>2026-04-06T12:39:53Z</time></trkpt><trkpt lat="48.39423040875057" lon="-1.1634159602422451"><ele>178.33333333333334</ele><time>2026-04-06T12:39:54Z</time></trkpt><trkpt lat="48.39403389996351" lon="-1.1635409214380728"><ele>175.0</ele><time>2026-04-06T12:39:55Z</time></trkpt><trkpt lat="48.39384591977955" lon="-1.1636615056604105"><ele>172.66666666666669</ele><time>2026-04-06T12:39:56Z</time></trkpt><trkpt lat="48.393634601536725" lon="-1.1637918961870186"><ele>170.33333333333334</ele><time>2026-04-06T12:39:57Z</time></trkpt><trkpt lat="48.39343170314933" lon="-1.163916462573898"><ele>168.0</ele><time>2026-04-06T12:39:58Z</time></trkpt><trkpt lat="48.393238061941055" lon="-1.1640382249068204"><ele>167.66666666666666</ele><time>2026-04-06T12:39:59Z</time></trkpt><trkpt lat="48.39304637007864" lon="-1.164156526342009"><ele>167.33333333333331</ele><time>2026-04-06T12:40:00Z</time></trkpt><trkpt lat="48.39285645884661" lon="-1.1642765281562877"><ele>167.0</ele><time>2026-04-06T12:40:01Z</time></trkpt><trkpt lat="48.39265900981451" lon="-1.1644040531358455"><ele>166.66666666666666</ele><time>2026-04-06T12:40:02Z</time></trkpt><trkpt lat="48.392453213884856" lon="-1.164529082759702"><ele>166.33333333333334</ele><time>2026-04-06T12:40:03Z</time></trkpt><trkpt lat="48.39225630912979" lon="-1.1646553600585747"><ele>166.0</ele><time>2026-04-06T12:40:04Z</time></trkpt><trkpt lat="48.39206059412663" lon="-1.1647779911639817"><ele>164.0</ele><time>2026-04-06T12:40:05Z</time></trkpt><trkpt lat="48.391865480993594" lon="-1.1649026631817798"><ele>162.0</ele><time>2026-04-06T12:40:06Z</time></trkpt><trkpt lat="48.39167027557234" lon="-1.165032246036685"><ele>160.0</ele><time>2026-04-06T12:40:07Z</time></trkpt><trkpt lat="48.3914730741734" lon="-1.1651678732976691"><ele>158.33333333333334</ele><time>2026-04-06T12:40:08Z</time></trkpt><trkpt lat="48.39127411839999" lon="-1.1652936545664607"><ele>156.66666666666666</ele><time>2026-04-06T12:40:09Z</time></trkpt><trkpt lat="48.39107391685815" lon="-1.1654234866532642"><ele>155.0</ele><time>2026-04-06T12:40:10Z</time></trkpt><trkpt lat="48.39087109638367" lon="-1.1655540232476052"><ele>155.0</ele><time>2026-04-06T12:40:11Z</time></trkpt><trkpt lat="48.39067136264034" lon="-1.1656893857196038"><ele>155.0</ele><time>2026-04-06T12:40:12Z</time></trkpt><trkpt lat="48.39047271558974" lon="-1.1658245101879066"><ele>155.0</ele><time>2026-04-06T12:40:13Z</time></trkpt><trkpt lat="48.390276095357116" lon="-1.1659581290791967"><ele>156.33333333333331</ele><time>2026-04-06T12:40:14Z</time></trkpt><trkpt lat="48.390072938801254" lon="-1.1660947732057658"><ele>157.66666666666666</ele><time>2026-04-06T12:40:15Z</time></trkpt><trkpt lat="48.38987054004335" lon="-1.1662298559052569"><ele>159.0</ele><time>2026-04-06T12:40:16Z</time></trkpt><trkpt lat="48.38966577070473" lon="-1.166365513860456"><ele>158.33333333333334</ele><time>2026-04-06T12:40:17Z</time></trkpt><trkpt lat="48.38945973465091" lon="-1.1665026504047507"><ele>157.66666666666669</ele><time>2026-04-06T12:40:18Z</time></trkpt><trkpt lat="48.389257442109425" lon="-1.1666410564340344"><ele>157.0</ele><time>2026-04-06T12:40:19Z</time></trkpt><trkpt lat="48.389049346433296" lon="-1.166782882289386"><ele>155.5</ele><time>2026-04-06T12:40:20Z</time></trkpt><trkpt lat="48.38884035847775" lon="-1.1669225255778903"><ele>154.0</ele><time>2026-04-06T12:40:21Z</time></trkpt><trkpt lat="48.38863097422717" lon="-1.1670634783869904"><ele>154.0</ele><time>2026-04-06T12:40:22Z</time></trkpt><trkpt lat="48.38841820882187" lon="-1.1671973917058929"><ele>154.0</ele><time>2026-04-06T12:40:23Z</time></trkpt><trkpt lat="48.3882099615209" lon="-1.1673381579400084"><ele>150.5</ele><time>2026-04-06T12:40:24Z</time></trkpt><trkpt lat="48.387997781635136" lon="-1.1674805052164858"><ele>147.0</ele><time>2026-04-06T12:40:25Z</time></trkpt><trkpt lat="48.387790474880255" lon="-1.167622445813204"><ele>147.0</ele><time>2026-04-06T12:40:26Z</time></trkpt><trkpt lat="48.387581217694944" lon="-1.1677580760746367"><ele>147.0</ele><time>2026-04-06T12:40:27Z</time></trkpt><trkpt lat="48.387382143837755" lon="-1.1678938056717487"><ele>147.0</ele><time>2026-04-06T12:40:28Z</time></trkpt><trkpt lat="48.387186741999116" lon="-1.1680291640181613"><ele>148.33333333333334</ele><time>2026-04-06T12:40:29Z</time></trkpt><trkpt lat="48.386988578039045" lon="-1.1681555788555091"><ele>149.66666666666669</ele><time>2026-04-06T12:40:30Z</time></trkpt><trkpt lat="48.38680079888054" lon="-1.1682842351708294"><ele>151.0</ele><time>2026-04-06T12:40:31Z</time></trkpt><trkpt lat="48.38661294686837" lon="-1.1684097202267059"><ele>151.0</ele><time>2026-04-06T12:40:32Z</time></trkpt><trkpt lat="48.38642458168953" lon="-1.168526705153402"><ele>151.0</ele><time>2026-04-06T12:40:33Z</time></trkpt><trkpt lat="48.38624570847725" lon="-1.1686434786250446"><ele>151.0</ele><time>2026-04-06T12:40:34Z</time></trkpt><trkpt lat="48.38607612259368" lon="-1.168761494028445"><ele>152.0</ele><time>2026-04-06T12:40:35Z</time></trkpt><trkpt lat="48.385910242739854" lon="-1.1688811212827217"><ele>153.0</ele><time>2026-04-06T12:40:36Z</time></trkpt><trkpt lat="48.385744984732746" lon="-1.1689991577236825"><ele>154.0</ele><time>2026-04-06T12:40:37Z</time></trkpt><trkpt lat="48.38557988336054" lon="-1.1691133662015338"><ele>155.33333333333334</ele><time>2026-04-06T12:40:38Z</time></trkpt><trkpt lat="48.38541853331163" lon="-1.1692298257178453"><ele>156.66666666666666</ele><time>2026-04-06T12:40:39Z</time></trkpt><trkpt lat="48.385259459285294" lon="-1.1693455433273001"><ele>158.0</ele><time>2026-04-06T12:40:40Z</time></trkpt><trkpt lat="48.38509474495486" lon="-1.1694581661351329"><ele>158.0</ele><time>2026-04-06T12:40:41Z</time></trkpt><trkpt lat="48.38492925424494" lon="-1.1695704173585881"><ele>158.0</ele><time>2026-04-06T12:40:42Z</time></trkpt><trkpt lat="48.38475123377358" lon="-1.1696918712443154"><ele>158.0</ele><time>2026-04-06T12:40:43Z</time></trkpt><trkpt lat="48.38455435864103" lon="-1.169828381447112"><ele>161.5</ele><time>2026-04-06T12:40:44Z</time></trkpt><trkpt lat="48.38434346001125" lon="-1.1699701912853318"><ele>165.0</ele><time>2026-04-06T12:40:45Z</time></trkpt><trkpt lat="48.38412120150844" lon="-1.1701235792985483"><ele>165.0</ele><time>2026-04-06T12:40:46Z</time></trkpt><trkpt lat="48.38389372449308" lon="-1.1703069812374312"><ele>165.0</ele><time>2026-04-06T12:40:47Z</time></trkpt><trkpt lat="48.38365196524593" lon="-1.1704773285054666"><ele>167.0</ele><time>2026-04-06T12:40:48Z</time></trkpt><trkpt lat="48.38341264916914" lon="-1.1706459542680605"><ele>169.0</ele><time>2026-04-06T12:40:49Z</time></trkpt><trkpt lat="48.38313631056996" lon="-1.1708474494803915"><ele>172.0</ele><time>2026-04-06T12:40:50Z</time></trkpt><trkpt lat="48.38286877794412" lon="-1.1710431389065021"><ele>175.0</ele><time>2026-04-06T12:40:51Z</time></trkpt><trkpt lat="48.38259216564411" lon="-1.171245332825115"><ele>175.0</ele><time>2026-04-06T12:40:52Z</time></trkpt><trkpt lat="48.38230816111708" lon="-1.1714508470275922"><ele>175.0</ele><time>2026-04-06T12:40:53Z</time></trkpt><trkpt lat="48.38201857692404" lon="-1.1716606184091347"><ele>179.0</ele><time>2026-04-06T12:40:54Z</time></trkpt><trkpt lat="48.38172190346891" lon="-1.1718797791142017"><ele>183.0</ele><time>2026-04-06T12:40:55Z</time></trkpt><trkpt lat="48.381429474943396" lon="-1.1720958039780514"><ele>184.0</ele><time>2026-04-06T12:40:56Z</time></trkpt><trkpt lat="48.381158502578806" lon="-1.1722702591741425"><ele>185.0</ele><time>2026-04-06T12:40:57Z</time></trkpt><trkpt lat="48.38092092672977" lon="-1.1724732468248953"><ele>188.0</ele><time>2026-04-06T12:40:58Z</time></trkpt><trkpt lat="48.38068997634845" lon="-1.172645417208907"><ele>191.0</ele><time>2026-04-06T12:40:59Z</time></trkpt><trkpt lat="48.38047256833261" lon="-1.1728066520387648"><ele>191.0</ele><time>2026-04-06T12:41:00Z</time></trkpt><trkpt lat="48.38027148742478" lon="-1.1729554272627232"><ele>191.0</ele><time>2026-04-06T12:41:01Z</time></trkpt><trkpt lat="48.38009179958437" lon="-1.173088374375069"><ele>191.0</ele><time>2026-04-06T12:41:02Z</time></trkpt><trkpt lat="48.37991249168388" lon="-1.1732210401543763"><ele>192.33333333333331</ele><time>2026-04-06T12:41:03Z</time></trkpt><trkpt lat="48.37973764078313" lon="-1.1733504548544302"><ele>193.66666666666666</ele><time>2026-04-06T12:41:04Z</time></trkpt><trkpt lat="48.37956041337831" lon="-1.1734831621325443"><ele>195.0</ele><time>2026-04-06T12:41:05Z</time></trkpt><trkpt lat="48.37938219554279" lon="-1.173616611124844"><ele>195.66666666666669</ele><time>2026-04-06T12:41:06Z</time></trkpt><trkpt lat="48.37920398863514" lon="-1.1737500519016364"><ele>196.33333333333334</ele><time>2026-04-06T12:41:06.999Z</time></trkpt><trkpt lat="48.379029700738755" lon="-1.1738805581466936"><ele>197.0</ele><time>2026-04-06T12:41:07.999Z</time></trkpt><trkpt lat="48.378855691269735" lon="-1.1740109791476714"><ele>194.66666666666669</ele><time>2026-04-06T12:41:08.999Z</time></trkpt><trkpt lat="48.3786806259474" lon="-1.1741424511080052"><ele>192.33333333333334</ele><time>2026-04-06T12:41:09.999Z</time></trkpt><trkpt lat="48.37850702284857" lon="-1.1742728249858885"><ele>190.0</ele><time>2026-04-06T12:41:10.999Z</time></trkpt><trkpt lat="48.37832122370164" lon="-1.1744123579405987"><ele>190.0</ele><time>2026-04-06T12:41:11.999Z</time></trkpt><trkpt lat="48.378129269967665" lon="-1.1745289535368704"><ele>190.0</ele><time>2026-04-06T12:41:12.999Z</time></trkpt><trkpt lat="48.377951025634296" lon="-1.1746786054257778"><ele>190.0</ele><time>2026-04-06T12:41:13.999Z</time></trkpt><trkpt lat="48.37776372051833" lon="-1.1748279393013432"><ele>187.66666666666669</ele><time>2026-04-06T12:41:14.999Z</time></trkpt><trkpt lat="48.37758380618695" lon="-1.1749650097069633"><ele>185.33333333333334</ele><time>2026-04-06T12:41:15.999Z</time></trkpt><trkpt lat="48.37739652102381" lon="-1.1750984611700905"><ele>183.0</ele><time>2026-04-06T12:41:16.999Z</time></trkpt><trkpt lat="48.37721995105158" lon="-1.1752388150625328"><ele>180.0</ele><time>2026-04-06T12:41:17.999Z</time></trkpt><trkpt lat="48.377034670244655" lon="-1.1753693543761599"><ele>177.0</ele><time>2026-04-06T12:41:18.999Z</time></trkpt><trkpt lat="48.376851295779986" lon="-1.1755054268962424"><ele>174.0</ele><time>2026-04-06T12:41:19.999Z</time></trkpt><trkpt lat="48.37666660380511" lon="-1.1756453994649936"><ele>174.66666666666666</ele><time>2026-04-06T12:41:20.999Z</time></trkpt><trkpt lat="48.37648148662858" lon="-1.175788756950701"><ele>175.33333333333331</ele><time>2026-04-06T12:41:21.999Z</time></trkpt><trkpt lat="48.37629246395108" lon="-1.175922683861847"><ele>176.0</ele><time>2026-04-06T12:41:22.999Z</time></trkpt><trkpt lat="48.37610932102937" lon="-1.1760585090295126"><ele>174.33333333333331</ele><time>2026-04-06T12:41:23.999Z</time></trkpt><trkpt lat="48.37592925849618" lon="-1.1762000739733156"><ele>172.66666666666666</ele><time>2026-04-06T12:41:24.999Z</time></trkpt><trkpt lat="48.37574477045254" lon="-1.176347749994157"><ele>171.0</ele><time>2026-04-06T12:41:25.999Z</time></trkpt><trkpt lat="48.375549129109466" lon="-1.1764829172399645"><ele>171.66666666666666</ele><time>2026-04-06T12:41:26.999Z</time></trkpt><trkpt lat="48.3753564388244" lon="-1.1766137802804124"><ele>172.33333333333331</ele><time>2026-04-06T12:41:27.999Z</time></trkpt><trkpt lat="48.37517761300997" lon="-1.1767650426774516"><ele>173.0</ele><time>2026-04-06T12:41:28.999Z</time></trkpt><trkpt lat="48.37500407355891" lon="-1.1769015274049992"><ele>173.0</ele><time>2026-04-06T12:41:29.999Z</time></trkpt><trkpt lat="48.37482936566851" lon="-1.1770304847881063"><ele>173.0</ele><time>2026-04-06T12:41:30.999Z</time></trkpt><trkpt lat="48.37465739959" lon="-1.1771632720388705"><ele>173.0</ele><time>2026-04-06T12:41:31.999Z</time></trkpt><trkpt lat="48.37448558264043" lon="-1.1772998569776068"><ele>176.66666666666666</ele><time>2026-04-06T12:41:32.999Z</time></trkpt><trkpt lat="48.37431498026751" lon="-1.1774351811023323"><ele>180.33333333333334</ele><time>2026-04-06T12:41:34Z</time></trkpt><trkpt lat="48.37414476964001" lon="-1.17757261424686"><ele>184.0</ele><time>2026-04-06T12:41:35Z</time></trkpt><trkpt lat="48.37397168529935" lon="-1.1777109355871163"><ele>181.66666666666669</ele><time>2026-04-06T12:41:36Z</time></trkpt><trkpt lat="48.3737980513281" lon="-1.1778517634912968"><ele>179.33333333333334</ele><time>2026-04-06T12:41:37Z</time></trkpt><trkpt lat="48.373624585942665" lon="-1.177989807380285"><ele>177.0</ele><time>2026-04-06T12:41:38Z</time></trkpt><trkpt lat="48.373449452441406" lon="-1.1781316735691705"><ele>176.66666666666666</ele><time>2026-04-06T12:41:39Z</time></trkpt><trkpt lat="48.373271766520624" lon="-1.178278431766844"><ele>176.33333333333331</ele><time>2026-04-06T12:41:40Z</time></trkpt><trkpt lat="48.373092132594394" lon="-1.1784220839504524"><ele>176.0</ele><time>2026-04-06T12:41:41Z</time></trkpt><trkpt lat="48.37290747979629" lon="-1.1785616612104668"><ele>174.0</ele><time>2026-04-06T12:41:42Z</time></trkpt><trkpt lat="48.3727252769057" lon="-1.17869895788377"><ele>172.0</ele><time>2026-04-06T12:41:43Z</time></trkpt><trkpt lat="48.37255431053049" lon="-1.1788341384919527"><ele>170.0</ele><time>2026-04-06T12:41:44Z</time></trkpt><trkpt lat="48.37239154661454" lon="-1.1789718699027978"><ele>170.33333333333331</ele><time>2026-04-06T12:41:45Z</time></trkpt><trkpt lat="48.37223181703527" lon="-1.179107429921053"><ele>170.66666666666666</ele><time>2026-04-06T12:41:45.999Z</time></trkpt><trkpt lat="48.37207824433575" lon="-1.1792374285999594"><ele>171.0</ele><time>2026-04-06T12:41:46.999Z</time></trkpt><trkpt lat="48.37192786857069" lon="-1.1793597342378814"><ele>170.0</ele><time>2026-04-06T12:41:47.999Z</time></trkpt><trkpt lat="48.371785243790924" lon="-1.1794762341772342"><ele>169.0</ele><time>2026-04-06T12:41:48.999Z</time></trkpt><trkpt lat="48.3716479990013" lon="-1.1795844246628828"><ele>168.0</ele><time>2026-04-06T12:41:49.999Z</time></trkpt><trkpt lat="48.37151681164925" lon="-1.179688711119151"><ele>168.0</ele><time>2026-04-06T12:41:50.999Z</time></trkpt><trkpt lat="48.37139145546242" lon="-1.1797924421170645"><ele>168.0</ele><time>2026-04-06T12:41:51.999Z</time></trkpt><trkpt lat="48.37126854604335" lon="-1.179899339467508"><ele>168.0</ele><time>2026-04-06T12:41:52.999Z</time></trkpt><trkpt lat="48.37114914501846" lon="-1.1800114952162197"><ele>168.0</ele><time>2026-04-06T12:41:53.999Z</time></trkpt><trkpt lat="48.3710288498702" lon="-1.180121351871761"><ele>167.0</ele><time>2026-04-06T12:41:54.999Z</time></trkpt><trkpt lat="48.3709117556989" lon="-1.1802302403013896"><ele>166.0</ele><time>2026-04-06T12:41:55.999Z</time></trkpt><trkpt lat="48.37079236390272" lon="-1.180341659931455"><ele>165.0</ele><time>2026-04-06T12:41:56.999Z</time></trkpt><trkpt lat="48.370677803467046" lon="-1.1804556036267166"><ele>164.0</ele><time>2026-04-06T12:41:57.999Z</time></trkpt><trkpt lat="48.370562125626584" lon="-1.1805689110401054"><ele>164.5</ele><time>2026-04-06T12:41:58.999Z</time></trkpt><trkpt lat="48.37044827523146" lon="-1.1806820563138845"><ele>165.0</ele><time>2026-04-06T12:41:59.999Z</time></trkpt><trkpt lat="48.370337015396224" lon="-1.180801766198897"><ele>165.5</ele><time>2026-04-06T12:42:00.999Z</time></trkpt><trkpt lat="48.37022497288987" lon="-1.1809212575448529"><ele>166.0</ele><time>2026-04-06T12:42:01.999Z</time></trkpt><trkpt lat="48.370115268239054" lon="-1.181041289734062"><ele>166.0</ele><time>2026-04-06T12:42:02.999Z</time></trkpt><trkpt lat="48.3700046166301" lon="-1.1811619024900906"><ele>166.0</ele><time>2026-04-06T12:42:03.999Z</time></trkpt><trkpt lat="48.36989230650932" lon="-1.1812783591632499"><ele>166.0</ele><time>2026-04-06T12:42:04.999Z</time></trkpt><trkpt lat="48.36978534676026" lon="-1.1813946547919112"><ele>166.0</ele><time>2026-04-06T12:42:05.999Z</time></trkpt><trkpt lat="48.3696812404341" lon="-1.1815117662027441"><ele>166.75</ele><time>2026-04-06T12:42:06.999Z</time></trkpt><trkpt lat="48.36957462786407" lon="-1.1816257459527149"><ele>167.5</ele><time>2026-04-06T12:42:07.999Z</time></trkpt><trkpt lat="48.36946740571584" lon="-1.18174093579932"><ele>168.25</ele><time>2026-04-06T12:42:08.999Z</time></trkpt><trkpt lat="48.36936192434328" lon="-1.1818577467589106"><ele>169.0</ele><time>2026-04-06T12:42:09.999Z</time></trkpt><trkpt lat="48.369257477969704" lon="-1.1819736015045887"><ele>169.0</ele><time>2026-04-06T12:42:10.999Z</time></trkpt><trkpt lat="48.36915287346997" lon="-1.1820910696939704"><ele>169.0</ele><time>2026-04-06T12:42:11.999Z</time></trkpt><trkpt lat="48.369050121218095" lon="-1.1822088405866702"><ele>169.0</ele><time>2026-04-06T12:42:12.999Z</time></trkpt><trkpt lat="48.36894867365011" lon="-1.182329954955922"><ele>169.0</ele><time>2026-04-06T12:42:13.999Z</time></trkpt><trkpt lat="48.36884760209164" lon="-1.182447853558424"><ele>169.6</ele><time>2026-04-06T12:42:14.999Z</time></trkpt><trkpt lat="48.36875431253732" lon="-1.1825559894490258"><ele>170.2</ele><time>2026-04-06T12:42:15.999Z</time></trkpt><trkpt lat="48.36866504576144" lon="-1.1826597950701048"><ele>170.79999999999998</ele><time>2026-04-06T12:42:16.999Z</time></trkpt><trkpt lat="48.368581212211126" lon="-1.1827562244560095"><ele>171.39999999999998</ele><time>2026-04-06T12:42:17.999Z</time></trkpt><trkpt lat="48.368500260519056" lon="-1.1828449326575852"><ele>172.0</ele><time>2026-04-06T12:42:18.999Z</time></trkpt><trkpt lat="48.36841760662004" lon="-1.1829306386851774"><ele>172.0</ele><time>2026-04-06T12:42:19.999Z</time></trkpt><trkpt lat="48.368336224265825" lon="-1.1830148566929168"><ele>172.0</ele><time>2026-04-06T12:42:20.999Z</time></trkpt><trkpt lat="48.36825601738069" lon="-1.1831029830520203"><ele>172.0</ele><time>2026-04-06T12:42:21.999Z</time></trkpt><trkpt lat="48.36817814233763" lon="-1.1831896524768317"><ele>172.0</ele><time>2026-04-06T12:42:22.999Z</time></trkpt><trkpt lat="48.3680986934831" lon="-1.1832768343762565"><ele>172.0</ele><time>2026-04-06T12:42:23.999Z</time></trkpt><trkpt lat="48.368019554391765" lon="-1.1833592061705116"><ele>170.39999999999998</ele><time>2026-04-06T12:42:24.999Z</time></trkpt><trkpt lat="48.367943360473326" lon="-1.1834414340823645"><ele>168.79999999999998</ele><time>2026-04-06T12:42:25.999Z</time></trkpt><trkpt lat="48.36786442582981" lon="-1.1835282940600815"><ele>167.2</ele><time>2026-04-06T12:42:26.999Z</time></trkpt><trkpt lat="48.367783002204895" lon="-1.1836054289957825"><ele>165.6</ele><time>2026-04-06T12:42:27.999Z</time></trkpt><trkpt lat="48.36770338805297" lon="-1.1836870443357728"><ele>164.0</ele><time>2026-04-06T12:42:28.999Z</time></trkpt><trkpt lat="48.3676241365777" lon="-1.1837748153152778"><ele>164.0</ele><time>2026-04-06T12:42:29.999Z</time></trkpt><trkpt lat="48.36754295032895" lon="-1.1838660711499032"><ele>164.0</ele><time>2026-04-06T12:42:30.999Z</time></trkpt><trkpt lat="48.367461122394566" lon="-1.1839526815818033"><ele>164.0</ele><time>2026-04-06T12:42:31.999Z</time></trkpt><trkpt lat="48.36738268901432" lon="-1.1840438546879548"><ele>164.0</ele><time>2026-04-06T12:42:32.999Z</time></trkpt><trkpt lat="48.367303128305736" lon="-1.1841351373691562"><ele>164.0</ele><time>2026-04-06T12:42:33.999Z</time></trkpt><trkpt lat="48.3672203028642" lon="-1.184225256717285"><ele>161.39999999999998</ele><time>2026-04-06T12:42:34.999Z</time></trkpt><trkpt lat="48.36714017483332" lon="-1.18430448797866"><ele>158.79999999999998</ele><time>2026-04-06T12:42:35.999Z</time></trkpt><trkpt lat="48.367058737948035" lon="-1.1843876671000553"><ele>156.2</ele><time>2026-04-06T12:42:36.999Z</time></trkpt><trkpt lat="48.36697395706825" lon="-1.1844769140980147"><ele>153.6</ele><time>2026-04-06T12:42:37.999Z</time></trkpt><trkpt lat="48.366888571837166" lon="-1.1845656853712154"><ele>151.0</ele><time>2026-04-06T12:42:38.999Z</time></trkpt><trkpt lat="48.366807112482164" lon="-1.1846526167817089"><ele>151.0</ele><time>2026-04-06T12:42:39.999Z</time></trkpt><trkpt lat="48.36672647042517" lon="-1.1847392596203683"><ele>151.0</ele><time>2026-04-06T12:42:40.999Z</time></trkpt><trkpt lat="48.36664460819865" lon="-1.1848235482711371"><ele>151.0</ele><time>2026-04-06T12:42:41.999Z</time></trkpt><trkpt lat="48.36656339952745" lon="-1.184906866103601"><ele>151.0</ele><time>2026-04-06T12:42:42.999Z</time></trkpt><trkpt lat="48.36648479677098" lon="-1.1849912014122537"><ele>151.0</ele><time>2026-04-06T12:42:43.999Z</time></trkpt><trkpt lat="48.366407379497446" lon="-1.1850796566096296"><ele>150.33333333333334</ele><time>2026-04-06T12:42:44.999Z</time></trkpt><trkpt lat="48.36633003801174" lon="-1.1851663097898533"><ele>149.66666666666669</ele><time>2026-04-06T12:42:45.999Z</time></trkpt><trkpt lat="48.366251902206294" lon="-1.1852483172782664"><ele>149.0</ele><time>2026-04-06T12:42:46.999Z</time></trkpt><trkpt lat="48.36617285973688" lon="-1.1853282032385093"><ele>148.33333333333334</ele><time>2026-04-06T12:42:47.999Z</time></trkpt><trkpt lat="48.36610007636914" lon="-1.1853960909157586"><ele>147.66666666666666</ele><time>2026-04-06T12:42:48.999Z</time></trkpt><trkpt lat="48.366040443900104" lon="-1.1854562226007204"><ele>147.0</ele><time>2026-04-06T12:42:49.999Z</time></trkpt><trkpt lat="48.36598198295818" lon="-1.185515447454823"><ele>147.0</ele><time>2026-04-06T12:42:50.999Z</time></trkpt><trkpt lat="48.36592980900312" lon="-1.1855781843610902"><ele>147.0</ele><time>2026-04-06T12:42:51.999Z</time></trkpt><trkpt lat="48.36588132795708" lon="-1.1856519583783451"><ele>147.0</ele><time>2026-04-06T12:42:52.999Z</time></trkpt><trkpt lat="48.36584913843041" lon="-1.1858012906556397"><ele>147.0</ele><time>2026-04-06T12:42:54.999Z</time></trkpt><trkpt lat="48.36572486469658" lon="-1.1857915854203067"><ele>147.0</ele><time>2026-04-06T12:42:55.999Z</time></trkpt><trkpt lat="48.365649929700474" lon="-1.1857496787052397"><ele>147.0</ele><time>2026-04-06T12:42:56.999Z</time></trkpt><trkpt lat="48.365607226016145" lon="-1.185583158927922"><ele>147.0</ele><time>2026-04-06T12:42:57.999Z</time></trkpt><trkpt lat="48.36562456329842" lon="-1.1854633662216014"><ele>147.0</ele><time>2026-04-06T12:42:58.999Z</time></trkpt><trkpt lat="48.36564503780031" lon="-1.1853383956277619"><ele>147.0</ele><time>2026-04-06T12:42:59.999Z</time></trkpt><trkpt lat="48.365612400760504" lon="-1.1851663761387539"><ele>147.0</ele><time>2026-04-06T12:43:00.999Z</time></trkpt><trkpt lat="48.365554739125585" lon="-1.1850127290105488"><ele>147.0</ele><time>2026-04-06T12:43:01.999Z</time></trkpt><trkpt lat="48.365514141820775" lon="-1.1848877762029293"><ele>147.2</ele><time>2026-04-06T12:43:02.999Z</time></trkpt><trkpt lat="48.3655019627493" lon="-1.1847389608769376"><ele>147.39999999999998</ele><time>2026-04-06T12:43:03.999Z</time></trkpt><trkpt lat="48.36555025014934" lon="-1.1845912477280873"><ele>147.60000000000002</ele><time>2026-04-06T12:43:04.999Z</time></trkpt><trkpt lat="48.36559953982145" lon="-1.1844234959771542"><ele>147.8</ele><time>2026-04-06T12:43:05.999Z</time></trkpt><trkpt lat="48.36559754496725" lon="-1.1842454864882062"><ele>148.0</ele><time>2026-04-06T12:43:06.999Z</time></trkpt><trkpt lat="48.36558450193872" lon="-1.1840827643072784"><ele>148.0</ele><time>2026-04-06T12:43:07.999Z</time></trkpt><trkpt lat="48.36557451929731" lon="-1.183909736728937"><ele>148.0</ele><time>2026-04-06T12:43:08.999Z</time></trkpt><trkpt lat="48.365567648093176" lon="-1.183731945851593"><ele>148.0</ele><time>2026-04-06T12:43:09.999Z</time></trkpt><trkpt lat="48.365562293127184" lon="-1.183543894639937"><ele>148.0</ele><time>2026-04-06T12:43:10.999Z</time></trkpt><trkpt lat="48.36554951606719" lon="-1.1833556790166357"><ele>148.25</ele><time>2026-04-06T12:43:11.999Z</time></trkpt><trkpt lat="48.36553968702295" lon="-1.1831714382985412"><ele>148.5</ele><time>2026-04-06T12:43:12.999Z</time></trkpt><trkpt lat="48.36552793600918" lon="-1.183005455431916"><ele>148.75</ele><time>2026-04-06T12:43:13.999Z</time></trkpt><trkpt lat="48.36551643675723" lon="-1.1828345637483872"><ele>149.0</ele><time>2026-04-06T12:43:14.999Z</time></trkpt><trkpt lat="48.36550429716648" lon="-1.1826623796831404"><ele>146.75</ele><time>2026-04-06T12:43:15.999Z</time></trkpt><trkpt lat="48.36547706932624" lon="-1.182508883838219"><ele>144.5</ele><time>2026-04-06T12:43:16.999Z</time></trkpt><trkpt lat="48.36547621886906" lon="-1.1823347187243194"><ele>142.25</ele><time>2026-04-06T12:43:17.999Z</time></trkpt><trkpt lat="48.36546607152952" lon="-1.1821470675538728"><ele>140.0</ele><time>2026-04-06T12:43:18.999Z</time></trkpt><trkpt lat="48.36545411636909" lon="-1.181963069209227"><ele>139.75</ele><time>2026-04-06T12:43:19.999Z</time></trkpt><trkpt lat="48.365450885102035" lon="-1.1817587365063664"><ele>139.5</ele><time>2026-04-06T12:43:20.999Z</time></trkpt><trkpt lat="48.365431042815516" lon="-1.1815986264554323"><ele>139.25</ele><time>2026-04-06T12:43:21.999Z</time></trkpt><trkpt lat="48.36541929787923" lon="-1.1814355552178475"><ele>139.0</ele><time>2026-04-06T12:43:22.999Z</time></trkpt><trkpt lat="48.36540785933286" lon="-1.1812653513605456"><ele>138.5</ele><time>2026-04-06T12:43:23.999Z</time></trkpt><trkpt lat="48.36539964539205" lon="-1.1810845771341154"><ele>138.0</ele><time>2026-04-06T12:43:24.999Z</time></trkpt><trkpt lat="48.365390529774594" lon="-1.180906866974355"><ele>137.5</ele><time>2026-04-06T12:43:25.999Z</time></trkpt><trkpt lat="48.365372411955185" lon="-1.1806940791386409"><ele>137.0</ele><time>2026-04-06T12:43:26.999Z</time></trkpt><trkpt lat="48.365369288084814" lon="-1.1804639109461526"><ele>136.66666666666666</ele><time>2026-04-06T12:43:27.999Z</time></trkpt><trkpt lat="48.36535759656809" lon="-1.180214801526179"><ele>136.33333333333334</ele><time>2026-04-06T12:43:28.999Z</time></trkpt><trkpt lat="48.365330239536384" lon="-1.1799470650321024"><ele>136.0</ele><time>2026-04-06T12:43:29.999Z</time></trkpt><trkpt lat="48.365301376613424" lon="-1.1796579816553479"><ele>137.33333333333334</ele><time>2026-04-06T12:43:30.999Z</time></trkpt><trkpt lat="48.365276445843065" lon="-1.1793603726446633"><ele>138.66666666666666</ele><time>2026-04-06T12:43:31.999Z</time></trkpt><trkpt lat="48.36525110432502" lon="-1.1790501063438377"><ele>140.0</ele><time>2026-04-06T12:43:32.999Z</time></trkpt><trkpt lat="48.36522852940406" lon="-1.1787346179551526"><ele>142.0</ele><time>2026-04-06T12:43:33.999Z</time></trkpt><trkpt lat="48.36520931089665" lon="-1.1783934497182804"><ele>144.0</ele><time>2026-04-06T12:43:34.999Z</time></trkpt><trkpt lat="48.36519599419037" lon="-1.178081551639856"><ele>146.0</ele><time>2026-04-06T12:43:35.999Z</time></trkpt><trkpt lat="48.36519069648703" lon="-1.1777806339834163"><ele>146.33333333333331</ele><time>2026-04-06T12:43:36.999Z</time></trkpt><trkpt lat="48.36522530837753" lon="-1.1775020403716967"><ele>146.66666666666666</ele><time>2026-04-06T12:43:37.999Z</time></trkpt><trkpt lat="48.36528553571802" lon="-1.1772438538809507"><ele>147.0</ele><time>2026-04-06T12:43:38.999Z</time></trkpt><trkpt lat="48.36539143650308" lon="-1.1770209819733477"><ele>148.33333333333334</ele><time>2026-04-06T12:43:40Z</time></trkpt><trkpt lat="48.36551034364449" lon="-1.1768310074482606"><ele>149.66666666666669</ele><time>2026-04-06T12:43:41Z</time></trkpt><trkpt lat="48.36565678946653" lon="-1.176682878376738"><ele>151.0</ele><time>2026-04-06T12:43:42Z</time></trkpt><trkpt lat="48.36584266940994" lon="-1.1765386900334869"><ele>150.66666666666669</ele><time>2026-04-06T12:43:43Z</time></trkpt><trkpt lat="48.36602910572589" lon="-1.1763860481772792"><ele>150.33333333333334</ele><time>2026-04-06T12:43:44Z</time></trkpt><trkpt lat="48.366223294574624" lon="-1.1762043861237232"><ele>150.0</ele><time>2026-04-06T12:43:45Z</time></trkpt><trkpt lat="48.36641399576158" lon="-1.176044276295708"><ele>150.0</ele><time>2026-04-06T12:43:46Z</time></trkpt><trkpt lat="48.366600460905765" lon="-1.1758778046712903"><ele>150.0</ele><time>2026-04-06T12:43:47Z</time></trkpt><trkpt lat="48.366805756667006" lon="-1.1757097367578158"><ele>153.5</ele><time>2026-04-06T12:43:48Z</time></trkpt><trkpt lat="48.36700475875509" lon="-1.1755435347562455"><ele>157.0</ele><time>2026-04-06T12:43:49Z</time></trkpt><trkpt lat="48.367204469109495" lon="-1.1753730191687455"><ele>157.66666666666669</ele><time>2026-04-06T12:43:50Z</time></trkpt><trkpt lat="48.36738996827017" lon="-1.175207958887095"><ele>158.33333333333334</ele><time>2026-04-06T12:43:51Z</time></trkpt><trkpt lat="48.36756286882079" lon="-1.175058999549347"><ele>159.0</ele><time>2026-04-06T12:43:52Z</time></trkpt><trkpt lat="48.367720750799634" lon="-1.174914751511358"><ele>160.0</ele><time>2026-04-06T12:43:53Z</time></trkpt><trkpt lat="48.36787447937522" lon="-1.1747704108818813"><ele>161.0</ele><time>2026-04-06T12:43:54Z</time></trkpt><trkpt lat="48.36801302174724" lon="-1.174596536065925"><ele>162.0</ele><time>2026-04-06T12:43:55Z</time></trkpt><trkpt lat="48.368123410228435" lon="-1.1743959213168431"><ele>164.0</ele><time>2026-04-06T12:43:56Z</time></trkpt><trkpt lat="48.36820525075724" lon="-1.1741703085868307"><ele>166.0</ele><time>2026-04-06T12:43:57Z</time></trkpt><trkpt lat="48.36825865040505" lon="-1.1739126327084461"><ele>168.0</ele><time>2026-04-06T12:43:58Z</time></trkpt><trkpt lat="48.36829198607011" lon="-1.173632279470198"><ele>168.0</ele><time>2026-04-06T12:43:59Z</time></trkpt><trkpt lat="48.36833883602866" lon="-1.1733384517604772"><ele>168.0</ele><time>2026-04-06T12:44:00Z</time></trkpt><trkpt lat="48.36838453492823" lon="-1.1730829851331563"><ele>168.0</ele><time>2026-04-06T12:44:01Z</time></trkpt><trkpt lat="48.36842573726086" lon="-1.172845012513365"><ele>166.75</ele><time>2026-04-06T12:44:02Z</time></trkpt><trkpt lat="48.368446043892625" lon="-1.1726238497628185"><ele>165.5</ele><time>2026-04-06T12:44:03Z</time></trkpt><trkpt lat="48.36846972339161" lon="-1.1724213184569894"><ele>164.25</ele><time>2026-04-06T12:44:04Z</time></trkpt><trkpt lat="48.36847335098367" lon="-1.1722381501292212"><ele>163.0</ele><time>2026-04-06T12:44:05Z</time></trkpt><trkpt lat="48.36847955319186" lon="-1.1720881255187214"><ele>162.66666666666669</ele><time>2026-04-06T12:44:06Z</time></trkpt><trkpt lat="48.36845460466313" lon="-1.1719503578446784"><ele>162.33333333333334</ele><time>2026-04-06T12:44:07Z</time></trkpt><trkpt lat="48.36841434831281" lon="-1.1718354331774323"><ele>162.0</ele><time>2026-04-06T12:44:09Z</time></trkpt><trkpt lat="48.36837112515031" lon="-1.1717330395611365"><ele>161.66666666666666</ele><time>2026-04-06T12:44:14Z</time></trkpt><trkpt lat="48.36832601427081" lon="-1.171644056026037"><ele>161.33333333333331</ele><time>2026-04-06T12:44:16Z</time></trkpt><trkpt lat="48.36827447711784" lon="-1.171583187651558"><ele>161.0</ele><time>2026-04-06T12:44:17Z</time></trkpt><trkpt lat="48.36821212787267" lon="-1.171537071157736"><ele>161.33333333333331</ele><time>2026-04-06T12:44:18Z</time></trkpt><trkpt lat="48.36814659716343" lon="-1.1714788815513328"><ele>161.66666666666666</ele><time>2026-04-06T12:44:19Z</time></trkpt><trkpt lat="48.36810378781311" lon="-1.1713683145529483"><ele>162.0</ele><time>2026-04-06T12:44:20Z</time></trkpt><trkpt lat="48.368102533552985" lon="-1.1712431617147292"><ele>162.33333333333334</ele><time>2026-04-06T12:44:21Z</time></trkpt><trkpt lat="48.368125578355226" lon="-1.1711330017771657"><ele>162.66666666666669</ele><time>2026-04-06T12:44:22Z</time></trkpt><trkpt lat="48.36818303714008" lon="-1.1710316710815825"><ele>163.0</ele><time>2026-04-06T12:44:23Z</time></trkpt><trkpt lat="48.36826195776479" lon="-1.1709580748657948"><ele>163.0</ele><time>2026-04-06T12:44:24Z</time></trkpt><trkpt lat="48.368363771368884" lon="-1.1709147059684524"><ele>163.0</ele><time>2026-04-06T12:44:25Z</time></trkpt><trkpt lat="48.36846959047706" lon="-1.170868906147424"><ele>163.0</ele><time>2026-04-06T12:44:26Z</time></trkpt><trkpt lat="48.3685598553034" lon="-1.1707461712059266"><ele>163.0</ele><time>2026-04-06T12:44:27Z</time></trkpt><trkpt lat="48.36864505619782" lon="-1.17060458549365"><ele>164.33333333333334</ele><time>2026-04-06T12:44:28Z</time></trkpt><trkpt lat="48.36872319889422" lon="-1.1704408644145665"><ele>165.66666666666666</ele><time>2026-04-06T12:44:29Z</time></trkpt><trkpt lat="48.36878141782601" lon="-1.1702116152638335"><ele>167.0</ele><time>2026-04-06T12:44:30Z</time></trkpt><trkpt lat="48.36883727627628" lon="-1.1699429340291476"><ele>171.66666666666666</ele><time>2026-04-06T12:44:31Z</time></trkpt><trkpt lat="48.36888605548434" lon="-1.1696760232353804"><ele>176.33333333333334</ele><time>2026-04-06T12:44:32Z</time></trkpt><trkpt lat="48.368932161884665" lon="-1.1694072258024426"><ele>181.0</ele><time>2026-04-06T12:44:33Z</time></trkpt><trkpt lat="48.368979811661134" lon="-1.1691293972085972"><ele>181.66666666666669</ele><time>2026-04-06T12:44:34Z</time></trkpt><trkpt lat="48.36902589465319" lon="-1.1688507612031365"><ele>182.33333333333334</ele><time>2026-04-06T12:44:35Z</time></trkpt><trkpt lat="48.369082478631235" lon="-1.1685645191885217"><ele>183.0</ele><time>2026-04-06T12:44:36Z</time></trkpt><trkpt lat="48.36913485435217" lon="-1.1682858012968267"><ele>182.0</ele><time>2026-04-06T12:44:37Z</time></trkpt><trkpt lat="48.369184627580786" lon="-1.168001615662994"><ele>181.0</ele><time>2026-04-06T12:44:38Z</time></trkpt><trkpt lat="48.369239646920725" lon="-1.1677185684393232"><ele>180.0</ele><time>2026-04-06T12:44:39Z</time></trkpt><trkpt lat="48.36926241882332" lon="-1.1674277817024417"><ele>179.33333333333334</ele><time>2026-04-06T12:44:40Z</time></trkpt><trkpt lat="48.36931362367527" lon="-1.167134813433972"><ele>178.66666666666669</ele><time>2026-04-06T12:44:41Z</time></trkpt><trkpt lat="48.36936768814362" lon="-1.1668382886837265"><ele>178.0</ele><time>2026-04-06T12:44:42Z</time></trkpt><trkpt lat="48.36939577134321" lon="-1.1665601192643134"><ele>177.0</ele><time>2026-04-06T12:44:43Z</time></trkpt><trkpt lat="48.36943928869474" lon="-1.166295361666872"><ele>176.0</ele><time>2026-04-06T12:44:44Z</time></trkpt><trkpt lat="48.36948416223294" lon="-1.1660400390066534"><ele>175.0</ele><time>2026-04-06T12:44:45Z</time></trkpt><trkpt lat="48.36951881396432" lon="-1.1658059603338229"><ele>173.66666666666669</ele><time>2026-04-06T12:44:46Z</time></trkpt><trkpt lat="48.36955654357327" lon="-1.165568197514881"><ele>172.33333333333334</ele><time>2026-04-06T12:44:47Z</time></trkpt><trkpt lat="48.369591761493794" lon="-1.1653332382185402"><ele>171.0</ele><time>2026-04-06T12:44:48Z</time></trkpt><trkpt lat="48.36962673495766" lon="-1.1651023082507057"><ele>171.0</ele><time>2026-04-06T12:44:49Z</time></trkpt><trkpt lat="48.36965551714234" lon="-1.1648836540613383"><ele>171.0</ele><time>2026-04-06T12:44:50Z</time></trkpt><trkpt lat="48.36968555481229" lon="-1.164669242265034"><ele>171.0</ele><time>2026-04-06T12:44:51Z</time></trkpt><trkpt lat="48.36972297768668" lon="-1.1644425424234515"><ele>171.0</ele><time>2026-04-06T12:44:52Z</time></trkpt><trkpt lat="48.3697636763576" lon="-1.1642334621492845"><ele>172.25</ele><time>2026-04-06T12:44:53Z</time></trkpt><trkpt lat="48.369796048018436" lon="-1.1640320822560315"><ele>173.5</ele><time>2026-04-06T12:44:54Z</time></trkpt><trkpt lat="48.36983144826712" lon="-1.1638266889723257"><ele>174.75</ele><time>2026-04-06T12:44:55Z</time></trkpt><trkpt lat="48.36986752137426" lon="-1.1636176978978303"><ele>176.0</ele><time>2026-04-06T12:44:56Z</time></trkpt><trkpt lat="48.36989992082554" lon="-1.163413501897628"><ele>176.75</ele><time>2026-04-06T12:44:57Z</time></trkpt><trkpt lat="48.36993488579178" lon="-1.163233181500667"><ele>177.5</ele><time>2026-04-06T12:44:58Z</time></trkpt><trkpt lat="48.36995991057485" lon="-1.163053252767735"><ele>178.25</ele><time>2026-04-06T12:44:59Z</time></trkpt><trkpt lat="48.36999318409955" lon="-1.1628664032956635"><ele>179.0</ele><time>2026-04-06T12:45:00Z</time></trkpt><trkpt lat="48.37001854374136" lon="-1.1626920888201235"><ele>179.0</ele><time>2026-04-06T12:45:01Z</time></trkpt><trkpt lat="48.370047190835926" lon="-1.1625225768331828"><ele>179.0</ele><time>2026-04-06T12:45:02Z</time></trkpt><trkpt lat="48.37007335509966" lon="-1.1623544730550852"><ele>179.0</ele><time>2026-04-06T12:45:03Z</time></trkpt><trkpt lat="48.37010301328225" lon="-1.1621772918073092"><ele>179.0</ele><time>2026-04-06T12:45:04Z</time></trkpt><trkpt lat="48.37013421233266" lon="-1.1619944349577367"><ele>179.0</ele><time>2026-04-06T12:45:05Z</time></trkpt><trkpt lat="48.37016522108098" lon="-1.1618067809210597"><ele>179.0</ele><time>2026-04-06T12:45:06Z</time></trkpt><trkpt lat="48.37019508717032" lon="-1.161620208205338"><ele>179.0</ele><time>2026-04-06T12:45:07Z</time></trkpt><trkpt lat="48.37022214812609" lon="-1.161435938081411"><ele>179.0</ele><time>2026-04-06T12:45:08Z</time></trkpt><trkpt lat="48.37024247256686" lon="-1.1612515372601637"><ele>179.5</ele><time>2026-04-06T12:45:09Z</time></trkpt><trkpt lat="48.37026991298782" lon="-1.1610626557177168"><ele>180.0</ele><time>2026-04-06T12:45:10Z</time></trkpt><trkpt lat="48.37030153209987" lon="-1.1608720864941464"><ele>180.5</ele><time>2026-04-06T12:45:10.999Z</time></trkpt><trkpt lat="48.370334673138544" lon="-1.1606841370813923"><ele>181.0</ele><time>2026-04-06T12:45:11.999Z</time></trkpt><trkpt lat="48.37036303587559" lon="-1.1605089437925564"><ele>181.5</ele><time>2026-04-06T12:45:12.999Z</time></trkpt><trkpt lat="48.37038740969846" lon="-1.160338325086133"><ele>182.0</ele><time>2026-04-06T12:45:13.999Z</time></trkpt><trkpt lat="48.37041428289307" lon="-1.1601680292190248"><ele>182.5</ele><time>2026-04-06T12:45:14.999Z</time></trkpt><trkpt lat="48.370441365365835" lon="-1.1599976238009773"><ele>183.0</ele><time>2026-04-06T12:45:15.999Z</time></trkpt><trkpt lat="48.37045575027222" lon="-1.1598273230678413"><ele>183.5</ele><time>2026-04-06T12:45:16.999Z</time></trkpt><trkpt lat="48.370471676512395" lon="-1.1596507953805086"><ele>184.0</ele><time>2026-04-06T12:45:17.999Z</time></trkpt><trkpt lat="48.37049798925773" lon="-1.159473159995562"><ele>184.5</ele><time>2026-04-06T12:45:18.999Z</time></trkpt><trkpt lat="48.37052005627249" lon="-1.1592810586576385"><ele>185.0</ele><time>2026-04-06T12:45:19.999Z</time></trkpt><trkpt lat="48.370521942696556" lon="-1.1590999847464254"><ele>184.75</ele><time>2026-04-06T12:45:20.999Z</time></trkpt><trkpt lat="48.37053344191472" lon="-1.1589208119689631"><ele>184.5</ele><time>2026-04-06T12:45:21.999Z</time></trkpt><trkpt lat="48.3705527498112" lon="-1.1587384354891122"><ele>184.25</ele><time>2026-04-06T12:45:22.999Z</time></trkpt><trkpt lat="48.37054071018623" lon="-1.158549095263727"><ele>184.0</ele><time>2026-04-06T12:45:23.999Z</time></trkpt><trkpt lat="48.37054621236098" lon="-1.15836759615591"><ele>184.25</ele><time>2026-04-06T12:45:24.999Z</time></trkpt><trkpt lat="48.37054605627922" lon="-1.158190120360743"><ele>184.5</ele><time>2026-04-06T12:45:25.999Z</time></trkpt><trkpt lat="48.37054924933553" lon="-1.1580105150754256"><ele>184.75</ele><time>2026-04-06T12:45:26.999Z</time></trkpt><trkpt lat="48.370552751314726" lon="-1.157820289015143"><ele>185.0</ele><time>2026-04-06T12:45:27.999Z</time></trkpt><trkpt lat="48.370563360140764" lon="-1.1576454755818852"><ele>185.0</ele><time>2026-04-06T12:45:28.999Z</time></trkpt><trkpt lat="48.37056710312063" lon="-1.157461829542163"><ele>185.0</ele><time>2026-04-06T12:45:29.999Z</time></trkpt><trkpt lat="48.370572993939824" lon="-1.1572766805303385"><ele>185.0</ele><time>2026-04-06T12:45:30.999Z</time></trkpt><trkpt lat="48.3705802597853" lon="-1.1570973185954079"><ele>185.0</ele><time>2026-04-06T12:45:31.999Z</time></trkpt><trkpt lat="48.3705870695692" lon="-1.156916458193931"><ele>184.5</ele><time>2026-04-06T12:45:32.999Z</time></trkpt><trkpt lat="48.370590493441654" lon="-1.156736494447688"><ele>184.0</ele><time>2026-04-06T12:45:33.999Z</time></trkpt><trkpt lat="48.370592154666724" lon="-1.1565540592727204"><ele>183.5</ele><time>2026-04-06T12:45:34.999Z</time></trkpt><trkpt lat="48.37059811011054" lon="-1.1563751826334752"><ele>183.0</ele><time>2026-04-06T12:45:35.999Z</time></trkpt><trkpt lat="48.37059668339451" lon="-1.1561989752871122"><ele>182.75</ele><time>2026-04-06T12:45:36.999Z</time></trkpt><trkpt lat="48.370598727482076" lon="-1.156016003922164"><ele>182.5</ele><time>2026-04-06T12:45:37.999Z</time></trkpt><trkpt lat="48.37060425479927" lon="-1.1558316306745584"><ele>182.25</ele><time>2026-04-06T12:45:38.999Z</time></trkpt><trkpt lat="48.37060714265473" lon="-1.1556506975155307"><ele>182.0</ele><time>2026-04-06T12:45:39.999Z</time></trkpt><trkpt lat="48.37061115851123" lon="-1.1554664450644878"><ele>181.75</ele><time>2026-04-06T12:45:40.999Z</time></trkpt><trkpt lat="48.37061295988463" lon="-1.1552822959393336"><ele>181.5</ele><time>2026-04-06T12:45:41.999Z</time></trkpt><trkpt lat="48.370610507695055" lon="-1.1550974181470715"><ele>181.25</ele><time>2026-04-06T12:45:42.999Z</time></trkpt><trkpt lat="48.370613034986135" lon="-1.154913708378961"><ele>181.0</ele><time>2026-04-06T12:45:43.999Z</time></trkpt><trkpt lat="48.37061851460012" lon="-1.154723651656743"><ele>180.75</ele><time>2026-04-06T12:45:44.999Z</time></trkpt><trkpt lat="48.37062398375472" lon="-1.1545336985619512"><ele>180.5</ele><time>2026-04-06T12:45:46Z</time></trkpt><trkpt lat="48.370627415246844" lon="-1.1543430098126741"><ele>180.25</ele><time>2026-04-06T12:45:47Z</time></trkpt><trkpt lat="48.3706309048171" lon="-1.1541567883953943"><ele>180.0</ele><time>2026-04-06T12:45:48Z</time></trkpt><trkpt lat="48.37063599056133" lon="-1.15396893009445"><ele>179.75</ele><time>2026-04-06T12:45:49Z</time></trkpt><trkpt lat="48.3706424691064" lon="-1.1537813062022757"><ele>179.5</ele><time>2026-04-06T12:45:50Z</time></trkpt><trkpt lat="48.370646169238995" lon="-1.1535936337889672"><ele>179.25</ele><time>2026-04-06T12:45:51Z</time></trkpt><trkpt lat="48.37064933811403" lon="-1.1534154801020606"><ele>179.0</ele><time>2026-04-06T12:45:52Z</time></trkpt><trkpt lat="48.3706490624477" lon="-1.1532436978273035"><ele>178.79999999999998</ele><time>2026-04-06T12:45:53Z</time></trkpt><trkpt lat="48.37064809805392" lon="-1.1530790544124645"><ele>178.6</ele><time>2026-04-06T12:45:54Z</time></trkpt><trkpt lat="48.37065003416879" lon="-1.1529278297016514"><ele>178.4</ele><time>2026-04-06T12:45:55Z</time></trkpt><trkpt lat="48.37065244418778" lon="-1.1527917795215374"><ele>178.2</ele><time>2026-04-06T12:45:56Z</time></trkpt><trkpt lat="48.37065536249283" lon="-1.1526593172408341"><ele>178.0</ele><time>2026-04-06T12:45:57Z</time></trkpt><trkpt lat="48.37065796781185" lon="-1.1525354003668298"><ele>178.0</ele><time>2026-04-06T12:45:58Z</time></trkpt><trkpt lat="48.37065847039538" lon="-1.1524167122846756"><ele>178.0</ele><time>2026-04-06T12:45:59Z</time></trkpt><trkpt lat="48.37066089549871" lon="-1.152302457649594"><ele>178.0</ele><time>2026-04-06T12:46:00Z</time></trkpt><trkpt lat="48.37066612118089" lon="-1.1521815465810314"><ele>178.0</ele><time>2026-04-06T12:46:01Z</time></trkpt><trkpt lat="48.37066827271191" lon="-1.152042052524588"><ele>178.0</ele><time>2026-04-06T12:46:02Z</time></trkpt><trkpt lat="48.370672736468336" lon="-1.1518827662755338"><ele>178.0</ele><time>2026-04-06T12:46:03Z</time></trkpt><trkpt lat="48.3706787126548" lon="-1.1517233740710167"><ele>178.0</ele><time>2026-04-06T12:46:04Z</time></trkpt><trkpt lat="48.37068398628352" lon="-1.151575613971739"><ele>178.0</ele><time>2026-04-06T12:46:05Z</time></trkpt><trkpt lat="48.37069041968369" lon="-1.1514339815115648"><ele>178.0</ele><time>2026-04-06T12:46:06Z</time></trkpt><trkpt lat="48.370694389443024" lon="-1.1513050689366737"><ele>178.0</ele><time>2026-04-06T12:46:07Z</time></trkpt><trkpt lat="48.37069563716474" lon="-1.1511863476474213"><ele>178.0</ele><time>2026-04-06T12:46:08Z</time></trkpt><trkpt lat="48.37070013373907" lon="-1.1510722351208154"><ele>178.0</ele><time>2026-04-06T12:46:09Z</time></trkpt><trkpt lat="48.370702386749564" lon="-1.1509627492838805"><ele>178.0</ele><time>2026-04-06T12:46:10Z</time></trkpt><trkpt lat="48.370702412723666" lon="-1.1508639936926428"><ele>178.0</ele><time>2026-04-06T12:46:11Z</time></trkpt><trkpt lat="48.37070283204544" lon="-1.1506813113495369"><ele>178.0</ele><time>2026-04-06T12:46:13Z</time></trkpt><trkpt lat="48.37070286698104" lon="-1.150532963376551"><ele>178.0</ele><time>2026-04-06T12:46:15Z</time></trkpt><trkpt lat="48.37070314534391" lon="-1.1504330867253452"><ele>178.0</ele><time>2026-04-06T12:46:17Z</time></trkpt><trkpt lat="48.37071465942077" lon="-1.1502519545403904"><ele>178.16666666666669</ele><time>2026-04-06T12:46:19Z</time></trkpt><trkpt lat="48.37071970939026" lon="-1.1501462596111678"><ele>178.33333333333334</ele><time>2026-04-06T12:46:20Z</time></trkpt><trkpt lat="48.37072514227386" lon="-1.150033191683986"><ele>178.5</ele><time>2026-04-06T12:46:21Z</time></trkpt><trkpt lat="48.370727470659496" lon="-1.1499028053114526"><ele>178.66666666666666</ele><time>2026-04-06T12:46:22Z</time></trkpt><trkpt lat="48.37072958314117" lon="-1.1497501879025158"><ele>178.83333333333331</ele><time>2026-04-06T12:46:23Z</time></trkpt><trkpt lat="48.37073061882152" lon="-1.1495954975263718"><ele>179.0</ele><time>2026-04-06T12:46:24Z</time></trkpt><trkpt lat="48.37072812789602" lon="-1.1494475466044647"><ele>179.2</ele><time>2026-04-06T12:46:25Z</time></trkpt><trkpt lat="48.37073710497914" lon="-1.1492950198020921"><ele>179.39999999999998</ele><time>2026-04-06T12:46:26Z</time></trkpt><trkpt lat="48.37073949304079" lon="-1.1491390689829604"><ele>179.6</ele><time>2026-04-06T12:46:27Z</time></trkpt><trkpt lat="48.37074444823599" lon="-1.148976447564048"><ele>179.8</ele><time>2026-04-06T12:46:28Z</time></trkpt><trkpt lat="48.37074343033801" lon="-1.1488227268698477"><ele>180.0</ele><time>2026-04-06T12:46:29Z</time></trkpt><trkpt lat="48.37074496466606" lon="-1.1486664683212673"><ele>180.0</ele><time>2026-04-06T12:46:30Z</time></trkpt><trkpt lat="48.37074450356292" lon="-1.1485077333625089"><ele>180.0</ele><time>2026-04-06T12:46:31Z</time></trkpt><trkpt lat="48.370746467895586" lon="-1.1483513854172867"><ele>180.0</ele><time>2026-04-06T12:46:32Z</time></trkpt><trkpt lat="48.370750101960255" lon="-1.1481971981607852"><ele>180.0</ele><time>2026-04-06T12:46:33Z</time></trkpt><trkpt lat="48.37075409829892" lon="-1.148038144247089"><ele>180.0</ele><time>2026-04-06T12:46:34Z</time></trkpt><trkpt lat="48.370748079012515" lon="-1.147869898424155"><ele>179.75</ele><time>2026-04-06T12:46:35Z</time></trkpt><trkpt lat="48.37074958381795" lon="-1.1476933835712757"><ele>179.5</ele><time>2026-04-06T12:46:36Z</time></trkpt><trkpt lat="48.37074910716824" lon="-1.1474981261448565"><ele>179.25</ele><time>2026-04-06T12:46:37Z</time></trkpt><trkpt lat="48.37075529694167" lon="-1.1472960852676055"><ele>179.0</ele><time>2026-04-06T12:46:38Z</time></trkpt><trkpt lat="48.37075807847382" lon="-1.1470999445824044"><ele>178.5</ele><time>2026-04-06T12:46:39Z</time></trkpt><trkpt lat="48.37076364770265" lon="-1.1469151576140355"><ele>178.0</ele><time>2026-04-06T12:46:40Z</time></trkpt><trkpt lat="48.37076865596026" lon="-1.1467325585925383"><ele>177.5</ele><time>2026-04-06T12:46:41Z</time></trkpt><trkpt lat="48.37077448164945" lon="-1.1465506445001508"><ele>177.0</ele><time>2026-04-06T12:46:42Z</time></trkpt><trkpt lat="48.370784085876245" lon="-1.1463738544779822"><ele>176.75</ele><time>2026-04-06T12:46:43Z</time></trkpt><trkpt lat="48.37080215382241" lon="-1.1461969406745125"><ele>176.5</ele><time>2026-04-06T12:46:44Z</time></trkpt><trkpt lat="48.37081959071047" lon="-1.1460250278639965"><ele>176.25</ele><time>2026-04-06T12:46:45Z</time></trkpt><trkpt lat="48.370834097422005" lon="-1.1458437481735892"><ele>176.0</ele><time>2026-04-06T12:46:46Z</time></trkpt><trkpt lat="48.37084772243943" lon="-1.1456635039649843"><ele>176.0</ele><time>2026-04-06T12:46:47Z</time></trkpt><trkpt lat="48.37085439492207" lon="-1.1454832900782785"><ele>176.0</ele><time>2026-04-06T12:46:48Z</time></trkpt><trkpt lat="48.370850720147295" lon="-1.1452978938085574"><ele>176.0</ele><time>2026-04-06T12:46:49Z</time></trkpt><trkpt lat="48.37080949125625" lon="-1.1451164833669019"><ele>176.0</ele><time>2026-04-06T12:46:50Z</time></trkpt><trkpt lat="48.370794452628246" lon="-1.144917608247543"><ele>176.25</ele><time>2026-04-06T12:46:51Z</time></trkpt><trkpt lat="48.370782463380294" lon="-1.1447170352199423"><ele>176.5</ele><time>2026-04-06T12:46:52Z</time></trkpt><trkpt lat="48.37076694131162" lon="-1.1445155318130134"><ele>176.75</ele><time>2026-04-06T12:46:53Z</time></trkpt><trkpt lat="48.37074514117379" lon="-1.1443062175249525"><ele>177.0</ele><time>2026-04-06T12:46:54Z</time></trkpt><trkpt lat="48.37071326306896" lon="-1.1440955097084269"><ele>177.0</ele><time>2026-04-06T12:46:55Z</time></trkpt><trkpt lat="48.370671071422834" lon="-1.1438889590033492"><ele>177.0</ele><time>2026-04-06T12:46:56Z</time></trkpt><trkpt lat="48.37061320099834" lon="-1.1436836365915752"><ele>177.0</ele><time>2026-04-06T12:46:57Z</time></trkpt><trkpt lat="48.37054086325113" lon="-1.1434925106684706"><ele>177.0</ele><time>2026-04-06T12:46:58Z</time></trkpt><trkpt lat="48.37046061919421" lon="-1.1433183209525635"><ele>178.0</ele><time>2026-04-06T12:46:59Z</time></trkpt><trkpt lat="48.370371058067505" lon="-1.1431379157302541"><ele>179.0</ele><time>2026-04-06T12:47:00Z</time></trkpt><trkpt lat="48.37027735249983" lon="-1.142951923310519"><ele>180.0</ele><time>2026-04-06T12:47:01Z</time></trkpt><trkpt lat="48.37018264209933" lon="-1.1427619299552498"><ele>180.0</ele><time>2026-04-06T12:47:02Z</time></trkpt><trkpt lat="48.37008140454181" lon="-1.1425666331420157"><ele>180.0</ele><time>2026-04-06T12:47:03Z</time></trkpt><trkpt lat="48.369977174411105" lon="-1.1423622086193075"><ele>180.0</ele><time>2026-04-06T12:47:04Z</time></trkpt><trkpt lat="48.36987094076256" lon="-1.1421538545535044"><ele>181.0</ele><time>2026-04-06T12:47:05Z</time></trkpt><trkpt lat="48.369765977457604" lon="-1.1419479919460696"><ele>182.0</ele><time>2026-04-06T12:47:06Z</time></trkpt><trkpt lat="48.369659441159456" lon="-1.141739044285516"><ele>183.0</ele><time>2026-04-06T12:47:07Z</time></trkpt><trkpt lat="48.3695529163208" lon="-1.1415305586905713"><ele>183.66666666666666</ele><time>2026-04-06T12:47:08Z</time></trkpt><trkpt lat="48.36944503001709" lon="-1.1413203880231877"><ele>184.33333333333331</ele><time>2026-04-06T12:47:09Z</time></trkpt><trkpt lat="48.36933776646412" lon="-1.1411114305166992"><ele>185.0</ele><time>2026-04-06T12:47:10Z</time></trkpt><trkpt lat="48.369245860248604" lon="-1.1409008239270881"><ele>184.66666666666666</ele><time>2026-04-06T12:47:11Z</time></trkpt><trkpt lat="48.369145598444476" lon="-1.1407088277860469"><ele>184.33333333333334</ele><time>2026-04-06T12:47:12Z</time></trkpt><trkpt lat="48.369051086847875" lon="-1.1405182620639258"><ele>184.0</ele><time>2026-04-06T12:47:13Z</time></trkpt><trkpt lat="48.36896072804248" lon="-1.140325229536214"><ele>184.0</ele><time>2026-04-06T12:47:14Z</time></trkpt><trkpt lat="48.36887686037818" lon="-1.1401442573308551"><ele>184.0</ele><time>2026-04-06T12:47:15Z</time></trkpt><trkpt lat="48.36879804191329" lon="-1.139968569234822"><ele>184.0</ele><time>2026-04-06T12:47:16Z</time></trkpt><trkpt lat="48.36872296694136" lon="-1.1398000477324695"><ele>184.0</ele><time>2026-04-06T12:47:17Z</time></trkpt><trkpt lat="48.36864910675983" lon="-1.1396356133065944"><ele>184.25</ele><time>2026-04-06T12:47:18Z</time></trkpt><trkpt lat="48.36857575666091" lon="-1.1394781905053046"><ele>184.5</ele><time>2026-04-06T12:47:19Z</time></trkpt><trkpt lat="48.36849881653817" lon="-1.139338418088732"><ele>184.75</ele><time>2026-04-06T12:47:20Z</time></trkpt><trkpt lat="48.36840330517902" lon="-1.1392541922332466"><ele>185.0</ele><time>2026-04-06T12:47:21Z</time></trkpt><trkpt lat="48.368308960700844" lon="-1.1391915661427674"><ele>185.0</ele><time>2026-04-06T12:47:22Z</time></trkpt><trkpt lat="48.368211157487146" lon="-1.1391669276262604"><ele>185.0</ele><time>2026-04-06T12:47:23Z</time></trkpt><trkpt lat="48.36810670027929" lon="-1.139172357387712"><ele>185.0</ele><time>2026-04-06T12:47:24Z</time></trkpt><trkpt lat="48.36799518405334" lon="-1.1392031294992824"><ele>185.0</ele><time>2026-04-06T12:47:25Z</time></trkpt><trkpt lat="48.36787514765027" lon="-1.1392479970537421"><ele>185.0</ele><time>2026-04-06T12:47:26Z</time></trkpt><trkpt lat="48.367749816730615" lon="-1.1393024529434106"><ele>184.25</ele><time>2026-04-06T12:47:27Z</time></trkpt><trkpt lat="48.36761983035539" lon="-1.1393611944652724"><ele>183.5</ele><time>2026-04-06T12:47:28Z</time></trkpt><trkpt lat="48.36749290051263" lon="-1.1394185547400177"><ele>182.75</ele><time>2026-04-06T12:47:29Z</time></trkpt><trkpt lat="48.36736402222633" lon="-1.1394767955000764"><ele>182.0</ele><time>2026-04-06T12:47:30Z</time></trkpt><trkpt lat="48.367234454563395" lon="-1.1395340280293387"><ele>182.25</ele><time>2026-04-06T12:47:31Z</time></trkpt><trkpt lat="48.36711016596107" lon="-1.1395887485193577"><ele>182.5</ele><time>2026-04-06T12:47:32Z</time></trkpt><trkpt lat="48.366990572634094" lon="-1.1396370368065705"><ele>182.75</ele><time>2026-04-06T12:47:33Z</time></trkpt><trkpt lat="48.366871481721674" lon="-1.1396553343524811"><ele>183.0</ele><time>2026-04-06T12:47:34Z</time></trkpt><trkpt lat="48.366757748919824" lon="-1.1396860224725445"><ele>183.0</ele><time>2026-04-06T12:47:35Z</time></trkpt><trkpt lat="48.36664731808714" lon="-1.139695127448628"><ele>183.0</ele><time>2026-04-06T12:47:36Z</time></trkpt><trkpt lat="48.36653321060332" lon="-1.1397028988740028"><ele>183.0</ele><time>2026-04-06T12:47:37Z</time></trkpt><trkpt lat="48.366421375642545" lon="-1.1396252485851874"><ele>183.0</ele><time>2026-04-06T12:47:38Z</time></trkpt><trkpt lat="48.36630694411112" lon="-1.1395481032059909"><ele>183.0</ele><time>2026-04-06T12:47:39Z</time></trkpt><trkpt lat="48.36619847581863" lon="-1.1394557267287857"><ele>183.0</ele><time>2026-04-06T12:47:40Z</time></trkpt><trkpt lat="48.366084485710296" lon="-1.1393472201886214"><ele>183.0</ele><time>2026-04-06T12:47:41Z</time></trkpt><trkpt lat="48.36596458219757" lon="-1.1392305490000336"><ele>183.0</ele><time>2026-04-06T12:47:42Z</time></trkpt><trkpt lat="48.36583820297352" lon="-1.1391138518151578"><ele>182.66666666666666</ele><time>2026-04-06T12:47:43Z</time></trkpt><trkpt lat="48.365705946384956" lon="-1.138986490975054"><ele>182.33333333333331</ele><time>2026-04-06T12:47:44Z</time></trkpt><trkpt lat="48.36556735842806" lon="-1.1388541978571498"><ele>182.0</ele><time>2026-04-06T12:47:45Z</time></trkpt><trkpt lat="48.36542559091765" lon="-1.1387166320916216"><ele>182.66666666666666</ele><time>2026-04-06T12:47:46Z</time></trkpt><trkpt lat="48.36528564793513" lon="-1.1385788332421263"><ele>183.33333333333334</ele><time>2026-04-06T12:47:47Z</time></trkpt><trkpt lat="48.36514340479523" lon="-1.1384394987605784"><ele>184.0</ele><time>2026-04-06T12:47:48Z</time></trkpt><trkpt lat="48.364998099680804" lon="-1.1383007309212234"><ele>183.66666666666669</ele><time>2026-04-06T12:47:49Z</time></trkpt><trkpt lat="48.36485393708603" lon="-1.1381592920858519"><ele>183.33333333333334</ele><time>2026-04-06T12:47:50Z</time></trkpt><trkpt lat="48.36470719432673" lon="-1.1380193230179712"><ele>183.0</ele><time>2026-04-06T12:47:51Z</time></trkpt><trkpt lat="48.36456098286181" lon="-1.1378838183461328"><ele>184.33333333333334</ele><time>2026-04-06T12:47:52Z</time></trkpt><trkpt lat="48.36441809660112" lon="-1.1377462319466864"><ele>185.66666666666669</ele><time>2026-04-06T12:47:53Z</time></trkpt><trkpt lat="48.36427710874832" lon="-1.1376106124987402"><ele>187.0</ele><time>2026-04-06T12:47:54Z</time></trkpt><trkpt lat="48.364137580983055" lon="-1.1374753462395943"><ele>187.0</ele><time>2026-04-06T12:47:55Z</time></trkpt><trkpt lat="48.36400011904161" lon="-1.137339068418266"><ele>187.0</ele><time>2026-04-06T12:47:56Z</time></trkpt><trkpt lat="48.363860759396786" lon="-1.1372024226762958"><ele>187.0</ele><time>2026-04-06T12:47:57Z</time></trkpt><trkpt lat="48.36372636434541" lon="-1.1370749480991325"><ele>188.33333333333334</ele><time>2026-04-06T12:47:58Z</time></trkpt><trkpt lat="48.36359754501611" lon="-1.1369485938325112"><ele>189.66666666666666</ele><time>2026-04-06T12:47:59Z</time></trkpt><trkpt lat="48.363465066276845" lon="-1.1368180897335345"><ele>191.0</ele><time>2026-04-06T12:48:00Z</time></trkpt><trkpt lat="48.363333620449225" lon="-1.136690612074241"><ele>191.0</ele><time>2026-04-06T12:48:01Z</time></trkpt><trkpt lat="48.3632024645613" lon="-1.1365643917689716"><ele>191.0</ele><time>2026-04-06T12:48:02Z</time></trkpt><trkpt lat="48.36306561434384" lon="-1.136431608612016"><ele>191.0</ele><time>2026-04-06T12:48:03Z</time></trkpt><trkpt lat="48.362927966645316" lon="-1.1363008420026535"><ele>190.0</ele><time>2026-04-06T12:48:04Z</time></trkpt><trkpt lat="48.36279116364674" lon="-1.1361846609096662"><ele>189.0</ele><time>2026-04-06T12:48:05Z</time></trkpt><trkpt lat="48.36265858465244" lon="-1.1360652103819961"><ele>188.0</ele><time>2026-04-06T12:48:06Z</time></trkpt><trkpt lat="48.36253085134658" lon="-1.13594417273231"><ele>188.0</ele><time>2026-04-06T12:48:07Z</time></trkpt><trkpt lat="48.36240639635569" lon="-1.135822179973389"><ele>188.0</ele><time>2026-04-06T12:48:08Z</time></trkpt><trkpt lat="48.362279289046285" lon="-1.1357038557228105"><ele>188.0</ele><time>2026-04-06T12:48:09Z</time></trkpt><trkpt lat="48.36215337710798" lon="-1.135581526239696"><ele>188.0</ele><time>2026-04-06T12:48:10Z</time></trkpt><trkpt lat="48.36203048458184" lon="-1.1354617406125427"><ele>186.0</ele><time>2026-04-06T12:48:11Z</time></trkpt><trkpt lat="48.36190616483103" lon="-1.135341336761601"><ele>184.0</ele><time>2026-04-06T12:48:12Z</time></trkpt><trkpt lat="48.36178032379986" lon="-1.135219953868756"><ele>182.0</ele><time>2026-04-06T12:48:13Z</time></trkpt><trkpt lat="48.36165302276903" lon="-1.1350909474113575"><ele>182.0</ele><time>2026-04-06T12:48:14Z</time></trkpt><trkpt lat="48.36153550979529" lon="-1.1349447728576314"><ele>182.0</ele><time>2026-04-06T12:48:15Z</time></trkpt><trkpt lat="48.36144267310804" lon="-1.1347770629179768"><ele>182.0</ele><time>2026-04-06T12:48:16Z</time></trkpt><trkpt lat="48.36137118698156" lon="-1.1345887980227118"><ele>182.0</ele><time>2026-04-06T12:48:17Z</time></trkpt><trkpt lat="48.36131352637076" lon="-1.1343893126803641"><ele>183.0</ele><time>2026-04-06T12:48:18Z</time></trkpt><trkpt lat="48.36127415436859" lon="-1.134166258643469"><ele>184.0</ele><time>2026-04-06T12:48:19Z</time></trkpt><trkpt lat="48.361252136269385" lon="-1.1339580774227016"><ele>185.0</ele><time>2026-04-06T12:48:20Z</time></trkpt><trkpt lat="48.36123790259657" lon="-1.133763811242437"><ele>186.0</ele><time>2026-04-06T12:48:21Z</time></trkpt><trkpt lat="48.36123460952989" lon="-1.13358231486563"><ele>186.0</ele><time>2026-04-06T12:48:22Z</time></trkpt><trkpt lat="48.36122941849947" lon="-1.1333975576300537"><ele>186.0</ele><time>2026-04-06T12:48:23Z</time></trkpt><trkpt lat="48.36122864544972" lon="-1.1332067646183734"><ele>186.0</ele><time>2026-04-06T12:48:24Z</time></trkpt><trkpt lat="48.36122093028979" lon="-1.1330157485549863"><ele>186.0</ele><time>2026-04-06T12:48:25Z</time></trkpt><trkpt lat="48.361216487449724" lon="-1.132827317969718"><ele>185.5</ele><time>2026-04-06T12:48:26Z</time></trkpt><trkpt lat="48.36121281814242" lon="-1.1326366488994406"><ele>185.0</ele><time>2026-04-06T12:48:27Z</time></trkpt><trkpt lat="48.36120551205045" lon="-1.1324417382487504"><ele>184.5</ele><time>2026-04-06T12:48:28Z</time></trkpt><trkpt lat="48.361197232198" lon="-1.1322424597761096"><ele>184.0</ele><time>2026-04-06T12:48:29Z</time></trkpt><trkpt lat="48.36118797138842" lon="-1.132035802075752"><ele>182.75</ele><time>2026-04-06T12:48:30Z</time></trkpt><trkpt lat="48.36117944824535" lon="-1.1318223612987441"><ele>181.5</ele><time>2026-04-06T12:48:31Z</time></trkpt><trkpt lat="48.361172360282204" lon="-1.1316017704457808"><ele>180.25</ele><time>2026-04-06T12:48:32Z</time></trkpt><trkpt lat="48.36116375355059" lon="-1.1313709940419197"><ele>179.0</ele><time>2026-04-06T12:48:33Z</time></trkpt><trkpt lat="48.36115789237875" lon="-1.1311348890609108"><ele>178.0</ele><time>2026-04-06T12:48:34Z</time></trkpt><trkpt lat="48.361151135040885" lon="-1.1309004740789053"><ele>177.0</ele><time>2026-04-06T12:48:35Z</time></trkpt><trkpt lat="48.361142349670615" lon="-1.1306632690661753"><ele>176.0</ele><time>2026-04-06T12:48:36Z</time></trkpt><trkpt lat="48.36113454459224" lon="-1.1304180672682436"><ele>174.33333333333331</ele><time>2026-04-06T12:48:37Z</time></trkpt><trkpt lat="48.36112784964301" lon="-1.1301731586239063"><ele>172.66666666666666</ele><time>2026-04-06T12:48:38Z</time></trkpt><trkpt lat="48.361120293998674" lon="-1.1299257734180685"><ele>171.0</ele><time>2026-04-06T12:48:39Z</time></trkpt><trkpt lat="48.3611105891577" lon="-1.1296774967053973"><ele>171.0</ele><time>2026-04-06T12:48:40Z</time></trkpt><trkpt lat="48.361093771483006" lon="-1.1294297800217412"><ele>171.0</ele><time>2026-04-06T12:48:41Z</time></trkpt><trkpt lat="48.36107460508348" lon="-1.1291815348384604"><ele>171.0</ele><time>2026-04-06T12:48:42Z</time></trkpt><trkpt lat="48.36105057016947" lon="-1.1289331948278307"><ele>169.66666666666666</ele><time>2026-04-06T12:48:43Z</time></trkpt><trkpt lat="48.36101836757238" lon="-1.1286900292110096"><ele>168.33333333333331</ele><time>2026-04-06T12:48:44Z</time></trkpt><trkpt lat="48.36098300527671" lon="-1.1284439642448072"><ele>167.0</ele><time>2026-04-06T12:48:45Z</time></trkpt><trkpt lat="48.36094408462945" lon="-1.1281980729349603"><ele>166.33333333333331</ele><time>2026-04-06T12:48:46Z</time></trkpt><trkpt lat="48.36090234674629" lon="-1.1279506831064967"><ele>165.66666666666666</ele><time>2026-04-06T12:48:47Z</time></trkpt><trkpt lat="48.360861418536956" lon="-1.127701860492504"><ele>165.0</ele><time>2026-04-06T12:48:48Z</time></trkpt><trkpt lat="48.360823144906604" lon="-1.1274524190995276"><ele>164.66666666666666</ele><time>2026-04-06T12:48:49Z</time></trkpt><trkpt lat="48.360788148659196" lon="-1.1272032435880155"><ele>164.33333333333331</ele><time>2026-04-06T12:48:50Z</time></trkpt><trkpt lat="48.3607567801173" lon="-1.1269502636836928"><ele>164.0</ele><time>2026-04-06T12:48:51Z</time></trkpt><trkpt lat="48.36072746741528" lon="-1.126697593482518"><ele>163.33333333333331</ele><time>2026-04-06T12:48:52Z</time></trkpt><trkpt lat="48.36070391963569" lon="-1.12645778970837"><ele>162.66666666666666</ele><time>2026-04-06T12:48:53Z</time></trkpt><trkpt lat="48.36068023975101" lon="-1.1262295467930026"><ele>162.0</ele><time>2026-04-06T12:48:54Z</time></trkpt><trkpt lat="48.3606609855805" lon="-1.1260217785050264"><ele>162.0</ele><time>2026-04-06T12:48:55Z</time></trkpt><trkpt lat="48.36064484704666" lon="-1.1258368792943405"><ele>162.0</ele><time>2026-04-06T12:48:56Z</time></trkpt><trkpt lat="48.360630631364806" lon="-1.1256832602593998"><ele>162.0</ele><time>2026-04-06T12:48:57Z</time></trkpt><trkpt lat="48.3606196119808" lon="-1.1255416668132794"><ele>162.0</ele><time>2026-04-06T12:48:58Z</time></trkpt><trkpt lat="48.3606078665967" lon="-1.1254263954809058"><ele>162.0</ele><time>2026-04-06T12:48:59Z</time></trkpt><trkpt lat="48.36056888269444" lon="-1.1252541705348544"><ele>162.0</ele><time>2026-04-06T12:49:01Z</time></trkpt><trkpt lat="48.36056652520167" lon="-1.1251183401086007"><ele>162.0</ele><time>2026-04-06T12:49:03Z</time></trkpt><trkpt lat="48.360430288809695" lon="-1.1251548596229413"><ele>162.0</ele><time>2026-04-06T12:49:04Z</time></trkpt><trkpt lat="48.36036335780911" lon="-1.1251763555960403"><ele>162.0</ele><time>2026-04-06T12:49:05Z</time></trkpt><trkpt lat="48.360279735842305" lon="-1.1252149981188064"><ele>162.0</ele><time>2026-04-06T12:49:06Z</time></trkpt><trkpt lat="48.36017520428209" lon="-1.1252718667363555"><ele>162.0</ele><time>2026-04-06T12:49:07Z</time></trkpt><trkpt lat="48.36005469016215" lon="-1.1253416412958475"><ele>162.0</ele><time>2026-04-06T12:49:08Z</time></trkpt><trkpt lat="48.35992839187096" lon="-1.1254150894056238"><ele>162.0</ele><time>2026-04-06T12:49:09Z</time></trkpt><trkpt lat="48.35980171848302" lon="-1.1254889971424344"><ele>162.0</ele><time>2026-04-06T12:49:10Z</time></trkpt><trkpt lat="48.35966411838004" lon="-1.1255692800954669"><ele>161.0</ele><time>2026-04-06T12:49:11Z</time></trkpt><trkpt lat="48.359518352590314" lon="-1.1256314030283183"><ele>160.0</ele><time>2026-04-06T12:49:12Z</time></trkpt><trkpt lat="48.35937890800214" lon="-1.1257167742602663"><ele>159.0</ele><time>2026-04-06T12:49:13Z</time></trkpt><trkpt lat="48.359232749261885" lon="-1.125802965942202"><ele>159.0</ele><time>2026-04-06T12:49:14Z</time></trkpt><trkpt lat="48.35908504495871" lon="-1.1258852987732177"><ele>159.0</ele><time>2026-04-06T12:49:15Z</time></trkpt><trkpt lat="48.35894159244875" lon="-1.125957719860103"><ele>159.0</ele><time>2026-04-06T12:49:16Z</time></trkpt><trkpt lat="48.35879762018472" lon="-1.1260169716880348"><ele>157.0</ele><time>2026-04-06T12:49:17Z</time></trkpt><trkpt lat="48.358652238927206" lon="-1.1260629462773122"><ele>155.0</ele><time>2026-04-06T12:49:18Z</time></trkpt><trkpt lat="48.35850773697896" lon="-1.1260984817144915"><ele>153.0</ele><time>2026-04-06T12:49:19Z</time></trkpt><trkpt lat="48.35836561479783" lon="-1.126126617451419"><ele>151.0</ele><time>2026-04-06T12:49:20Z</time></trkpt><trkpt lat="48.358226926634295" lon="-1.1261571044325391"><ele>151.0</ele><time>2026-04-06T12:49:21Z</time></trkpt><trkpt lat="48.35808844227607" lon="-1.1261842005746623"><ele>151.0</ele><time>2026-04-06T12:49:22Z</time></trkpt><trkpt lat="48.35794950359996" lon="-1.1262123365904706"><ele>151.0</ele><time>2026-04-06T12:49:23Z</time></trkpt><trkpt lat="48.35781187886716" lon="-1.1262425574697597"><ele>151.0</ele><time>2026-04-06T12:49:24Z</time></trkpt><trkpt lat="48.357675057018035" lon="-1.1262700468411413"><ele>150.0</ele><time>2026-04-06T12:49:25Z</time></trkpt><trkpt lat="48.35754198919935" lon="-1.1262986808699633"><ele>149.0</ele><time>2026-04-06T12:49:26Z</time></trkpt><trkpt lat="48.35741825592899" lon="-1.126337883838528"><ele>148.0</ele><time>2026-04-06T12:49:27Z</time></trkpt><trkpt lat="48.35730007155379" lon="-1.126391144936661"><ele>147.0</ele><time>2026-04-06T12:49:28Z</time></trkpt><trkpt lat="48.35717346686391" lon="-1.1264519050285708"><ele>147.0</ele><time>2026-04-06T12:49:29Z</time></trkpt><trkpt lat="48.35703868289092" lon="-1.1265274269000367"><ele>147.0</ele><time>2026-04-06T12:49:30Z</time></trkpt><trkpt lat="48.35691538614624" lon="-1.1266568157651535"><ele>147.0</ele><time>2026-04-06T12:49:31Z</time></trkpt><trkpt lat="48.35678482651297" lon="-1.1267814641676908"><ele>147.0</ele><time>2026-04-06T12:49:32Z</time></trkpt><trkpt lat="48.35664791966642" lon="-1.1269121459200993"><ele>146.33333333333334</ele><time>2026-04-06T12:49:33Z</time></trkpt><trkpt lat="48.35650632815681" lon="-1.127046540707684"><ele>145.66666666666669</ele><time>2026-04-06T12:49:34Z</time></trkpt><trkpt lat="48.35635430872331" lon="-1.1271644698872079"><ele>145.0</ele><time>2026-04-06T12:49:35Z</time></trkpt><trkpt lat="48.356210449986435" lon="-1.127305875124183"><ele>144.33333333333334</ele><time>2026-04-06T12:49:36Z</time></trkpt><trkpt lat="48.356072282115115" lon="-1.1274697542820755"><ele>143.66666666666666</ele><time>2026-04-06T12:49:37Z</time></trkpt><trkpt lat="48.355921489822094" lon="-1.1275855998430666"><ele>143.0</ele><time>2026-04-06T12:49:38Z</time></trkpt><trkpt lat="48.35576797695845" lon="-1.127669928396388"><ele>143.0</ele><time>2026-04-06T12:49:39Z</time></trkpt><trkpt lat="48.355614290076325" lon="-1.1277214730297396"><ele>143.0</ele><time>2026-04-06T12:49:40Z</time></trkpt><trkpt lat="48.355457488127925" lon="-1.1277503774787296"><ele>143.0</ele><time>2026-04-06T12:49:41Z</time></trkpt><trkpt lat="48.35529978948992" lon="-1.1277299966585368"><ele>141.75</ele><time>2026-04-06T12:49:42Z</time></trkpt><trkpt lat="48.35515098340935" lon="-1.1277271796915063"><ele>140.5</ele><time>2026-04-06T12:49:43Z</time></trkpt><trkpt lat="48.35502187722772" lon="-1.1277320947644092"><ele>139.25</ele><time>2026-04-06T12:49:44Z</time></trkpt><trkpt lat="48.35489085517759" lon="-1.1277231551269977"><ele>138.0</ele><time>2026-04-06T12:49:45Z</time></trkpt><trkpt lat="48.35476220258244" lon="-1.1277148775693429"><ele>136.75</ele><time>2026-04-06T12:49:46Z</time></trkpt><trkpt lat="48.354628097699724" lon="-1.1277004074051407"><ele>135.5</ele><time>2026-04-06T12:49:47Z</time></trkpt><trkpt lat="48.354492541001925" lon="-1.127722147356955"><ele>134.25</ele><time>2026-04-06T12:49:48Z</time></trkpt><trkpt lat="48.35435645080857" lon="-1.127778610455912"><ele>133.0</ele><time>2026-04-06T12:49:49Z</time></trkpt><trkpt lat="48.35422778843664" lon="-1.1278474087495505"><ele>133.0</ele><time>2026-04-06T12:49:50Z</time></trkpt><trkpt lat="48.354102360315004" lon="-1.1279196322282772"><ele>133.0</ele><time>2026-04-06T12:49:51Z</time></trkpt><trkpt lat="48.35397985925529" lon="-1.1279914670963187"><ele>133.0</ele><time>2026-04-06T12:49:52Z</time></trkpt><trkpt lat="48.35386078103272" lon="-1.1280522718291872"><ele>133.0</ele><time>2026-04-06T12:49:53Z</time></trkpt><trkpt lat="48.35374078165209" lon="-1.1281267800122357"><ele>132.25</ele><time>2026-04-06T12:49:54Z</time></trkpt><trkpt lat="48.35362345628721" lon="-1.128200087625142"><ele>131.5</ele><time>2026-04-06T12:49:55Z</time></trkpt><trkpt lat="48.35350694542837" lon="-1.1282644160007407"><ele>130.75</ele><time>2026-04-06T12:49:56Z</time></trkpt><trkpt lat="48.353388461590704" lon="-1.1283172593283033"><ele>130.0</ele><time>2026-04-06T12:49:57Z</time></trkpt><trkpt lat="48.35327147179674" lon="-1.128366827068477"><ele>130.0</ele><time>2026-04-06T12:49:58Z</time></trkpt><trkpt lat="48.35315269674074" lon="-1.1284033324356737"><ele>130.0</ele><time>2026-04-06T12:49:59Z</time></trkpt><trkpt lat="48.35303354913816" lon="-1.1284354821374891"><ele>130.0</ele><time>2026-04-06T12:50:00Z</time></trkpt><trkpt lat="48.352920806149484" lon="-1.1284634291772007"><ele>130.0</ele><time>2026-04-06T12:50:01Z</time></trkpt><trkpt lat="48.35281237404392" lon="-1.1284838454147992"><ele>129.16666666666669</ele><time>2026-04-06T12:50:02Z</time></trkpt><trkpt lat="48.35271374190231" lon="-1.1284994236064467"><ele>128.33333333333334</ele><time>2026-04-06T12:50:03Z</time></trkpt><trkpt lat="48.352625046153186" lon="-1.1285111646187886"><ele>127.5</ele><time>2026-04-06T12:50:04Z</time></trkpt><trkpt lat="48.352545084655304" lon="-1.128523803469782"><ele>126.66666666666666</ele><time>2026-04-06T12:50:05Z</time></trkpt><trkpt lat="48.35248164687781" lon="-1.1285363834410862"><ele>125.83333333333333</ele><time>2026-04-06T12:50:06Z</time></trkpt><trkpt lat="48.352381803463004" lon="-1.128559270057058"><ele>125.0</ele><time>2026-04-06T12:50:08Z</time></trkpt><trkpt lat="48.35229302842902" lon="-1.1285445346970224"><ele>125.0</ele><time>2026-04-06T12:50:13Z</time></trkpt><trkpt lat="48.35224035312291" lon="-1.1283199631927447"><ele>125.0</ele><time>2026-04-06T12:50:15Z</time></trkpt><trkpt lat="48.35222002664345" lon="-1.1282004201483677"><ele>125.0</ele><time>2026-04-06T12:50:16Z</time></trkpt><trkpt lat="48.35218654400557" lon="-1.1280490294198833"><ele>125.0</ele><time>2026-04-06T12:50:17Z</time></trkpt><trkpt lat="48.352157242993776" lon="-1.1278869013700132"><ele>124.0</ele><time>2026-04-06T12:50:18Z</time></trkpt><trkpt lat="48.352123577318665" lon="-1.1277085171537056"><ele>123.0</ele><time>2026-04-06T12:50:19Z</time></trkpt><trkpt lat="48.352078365873304" lon="-1.1274618012663047"><ele>122.0</ele><time>2026-04-06T12:50:20Z</time></trkpt><trkpt lat="48.35201630117717" lon="-1.1272399854312738"><ele>121.33333333333333</ele><time>2026-04-06T12:50:21Z</time></trkpt><trkpt lat="48.35196778252251" lon="-1.1270034548848655"><ele>120.66666666666666</ele><time>2026-04-06T12:50:22Z</time></trkpt><trkpt lat="48.35191119231113" lon="-1.1267275751811294"><ele>120.0</ele><time>2026-04-06T12:50:23Z</time></trkpt><trkpt lat="48.35184481988477" lon="-1.126404006739159"><ele>118.5</ele><time>2026-04-06T12:50:24Z</time></trkpt><trkpt lat="48.3517685631944" lon="-1.126037672277699"><ele>117.0</ele><time>2026-04-06T12:50:25Z</time></trkpt><trkpt lat="48.35169662687939" lon="-1.1257090332576016"><ele>116.33333333333334</ele><time>2026-04-06T12:50:26Z</time></trkpt><trkpt lat="48.351623217553424" lon="-1.1253959592281184"><ele>115.66666666666667</ele><time>2026-04-06T12:50:27Z</time></trkpt><trkpt lat="48.35154914560181" lon="-1.1250836292213406"><ele>115.0</ele><time>2026-04-06T12:50:28Z</time></trkpt><trkpt lat="48.35147167319304" lon="-1.1247685749096659"><ele>114.33333333333334</ele><time>2026-04-06T12:50:29Z</time></trkpt><trkpt lat="48.351394425146104" lon="-1.1244661024240388"><ele>113.66666666666666</ele><time>2026-04-06T12:50:30Z</time></trkpt><trkpt lat="48.35131922004486" lon="-1.1241716300212918"><ele>113.0</ele><time>2026-04-06T12:50:31Z</time></trkpt><trkpt lat="48.351243827824206" lon="-1.123872773467537"><ele>111.66666666666666</ele><time>2026-04-06T12:50:32Z</time></trkpt><trkpt lat="48.35117105299534" lon="-1.123571816634303"><ele>110.33333333333334</ele><time>2026-04-06T12:50:33Z</time></trkpt><trkpt lat="48.351101928197124" lon="-1.123262234808309"><ele>109.0</ele><time>2026-04-06T12:50:34Z</time></trkpt><trkpt lat="48.351049177187036" lon="-1.1229508274587814"><ele>108.33333333333334</ele><time>2026-04-06T12:50:35Z</time></trkpt><trkpt lat="48.35100618404747" lon="-1.1226391809685095"><ele>107.66666666666666</ele><time>2026-04-06T12:50:36Z</time></trkpt><trkpt lat="48.35097626983754" lon="-1.1223206672079775"><ele>107.0</ele><time>2026-04-06T12:50:37Z</time></trkpt><trkpt lat="48.350975170387805" lon="-1.1220016116245086"><ele>106.66666666666666</ele><time>2026-04-06T12:50:38Z</time></trkpt><trkpt lat="48.350967529735655" lon="-1.1216842631536321"><ele>106.33333333333334</ele><time>2026-04-06T12:50:39Z</time></trkpt><trkpt lat="48.35097832433389" lon="-1.1213701103805027"><ele>106.0</ele><time>2026-04-06T12:50:40Z</time></trkpt><trkpt lat="48.35100208677426" lon="-1.1210535437435618"><ele>106.0</ele><time>2026-04-06T12:50:41Z</time></trkpt><trkpt lat="48.35103685887488" lon="-1.1207403829785318"><ele>106.0</ele><time>2026-04-06T12:50:42Z</time></trkpt><trkpt lat="48.35107027858636" lon="-1.120422505291953"><ele>106.0</ele><time>2026-04-06T12:50:43Z</time></trkpt><trkpt lat="48.3511051663563" lon="-1.1201063843921668"><ele>107.0</ele><time>2026-04-06T12:50:44Z</time></trkpt><trkpt lat="48.35113831389184" lon="-1.1197903100001623"><ele>108.0</ele><time>2026-04-06T12:50:45Z</time></trkpt><trkpt lat="48.35116699288091" lon="-1.1194720848205895"><ele>109.0</ele><time>2026-04-06T12:50:46Z</time></trkpt><trkpt lat="48.35118664634235" lon="-1.1191530029245627"><ele>109.33333333333334</ele><time>2026-04-06T12:50:47Z</time></trkpt><trkpt lat="48.351194754801675" lon="-1.118832918393949"><ele>109.66666666666666</ele><time>2026-04-06T12:50:48Z</time></trkpt><trkpt lat="48.35119102331014" lon="-1.1185106174575132"><ele>110.0</ele><time>2026-04-06T12:50:49Z</time></trkpt><trkpt lat="48.35117524045735" lon="-1.118188807475011"><ele>110.66666666666666</ele><time>2026-04-06T12:50:50Z</time></trkpt><trkpt lat="48.35114732646771" lon="-1.1178655334629695"><ele>111.33333333333334</ele><time>2026-04-06T12:50:51Z</time></trkpt><trkpt lat="48.35110871608883" lon="-1.1175412311605157"><ele>112.0</ele><time>2026-04-06T12:50:52Z</time></trkpt><trkpt lat="48.35106453326295" lon="-1.1172173544400728"><ele>112.33333333333334</ele><time>2026-04-06T12:50:53Z</time></trkpt><trkpt lat="48.35101487142664" lon="-1.116893460007882"><ele>112.66666666666666</ele><time>2026-04-06T12:50:54Z</time></trkpt><trkpt lat="48.35096759414093" lon="-1.1165699083808884"><ele>113.0</ele><time>2026-04-06T12:50:55Z</time></trkpt><trkpt lat="48.35092033561862" lon="-1.1162450724615822"><ele>113.0</ele><time>2026-04-06T12:50:56Z</time></trkpt><trkpt lat="48.35087614677511" lon="-1.1159139993776797"><ele>113.0</ele><time>2026-04-06T12:50:57Z</time></trkpt><trkpt lat="48.35083092489947" lon="-1.1155894073840398"><ele>113.0</ele><time>2026-04-06T12:50:58Z</time></trkpt><trkpt lat="48.35078132346606" lon="-1.1152613870839199"><ele>111.5</ele><time>2026-04-06T12:50:59Z</time></trkpt><trkpt lat="48.35073204406311" lon="-1.114928111640264"><ele>110.0</ele><time>2026-04-06T12:51:00Z</time></trkpt><trkpt lat="48.35068454144561" lon="-1.1145879495799143"><ele>109.5</ele><time>2026-04-06T12:51:01Z</time></trkpt><trkpt lat="48.35063803286158" lon="-1.1142426597063657"><ele>109.0</ele><time>2026-04-06T12:51:02Z</time></trkpt><trkpt lat="48.35058960170463" lon="-1.1139026589460357"><ele>109.5</ele><time>2026-04-06T12:51:03Z</time></trkpt><trkpt lat="48.35053703440582" lon="-1.1135655304260403"><ele>110.0</ele><time>2026-04-06T12:51:04Z</time></trkpt><trkpt lat="48.35048605499201" lon="-1.1132364300088327"><ele>110.0</ele><time>2026-04-06T12:51:05Z</time></trkpt><trkpt lat="48.35044077658919" lon="-1.1129081214931091"><ele>110.0</ele><time>2026-04-06T12:51:06Z</time></trkpt><trkpt lat="48.3503976005149" lon="-1.1125856980936006"><ele>110.0</ele><time>2026-04-06T12:51:07Z</time></trkpt><trkpt lat="48.350356746566554" lon="-1.1122671109020588"><ele>111.0</ele><time>2026-04-06T12:51:08Z</time></trkpt><trkpt lat="48.35030599281461" lon="-1.1119541887672628"><ele>112.0</ele><time>2026-04-06T12:51:09Z</time></trkpt><trkpt lat="48.35023542043866" lon="-1.1116500447391127"><ele>113.0</ele><time>2026-04-06T12:51:10Z</time></trkpt><trkpt lat="48.35015161743987" lon="-1.1113515915198164"><ele>114.66666666666666</ele><time>2026-04-06T12:51:11Z</time></trkpt><trkpt lat="48.35006839777862" lon="-1.1110540969268303"><ele>116.33333333333334</ele><time>2026-04-06T12:51:12Z</time></trkpt><trkpt lat="48.34997822329415" lon="-1.1107608350744342"><ele>118.0</ele><time>2026-04-06T12:51:13Z</time></trkpt><trkpt lat="48.349892402903485" lon="-1.110470381039019"><ele>118.66666666666667</ele><time>2026-04-06T12:51:14Z</time></trkpt><trkpt lat="48.349802142918826" lon="-1.1101797274929242"><ele>119.33333333333334</ele><time>2026-04-06T12:51:15Z</time></trkpt><trkpt lat="48.34971498043052" lon="-1.109893080417317"><ele>120.0</ele><time>2026-04-06T12:51:16Z</time></trkpt><trkpt lat="48.3496358677508" lon="-1.1096206436054823"><ele>120.0</ele><time>2026-04-06T12:51:17Z</time></trkpt><trkpt lat="48.34956076530043" lon="-1.1093616580796992"><ele>120.0</ele><time>2026-04-06T12:51:18Z</time></trkpt><trkpt lat="48.34948863329411" lon="-1.1091348813920838"><ele>120.0</ele><time>2026-04-06T12:51:19Z</time></trkpt><trkpt lat="48.349422280552204" lon="-1.1089198862743064"><ele>120.0</ele><time>2026-04-06T12:51:20Z</time></trkpt><trkpt lat="48.34936283101626" lon="-1.1087078478892736"><ele>120.0</ele><time>2026-04-06T12:51:21Z</time></trkpt><trkpt lat="48.34930924042342" lon="-1.1085149767686395"><ele>120.0</ele><time>2026-04-06T12:51:22Z</time></trkpt><trkpt lat="48.34926609911334" lon="-1.1083290487301445"><ele>120.0</ele><time>2026-04-06T12:51:23Z</time></trkpt><trkpt lat="48.34922558564274" lon="-1.1081376650136368"><ele>120.0</ele><time>2026-04-06T12:51:24Z</time></trkpt><trkpt lat="48.34918765244198" lon="-1.1079433347056746"><ele>120.0</ele><time>2026-04-06T12:51:25Z</time></trkpt><trkpt lat="48.349149370869604" lon="-1.1077513994418953"><ele>120.0</ele><time>2026-04-06T12:51:26Z</time></trkpt><trkpt lat="48.34910835252128" lon="-1.1075583603703258"><ele>120.0</ele><time>2026-04-06T12:51:27Z</time></trkpt><trkpt lat="48.3490683447243" lon="-1.1073617793481645"><ele>119.75</ele><time>2026-04-06T12:51:28Z</time></trkpt><trkpt lat="48.34903122203593" lon="-1.1071583384759114"><ele>119.5</ele><time>2026-04-06T12:51:29Z</time></trkpt><trkpt lat="48.348991831206554" lon="-1.1069524942581326"><ele>119.25</ele><time>2026-04-06T12:51:30Z</time></trkpt><trkpt lat="48.348952163003936" lon="-1.1067367672561548"><ele>119.0</ele><time>2026-04-06T12:51:31Z</time></trkpt><trkpt lat="48.348911809372424" lon="-1.1065152958731426"><ele>116.33333333333333</ele><time>2026-04-06T12:51:32Z</time></trkpt><trkpt lat="48.34887248729074" lon="-1.1062859146341901"><ele>113.66666666666666</ele><time>2026-04-06T12:51:33Z</time></trkpt><trkpt lat="48.34883361827901" lon="-1.1060645233137403"><ele>111.0</ele><time>2026-04-06T12:51:34Z</time></trkpt><trkpt lat="48.34879290795761" lon="-1.1058459222828039"><ele>110.5</ele><time>2026-04-06T12:51:35Z</time></trkpt><trkpt lat="48.3487537394997" lon="-1.1056309395303003"><ele>110.0</ele><time>2026-04-06T12:51:36Z</time></trkpt><trkpt lat="48.348719240170645" lon="-1.1054176650930634"><ele>109.5</ele><time>2026-04-06T12:51:37Z</time></trkpt><trkpt lat="48.34868500868428" lon="-1.1052101670947156"><ele>109.0</ele><time>2026-04-06T12:51:38Z</time></trkpt><trkpt lat="48.348651299684924" lon="-1.1050058490061645"><ele>109.75</ele><time>2026-04-06T12:51:39Z</time></trkpt><trkpt lat="48.3486177420058" lon="-1.104800695751763"><ele>110.5</ele><time>2026-04-06T12:51:40Z</time></trkpt><trkpt lat="48.34858562689573" lon="-1.1046001056025458"><ele>111.25</ele><time>2026-04-06T12:51:41Z</time></trkpt><trkpt lat="48.34855106838213" lon="-1.104396642907752"><ele>112.0</ele><time>2026-04-06T12:51:42Z</time></trkpt><trkpt lat="48.34851486240209" lon="-1.1042077551486804"><ele>112.5</ele><time>2026-04-06T12:51:43Z</time></trkpt><trkpt lat="48.3484831740668" lon="-1.104015225249903"><ele>113.0</ele><time>2026-04-06T12:51:44Z</time></trkpt><trkpt lat="48.34845808382446" lon="-1.1038185586723257"><ele>113.5</ele><time>2026-04-06T12:51:45Z</time></trkpt><trkpt lat="48.34842598580033" lon="-1.1036300935350067"><ele>114.0</ele><time>2026-04-06T12:51:46Z</time></trkpt><trkpt lat="48.348394261307526" lon="-1.1034384107674349"><ele>115.25</ele><time>2026-04-06T12:51:47Z</time></trkpt><trkpt lat="48.34836515580133" lon="-1.1032465628946482"><ele>116.5</ele><time>2026-04-06T12:51:48Z</time></trkpt><trkpt lat="48.34833250386133" lon="-1.1030540197981766"><ele>117.75</ele><time>2026-04-06T12:51:49Z</time></trkpt><trkpt lat="48.348293227767186" lon="-1.1028684280540482"><ele>119.0</ele><time>2026-04-06T12:51:50Z</time></trkpt><trkpt lat="48.34826867814841" lon="-1.1026765047538005"><ele>119.0</ele><time>2026-04-06T12:51:51Z</time></trkpt><trkpt lat="48.34824043357766" lon="-1.102498972425465"><ele>119.0</ele><time>2026-04-06T12:51:52Z</time></trkpt><trkpt lat="48.34821052196508" lon="-1.1023399850272118"><ele>119.0</ele><time>2026-04-06T12:51:53Z</time></trkpt><trkpt lat="48.34817963247678" lon="-1.1021943990541996"><ele>119.0</ele><time>2026-04-06T12:51:54Z</time></trkpt><trkpt lat="48.34815004647558" lon="-1.1020577091918873"><ele>119.0</ele><time>2026-04-06T12:51:55Z</time></trkpt><trkpt lat="48.34812324535608" lon="-1.101938806741446"><ele>119.49999999999999</ele><time>2026-04-06T12:51:56Z</time></trkpt><trkpt lat="48.34809418083667" lon="-1.1018272303229935"><ele>120.0</ele><time>2026-04-06T12:51:57Z</time></trkpt><trkpt lat="48.34807063484331" lon="-1.1017301215101833"><ele>120.5</ele><time>2026-04-06T12:51:58Z</time></trkpt><trkpt lat="48.348046731639165" lon="-1.1016059661432016"><ele>121.0</ele><time>2026-04-06T12:52:00Z</time></trkpt><trkpt lat="48.34802749660031" lon="-1.101429410939378"><ele>121.49999999999999</ele><time>2026-04-06T12:52:02Z</time></trkpt><trkpt lat="48.34800356512341" lon="-1.1013397058130796"><ele>122.0</ele><time>2026-04-06T12:52:03Z</time></trkpt><trkpt lat="48.34793757654926" lon="-1.1011970554976342"><ele>122.83333333333333</ele><time>2026-04-06T12:52:05Z</time></trkpt><trkpt lat="48.34789831834182" lon="-1.101100988079208"><ele>123.66666666666666</ele><time>2026-04-06T12:52:06Z</time></trkpt><trkpt lat="48.34786961465304" lon="-1.1009796471544298"><ele>124.5</ele><time>2026-04-06T12:52:07Z</time></trkpt><trkpt lat="48.34783855647184" lon="-1.100854327929073"><ele>125.33333333333334</ele><time>2026-04-06T12:52:08Z</time></trkpt><trkpt lat="48.34780753753955" lon="-1.1007207920514168"><ele>126.16666666666667</ele><time>2026-04-06T12:52:09Z</time></trkpt><trkpt lat="48.34776726268897" lon="-1.1005880020560725"><ele>127.0</ele><time>2026-04-06T12:52:10Z</time></trkpt><trkpt lat="48.347721896385416" lon="-1.1004579705092743"><ele>127.0</ele><time>2026-04-06T12:52:11Z</time></trkpt><trkpt lat="48.34767261657979" lon="-1.1003282556159242"><ele>126.99999999999999</ele><time>2026-04-06T12:52:12Z</time></trkpt><trkpt lat="48.34763767263637" lon="-1.100185495192013"><ele>126.99999999999999</ele><time>2026-04-06T12:52:13Z</time></trkpt><trkpt lat="48.34759764129579" lon="-1.100048798424923"><ele>127.0</ele><time>2026-04-06T12:52:14Z</time></trkpt><trkpt lat="48.34755812047604" lon="-1.099909843826626"><ele>127.0</ele><time>2026-04-06T12:52:15Z</time></trkpt><trkpt lat="48.347523193630614" lon="-1.0997649874372497"><ele>127.39999999999999</ele><time>2026-04-06T12:52:16Z</time></trkpt><trkpt lat="48.34748773080015" lon="-1.099620046082606"><ele>127.79999999999998</ele><time>2026-04-06T12:52:17Z</time></trkpt><trkpt lat="48.347454141807745" lon="-1.0994721140997574"><ele>128.2</ele><time>2026-04-06T12:52:18Z</time></trkpt><trkpt lat="48.34741533521559" lon="-1.0993256957798867"><ele>128.6</ele><time>2026-04-06T12:52:19Z</time></trkpt><trkpt lat="48.3473769263723" lon="-1.0991905477661224"><ele>129.0</ele><time>2026-04-06T12:52:20Z</time></trkpt><trkpt lat="48.34734731229493" lon="-1.0990680144532599"><ele>129.0</ele><time>2026-04-06T12:52:21Z</time></trkpt><trkpt lat="48.34732236588825" lon="-1.098955039831978"><ele>129.0</ele><time>2026-04-06T12:52:22Z</time></trkpt><trkpt lat="48.347301783799836" lon="-1.0988564711214084"><ele>129.0</ele><time>2026-04-06T12:52:23Z</time></trkpt><trkpt lat="48.347227496887726" lon="-1.0988087161299267"><ele>129.0</ele><time>2026-04-06T12:52:24Z</time></trkpt><trkpt lat="48.34716519054744" lon="-1.0986178515401586"><ele>129.0</ele><time>2026-04-06T12:52:26Z</time></trkpt><trkpt lat="48.347124389469045" lon="-1.0985027078868335"><ele>129.2</ele><time>2026-04-06T12:52:27Z</time></trkpt><trkpt lat="48.34708062087017" lon="-1.0983762266333712"><ele>129.4</ele><time>2026-04-06T12:52:28Z</time></trkpt><trkpt lat="48.34704020538478" lon="-1.0982537967655002"><ele>129.6</ele><time>2026-04-06T12:52:29Z</time></trkpt><trkpt lat="48.346995986953885" lon="-1.0981172578364118"><ele>129.8</ele><time>2026-04-06T12:52:30Z</time></trkpt><trkpt lat="48.346944980839936" lon="-1.0979571638622494"><ele>130.0</ele><time>2026-04-06T12:52:31Z</time></trkpt><trkpt lat="48.34689442404342" lon="-1.0977925237413615"><ele>130.0</ele><time>2026-04-06T12:52:32Z</time></trkpt><trkpt lat="48.34683571658726" lon="-1.0976081398809385"><ele>130.0</ele><time>2026-04-06T12:52:33Z</time></trkpt><trkpt lat="48.34677145361482" lon="-1.0974137911962485"><ele>130.0</ele><time>2026-04-06T12:52:34Z</time></trkpt><trkpt lat="48.34670244062697" lon="-1.0972050771660589"><ele>130.0</ele><time>2026-04-06T12:52:35Z</time></trkpt><trkpt lat="48.34663111955278" lon="-1.0969916761818852"><ele>128.66666666666669</ele><time>2026-04-06T12:52:36Z</time></trkpt><trkpt lat="48.34656180714515" lon="-1.096785327983832"><ele>127.33333333333334</ele><time>2026-04-06T12:52:37Z</time></trkpt><trkpt lat="48.34648568815334" lon="-1.096569098728768"><ele>126.0</ele><time>2026-04-06T12:52:38Z</time></trkpt><trkpt lat="48.34640885903218" lon="-1.0963461382802229"><ele>126.66666666666666</ele><time>2026-04-06T12:52:39Z</time></trkpt><trkpt lat="48.34634482938851" lon="-1.0961056781098533"><ele>127.33333333333333</ele><time>2026-04-06T12:52:40Z</time></trkpt><trkpt lat="48.34626115270978" lon="-1.0958766430683984"><ele>128.0</ele><time>2026-04-06T12:52:41Z</time></trkpt><trkpt lat="48.34618487094393" lon="-1.0956506025781345"><ele>128.0</ele><time>2026-04-06T12:52:42Z</time></trkpt><trkpt lat="48.34614023256966" lon="-1.095412205653065"><ele>128.0</ele><time>2026-04-06T12:52:43Z</time></trkpt><trkpt lat="48.34611077198611" lon="-1.0951625197732056"><ele>128.0</ele><time>2026-04-06T12:52:44Z</time></trkpt><trkpt lat="48.34609951320599" lon="-1.0949025138306119"><ele>127.66666666666666</ele><time>2026-04-06T12:52:45Z</time></trkpt><trkpt lat="48.34610239215676" lon="-1.0946535206918164"><ele>127.33333333333334</ele><time>2026-04-06T12:52:46Z</time></trkpt><trkpt lat="48.34610900564588" lon="-1.09438963359048"><ele>127.0</ele><time>2026-04-06T12:52:47Z</time></trkpt><trkpt lat="48.3461401621664" lon="-1.0941308095469908"><ele>127.33333333333334</ele><time>2026-04-06T12:52:48Z</time></trkpt><trkpt lat="48.34619034698283" lon="-1.0938700452698948"><ele>127.66666666666666</ele><time>2026-04-06T12:52:49Z</time></trkpt><trkpt lat="48.34625675238988" lon="-1.0936143490497103"><ele>128.0</ele><time>2026-04-06T12:52:50Z</time></trkpt><trkpt lat="48.34632538532207" lon="-1.0933703688325753"><ele>127.66666666666666</ele><time>2026-04-06T12:52:51Z</time></trkpt><trkpt lat="48.346392655505646" lon="-1.093124406119683"><ele>127.33333333333334</ele><time>2026-04-06T12:52:52Z</time></trkpt><trkpt lat="48.346463212128434" lon="-1.0928815453429876"><ele>127.0</ele><time>2026-04-06T12:52:53Z</time></trkpt><trkpt lat="48.34653097323781" lon="-1.0926351575162088"><ele>127.66666666666667</ele><time>2026-04-06T12:52:54Z</time></trkpt><trkpt lat="48.346600001343134" lon="-1.0923884702209448"><ele>128.33333333333334</ele><time>2026-04-06T12:52:55Z</time></trkpt><trkpt lat="48.346666777991686" lon="-1.092140752030777"><ele>129.0</ele><time>2026-04-06T12:52:56Z</time></trkpt><trkpt lat="48.34672992389215" lon="-1.091906440080595"><ele>129.0</ele><time>2026-04-06T12:52:57Z</time></trkpt><trkpt lat="48.34679320419227" lon="-1.0916811178937575"><ele>129.0</ele><time>2026-04-06T12:52:58Z</time></trkpt><trkpt lat="48.346853328967434" lon="-1.0914580331953267"><ele>129.0</ele><time>2026-04-06T12:52:59Z</time></trkpt><trkpt lat="48.3469142193925" lon="-1.091233864373503"><ele>130.0</ele><time>2026-04-06T12:53:00Z</time></trkpt><trkpt lat="48.34697562559087" lon="-1.0910059695820518"><ele>131.0</ele><time>2026-04-06T12:53:01Z</time></trkpt><trkpt lat="48.34705654830214" lon="-1.090790019451533"><ele>132.0</ele><time>2026-04-06T12:53:02Z</time></trkpt><trkpt lat="48.34715693280983" lon="-1.0906023025851515"><ele>133.33333333333334</ele><time>2026-04-06T12:53:03Z</time></trkpt><trkpt lat="48.34727428869509" lon="-1.0904318533713888"><ele>134.66666666666669</ele><time>2026-04-06T12:53:04Z</time></trkpt><trkpt lat="48.347406066761714" lon="-1.0902810078018037"><ele>136.0</ele><time>2026-04-06T12:53:05Z</time></trkpt><trkpt lat="48.34755519726339" lon="-1.0901481214878326"><ele>136.0</ele><time>2026-04-06T12:53:06Z</time></trkpt><trkpt lat="48.34771846863901" lon="-1.090035576223337"><ele>136.0</ele><time>2026-04-06T12:53:07Z</time></trkpt><trkpt lat="48.347889770718105" lon="-1.0899400278001352"><ele>136.0</ele><time>2026-04-06T12:53:08Z</time></trkpt><trkpt lat="48.34806218195428" lon="-1.0898327633250224"><ele>137.66666666666669</ele><time>2026-04-06T12:53:09Z</time></trkpt><trkpt lat="48.34822969596794" lon="-1.0897176088560743"><ele>139.33333333333334</ele><time>2026-04-06T12:53:10Z</time></trkpt><trkpt lat="48.348397302169275" lon="-1.089605647554167"><ele>141.0</ele><time>2026-04-06T12:53:11Z</time></trkpt><trkpt lat="48.348567011584535" lon="-1.0894957040884774"><ele>141.0</ele><time>2026-04-06T12:53:12Z</time></trkpt><trkpt lat="48.34873495016229" lon="-1.0893835226272328"><ele>141.0</ele><time>2026-04-06T12:53:13Z</time></trkpt><trkpt lat="48.34890252768633" lon="-1.0892699222938915"><ele>141.0</ele><time>2026-04-06T12:53:14Z</time></trkpt><trkpt lat="48.3490710098702" lon="-1.089158746361673"><ele>142.33333333333334</ele><time>2026-04-06T12:53:15Z</time></trkpt><trkpt lat="48.34923933420303" lon="-1.0890449071894144"><ele>143.66666666666669</ele><time>2026-04-06T12:53:16Z</time></trkpt><trkpt lat="48.34940826415153" lon="-1.0889326225021445"><ele>145.0</ele><time>2026-04-06T12:53:17Z</time></trkpt><trkpt lat="48.34957736943099" lon="-1.0888189635380778"><ele>145.66666666666669</ele><time>2026-04-06T12:53:18Z</time></trkpt><trkpt lat="48.34974722116533" lon="-1.0887078045890355"><ele>146.33333333333334</ele><time>2026-04-06T12:53:19Z</time></trkpt><trkpt lat="48.34991264837124" lon="-1.0885987717501968"><ele>147.0</ele><time>2026-04-06T12:53:20Z</time></trkpt><trkpt lat="48.35007309053411" lon="-1.0884768238588323"><ele>147.0</ele><time>2026-04-06T12:53:21Z</time></trkpt><trkpt lat="48.350225164522875" lon="-1.0883344129002965"><ele>147.0</ele><time>2026-04-06T12:53:22Z</time></trkpt><trkpt lat="48.35036720656143" lon="-1.0881728201868224"><ele>147.0</ele><time>2026-04-06T12:53:23Z</time></trkpt><trkpt lat="48.35049802519402" lon="-1.087990378316076"><ele>149.33333333333334</ele><time>2026-04-06T12:53:24Z</time></trkpt><trkpt lat="48.350616922618116" lon="-1.0877859814723452"><ele>151.66666666666669</ele><time>2026-04-06T12:53:25Z</time></trkpt><trkpt lat="48.35071244713694" lon="-1.0875533229468244"><ele>154.0</ele><time>2026-04-06T12:53:26Z</time></trkpt><trkpt lat="48.35082240619118" lon="-1.0873353861978294"><ele>154.33333333333334</ele><time>2026-04-06T12:53:27Z</time></trkpt><trkpt lat="48.35092722763149" lon="-1.0871248558327054"><ele>154.66666666666666</ele><time>2026-04-06T12:53:28Z</time></trkpt><trkpt lat="48.35102931221043" lon="-1.0869138558412135"><ele>155.0</ele><time>2026-04-06T12:53:29Z</time></trkpt><trkpt lat="48.35113224714534" lon="-1.0867041169851788"><ele>156.33333333333331</ele><time>2026-04-06T12:53:30Z</time></trkpt><trkpt lat="48.35123281707831" lon="-1.0864964550672909"><ele>157.66666666666666</ele><time>2026-04-06T12:53:31Z</time></trkpt><trkpt lat="48.35131973315235" lon="-1.0862787519642763"><ele>159.0</ele><time>2026-04-06T12:53:32Z</time></trkpt><trkpt lat="48.351373370239784" lon="-1.0860370783773008"><ele>160.66666666666666</ele><time>2026-04-06T12:53:33Z</time></trkpt><trkpt lat="48.35140261096459" lon="-1.085786773308976"><ele>162.33333333333331</ele><time>2026-04-06T12:53:34Z</time></trkpt><trkpt lat="48.35141479128719" lon="-1.0855356898132063"><ele>164.0</ele><time>2026-04-06T12:53:35Z</time></trkpt><trkpt lat="48.351411194000505" lon="-1.0853005826992175"><ele>164.25</ele><time>2026-04-06T12:53:36Z</time></trkpt><trkpt lat="48.35141441406239" lon="-1.0850859146570924"><ele>164.5</ele><time>2026-04-06T12:53:37Z</time></trkpt><trkpt lat="48.35138641721695" lon="-1.0848808448221978"><ele>164.75</ele><time>2026-04-06T12:53:38Z</time></trkpt><trkpt lat="48.35135088022138" lon="-1.084697394577838"><ele>165.0</ele><time>2026-04-06T12:53:39Z</time></trkpt><trkpt lat="48.3513246339446" lon="-1.084516400694581"><ele>165.0</ele><time>2026-04-06T12:53:40Z</time></trkpt><trkpt lat="48.351329503706204" lon="-1.084347884392476"><ele>165.0</ele><time>2026-04-06T12:53:41Z</time></trkpt><trkpt lat="48.35136272830908" lon="-1.0841701404639683"><ele>165.0</ele><time>2026-04-06T12:53:42Z</time></trkpt><trkpt lat="48.35142733113137" lon="-1.0840063770023813"><ele>165.0</ele><time>2026-04-06T12:53:43Z</time></trkpt><trkpt lat="48.3515174143659" lon="-1.0838647200639322"><ele>165.33333333333334</ele><time>2026-04-06T12:53:44Z</time></trkpt><trkpt lat="48.351629040452515" lon="-1.0837433191153143"><ele>165.66666666666669</ele><time>2026-04-06T12:53:45Z</time></trkpt><trkpt lat="48.351773689045544" lon="-1.0836172625022638"><ele>166.0</ele><time>2026-04-06T12:53:46Z</time></trkpt><trkpt lat="48.35194204362986" lon="-1.0835018510981258"><ele>166.0</ele><time>2026-04-06T12:53:47Z</time></trkpt><trkpt lat="48.35212511006237" lon="-1.083368856913367"><ele>166.0</ele><time>2026-04-06T12:53:48Z</time></trkpt><trkpt lat="48.352308572245285" lon="-1.083244031715108"><ele>166.0</ele><time>2026-04-06T12:53:49Z</time></trkpt><trkpt lat="48.35246845329289" lon="-1.0831228298726867"><ele>168.0</ele><time>2026-04-06T12:53:50Z</time></trkpt><trkpt lat="48.35261705282075" lon="-1.082988625094675"><ele>170.0</ele><time>2026-04-06T12:53:51Z</time></trkpt><trkpt lat="48.352727293532794" lon="-1.082790872364297"><ele>172.0</ele><time>2026-04-06T12:53:52Z</time></trkpt><trkpt lat="48.35281458066698" lon="-1.0825916884244053"><ele>174.0</ele><time>2026-04-06T12:53:53Z</time></trkpt><trkpt lat="48.35288280179562" lon="-1.0823784024843692"><ele>176.0</ele><time>2026-04-06T12:53:54Z</time></trkpt><trkpt lat="48.35294015354077" lon="-1.082154676747912"><ele>178.0</ele><time>2026-04-06T12:53:55Z</time></trkpt><trkpt lat="48.35299344271078" lon="-1.0819002936079476"><ele>178.0</ele><time>2026-04-06T12:53:56Z</time></trkpt><trkpt lat="48.3530329595036" lon="-1.0816311403428895"><ele>178.0</ele><time>2026-04-06T12:53:57Z</time></trkpt><trkpt lat="48.35305229010591" lon="-1.0813539696991663"><ele>178.0</ele><time>2026-04-06T12:53:58Z</time></trkpt><trkpt lat="48.35305376127592" lon="-1.0811003616370345"><ele>179.66666666666669</ele><time>2026-04-06T12:53:59Z</time></trkpt><trkpt lat="48.35305037928239" lon="-1.0808473836645642"><ele>181.33333333333334</ele><time>2026-04-06T12:54:00Z</time></trkpt><trkpt lat="48.35304299464592" lon="-1.0805905760809011"><ele>183.0</ele><time>2026-04-06T12:54:01Z</time></trkpt><trkpt lat="48.35303631369966" lon="-1.0803416904743564"><ele>183.0</ele><time>2026-04-06T12:54:02Z</time></trkpt><trkpt lat="48.35303174603961" lon="-1.0801022075928852"><ele>183.0</ele><time>2026-04-06T12:54:03Z</time></trkpt><trkpt lat="48.35304310076369" lon="-1.079886412135449"><ele>183.0</ele><time>2026-04-06T12:54:04Z</time></trkpt><trkpt lat="48.353059165045025" lon="-1.0796674468245526"><ele>183.0</ele><time>2026-04-06T12:54:05Z</time></trkpt><trkpt lat="48.353094545433024" lon="-1.0794589556826926"><ele>183.5</ele><time>2026-04-06T12:54:06Z</time></trkpt><trkpt lat="48.353154182356306" lon="-1.079275764435421"><ele>184.0</ele><time>2026-04-06T12:54:07Z</time></trkpt><trkpt lat="48.35323630049139" lon="-1.0791128291021364"><ele>184.5</ele><time>2026-04-06T12:54:08Z</time></trkpt><trkpt lat="48.353342510419026" lon="-1.0789764931060908"><ele>185.0</ele><time>2026-04-06T12:54:09Z</time></trkpt><trkpt lat="48.35348235016274" lon="-1.078845769064787"><ele>185.0</ele><time>2026-04-06T12:54:10Z</time></trkpt><trkpt lat="48.353641422996496" lon="-1.078705951856516"><ele>185.0</ele><time>2026-04-06T12:54:11Z</time></trkpt><trkpt lat="48.35378208566344" lon="-1.0785657418887753"><ele>185.0</ele><time>2026-04-06T12:54:12Z</time></trkpt><trkpt lat="48.35390797808023" lon="-1.0784391442496477"><ele>186.33333333333331</ele><time>2026-04-06T12:54:13Z</time></trkpt><trkpt lat="48.35403449979355" lon="-1.0783169155845778"><ele>187.66666666666666</ele><time>2026-04-06T12:54:14Z</time></trkpt><trkpt lat="48.354154531939635" lon="-1.0781744708977152"><ele>189.0</ele><time>2026-04-06T12:54:15Z</time></trkpt><trkpt lat="48.35426702354007" lon="-1.078030204740565"><ele>189.0</ele><time>2026-04-06T12:54:16Z</time></trkpt><trkpt lat="48.35436142728009" lon="-1.0778623622414198"><ele>189.0</ele><time>2026-04-06T12:54:17Z</time></trkpt><trkpt lat="48.35442642864959" lon="-1.0776779913262624"><ele>189.0</ele><time>2026-04-06T12:54:18Z</time></trkpt><trkpt lat="48.354480892722954" lon="-1.077469073676902"><ele>189.0</ele><time>2026-04-06T12:54:19Z</time></trkpt><trkpt lat="48.35451603030661" lon="-1.0772509689575382"><ele>189.66666666666666</ele><time>2026-04-06T12:54:20Z</time></trkpt><trkpt lat="48.35453455773291" lon="-1.077008552605876"><ele>190.33333333333331</ele><time>2026-04-06T12:54:21Z</time></trkpt><trkpt lat="48.35454350773332" lon="-1.0767345096784318"><ele>191.0</ele><time>2026-04-06T12:54:22Z</time></trkpt><trkpt lat="48.35454132043072" lon="-1.0764387069514894"><ele>191.66666666666666</ele><time>2026-04-06T12:54:23Z</time></trkpt><trkpt lat="48.35453023471494" lon="-1.0761261359189027"><ele>192.33333333333331</ele><time>2026-04-06T12:54:24Z</time></trkpt><trkpt lat="48.35452044053019" lon="-1.0758066419839767"><ele>193.0</ele><time>2026-04-06T12:54:25Z</time></trkpt><trkpt lat="48.35450967799367" lon="-1.0755035940559796"><ele>193.66666666666666</ele><time>2026-04-06T12:54:26Z</time></trkpt><trkpt lat="48.35449973362445" lon="-1.0752270778524982"><ele>194.33333333333331</ele><time>2026-04-06T12:54:27Z</time></trkpt><trkpt lat="48.354491096674025" lon="-1.0749707795796906"><ele>195.0</ele><time>2026-04-06T12:54:28Z</time></trkpt><trkpt lat="48.35450771876981" lon="-1.0747318607457432"><ele>196.0</ele><time>2026-04-06T12:54:29Z</time></trkpt><trkpt lat="48.35451932135812" lon="-1.0745009790930518"><ele>197.0</ele><time>2026-04-06T12:54:30Z</time></trkpt><trkpt lat="48.35454370505415" lon="-1.0742685262975658"><ele>198.0</ele><time>2026-04-06T12:54:31Z</time></trkpt><trkpt lat="48.35456802625198" lon="-1.074030972529641"><ele>198.33333333333331</ele><time>2026-04-06T12:54:32Z</time></trkpt><trkpt lat="48.35459716787084" lon="-1.0737901918683854"><ele>198.66666666666666</ele><time>2026-04-06T12:54:33Z</time></trkpt><trkpt lat="48.354627165112724" lon="-1.0735445401343233"><ele>199.0</ele><time>2026-04-06T12:54:34Z</time></trkpt><trkpt lat="48.35463669251596" lon="-1.0732910086584857"><ele>199.33333333333331</ele><time>2026-04-06T12:54:35Z</time></trkpt><trkpt lat="48.35467187897167" lon="-1.0730450006728998"><ele>199.66666666666669</ele><time>2026-04-06T12:54:36Z</time></trkpt><trkpt lat="48.3547371279428" lon="-1.0728076576015995"><ele>200.0</ele><time>2026-04-06T12:54:37Z</time></trkpt><trkpt lat="48.35481327786807" lon="-1.0725778074007875"><ele>203.33333333333334</ele><time>2026-04-06T12:54:38Z</time></trkpt><trkpt lat="48.35490229859727" lon="-1.0723624253774675"><ele>206.66666666666669</ele><time>2026-04-06T12:54:39Z</time></trkpt><trkpt lat="48.355003181384156" lon="-1.0721545412966533"><ele>210.0</ele><time>2026-04-06T12:54:40Z</time></trkpt><trkpt lat="48.35509885810637" lon="-1.0719436769596873"><ele>210.0</ele><time>2026-04-06T12:54:41Z</time></trkpt><trkpt lat="48.35520018879735" lon="-1.0717339867744087"><ele>210.0</ele><time>2026-04-06T12:54:42Z</time></trkpt><trkpt lat="48.355305889860865" lon="-1.0715266117455036"><ele>210.0</ele><time>2026-04-06T12:54:43Z</time></trkpt><trkpt lat="48.35540363470456" lon="-1.0713151859153662"><ele>210.0</ele><time>2026-04-06T12:54:44Z</time></trkpt><trkpt lat="48.35550605030994" lon="-1.071119220789258"><ele>210.0</ele><time>2026-04-06T12:54:45Z</time></trkpt><trkpt lat="48.355625762849876" lon="-1.070949823940136"><ele>210.0</ele><time>2026-04-06T12:54:46Z</time></trkpt><trkpt lat="48.35576138320073" lon="-1.0708050190357354"><ele>212.66666666666669</ele><time>2026-04-06T12:54:47Z</time></trkpt><trkpt lat="48.35590852626606" lon="-1.0706782500153984"><ele>215.33333333333334</ele><time>2026-04-06T12:54:48Z</time></trkpt><trkpt lat="48.35606079658348" lon="-1.0705688813616892"><ele>218.0</ele><time>2026-04-06T12:54:49Z</time></trkpt><trkpt lat="48.35622362085522" lon="-1.0704623522439944"><ele>219.33333333333334</ele><time>2026-04-06T12:54:50Z</time></trkpt><trkpt lat="48.35639425585606" lon="-1.0703480969924108"><ele>220.66666666666669</ele><time>2026-04-06T12:54:51Z</time></trkpt><trkpt lat="48.356558936043065" lon="-1.0702302510314605"><ele>222.0</ele><time>2026-04-06T12:54:52Z</time></trkpt><trkpt lat="48.356724198104594" lon="-1.0701056874988213"><ele>222.0</ele><time>2026-04-06T12:54:53Z</time></trkpt><trkpt lat="48.35689225107572" lon="-1.06998125633937"><ele>222.0</ele><time>2026-04-06T12:54:54Z</time></trkpt><trkpt lat="48.357061979425374" lon="-1.0698575217642228"><ele>222.0</ele><time>2026-04-06T12:54:55Z</time></trkpt><trkpt lat="48.35722440495352" lon="-1.069739582219941"><ele>222.33333333333331</ele><time>2026-04-06T12:54:56Z</time></trkpt><trkpt lat="48.35738198802027" lon="-1.0696279196747467"><ele>222.66666666666666</ele><time>2026-04-06T12:54:57Z</time></trkpt><trkpt lat="48.357539293866374" lon="-1.0695188546355052"><ele>223.0</ele><time>2026-04-06T12:54:58Z</time></trkpt><trkpt lat="48.35769730411757" lon="-1.06940870089565"><ele>223.0</ele><time>2026-04-06T12:54:59Z</time></trkpt><trkpt lat="48.357854694851774" lon="-1.0692951737067775"><ele>223.0</ele><time>2026-04-06T12:55:00Z</time></trkpt><trkpt lat="48.35801051315538" lon="-1.0691817724228638"><ele>223.0</ele><time>2026-04-06T12:55:01Z</time></trkpt><trkpt lat="48.35816838868992" lon="-1.0690665345701147"><ele>223.33333333333331</ele><time>2026-04-06T12:55:02Z</time></trkpt><trkpt lat="48.35832554170124" lon="-1.0689426954782246"><ele>223.66666666666669</ele><time>2026-04-06T12:55:03Z</time></trkpt><trkpt lat="48.358481371916426" lon="-1.0688142456888758"><ele>224.0</ele><time>2026-04-06T12:55:04Z</time></trkpt><trkpt lat="48.35863283488696" lon="-1.0686764932207118"><ele>224.0</ele><time>2026-04-06T12:55:05Z</time></trkpt><trkpt lat="48.358782101854345" lon="-1.0685300102631126"><ele>224.0</ele><time>2026-04-06T12:55:06Z</time></trkpt><trkpt lat="48.35893179285138" lon="-1.0683801548161447"><ele>224.0</ele><time>2026-04-06T12:55:07Z</time></trkpt><trkpt lat="48.35907806882658" lon="-1.0682275519596447"><ele>226.0</ele><time>2026-04-06T12:55:08Z</time></trkpt><trkpt lat="48.359221557805746" lon="-1.0680649152069261"><ele>228.0</ele><time>2026-04-06T12:55:09Z</time></trkpt><trkpt lat="48.359356815497115" lon="-1.0678845752459598"><ele>230.0</ele><time>2026-04-06T12:55:10Z</time></trkpt><trkpt lat="48.359475009760914" lon="-1.067683395985802"><ele>230.0</ele><time>2026-04-06T12:55:11Z</time></trkpt><trkpt lat="48.359580663177134" lon="-1.0674641387059776"><ele>230.0</ele><time>2026-04-06T12:55:12Z</time></trkpt><trkpt lat="48.35967700453822" lon="-1.0672395087668316"><ele>230.0</ele><time>2026-04-06T12:55:13Z</time></trkpt><trkpt lat="48.35976389552892" lon="-1.0670044389464635"><ele>231.33333333333334</ele><time>2026-04-06T12:55:14Z</time></trkpt><trkpt lat="48.359850609428264" lon="-1.0667706931639036"><ele>232.66666666666669</ele><time>2026-04-06T12:55:15Z</time></trkpt><trkpt lat="48.359929594388156" lon="-1.0665526551248972"><ele>234.0</ele><time>2026-04-06T12:55:16Z</time></trkpt><trkpt lat="48.3600079155741" lon="-1.0663451241646336"><ele>234.0</ele><time>2026-04-06T12:55:17Z</time></trkpt><trkpt lat="48.36008187966999" lon="-1.0661408017817844"><ele>234.0</ele><time>2026-04-06T12:55:18Z</time></trkpt><trkpt lat="48.360152299497045" lon="-1.065945817122262"><ele>234.0</ele><time>2026-04-06T12:55:19Z</time></trkpt><trkpt lat="48.36022406177621" lon="-1.065758824704742"><ele>234.0</ele><time>2026-04-06T12:55:20Z</time></trkpt><trkpt lat="48.36029250279094" lon="-1.0655836981467817"><ele>234.0</ele><time>2026-04-06T12:55:21Z</time></trkpt><trkpt lat="48.360358030215544" lon="-1.0654185013271154"><ele>234.0</ele><time>2026-04-06T12:55:22Z</time></trkpt><trkpt lat="48.36041066960509" lon="-1.0652566093737352"><ele>234.0</ele><time>2026-04-06T12:55:23Z</time></trkpt><trkpt lat="48.36046084364804" lon="-1.065085825516691"><ele>234.0</ele><time>2026-04-06T12:55:24Z</time></trkpt><trkpt lat="48.36048308209645" lon="-1.064909984749755"><ele>234.0</ele><time>2026-04-06T12:55:25Z</time></trkpt><trkpt lat="48.36048289215147" lon="-1.0647313351333643"><ele>234.0</ele><time>2026-04-06T12:55:26Z</time></trkpt><trkpt lat="48.36044107787393" lon="-1.0645686256377582"><ele>234.0</ele><time>2026-04-06T12:55:27Z</time></trkpt><trkpt lat="48.360395528597884" lon="-1.0644128893812328"><ele>234.0</ele><time>2026-04-06T12:55:28Z</time></trkpt><trkpt lat="48.360323097865944" lon="-1.0642708874392646"><ele>234.0</ele><time>2026-04-06T12:55:29Z</time></trkpt><trkpt lat="48.3602334741979" lon="-1.064114855648882"><ele>234.0</ele><time>2026-04-06T12:55:30Z</time></trkpt><trkpt lat="48.36011647464857" lon="-1.0639445012337476"><ele>234.0</ele><time>2026-04-06T12:55:31Z</time></trkpt><trkpt lat="48.359984079049255" lon="-1.0637548064698188"><ele>233.33333333333331</ele><time>2026-04-06T12:55:32Z</time></trkpt><trkpt lat="48.35984123321135" lon="-1.0635508185250289"><ele>232.66666666666666</ele><time>2026-04-06T12:55:33Z</time></trkpt><trkpt lat="48.3596901257314" lon="-1.0633354011410618"><ele>232.0</ele><time>2026-04-06T12:55:34Z</time></trkpt><trkpt lat="48.359547723958116" lon="-1.063126584406283"><ele>229.66666666666666</ele><time>2026-04-06T12:55:35Z</time></trkpt><trkpt lat="48.359418690446724" lon="-1.062905066064569"><ele>227.33333333333331</ele><time>2026-04-06T12:55:36Z</time></trkpt><trkpt lat="48.35928109646481" lon="-1.0627055522318547"><ele>225.0</ele><time>2026-04-06T12:55:37Z</time></trkpt><trkpt lat="48.359144455441076" lon="-1.062509019258102"><ele>224.33333333333331</ele><time>2026-04-06T12:55:38Z</time></trkpt><trkpt lat="48.35900916232923" lon="-1.06230542925988"><ele>223.66666666666666</ele><time>2026-04-06T12:55:39Z</time></trkpt><trkpt lat="48.35885910083623" lon="-1.062121982564009"><ele>223.0</ele><time>2026-04-06T12:55:40Z</time></trkpt><trkpt lat="48.35871801720311" lon="-1.0619179287600635"><ele>223.0</ele><time>2026-04-06T12:55:41Z</time></trkpt><trkpt lat="48.35857696007229" lon="-1.061712160565907"><ele>223.0</ele><time>2026-04-06T12:55:42Z</time></trkpt><trkpt lat="48.358446185593586" lon="-1.0614889894431465"><ele>223.0</ele><time>2026-04-06T12:55:43Z</time></trkpt><trkpt lat="48.35830360296652" lon="-1.0612817405818997"><ele>223.0</ele><time>2026-04-06T12:55:44Z</time></trkpt><trkpt lat="48.35816426802775" lon="-1.06108204336107"><ele>223.0</ele><time>2026-04-06T12:55:45Z</time></trkpt><trkpt lat="48.35802605956227" lon="-1.0608878660840433"><ele>223.0</ele><time>2026-04-06T12:55:46Z</time></trkpt><trkpt lat="48.35789371564678" lon="-1.0606883535107203"><ele>222.66666666666666</ele><time>2026-04-06T12:55:47Z</time></trkpt><trkpt lat="48.35777644153991" lon="-1.0604663844248743"><ele>222.33333333333331</ele><time>2026-04-06T12:55:48Z</time></trkpt><trkpt lat="48.35767959032222" lon="-1.060221876304968"><ele>222.0</ele><time>2026-04-06T12:55:49Z</time></trkpt><trkpt lat="48.357603750868684" lon="-1.0599530376591013"><ele>221.66666666666669</ele><time>2026-04-06T12:55:50Z</time></trkpt><trkpt lat="48.3575432099556" lon="-1.0596664041849477"><ele>221.33333333333334</ele><time>2026-04-06T12:55:51Z</time></trkpt><trkpt lat="48.35750061743639" lon="-1.0593696824627363"><ele>221.0</ele><time>2026-04-06T12:55:52Z</time></trkpt><trkpt lat="48.35745956659334" lon="-1.0590717768742777"><ele>220.66666666666669</ele><time>2026-04-06T12:55:53Z</time></trkpt><trkpt lat="48.357414676300984" lon="-1.0587841896098662"><ele>220.33333333333331</ele><time>2026-04-06T12:55:54Z</time></trkpt><trkpt lat="48.35736675541716" lon="-1.0585252022600824"><ele>220.0</ele><time>2026-04-06T12:55:55Z</time></trkpt><trkpt lat="48.357318977304544" lon="-1.0582615765720336"><ele>219.66666666666666</ele><time>2026-04-06T12:55:56Z</time></trkpt><trkpt lat="48.357238467215794" lon="-1.0580078039927088"><ele>219.33333333333331</ele><time>2026-04-06T12:55:57Z</time></trkpt><trkpt lat="48.35716216166648" lon="-1.0577467055950565"><ele>219.0</ele><time>2026-04-06T12:55:58Z</time></trkpt><trkpt lat="48.35709726832704" lon="-1.0574706841020336"><ele>217.33333333333331</ele><time>2026-04-06T12:55:59Z</time></trkpt><trkpt lat="48.357014135309306" lon="-1.057200175261529"><ele>215.66666666666666</ele><time>2026-04-06T12:56:00Z</time></trkpt><trkpt lat="48.35692375161841" lon="-1.0569272968599321"><ele>214.0</ele><time>2026-04-06T12:56:01Z</time></trkpt><trkpt lat="48.35682896885883" lon="-1.0566512583980816"><ele>212.66666666666666</ele><time>2026-04-06T12:56:02Z</time></trkpt><trkpt lat="48.356733851493274" lon="-1.0563721393903125"><ele>211.33333333333331</ele><time>2026-04-06T12:56:03Z</time></trkpt><trkpt lat="48.3566374246013" lon="-1.0560914286269758"><ele>210.0</ele><time>2026-04-06T12:56:04Z</time></trkpt><trkpt lat="48.35654554132455" lon="-1.0558041088161083"><ele>209.66666666666669</ele><time>2026-04-06T12:56:05Z</time></trkpt><trkpt lat="48.35646120152581" lon="-1.0555226813483278"><ele>209.33333333333334</ele><time>2026-04-06T12:56:06Z</time></trkpt><trkpt lat="48.35638344299891" lon="-1.0552377910046842"><ele>209.0</ele><time>2026-04-06T12:56:07Z</time></trkpt><trkpt lat="48.35631378010647" lon="-1.054960043216679"><ele>208.33333333333334</ele><time>2026-04-06T12:56:08Z</time></trkpt><trkpt lat="48.35625008489494" lon="-1.05468518976186"><ele>207.66666666666669</ele><time>2026-04-06T12:56:09Z</time></trkpt><trkpt lat="48.35619632140506" lon="-1.0544143591994086"><ele>207.0</ele><time>2026-04-06T12:56:10Z</time></trkpt><trkpt lat="48.35613942559066" lon="-1.0541540531744147"><ele>206.66666666666669</ele><time>2026-04-06T12:56:11Z</time></trkpt><trkpt lat="48.356081896230606" lon="-1.0539035499863585"><ele>206.33333333333334</ele><time>2026-04-06T12:56:12Z</time></trkpt><trkpt lat="48.3560367055034" lon="-1.0536625040115706"><ele>206.0</ele><time>2026-04-06T12:56:13Z</time></trkpt><trkpt lat="48.35601358556145" lon="-1.053414886444093"><ele>205.66666666666669</ele><time>2026-04-06T12:56:14Z</time></trkpt><trkpt lat="48.35601744278514" lon="-1.053164781190234"><ele>205.33333333333331</ele><time>2026-04-06T12:56:15Z</time></trkpt><trkpt lat="48.356044902423974" lon="-1.0529091589491242"><ele>205.0</ele><time>2026-04-06T12:56:16Z</time></trkpt><trkpt lat="48.35609999529667" lon="-1.0526549706116615"><ele>205.0</ele><time>2026-04-06T12:56:17Z</time></trkpt><trkpt lat="48.35616788173627" lon="-1.052409238080285"><ele>205.0</ele><time>2026-04-06T12:56:18Z</time></trkpt><trkpt lat="48.35623658744444" lon="-1.0521582847986246"><ele>205.0</ele><time>2026-04-06T12:56:19Z</time></trkpt><trkpt lat="48.3563090324204" lon="-1.0519047969583717"><ele>204.0</ele><time>2026-04-06T12:56:20Z</time></trkpt><trkpt lat="48.356386556592334" lon="-1.0516510995247448"><ele>203.0</ele><time>2026-04-06T12:56:21Z</time></trkpt><trkpt lat="48.356467791837005" lon="-1.0513903760864893"><ele>202.0</ele><time>2026-04-06T12:56:22Z</time></trkpt><trkpt lat="48.3565398394923" lon="-1.0511231993228416"><ele>202.0</ele><time>2026-04-06T12:56:23Z</time></trkpt><trkpt lat="48.356608708877054" lon="-1.0508607142674433"><ele>202.0</ele><time>2026-04-06T12:56:24Z</time></trkpt><trkpt lat="48.356666518803245" lon="-1.0506057269285909"><ele>202.0</ele><time>2026-04-06T12:56:25Z</time></trkpt><trkpt lat="48.35671210789713" lon="-1.050349853414546"><ele>201.66666666666666</ele><time>2026-04-06T12:56:26Z</time></trkpt><trkpt lat="48.35674679115192" lon="-1.0500901085740555"><ele>201.33333333333331</ele><time>2026-04-06T12:56:27Z</time></trkpt><trkpt lat="48.3567733902051" lon="-1.0498243621694674"><ele>201.0</ele><time>2026-04-06T12:56:28Z</time></trkpt><trkpt lat="48.35679268173833" lon="-1.0495544508242367"><ele>200.66666666666669</ele><time>2026-04-06T12:56:29Z</time></trkpt><trkpt lat="48.35679819402701" lon="-1.0492789609082709"><ele>200.33333333333334</ele><time>2026-04-06T12:56:30Z</time></trkpt><trkpt lat="48.356787811307406" lon="-1.0490252106762994"><ele>200.0</ele><time>2026-04-06T12:56:31Z</time></trkpt><trkpt lat="48.35677341159372" lon="-1.0488201722341621"><ele>199.6</ele><time>2026-04-06T12:56:32Z</time></trkpt><trkpt lat="48.35675927046965" lon="-1.0486587119254014"><ele>199.2</ele><time>2026-04-06T12:56:33Z</time></trkpt><trkpt lat="48.35674434250178" lon="-1.048514212687331"><ele>198.8</ele><time>2026-04-06T12:56:34Z</time></trkpt><trkpt lat="48.356727189065715" lon="-1.0483673465747436"><ele>198.4</ele><time>2026-04-06T12:56:35Z</time></trkpt><trkpt lat="48.356707720635114" lon="-1.0482230951145484"><ele>198.0</ele><time>2026-04-06T12:56:36Z</time></trkpt><trkpt lat="48.35668418074321" lon="-1.0480522879216074"><ele>198.0</ele><time>2026-04-06T12:56:37Z</time></trkpt><trkpt lat="48.35665405872927" lon="-1.0478471846046997"><ele>198.0</ele><time>2026-04-06T12:56:38Z</time></trkpt><trkpt lat="48.35662121393183" lon="-1.0476253435678553"><ele>198.0</ele><time>2026-04-06T12:56:39Z</time></trkpt><trkpt lat="48.356585857683356" lon="-1.047415503264279"><ele>198.0</ele><time>2026-04-06T12:56:40Z</time></trkpt><trkpt lat="48.35654529491777" lon="-1.0471985383105196"><ele>197.0</ele><time>2026-04-06T12:56:41Z</time></trkpt><trkpt lat="48.35650673842371" lon="-1.0469798103165848"><ele>196.0</ele><time>2026-04-06T12:56:42Z</time></trkpt><trkpt lat="48.356474524120806" lon="-1.046756712912514"><ele>195.0</ele><time>2026-04-06T12:56:43Z</time></trkpt><trkpt lat="48.35644617741367" lon="-1.0465244874091704"><ele>194.66666666666669</ele><time>2026-04-06T12:56:44Z</time></trkpt><trkpt lat="48.356428719651724" lon="-1.0462840467764967"><ele>194.33333333333334</ele><time>2026-04-06T12:56:45Z</time></trkpt><trkpt lat="48.35642995186589" lon="-1.0460389202926847"><ele>194.0</ele><time>2026-04-06T12:56:46Z</time></trkpt><trkpt lat="48.35644690065674" lon="-1.0457847351536071"><ele>194.0</ele><time>2026-04-06T12:56:47Z</time></trkpt><trkpt lat="48.35647865270675" lon="-1.0455176587200017"><ele>194.0</ele><time>2026-04-06T12:56:48Z</time></trkpt><trkpt lat="48.35652664518036" lon="-1.045257477099827"><ele>194.0</ele><time>2026-04-06T12:56:49Z</time></trkpt><trkpt lat="48.35659022664188" lon="-1.0449977573142994"><ele>193.0</ele><time>2026-04-06T12:56:50Z</time></trkpt><trkpt lat="48.356661988617496" lon="-1.044736758427278"><ele>192.0</ele><time>2026-04-06T12:56:51Z</time></trkpt><trkpt lat="48.35673893456928" lon="-1.0444725704183775"><ele>191.0</ele><time>2026-04-06T12:56:52Z</time></trkpt><trkpt lat="48.3568160806987" lon="-1.0442003633685244"><ele>191.33333333333331</ele><time>2026-04-06T12:56:53Z</time></trkpt><trkpt lat="48.35689277261054" lon="-1.0439235591318192"><ele>191.66666666666666</ele><time>2026-04-06T12:56:54Z</time></trkpt><trkpt lat="48.35697176363736" lon="-1.043644284536087"><ele>192.0</ele><time>2026-04-06T12:56:55Z</time></trkpt><trkpt lat="48.35704344881728" lon="-1.0433612896479327"><ele>193.33333333333331</ele><time>2026-04-06T12:56:56Z</time></trkpt><trkpt lat="48.35710872137984" lon="-1.0430828726013024"><ele>194.66666666666666</ele><time>2026-04-06T12:56:57Z</time></trkpt><trkpt lat="48.35716550714714" lon="-1.0427986792048385"><ele>196.0</ele><time>2026-04-06T12:56:58Z</time></trkpt><trkpt lat="48.35721557221539" lon="-1.0425163043195003"><ele>196.33333333333331</ele><time>2026-04-06T12:56:59Z</time></trkpt><trkpt lat="48.35725992178588" lon="-1.04223663234767"><ele>196.66666666666669</ele><time>2026-04-06T12:57:00Z</time></trkpt><trkpt lat="48.357294936004664" lon="-1.0419699865002892"><ele>197.0</ele><time>2026-04-06T12:57:01Z</time></trkpt><trkpt lat="48.35731809334765" lon="-1.041710505311289"><ele>197.66666666666669</ele><time>2026-04-06T12:57:02Z</time></trkpt><trkpt lat="48.35734225963978" lon="-1.0414529660277465"><ele>198.33333333333331</ele><time>2026-04-06T12:57:03Z</time></trkpt><trkpt lat="48.3573810064648" lon="-1.041196446997017"><ele>199.0</ele><time>2026-04-06T12:57:04Z</time></trkpt><trkpt lat="48.35742791815256" lon="-1.0409443087569696"><ele>199.33333333333331</ele><time>2026-04-06T12:57:05Z</time></trkpt><trkpt lat="48.35748654543744" lon="-1.0406960323928742"><ele>199.66666666666669</ele><time>2026-04-06T12:57:06Z</time></trkpt><trkpt lat="48.35755658627386" lon="-1.0404496945114783"><ele>200.0</ele><time>2026-04-06T12:57:07Z</time></trkpt><trkpt lat="48.357639432195775" lon="-1.0402049923700631"><ele>200.33333333333334</ele><time>2026-04-06T12:57:08Z</time></trkpt><trkpt lat="48.35773255988048" lon="-1.039961706663371"><ele>200.66666666666669</ele><time>2026-04-06T12:57:09Z</time></trkpt><trkpt lat="48.357833245349966" lon="-1.039718336638024"><ele>201.0</ele><time>2026-04-06T12:57:10Z</time></trkpt><trkpt lat="48.35794093068334" lon="-1.0394760625219244"><ele>201.0</ele><time>2026-04-06T12:57:11Z</time></trkpt><trkpt lat="48.35804206356767" lon="-1.0392376425048513"><ele>201.0</ele><time>2026-04-06T12:57:12Z</time></trkpt><trkpt lat="48.35814452513797" lon="-1.03900265622697"><ele>201.0</ele><time>2026-04-06T12:57:13Z</time></trkpt><trkpt lat="48.35824804136067" lon="-1.0387612613933233"><ele>201.0</ele><time>2026-04-06T12:57:14Z</time></trkpt><trkpt lat="48.35835446338361" lon="-1.0385191790829116"><ele>201.0</ele><time>2026-04-06T12:57:15Z</time></trkpt><trkpt lat="48.35846137122076" lon="-1.0382723372030158"><ele>201.0</ele><time>2026-04-06T12:57:16Z</time></trkpt><trkpt lat="48.358569241734855" lon="-1.0380219078846034"><ele>200.66666666666669</ele><time>2026-04-06T12:57:17Z</time></trkpt><trkpt lat="48.35867840922415" lon="-1.037773956264179"><ele>200.33333333333334</ele><time>2026-04-06T12:57:18Z</time></trkpt><trkpt lat="48.35878359886497" lon="-1.0375226083143696"><ele>200.0</ele><time>2026-04-06T12:57:19Z</time></trkpt><trkpt lat="48.358888839722866" lon="-1.0372663026783278"><ele>200.0</ele><time>2026-04-06T12:57:20Z</time></trkpt><trkpt lat="48.35899291708313" lon="-1.0370055855191285"><ele>200.0</ele><time>2026-04-06T12:57:21Z</time></trkpt><trkpt lat="48.359080924328396" lon="-1.0367287257233002"><ele>200.0</ele><time>2026-04-06T12:57:22Z</time></trkpt><trkpt lat="48.35916620131645" lon="-1.0364480194132657"><ele>200.0</ele><time>2026-04-06T12:57:23Z</time></trkpt><trkpt lat="48.35924180241569" lon="-1.0361599292696313"><ele>200.0</ele><time>2026-04-06T12:57:24Z</time></trkpt><trkpt lat="48.35931177265733" lon="-1.0358651246406683"><ele>200.0</ele><time>2026-04-06T12:57:25Z</time></trkpt><trkpt lat="48.35937086573828" lon="-1.0355639572976612"><ele>200.0</ele><time>2026-04-06T12:57:26Z</time></trkpt><trkpt lat="48.35941438520243" lon="-1.0352604110834729"><ele>200.0</ele><time>2026-04-06T12:57:27Z</time></trkpt><trkpt lat="48.35946619710117" lon="-1.0349588926682016"><ele>200.0</ele><time>2026-04-06T12:57:28Z</time></trkpt><trkpt lat="48.35951638130934" lon="-1.0346577609467948"><ele>200.0</ele><time>2026-04-06T12:57:29Z</time></trkpt><trkpt lat="48.35956704710715" lon="-1.0343554187998791"><ele>200.0</ele><time>2026-04-06T12:57:30Z</time></trkpt><trkpt lat="48.35962042433698" lon="-1.034057099532722"><ele>200.0</ele><time>2026-04-06T12:57:31Z</time></trkpt><trkpt lat="48.35967150168285" lon="-1.033758090447164"><ele>200.33333333333334</ele><time>2026-04-06T12:57:32Z</time></trkpt><trkpt lat="48.35972302348239" lon="-1.033457533950925"><ele>200.66666666666669</ele><time>2026-04-06T12:57:33Z</time></trkpt><trkpt lat="48.35978030317993" lon="-1.0331579056813316"><ele>201.0</ele><time>2026-04-06T12:57:34Z</time></trkpt><trkpt lat="48.35984098245376" lon="-1.0328573958349019"><ele>201.0</ele><time>2026-04-06T12:57:35Z</time></trkpt><trkpt lat="48.359902006285196" lon="-1.0325526534913438"><ele>201.0</ele><time>2026-04-06T12:57:36Z</time></trkpt><trkpt lat="48.35996462242679" lon="-1.0322486988829724"><ele>201.0</ele><time>2026-04-06T12:57:37Z</time></trkpt><trkpt lat="48.36003504049601" lon="-1.0319524056346971"><ele>201.33333333333331</ele><time>2026-04-06T12:57:38Z</time></trkpt><trkpt lat="48.36010842726965" lon="-1.0316605241343335"><ele>201.66666666666666</ele><time>2026-04-06T12:57:39Z</time></trkpt><trkpt lat="48.36018029188835" lon="-1.031369939315985"><ele>202.0</ele><time>2026-04-06T12:57:40Z</time></trkpt><trkpt lat="48.36025347995416" lon="-1.0310834717273347"><ele>203.33333333333331</ele><time>2026-04-06T12:57:41Z</time></trkpt><trkpt lat="48.36032776920782" lon="-1.0307990160066038"><ele>204.66666666666669</ele><time>2026-04-06T12:57:42Z</time></trkpt><trkpt lat="48.360411207757316" lon="-1.030526123605196"><ele>206.0</ele><time>2026-04-06T12:57:43Z</time></trkpt><trkpt lat="48.36050505071749" lon="-1.030263854316132"><ele>206.66666666666669</ele><time>2026-04-06T12:57:44Z</time></trkpt><trkpt lat="48.36059560039561" lon="-1.0299983549964484"><ele>207.33333333333331</ele><time>2026-04-06T12:57:45Z</time></trkpt><trkpt lat="48.36068345442276" lon="-1.0297396730764705"><ele>208.0</ele><time>2026-04-06T12:57:46Z</time></trkpt><trkpt lat="48.36077446376208" lon="-1.0294871212778585"><ele>209.0</ele><time>2026-04-06T12:57:47Z</time></trkpt><trkpt lat="48.36085920408207" lon="-1.0292527158696592"><ele>210.0</ele><time>2026-04-06T12:57:48Z</time></trkpt><trkpt lat="48.360939880585995" lon="-1.0290350098345136"><ele>211.0</ele><time>2026-04-06T12:57:49Z</time></trkpt><trkpt lat="48.361013902609855" lon="-1.0288335627943406"><ele>211.5</ele><time>2026-04-06T12:57:50Z</time></trkpt><trkpt lat="48.36107785723363" lon="-1.028654696405428"><ele>212.0</ele><time>2026-04-06T12:57:51Z</time></trkpt><trkpt lat="48.36113900807383" lon="-1.0284912136539428"><ele>212.5</ele><time>2026-04-06T12:57:52Z</time></trkpt><trkpt lat="48.361195584196196" lon="-1.0283437514717282"><ele>213.0</ele><time>2026-04-06T12:57:53Z</time></trkpt><trkpt lat="48.36124376052918" lon="-1.0282082075696248"><ele>213.4</ele><time>2026-04-06T12:57:54Z</time></trkpt><trkpt lat="48.36127868521596" lon="-1.0280764221157173"><ele>213.8</ele><time>2026-04-06T12:57:55Z</time></trkpt><trkpt lat="48.361294198059305" lon="-1.0279338973683327"><ele>214.2</ele><time>2026-04-06T12:57:56Z</time></trkpt><trkpt lat="48.36127066976407" lon="-1.027788939707383"><ele>214.6</ele><time>2026-04-06T12:57:57Z</time></trkpt><trkpt lat="48.36122287864777" lon="-1.027641814194366"><ele>215.0</ele><time>2026-04-06T12:57:58Z</time></trkpt><trkpt lat="48.361160630442555" lon="-1.0274627299035728"><ele>215.66666666666669</ele><time>2026-04-06T12:57:59Z</time></trkpt><trkpt lat="48.36109220068115" lon="-1.0272401173894221"><ele>216.33333333333331</ele><time>2026-04-06T12:58:00Z</time></trkpt><trkpt lat="48.36103869661415" lon="-1.0269870392252405"><ele>217.0</ele><time>2026-04-06T12:58:01Z</time></trkpt><trkpt lat="48.36100831176402" lon="-1.0267215122192621"><ele>217.66666666666666</ele><time>2026-04-06T12:58:02Z</time></trkpt><trkpt lat="48.360997320177546" lon="-1.0264425690607044"><ele>218.33333333333331</ele><time>2026-04-06T12:58:03Z</time></trkpt><trkpt lat="48.360988470406454" lon="-1.026161172587541"><ele>219.0</ele><time>2026-04-06T12:58:04Z</time></trkpt><trkpt lat="48.3609906327641" lon="-1.0258889689638837"><ele>220.0</ele><time>2026-04-06T12:58:05Z</time></trkpt><trkpt lat="48.36098884959639" lon="-1.0256105297791998"><ele>221.0</ele><time>2026-04-06T12:58:06Z</time></trkpt><trkpt lat="48.36098744304947" lon="-1.025349652016378"><ele>222.0</ele><time>2026-04-06T12:58:07Z</time></trkpt><trkpt lat="48.36098227487374" lon="-1.025090214878784"><ele>222.33333333333331</ele><time>2026-04-06T12:58:08Z</time></trkpt><trkpt lat="48.36096834484165" lon="-1.0248350682351541"><ele>222.66666666666666</ele><time>2026-04-06T12:58:09Z</time></trkpt><trkpt lat="48.36093905493735" lon="-1.0245845341317794"><ele>223.0</ele><time>2026-04-06T12:58:10Z</time></trkpt><trkpt lat="48.36089253054697" lon="-1.0243335457158547"><ele>223.0</ele><time>2026-04-06T12:58:11Z</time></trkpt><trkpt lat="48.36083429936891" lon="-1.024076757650993"><ele>223.0</ele><time>2026-04-06T12:58:12Z</time></trkpt><trkpt lat="48.36076915057725" lon="-1.023815760948135"><ele>223.0</ele><time>2026-04-06T12:58:13Z</time></trkpt><trkpt lat="48.36069536431209" lon="-1.023552465082375"><ele>222.66666666666666</ele><time>2026-04-06T12:58:14Z</time></trkpt><trkpt lat="48.36061890711904" lon="-1.0232903092071195"><ele>222.33333333333331</ele><time>2026-04-06T12:58:15Z</time></trkpt><trkpt lat="48.36054110841046" lon="-1.023048380548014"><ele>222.0</ele><time>2026-04-06T12:58:16Z</time></trkpt><trkpt lat="48.36045515620915" lon="-1.0228132354265176"><ele>222.0</ele><time>2026-04-06T12:58:17Z</time></trkpt><trkpt lat="48.360362495890044" lon="-1.0225815867170152"><ele>222.0</ele><time>2026-04-06T12:58:18Z</time></trkpt><trkpt lat="48.36025923615602" lon="-1.0223568882043856"><ele>222.0</ele><time>2026-04-06T12:58:19Z</time></trkpt><trkpt lat="48.36015635492587" lon="-1.0221285218197635"><ele>221.66666666666669</ele><time>2026-04-06T12:58:20Z</time></trkpt><trkpt lat="48.3600690372493" lon="-1.021887627316946"><ele>221.33333333333334</ele><time>2026-04-06T12:58:21Z</time></trkpt><trkpt lat="48.35999136672038" lon="-1.0216448730882794"><ele>221.0</ele><time>2026-04-06T12:58:22Z</time></trkpt><trkpt lat="48.35992340580608" lon="-1.0213975027739932"><ele>220.0</ele><time>2026-04-06T12:58:23Z</time></trkpt><trkpt lat="48.35986370965189" lon="-1.0211476933306562"><ele>219.0</ele><time>2026-04-06T12:58:24Z</time></trkpt><trkpt lat="48.359813723390005" lon="-1.0208864000148532"><ele>218.0</ele><time>2026-04-06T12:58:25Z</time></trkpt><trkpt lat="48.3597818332495" lon="-1.0206127135005936"><ele>217.0</ele><time>2026-04-06T12:58:26Z</time></trkpt><trkpt lat="48.35975825018691" lon="-1.0203322150434015"><ele>216.0</ele><time>2026-04-06T12:58:27Z</time></trkpt><trkpt lat="48.35973534012989" lon="-1.020035236376309"><ele>215.0</ele><time>2026-04-06T12:58:28Z</time></trkpt><trkpt lat="48.35971344618405" lon="-1.0197261337858545"><ele>213.66666666666669</ele><time>2026-04-06T12:58:29Z</time></trkpt><trkpt lat="48.359688177457194" lon="-1.01940906748536"><ele>212.33333333333331</ele><time>2026-04-06T12:58:30Z</time></trkpt><trkpt lat="48.35967337704801" lon="-1.0190923404887298"><ele>211.0</ele><time>2026-04-06T12:58:31Z</time></trkpt><trkpt lat="48.35968501183293" lon="-1.0187771256176137"><ele>211.33333333333331</ele><time>2026-04-06T12:58:32Z</time></trkpt><trkpt lat="48.359718698777705" lon="-1.01846505285308"><ele>211.66666666666669</ele><time>2026-04-06T12:58:33Z</time></trkpt><trkpt lat="48.35977582970999" lon="-1.018155028872964"><ele>212.0</ele><time>2026-04-06T12:58:34Z</time></trkpt><trkpt lat="48.359825025692075" lon="-1.01784308897446"><ele>212.33333333333334</ele><time>2026-04-06T12:58:35Z</time></trkpt><trkpt lat="48.359866952515475" lon="-1.017531998914682"><ele>212.66666666666669</ele><time>2026-04-06T12:58:36Z</time></trkpt><trkpt lat="48.35990663682075" lon="-1.0172207650051044"><ele>213.0</ele><time>2026-04-06T12:58:37Z</time></trkpt><trkpt lat="48.3599448937561" lon="-1.0169073331952556"><ele>213.66666666666669</ele><time>2026-04-06T12:58:38Z</time></trkpt><trkpt lat="48.3599831632373" lon="-1.0165993333791843"><ele>214.33333333333334</ele><time>2026-04-06T12:58:39Z</time></trkpt><trkpt lat="48.3600259790068" lon="-1.0162989013374908"><ele>215.0</ele><time>2026-04-06T12:58:40Z</time></trkpt><trkpt lat="48.360075310833295" lon="-1.0160072773678377"><ele>215.33333333333334</ele><time>2026-04-06T12:58:41Z</time></trkpt><trkpt lat="48.36014398256561" lon="-1.015722800966266"><ele>215.66666666666669</ele><time>2026-04-06T12:58:42Z</time></trkpt><trkpt lat="48.36021869766115" lon="-1.0154396515716881"><ele>216.0</ele><time>2026-04-06T12:58:43Z</time></trkpt><trkpt lat="48.36030179673208" lon="-1.0151552807332516"><ele>216.33333333333331</ele><time>2026-04-06T12:58:44Z</time></trkpt><trkpt lat="48.360386349880486" lon="-1.0148728420763464"><ele>216.66666666666666</ele><time>2026-04-06T12:58:45Z</time></trkpt><trkpt lat="48.360473766940615" lon="-1.0145897011441303"><ele>217.0</ele><time>2026-04-06T12:58:46Z</time></trkpt><trkpt lat="48.36056237627812" lon="-1.0143038635795882"><ele>217.33333333333331</ele><time>2026-04-06T12:58:47Z</time></trkpt><trkpt lat="48.3606495453447" lon="-1.0140123578028137"><ele>217.66666666666669</ele><time>2026-04-06T12:58:48Z</time></trkpt><trkpt lat="48.360737945781416" lon="-1.013724346375804"><ele>218.0</ele><time>2026-04-06T12:58:49Z</time></trkpt><trkpt lat="48.3608266612189" lon="-1.0134228621182557"><ele>218.0</ele><time>2026-04-06T12:58:50Z</time></trkpt><trkpt lat="48.360913774071506" lon="-1.013123407283576"><ele>218.0</ele><time>2026-04-06T12:58:51Z</time></trkpt><trkpt lat="48.36100074596501" lon="-1.012833717085749"><ele>218.0</ele><time>2026-04-06T12:58:52Z</time></trkpt><trkpt lat="48.36108786382801" lon="-1.0125439381070482"><ele>217.33333333333334</ele><time>2026-04-06T12:58:53Z</time></trkpt><trkpt lat="48.36116819551045" lon="-1.012249694881006"><ele>216.66666666666669</ele><time>2026-04-06T12:58:54Z</time></trkpt><trkpt lat="48.361239030551396" lon="-1.0119543613045725"><ele>216.0</ele><time>2026-04-06T12:58:55Z</time></trkpt><trkpt lat="48.36130297711183" lon="-1.0116571526749982"><ele>216.0</ele><time>2026-04-06T12:58:56Z</time></trkpt><trkpt lat="48.36136629350487" lon="-1.0113610102895154"><ele>216.0</ele><time>2026-04-06T12:58:57Z</time></trkpt><trkpt lat="48.361435620849875" lon="-1.0110540904441445"><ele>216.0</ele><time>2026-04-06T12:58:58Z</time></trkpt><trkpt lat="48.361507658266824" lon="-1.0107091134355917"><ele>215.5</ele><time>2026-04-06T12:58:59Z</time></trkpt><trkpt lat="48.36158703833185" lon="-1.0103434571966565"><ele>215.0</ele><time>2026-04-06T12:59:00Z</time></trkpt><trkpt lat="48.3616659476796" lon="-1.0099504672448423"><ele>214.5</ele><time>2026-04-06T12:59:01Z</time></trkpt><trkpt lat="48.361742583991" lon="-1.0095585563617089"><ele>214.0</ele><time>2026-04-06T12:59:02Z</time></trkpt><trkpt lat="48.361812982302226" lon="-1.0092048558145756"><ele>214.5</ele><time>2026-04-06T12:59:03Z</time></trkpt><trkpt lat="48.3618867555906" lon="-1.0088688339988026"><ele>215.0</ele><time>2026-04-06T12:59:04Z</time></trkpt><trkpt lat="48.36194371422277" lon="-1.0085506600870553"><ele>216.0</ele><time>2026-04-06T12:59:05Z</time></trkpt><trkpt lat="48.36200052911286" lon="-1.0082451691629033"><ele>217.0</ele><time>2026-04-06T12:59:06Z</time></trkpt><trkpt lat="48.36204362149198" lon="-1.0079474413645346"><ele>218.0</ele><time>2026-04-06T12:59:07Z</time></trkpt><trkpt lat="48.36207058465881" lon="-1.007648134384524"><ele>219.33333333333334</ele><time>2026-04-06T12:59:08Z</time></trkpt><trkpt lat="48.36208601171726" lon="-1.007353680117707"><ele>220.66666666666669</ele><time>2026-04-06T12:59:09Z</time></trkpt><trkpt lat="48.362105685479385" lon="-1.0070656750786404"><ele>222.0</ele><time>2026-04-06T12:59:10Z</time></trkpt><trkpt lat="48.362131917230954" lon="-1.0067836784080386"><ele>222.0</ele><time>2026-04-06T12:59:11Z</time></trkpt><trkpt lat="48.36216108688758" lon="-1.0065130329610783"><ele>222.0</ele><time>2026-04-06T12:59:12Z</time></trkpt><trkpt lat="48.36218999487607" lon="-1.0062609366853872"><ele>222.0</ele><time>2026-04-06T12:59:13Z</time></trkpt><trkpt lat="48.3622193079398" lon="-1.0060220456388795"><ele>222.0</ele><time>2026-04-06T12:59:14Z</time></trkpt><trkpt lat="48.36224025047806" lon="-1.0057955993159713"><ele>222.0</ele><time>2026-04-06T12:59:15Z</time></trkpt><trkpt lat="48.36226501659832" lon="-1.005582354858482"><ele>222.0</ele><time>2026-04-06T12:59:16Z</time></trkpt><trkpt lat="48.36228547333332" lon="-1.0053810342495073"><ele>222.0</ele><time>2026-04-06T12:59:17Z</time></trkpt><trkpt lat="48.36230677339853" lon="-1.0051841408383644"><ele>222.0</ele><time>2026-04-06T12:59:18Z</time></trkpt><trkpt lat="48.362324056945305" lon="-1.0049960322327731"><ele>222.0</ele><time>2026-04-06T12:59:19Z</time></trkpt><trkpt lat="48.3623327292935" lon="-1.004816532339105"><ele>222.0</ele><time>2026-04-06T12:59:20Z</time></trkpt><trkpt lat="48.36233460907089" lon="-1.0046446145602155"><ele>222.0</ele><time>2026-04-06T12:59:21Z</time></trkpt><trkpt lat="48.36233012126982" lon="-1.00448560992868"><ele>221.8</ele><time>2026-04-06T12:59:22Z</time></trkpt><trkpt lat="48.36231517991613" lon="-1.0043330519052744"><ele>221.6</ele><time>2026-04-06T12:59:23Z</time></trkpt><trkpt lat="48.36228907145772" lon="-1.0041911617094628"><ele>221.40000000000003</ele><time>2026-04-06T12:59:24Z</time></trkpt><trkpt lat="48.362243215505615" lon="-1.0040510637588862"><ele>221.20000000000002</ele><time>2026-04-06T12:59:25Z</time></trkpt><trkpt lat="48.36218032831" lon="-1.0039281709385854"><ele>221.0</ele><time>2026-04-06T12:59:26Z</time></trkpt><trkpt lat="48.36210937671066" lon="-1.0038236617996217"><ele>219.8</ele><time>2026-04-06T12:59:27Z</time></trkpt><trkpt lat="48.36203626336746" lon="-1.0037255130828986"><ele>218.60000000000002</ele><time>2026-04-06T12:59:28Z</time></trkpt><trkpt lat="48.36195115291991" lon="-1.0036474592135498"><ele>217.4</ele><time>2026-04-06T12:59:29Z</time></trkpt><trkpt lat="48.361892212199834" lon="-1.0035245897402252"><ele>216.2</ele><time>2026-04-06T12:59:30Z</time></trkpt><trkpt lat="48.36183823766377" lon="-1.0034142852328818"><ele>215.0</ele><time>2026-04-06T12:59:31Z</time></trkpt><trkpt lat="48.361795910760996" lon="-1.003287562729113"><ele>214.16666666666669</ele><time>2026-04-06T12:59:32Z</time></trkpt><trkpt lat="48.361776978672175" lon="-1.0031573171821027"><ele>213.33333333333334</ele><time>2026-04-06T12:59:33Z</time></trkpt><trkpt lat="48.36176605880054" lon="-1.0030324853367574"><ele>212.5</ele><time>2026-04-06T12:59:34Z</time></trkpt><trkpt lat="48.36176073082174" lon="-1.0029225014516956"><ele>211.66666666666669</ele><time>2026-04-06T12:59:35Z</time></trkpt><trkpt lat="48.36177078431342" lon="-1.002826003723143"><ele>210.83333333333334</ele><time>2026-04-06T12:59:36Z</time></trkpt><trkpt lat="48.36176143068068" lon="-1.0027242926270874"><ele>210.0</ele><time>2026-04-06T12:59:37Z</time></trkpt><trkpt lat="48.361760195606344" lon="-1.0026126745559951"><ele>209.2</ele><time>2026-04-06T12:59:38Z</time></trkpt><trkpt lat="48.36176498339404" lon="-1.0024875032987974"><ele>208.4</ele><time>2026-04-06T12:59:39Z</time></trkpt><trkpt lat="48.36176831279111" lon="-1.0023535777080836"><ele>207.60000000000002</ele><time>2026-04-06T12:59:40Z</time></trkpt><trkpt lat="48.36177083750483" lon="-1.0022112445439841"><ele>206.8</ele><time>2026-04-06T12:59:41Z</time></trkpt><trkpt lat="48.361772617665224" lon="-1.0020673311810258"><ele>206.0</ele><time>2026-04-06T12:59:42Z</time></trkpt><trkpt lat="48.36177537020384" lon="-1.0019280105178263"><ele>206.0</ele><time>2026-04-06T12:59:43Z</time></trkpt><trkpt lat="48.36178227352629" lon="-1.0017881522874705"><ele>206.0</ele><time>2026-04-06T12:59:44Z</time></trkpt><trkpt lat="48.361785270322194" lon="-1.0016508617181952"><ele>206.0</ele><time>2026-04-06T12:59:45Z</time></trkpt><trkpt lat="48.36179989988695" lon="-1.0015137315845335"><ele>206.0</ele><time>2026-04-06T12:59:46Z</time></trkpt><trkpt lat="48.36181693002862" lon="-1.001376494259338"><ele>206.0</ele><time>2026-04-06T12:59:47Z</time></trkpt><trkpt lat="48.36182072819968" lon="-1.0012382742426331"><ele>206.20000000000002</ele><time>2026-04-06T12:59:48Z</time></trkpt><trkpt lat="48.361841639493804" lon="-1.0010976252442088"><ele>206.4</ele><time>2026-04-06T12:59:49Z</time></trkpt><trkpt lat="48.36188225407259" lon="-1.0009687682367652"><ele>206.6</ele><time>2026-04-06T12:59:50Z</time></trkpt><trkpt lat="48.3619166795248" lon="-1.0008350411263176"><ele>206.8</ele><time>2026-04-06T12:59:51Z</time></trkpt><trkpt lat="48.361956604977955" lon="-1.0007017442367703"><ele>207.0</ele><time>2026-04-06T12:59:52Z</time></trkpt><trkpt lat="48.36200144401937" lon="-1.0005675725499663"><ele>206.39999999999998</ele><time>2026-04-06T12:59:53Z</time></trkpt><trkpt lat="48.36204576036965" lon="-1.0004347739716222"><ele>205.79999999999998</ele><time>2026-04-06T12:59:54Z</time></trkpt><trkpt lat="48.36208396897615" lon="-1.0003099486103983"><ele>205.2</ele><time>2026-04-06T12:59:55Z</time></trkpt><trkpt lat="48.362123652884144" lon="-1.00019079824089"><ele>204.6</ele><time>2026-04-06T12:59:56Z</time></trkpt><trkpt lat="48.36216357330771" lon="-1.0000738137222949"><ele>204.0</ele><time>2026-04-06T12:59:57Z</time></trkpt><trkpt lat="48.36220156315395" lon="-0.9999598690497113"><ele>203.66666666666666</ele><time>2026-04-06T12:59:58Z</time></trkpt><trkpt lat="48.362228018521456" lon="-0.9998422094504338"><ele>203.33333333333331</ele><time>2026-04-06T12:59:59Z</time></trkpt><trkpt lat="48.362249268677246" lon="-0.999727322472702"><ele>203.0</ele><time>2026-04-06T13:00:00Z</time></trkpt><trkpt lat="48.362266668223015" lon="-0.9996218850531069"><ele>202.66666666666666</ele><time>2026-04-06T13:00:01Z</time></trkpt><trkpt lat="48.36228130906653" lon="-0.9995280097725565"><ele>202.33333333333331</ele><time>2026-04-06T13:00:02Z</time></trkpt><trkpt lat="48.36231101078089" lon="-0.9993853789960957"><ele>202.0</ele><time>2026-04-06T13:00:04Z</time></trkpt><trkpt lat="48.36233406855285" lon="-0.9992616785901898"><ele>201.99999999999997</ele><time>2026-04-06T13:00:08Z</time></trkpt><trkpt lat="48.36224107476035" lon="-0.999228653520054"><ele>202.0</ele><time>2026-04-06T13:00:10Z</time></trkpt><trkpt lat="48.362162614221866" lon="-0.9991671416848518"><ele>202.0</ele><time>2026-04-06T13:00:11Z</time></trkpt><trkpt lat="48.36209378512499" lon="-0.9991298787808914"><ele>202.0</ele><time>2026-04-06T13:00:12Z</time></trkpt><trkpt lat="48.36202219400586" lon="-0.9990870182145828"><ele>201.99999999999997</ele><time>2026-04-06T13:00:13Z</time></trkpt><trkpt lat="48.36194181832937" lon="-0.9990636801787316"><ele>202.0</ele><time>2026-04-06T13:00:14Z</time></trkpt><trkpt lat="48.361857418173045" lon="-0.9990154530323229"><ele>202.2</ele><time>2026-04-06T13:00:15Z</time></trkpt><trkpt lat="48.361754737243146" lon="-0.9989702071304605"><ele>202.39999999999998</ele><time>2026-04-06T13:00:16Z</time></trkpt><trkpt lat="48.36166017368522" lon="-0.9989448899125319"><ele>202.60000000000002</ele><time>2026-04-06T13:00:17Z</time></trkpt><trkpt lat="48.36156456180065" lon="-0.9989163686550009"><ele>202.8</ele><time>2026-04-06T13:00:18Z</time></trkpt><trkpt lat="48.36147075177166" lon="-0.998903619335613"><ele>203.0</ele><time>2026-04-06T13:00:19Z</time></trkpt><trkpt lat="48.36137605227199" lon="-0.9988925198130186"><ele>203.50000000000003</ele><time>2026-04-06T13:00:20Z</time></trkpt><trkpt lat="48.36128367589692" lon="-0.998883034739919"><ele>204.0</ele><time>2026-04-06T13:00:21Z</time></trkpt><trkpt lat="48.36119370809833" lon="-0.9988701095216574"><ele>204.5</ele><time>2026-04-06T13:00:22Z</time></trkpt><trkpt lat="48.36110889968225" lon="-0.998856831533913"><ele>205.0</ele><time>2026-04-06T13:00:23Z</time></trkpt><trkpt lat="48.36103388809162" lon="-0.9988437533514329"><ele>205.50000000000003</ele><time>2026-04-06T13:00:24Z</time></trkpt><trkpt lat="48.36096338098985" lon="-0.998831460554359"><ele>206.0</ele><time>2026-04-06T13:00:25Z</time></trkpt><trkpt lat="48.360895861099785" lon="-0.9988196886805198"><ele>206.0</ele><time>2026-04-06T13:00:26Z</time></trkpt><trkpt lat="48.360832032550206" lon="-0.9987812890167889"><ele>206.0</ele><time>2026-04-06T13:00:27Z</time></trkpt><trkpt lat="48.36073398032453" lon="-0.9985982035115866"><ele>206.0</ele><time>2026-04-06T13:00:29Z</time></trkpt><trkpt lat="48.36068810820125" lon="-0.9984920820291138"><ele>206.0</ele><time>2026-04-06T13:00:30Z</time></trkpt><trkpt lat="48.36064442190581" lon="-0.998377956429356"><ele>206.0</ele><time>2026-04-06T13:00:31Z</time></trkpt><trkpt lat="48.36058925323323" lon="-0.9982671827056732"><ele>206.0</ele><time>2026-04-06T13:00:32Z</time></trkpt><trkpt lat="48.36053288670544" lon="-0.9981553632485716"><ele>206.0</ele><time>2026-04-06T13:00:33Z</time></trkpt><trkpt lat="48.36047621123204" lon="-0.9980456355080628"><ele>206.0</ele><time>2026-04-06T13:00:34Z</time></trkpt><trkpt lat="48.36042270439903" lon="-0.9979471809045877"><ele>206.0</ele><time>2026-04-06T13:00:35Z</time></trkpt><trkpt lat="48.36036649989138" lon="-0.997844286883196"><ele>206.0</ele><time>2026-04-06T13:00:36Z</time></trkpt><trkpt lat="48.36030517275454" lon="-0.997729301542393"><ele>206.0</ele><time>2026-04-06T13:00:37Z</time></trkpt><trkpt lat="48.36024082827214" lon="-0.9976069690903249"><ele>206.0</ele><time>2026-04-06T13:00:38Z</time></trkpt><trkpt lat="48.36017466684124" lon="-0.9974988768096441"><ele>206.0</ele><time>2026-04-06T13:00:39Z</time></trkpt><trkpt lat="48.36010766032385" lon="-0.9973958234175303"><ele>206.0</ele><time>2026-04-06T13:00:40Z</time></trkpt><trkpt lat="48.360040143300694" lon="-0.9973026203618209"><ele>206.0</ele><time>2026-04-06T13:00:41Z</time></trkpt><trkpt lat="48.35997921008772" lon="-0.9972088097690193"><ele>205.83333333333334</ele><time>2026-04-06T13:00:42Z</time></trkpt><trkpt lat="48.35991780639528" lon="-0.9971195272271152"><ele>205.66666666666669</ele><time>2026-04-06T13:00:43Z</time></trkpt><trkpt lat="48.35985861100369" lon="-0.9970365350027846"><ele>205.5</ele><time>2026-04-06T13:00:44Z</time></trkpt><trkpt lat="48.359797164021245" lon="-0.9969583329523264"><ele>205.33333333333331</ele><time>2026-04-06T13:00:45Z</time></trkpt><trkpt lat="48.35973535038114" lon="-0.9968846988435657"><ele>205.16666666666666</ele><time>2026-04-06T13:00:46Z</time></trkpt><trkpt lat="48.359674306128824" lon="-0.9968107199121762"><ele>205.0</ele><time>2026-04-06T13:00:47Z</time></trkpt><trkpt lat="48.35960895964673" lon="-0.9967345413800319"><ele>204.0</ele><time>2026-04-06T13:00:48Z</time></trkpt><trkpt lat="48.359538076382506" lon="-0.9966617010149647"><ele>203.0</ele><time>2026-04-06T13:00:49Z</time></trkpt><trkpt lat="48.35946193841566" lon="-0.9965873569058266"><ele>202.0</ele><time>2026-04-06T13:00:50Z</time></trkpt><trkpt lat="48.359384899078904" lon="-0.9965144305872191"><ele>201.0</ele><time>2026-04-06T13:00:51Z</time></trkpt><trkpt lat="48.35929904128954" lon="-0.9964484960492079"><ele>200.0</ele><time>2026-04-06T13:00:52Z</time></trkpt><trkpt lat="48.359211551522975" lon="-0.996378228148608"><ele>200.0</ele><time>2026-04-06T13:00:53Z</time></trkpt><trkpt lat="48.35911475557847" lon="-0.9963379313826163"><ele>200.0</ele><time>2026-04-06T13:00:54Z</time></trkpt><trkpt lat="48.35902806132628" lon="-0.996272043586365"><ele>200.0</ele><time>2026-04-06T13:00:55Z</time></trkpt><trkpt lat="48.358940439557024" lon="-0.9962033131370936"><ele>200.0</ele><time>2026-04-06T13:00:56Z</time></trkpt><trkpt lat="48.35885234205444" lon="-0.9961332581523865"><ele>200.0</ele><time>2026-04-06T13:00:57Z</time></trkpt><trkpt lat="48.35876208341507" lon="-0.996061285200266"><ele>200.0</ele><time>2026-04-06T13:00:58Z</time></trkpt><trkpt lat="48.35866719767089" lon="-0.9959841121596427"><ele>200.0</ele><time>2026-04-06T13:00:59Z</time></trkpt><trkpt lat="48.35857489262949" lon="-0.995902491554384"><ele>200.0</ele><time>2026-04-06T13:01:00Z</time></trkpt><trkpt lat="48.35848532907175" lon="-0.995815843051737"><ele>200.0</ele><time>2026-04-06T13:01:01Z</time></trkpt><trkpt lat="48.35839544040638" lon="-0.9957201313102374"><ele>200.0</ele><time>2026-04-06T13:01:02Z</time></trkpt><trkpt lat="48.35832262353559" lon="-0.9956070134653788"><ele>199.8</ele><time>2026-04-06T13:01:03Z</time></trkpt><trkpt lat="48.358244585825254" lon="-0.9955115899353812"><ele>199.6</ele><time>2026-04-06T13:01:04Z</time></trkpt><trkpt lat="48.358169010184085" lon="-0.99542066560462"><ele>199.39999999999998</ele><time>2026-04-06T13:01:05Z</time></trkpt><trkpt lat="48.35809305456714" lon="-0.9953256603435365"><ele>199.2</ele><time>2026-04-06T13:01:06Z</time></trkpt><trkpt lat="48.35801455895881" lon="-0.9952290716080192"><ele>199.0</ele><time>2026-04-06T13:01:07Z</time></trkpt><trkpt lat="48.35793128668255" lon="-0.9951399918439453"><ele>199.0</ele><time>2026-04-06T13:01:08Z</time></trkpt><trkpt lat="48.35784959194861" lon="-0.995060690869554"><ele>199.0</ele><time>2026-04-06T13:01:09Z</time></trkpt><trkpt lat="48.35775996256404" lon="-0.9949872304480504"><ele>199.0</ele><time>2026-04-06T13:01:10Z</time></trkpt><trkpt lat="48.35766663819438" lon="-0.9949070531851799"><ele>199.0</ele><time>2026-04-06T13:01:11Z</time></trkpt><trkpt lat="48.35755642760584" lon="-0.9948344718536792"><ele>199.0</ele><time>2026-04-06T13:01:12Z</time></trkpt><trkpt lat="48.35741260374651" lon="-0.9947376928881907"><ele>198.25</ele><time>2026-04-06T13:01:13Z</time></trkpt><trkpt lat="48.357290009813646" lon="-0.9946525566264537"><ele>197.5</ele><time>2026-04-06T13:01:14Z</time></trkpt><trkpt lat="48.35717369365395" lon="-0.9945761124891591"><ele>196.75</ele><time>2026-04-06T13:01:15Z</time></trkpt><trkpt lat="48.35706722210794" lon="-0.9945070706975924"><ele>196.0</ele><time>2026-04-06T13:01:16Z</time></trkpt><trkpt lat="48.356969099601" lon="-0.994441848915488"><ele>197.33333333333331</ele><time>2026-04-06T13:01:17Z</time></trkpt><trkpt lat="48.356877672533656" lon="-0.9943853988630132"><ele>198.66666666666666</ele><time>2026-04-06T13:01:18Z</time></trkpt><trkpt lat="48.35679465086486" lon="-0.9943374438306583"><ele>200.0</ele><time>2026-04-06T13:01:19Z</time></trkpt><trkpt lat="48.35671490660893" lon="-0.9942947813435558"><ele>201.33333333333331</ele><time>2026-04-06T13:01:20Z</time></trkpt><trkpt lat="48.3566366308332" lon="-0.9942529043593681"><ele>202.66666666666666</ele><time>2026-04-06T13:01:21Z</time></trkpt><trkpt lat="48.35655914585973" lon="-0.9942137063342906"><ele>204.0</ele><time>2026-04-06T13:01:22Z</time></trkpt><trkpt lat="48.35647975395943" lon="-0.9941755520820269"><ele>203.5</ele><time>2026-04-06T13:01:23Z</time></trkpt><trkpt lat="48.356398819099816" lon="-0.9941372287597553"><ele>203.0</ele><time>2026-04-06T13:01:24Z</time></trkpt><trkpt lat="48.35631541439433" lon="-0.9940989594759182"><ele>202.5</ele><time>2026-04-06T13:01:25Z</time></trkpt><trkpt lat="48.356243275323195" lon="-0.9940160128650014"><ele>202.0</ele><time>2026-04-06T13:01:26Z</time></trkpt><trkpt lat="48.356166231362636" lon="-0.9939839151038935"><ele>201.5</ele><time>2026-04-06T13:01:27Z</time></trkpt><trkpt lat="48.356089949473834" lon="-0.9939504322130106"><ele>201.0</ele><time>2026-04-06T13:01:28Z</time></trkpt><trkpt lat="48.356012837735946" lon="-0.9939118561581006"><ele>201.0</ele><time>2026-04-06T13:01:29Z</time></trkpt><trkpt lat="48.35592291665934" lon="-0.9939120058899934"><ele>201.0</ele><time>2026-04-06T13:01:30Z</time></trkpt><trkpt lat="48.35583322439074" lon="-0.9938690139769545"><ele>201.0</ele><time>2026-04-06T13:01:31Z</time></trkpt><trkpt lat="48.35571549468506" lon="-0.9938138183010397"><ele>201.0</ele><time>2026-04-06T13:01:32Z</time></trkpt><trkpt lat="48.355561733817055" lon="-0.9937441350270511"><ele>200.33333333333331</ele><time>2026-04-06T13:01:33Z</time></trkpt><trkpt lat="48.35537555979691" lon="-0.9936594165299968"><ele>199.66666666666666</ele><time>2026-04-06T13:01:34Z</time></trkpt><trkpt lat="48.35516353867185" lon="-0.9935610491251409"><ele>199.0</ele><time>2026-04-06T13:01:35Z</time></trkpt><trkpt lat="48.354957124832154" lon="-0.9934647435200442"><ele>199.0</ele><time>2026-04-06T13:01:36Z</time></trkpt><trkpt lat="48.35475932386071" lon="-0.9933739057291612"><ele>199.0</ele><time>2026-04-06T13:01:37Z</time></trkpt><trkpt lat="48.35455890627978" lon="-0.9932816627282018"><ele>199.0</ele><time>2026-04-06T13:01:38Z</time></trkpt><trkpt lat="48.354362591863854" lon="-0.9931750632971714"><ele>197.0</ele><time>2026-04-06T13:01:39Z</time></trkpt><trkpt lat="48.35416530980944" lon="-0.9930834676649589"><ele>195.0</ele><time>2026-04-06T13:01:40Z</time></trkpt><trkpt lat="48.353977462731855" lon="-0.9929519459388418"><ele>193.0</ele><time>2026-04-06T13:01:41Z</time></trkpt><trkpt lat="48.35380296616151" lon="-0.9927846369836315"><ele>192.0</ele><time>2026-04-06T13:01:42Z</time></trkpt><trkpt lat="48.353636716495224" lon="-0.9926052239933381"><ele>191.0</ele><time>2026-04-06T13:01:43Z</time></trkpt><trkpt lat="48.35347410399055" lon="-0.9924164583774142"><ele>190.0</ele><time>2026-04-06T13:01:44Z</time></trkpt><trkpt lat="48.35331212049308" lon="-0.9922333218631987"><ele>190.0</ele><time>2026-04-06T13:01:45Z</time></trkpt><trkpt lat="48.35315023944647" lon="-0.9920492415212833"><ele>190.0</ele><time>2026-04-06T13:01:46Z</time></trkpt><trkpt lat="48.35298906147102" lon="-0.9918662924238456"><ele>190.0</ele><time>2026-04-06T13:01:47Z</time></trkpt><trkpt lat="48.35282247482304" lon="-0.9916903506689525"><ele>190.0</ele><time>2026-04-06T13:01:48Z</time></trkpt><trkpt lat="48.35265423150035" lon="-0.9915161550221954"><ele>190.0</ele><time>2026-04-06T13:01:49Z</time></trkpt><trkpt lat="48.352480567265914" lon="-0.991338627746953"><ele>190.0</ele><time>2026-04-06T13:01:50Z</time></trkpt><trkpt lat="48.35230344046519" lon="-0.991165429173116"><ele>189.33333333333334</ele><time>2026-04-06T13:01:51Z</time></trkpt><trkpt lat="48.35212597781994" lon="-0.990990269938015"><ele>188.66666666666666</ele><time>2026-04-06T13:01:52Z</time></trkpt><trkpt lat="48.35194019291932" lon="-0.9908378903438299"><ele>188.0</ele><time>2026-04-06T13:01:53Z</time></trkpt><trkpt lat="48.35176357073883" lon="-0.9906700153827991"><ele>188.0</ele><time>2026-04-06T13:01:54Z</time></trkpt><trkpt lat="48.35158987303391" lon="-0.9904889917962604"><ele>188.0</ele><time>2026-04-06T13:01:55Z</time></trkpt><trkpt lat="48.35142505591244" lon="-0.9902872211872944"><ele>188.0</ele><time>2026-04-06T13:01:56Z</time></trkpt><trkpt lat="48.35127388045482" lon="-0.9900640641772718"><ele>188.0</ele><time>2026-04-06T13:01:57Z</time></trkpt><trkpt lat="48.351146722308236" lon="-0.9898094609514553"><ele>188.0</ele><time>2026-04-06T13:01:58Z</time></trkpt><trkpt lat="48.35101757907662" lon="-0.9895521524305604"><ele>188.0</ele><time>2026-04-06T13:01:59Z</time></trkpt><trkpt lat="48.35091349433366" lon="-0.9892687020040652"><ele>188.0</ele><time>2026-04-06T13:02:00Z</time></trkpt><trkpt lat="48.35082267979615" lon="-0.9889684783264745"><ele>188.0</ele><time>2026-04-06T13:02:01Z</time></trkpt><trkpt lat="48.35073766545409" lon="-0.9886581005476006"><ele>188.0</ele><time>2026-04-06T13:02:02Z</time></trkpt><trkpt lat="48.350656556854574" lon="-0.9883423824354164"><ele>187.5</ele><time>2026-04-06T13:02:03Z</time></trkpt><trkpt lat="48.350579491409206" lon="-0.9880207693637832"><ele>187.0</ele><time>2026-04-06T13:02:04Z</time></trkpt><trkpt lat="48.3505034050541" lon="-0.9877024517176485"><ele>187.5</ele><time>2026-04-06T13:02:05Z</time></trkpt><trkpt lat="48.3504048663489" lon="-0.9873918303578335"><ele>188.0</ele><time>2026-04-06T13:02:06Z</time></trkpt><trkpt lat="48.35029162801157" lon="-0.9870893678089148"><ele>188.0</ele><time>2026-04-06T13:02:07Z</time></trkpt><trkpt lat="48.35016596321479" lon="-0.9867958156459212"><ele>188.0</ele><time>2026-04-06T13:02:08Z</time></trkpt><trkpt lat="48.35004070186018" lon="-0.9864973727925562"><ele>188.5</ele><time>2026-04-06T13:02:09Z</time></trkpt><trkpt lat="48.349918302803765" lon="-0.986193974059329"><ele>189.0</ele><time>2026-04-06T13:02:10Z</time></trkpt><trkpt lat="48.34981933959064" lon="-0.9858661655938176"><ele>188.5</ele><time>2026-04-06T13:02:11Z</time></trkpt><trkpt lat="48.34972340633805" lon="-0.9855353449393826"><ele>188.0</ele><time>2026-04-06T13:02:12Z</time></trkpt><trkpt lat="48.349624601917974" lon="-0.9852072474230997"><ele>187.0</ele><time>2026-04-06T13:02:13Z</time></trkpt><trkpt lat="48.34952759506262" lon="-0.9848815018763576"><ele>186.0</ele><time>2026-04-06T13:02:14Z</time></trkpt><trkpt lat="48.349431498817985" lon="-0.9845533326698449"><ele>186.0</ele><time>2026-04-06T13:02:15Z</time></trkpt><trkpt lat="48.349333459283315" lon="-0.9842252265647756"><ele>186.0</ele><time>2026-04-06T13:02:16Z</time></trkpt><trkpt lat="48.34923263954591" lon="-0.9838978337673712"><ele>186.0</ele><time>2026-04-06T13:02:17Z</time></trkpt><trkpt lat="48.34911420582141" lon="-0.9835841827404012"><ele>186.0</ele><time>2026-04-06T13:02:18Z</time></trkpt><trkpt lat="48.348976148781816" lon="-0.9832902630122736"><ele>187.0</ele><time>2026-04-06T13:02:19Z</time></trkpt><trkpt lat="48.348829597502736" lon="-0.9830045176764132"><ele>188.0</ele><time>2026-04-06T13:02:20Z</time></trkpt><trkpt lat="48.3486960948619" lon="-0.9827082888670038"><ele>187.0</ele><time>2026-04-06T13:02:21Z</time></trkpt><trkpt lat="48.34857396482772" lon="-0.9823954800939563"><ele>186.0</ele><time>2026-04-06T13:02:22Z</time></trkpt><trkpt lat="48.348458145414824" lon="-0.9820744338621079"><ele>186.0</ele><time>2026-04-06T13:02:23Z</time></trkpt><trkpt lat="48.348344877232016" lon="-0.9817505666145968"><ele>186.0</ele><time>2026-04-06T13:02:24Z</time></trkpt><trkpt lat="48.348235332409494" lon="-0.981418616322451"><ele>185.0</ele><time>2026-04-06T13:02:25Z</time></trkpt><trkpt lat="48.34812734788075" lon="-0.9810880228662663"><ele>184.0</ele><time>2026-04-06T13:02:26Z</time></trkpt><trkpt lat="48.34805045460888" lon="-0.9807331135928055"><ele>183.5</ele><time>2026-04-06T13:02:27Z</time></trkpt><trkpt lat="48.34799617095605" lon="-0.9803688206726325"><ele>183.0</ele><time>2026-04-06T13:02:28Z</time></trkpt><trkpt lat="48.347951466668405" lon="-0.9800035244943447"><ele>182.5</ele><time>2026-04-06T13:02:29Z</time></trkpt><trkpt lat="48.347909697089364" lon="-0.9796347805396857"><ele>182.0</ele><time>2026-04-06T13:02:30Z</time></trkpt><trkpt lat="48.34786755891576" lon="-0.9792685648247857"><ele>181.5</ele><time>2026-04-06T13:02:31Z</time></trkpt><trkpt lat="48.347828042522316" lon="-0.9789055361140188"><ele>181.0</ele><time>2026-04-06T13:02:32Z</time></trkpt><trkpt lat="48.347790503199136" lon="-0.9785425485040844"><ele>180.5</ele><time>2026-04-06T13:02:33Z</time></trkpt><trkpt lat="48.34773664513135" lon="-0.978185432924581"><ele>180.0</ele><time>2026-04-06T13:02:34Z</time></trkpt><trkpt lat="48.347654675235" lon="-0.9778418710249219"><ele>181.0</ele><time>2026-04-06T13:02:35Z</time></trkpt><trkpt lat="48.34756110808538" lon="-0.9775110242168883"><ele>182.0</ele><time>2026-04-06T13:02:36Z</time></trkpt><trkpt lat="48.34746570014522" lon="-0.9771867215888386"><ele>182.0</ele><time>2026-04-06T13:02:37Z</time></trkpt><trkpt lat="48.347369162816776" lon="-0.9768660300981641"><ele>182.0</ele><time>2026-04-06T13:02:38Z</time></trkpt><trkpt lat="48.34727297467097" lon="-0.9765465359635106"><ele>182.0</ele><time>2026-04-06T13:02:39Z</time></trkpt><trkpt lat="48.34717701470768" lon="-0.9762232381283357"><ele>182.0</ele><time>2026-04-06T13:02:40Z</time></trkpt><trkpt lat="48.34708406035923" lon="-0.9758951529205984"><ele>181.5</ele><time>2026-04-06T13:02:41Z</time></trkpt><trkpt lat="48.34699075356947" lon="-0.9755633948138214"><ele>181.0</ele><time>2026-04-06T13:02:42Z</time></trkpt><trkpt lat="48.34690547339112" lon="-0.9752272729230025"><ele>180.5</ele><time>2026-04-06T13:02:43Z</time></trkpt><trkpt lat="48.346837809620204" lon="-0.9748779002317004"><ele>180.0</ele><time>2026-04-06T13:02:44Z</time></trkpt><trkpt lat="48.346770414925224" lon="-0.9745270014727497"><ele>179.0</ele><time>2026-04-06T13:02:45Z</time></trkpt><trkpt lat="48.34669821566152" lon="-0.9741765632481034"><ele>178.0</ele><time>2026-04-06T13:02:46Z</time></trkpt><trkpt lat="48.346628473728764" lon="-0.9738250044832832"><ele>178.0</ele><time>2026-04-06T13:02:47Z</time></trkpt><trkpt lat="48.34655838862572" lon="-0.9734735857269307"><ele>178.0</ele><time>2026-04-06T13:02:48Z</time></trkpt><trkpt lat="48.346473911944415" lon="-0.9731306572459861"><ele>178.0</ele><time>2026-04-06T13:02:49Z</time></trkpt><trkpt lat="48.346377865166545" lon="-0.9727945077764557"><ele>178.0</ele><time>2026-04-06T13:02:50Z</time></trkpt><trkpt lat="48.34628894922783" lon="-0.9724529754754306"><ele>178.0</ele><time>2026-04-06T13:02:51Z</time></trkpt><trkpt lat="48.346198706008025" lon="-0.9721146836369541"><ele>178.0</ele><time>2026-04-06T13:02:52Z</time></trkpt><trkpt lat="48.346111163609876" lon="-0.9717980086216799"><ele>177.0</ele><time>2026-04-06T13:02:53Z</time></trkpt><trkpt lat="48.346023798543825" lon="-0.9714804421765011"><ele>176.0</ele><time>2026-04-06T13:02:54Z</time></trkpt><trkpt lat="48.3459378481696" lon="-0.9711577053609588"><ele>175.5</ele><time>2026-04-06T13:02:55Z</time></trkpt><trkpt lat="48.34585354089592" lon="-0.9708388496027042"><ele>175.0</ele><time>2026-04-06T13:02:56Z</time></trkpt><trkpt lat="48.34576856018018" lon="-0.9705200988276272"><ele>175.0</ele><time>2026-04-06T13:02:57Z</time></trkpt><trkpt lat="48.34568317920332" lon="-0.9702019420831746"><ele>175.0</ele><time>2026-04-06T13:02:58Z</time></trkpt><trkpt lat="48.345595979817965" lon="-0.9698865528741789"><ele>177.5</ele><time>2026-04-06T13:02:59Z</time></trkpt><trkpt lat="48.34550765350315" lon="-0.9695704796625174"><ele>180.0</ele><time>2026-04-06T13:03:00Z</time></trkpt><trkpt lat="48.34542323663174" lon="-0.9692542464129954"><ele>180.0</ele><time>2026-04-06T13:03:01Z</time></trkpt><trkpt lat="48.345343016372034" lon="-0.9689356315989759"><ele>180.0</ele><time>2026-04-06T13:03:02Z</time></trkpt><trkpt lat="48.34526456206743" lon="-0.9686111260459277"><ele>179.66666666666666</ele><time>2026-04-06T13:03:03Z</time></trkpt><trkpt lat="48.34519633044913" lon="-0.9682859634386672"><ele>179.33333333333331</ele><time>2026-04-06T13:03:04Z</time></trkpt><trkpt lat="48.34513792030076" lon="-0.9679800819777302"><ele>179.0</ele><time>2026-04-06T13:03:05Z</time></trkpt><trkpt lat="48.345092446343244" lon="-0.9676804456338397"><ele>178.66666666666666</ele><time>2026-04-06T13:03:06Z</time></trkpt><trkpt lat="48.34505247063542" lon="-0.967394390129869"><ele>178.33333333333334</ele><time>2026-04-06T13:03:07Z</time></trkpt><trkpt lat="48.34501492586192" lon="-0.9671201597529794"><ele>178.0</ele><time>2026-04-06T13:03:08Z</time></trkpt><trkpt lat="48.34497632917757" lon="-0.9668589609502072"><ele>177.0</ele><time>2026-04-06T13:03:09Z</time></trkpt><trkpt lat="48.34493799567763" lon="-0.9666110876861386"><ele>176.0</ele><time>2026-04-06T13:03:10Z</time></trkpt><trkpt lat="48.34489842776669" lon="-0.9663655448316018"><ele>175.0</ele><time>2026-04-06T13:03:11Z</time></trkpt><trkpt lat="48.344869552670126" lon="-0.9661370187148827"><ele>175.0</ele><time>2026-04-06T13:03:12Z</time></trkpt><trkpt lat="48.34484201751088" lon="-0.9659004797464362"><ele>175.0</ele><time>2026-04-06T13:03:13Z</time></trkpt><trkpt lat="48.34481081589276" lon="-0.9657102729111278"><ele>175.0</ele><time>2026-04-06T13:03:14Z</time></trkpt><trkpt lat="48.34478069563757" lon="-0.9655341780925535"><ele>175.0</ele><time>2026-04-06T13:03:15Z</time></trkpt><trkpt lat="48.344755593005445" lon="-0.9653833591898667"><ele>174.83333333333334</ele><time>2026-04-06T13:03:16Z</time></trkpt><trkpt lat="48.344740638599305" lon="-0.965259564138123"><ele>174.66666666666669</ele><time>2026-04-06T13:03:17Z</time></trkpt><trkpt lat="48.34473405157961" lon="-0.9651499315609641"><ele>174.5</ele><time>2026-04-06T13:03:18Z</time></trkpt><trkpt lat="48.34473833781944" lon="-0.9650532394710314"><ele>174.33333333333334</ele><time>2026-04-06T13:03:19Z</time></trkpt><trkpt lat="48.344745696722406" lon="-0.9649478302066719"><ele>174.16666666666666</ele><time>2026-04-06T13:03:21Z</time></trkpt><trkpt lat="48.344705283383256" lon="-0.9648090067106992"><ele>174.0</ele><time>2026-04-06T13:03:31Z</time></trkpt><trkpt lat="48.34462282583624" lon="-0.9647563055519641"><ele>174.75</ele><time>2026-04-06T13:03:32Z</time></trkpt><trkpt lat="48.34452944760239" lon="-0.9646885268489443"><ele>175.5</ele><time>2026-04-06T13:03:33Z</time></trkpt><trkpt lat="48.34443137282642" lon="-0.9646089998009465"><ele>176.25</ele><time>2026-04-06T13:03:34Z</time></trkpt><trkpt lat="48.34430290620805" lon="-0.9644985169079752"><ele>177.0</ele><time>2026-04-06T13:03:35Z</time></trkpt><trkpt lat="48.344177877957975" lon="-0.9643928035784765"><ele>177.0</ele><time>2026-04-06T13:03:36Z</time></trkpt><trkpt lat="48.34404434984981" lon="-0.9642751720196263"><ele>177.0</ele><time>2026-04-06T13:03:37Z</time></trkpt><trkpt lat="48.34389512432686" lon="-0.9641431000642541"><ele>177.0</ele><time>2026-04-06T13:03:38Z</time></trkpt><trkpt lat="48.34373881970262" lon="-0.9640059990917201"><ele>177.66666666666666</ele><time>2026-04-06T13:03:39Z</time></trkpt><trkpt lat="48.34359013065152" lon="-0.9638743529539708"><ele>178.33333333333331</ele><time>2026-04-06T13:03:40Z</time></trkpt><trkpt lat="48.3434316801265" lon="-0.9637385264579168"><ele>179.0</ele><time>2026-04-06T13:03:41Z</time></trkpt><trkpt lat="48.34326778454932" lon="-0.9636007833823519"><ele>179.0</ele><time>2026-04-06T13:03:42Z</time></trkpt><trkpt lat="48.34309912393261" lon="-0.9634594724350257"><ele>179.0</ele><time>2026-04-06T13:03:43Z</time></trkpt><trkpt lat="48.34292490724397" lon="-0.9633138348990232"><ele>179.0</ele><time>2026-04-06T13:03:44Z</time></trkpt><trkpt lat="48.342726740740005" lon="-0.9631906784253073"><ele>178.33333333333331</ele><time>2026-04-06T13:03:45Z</time></trkpt><trkpt lat="48.342537218075485" lon="-0.9630327773725231"><ele>177.66666666666666</ele><time>2026-04-06T13:03:46Z</time></trkpt><trkpt lat="48.34235586518939" lon="-0.9628818696022678"><ele>177.0</ele><time>2026-04-06T13:03:47Z</time></trkpt><trkpt lat="48.34217300875637" lon="-0.9627297106952885"><ele>176.33333333333334</ele><time>2026-04-06T13:03:48Z</time></trkpt><trkpt lat="48.34198496357768" lon="-0.9625715107965519"><ele>175.66666666666669</ele><time>2026-04-06T13:03:49Z</time></trkpt><trkpt lat="48.34179418215077" lon="-0.9624115691852869"><ele>175.0</ele><time>2026-04-06T13:03:50Z</time></trkpt><trkpt lat="48.3415995554046" lon="-0.9622485930192641"><ele>175.0</ele><time>2026-04-06T13:03:51Z</time></trkpt><trkpt lat="48.34140561554608" lon="-0.962084536433643"><ele>175.0</ele><time>2026-04-06T13:03:52Z</time></trkpt><trkpt lat="48.341212546534976" lon="-0.9619221373530156"><ele>175.0</ele><time>2026-04-06T13:03:53Z</time></trkpt><trkpt lat="48.341019481904475" lon="-0.9617605617930863"><ele>174.0</ele><time>2026-04-06T13:03:54Z</time></trkpt><trkpt lat="48.34082255928891" lon="-0.961595507537646"><ele>173.0</ele><time>2026-04-06T13:03:55Z</time></trkpt><trkpt lat="48.340623901881834" lon="-0.961426840246532"><ele>173.33333333333331</ele><time>2026-04-06T13:03:56Z</time></trkpt><trkpt lat="48.34043476661088" lon="-0.9612415980276662"><ele>173.66666666666666</ele><time>2026-04-06T13:03:57Z</time></trkpt><trkpt lat="48.340237421317724" lon="-0.9610871437098927"><ele>174.0</ele><time>2026-04-06T13:03:58Z</time></trkpt><trkpt lat="48.3400370486173" lon="-0.9609055187959717"><ele>172.5</ele><time>2026-04-06T13:03:59Z</time></trkpt><trkpt lat="48.33982425735218" lon="-0.9607577852075418"><ele>171.0</ele><time>2026-04-06T13:04:00Z</time></trkpt><trkpt lat="48.33961898292165" lon="-0.9605890457766091"><ele>170.5</ele><time>2026-04-06T13:04:01Z</time></trkpt><trkpt lat="48.33942367257323" lon="-0.9603995360138552"><ele>170.0</ele><time>2026-04-06T13:04:02Z</time></trkpt><trkpt lat="48.339222433857465" lon="-0.9602440105832866"><ele>170.0</ele><time>2026-04-06T13:04:03Z</time></trkpt><trkpt lat="48.33901619138862" lon="-0.9600641148494967"><ele>170.0</ele><time>2026-04-06T13:04:04Z</time></trkpt><trkpt lat="48.33880366308378" lon="-0.9599099708105024"><ele>168.5</ele><time>2026-04-06T13:04:05Z</time></trkpt><trkpt lat="48.338598251784354" lon="-0.9597363804724696"><ele>167.0</ele><time>2026-04-06T13:04:06Z</time></trkpt><trkpt lat="48.33839435922215" lon="-0.9595657134368127"><ele>167.0</ele><time>2026-04-06T13:04:07Z</time></trkpt><trkpt lat="48.3381882925964" lon="-0.9593944656503893"><ele>167.0</ele><time>2026-04-06T13:04:08Z</time></trkpt><trkpt lat="48.337991535086125" lon="-0.9592275975038549"><ele>165.0</ele><time>2026-04-06T13:04:09Z</time></trkpt><trkpt lat="48.337790840899906" lon="-0.9590573921608329"><ele>163.0</ele><time>2026-04-06T13:04:10Z</time></trkpt><trkpt lat="48.337587069908516" lon="-0.9588850430130756"><ele>163.0</ele><time>2026-04-06T13:04:11Z</time></trkpt><trkpt lat="48.33739173251645" lon="-0.9587236939553913"><ele>163.0</ele><time>2026-04-06T13:04:12Z</time></trkpt><trkpt lat="48.33719126789564" lon="-0.9585579260112677"><ele>163.0</ele><time>2026-04-06T13:04:13Z</time></trkpt><trkpt lat="48.33699248460155" lon="-0.9583708617223167"><ele>163.0</ele><time>2026-04-06T13:04:14Z</time></trkpt><trkpt lat="48.336785312305615" lon="-0.9582189618189715"><ele>162.5</ele><time>2026-04-06T13:04:15Z</time></trkpt><trkpt lat="48.336577976904806" lon="-0.9580570676963319"><ele>162.0</ele><time>2026-04-06T13:04:16Z</time></trkpt><trkpt lat="48.33637016289399" lon="-0.9578840205896131"><ele>161.0</ele><time>2026-04-06T13:04:17Z</time></trkpt><trkpt lat="48.336157481855125" lon="-0.957703171538537"><ele>160.0</ele><time>2026-04-06T13:04:18Z</time></trkpt><trkpt lat="48.33594734521936" lon="-0.9575218726543895"><ele>160.0</ele><time>2026-04-06T13:04:19Z</time></trkpt><trkpt lat="48.3357398385849" lon="-0.9573467455362581"><ele>160.0</ele><time>2026-04-06T13:04:20Z</time></trkpt><trkpt lat="48.33553156444142" lon="-0.9571700834430459"><ele>160.0</ele><time>2026-04-06T13:04:21Z</time></trkpt><trkpt lat="48.3353240002447" lon="-0.9569888121224788"><ele>160.0</ele><time>2026-04-06T13:04:22Z</time></trkpt><trkpt lat="48.335115442777166" lon="-0.9568079473826322"><ele>159.5</ele><time>2026-04-06T13:04:23Z</time></trkpt><trkpt lat="48.33490722922802" lon="-0.95663283369655"><ele>159.0</ele><time>2026-04-06T13:04:24Z</time></trkpt><trkpt lat="48.33469806765816" lon="-0.9564577348848502"><ele>160.0</ele><time>2026-04-06T13:04:25Z</time></trkpt><trkpt lat="48.33448770092574" lon="-0.9562847377431548"><ele>161.0</ele><time>2026-04-06T13:04:26Z</time></trkpt><trkpt lat="48.33428017495035" lon="-0.9561061759428342"><ele>161.0</ele><time>2026-04-06T13:04:27Z</time></trkpt><trkpt lat="48.334070523875624" lon="-0.9559254727462555"><ele>161.0</ele><time>2026-04-06T13:04:28Z</time></trkpt><trkpt lat="48.333860253166144" lon="-0.955739800876382"><ele>161.0</ele><time>2026-04-06T13:04:29Z</time></trkpt><trkpt lat="48.33364706654877" lon="-0.9555601208243872"><ele>161.0</ele><time>2026-04-06T13:04:30Z</time></trkpt><trkpt lat="48.333431877870716" lon="-0.9553859558556272"><ele>161.0</ele><time>2026-04-06T13:04:31Z</time></trkpt><trkpt lat="48.333219778947566" lon="-0.955210381393383"><ele>161.0</ele><time>2026-04-06T13:04:32Z</time></trkpt><trkpt lat="48.33300441880791" lon="-0.9550278968074309"><ele>162.0</ele><time>2026-04-06T13:04:33Z</time></trkpt><trkpt lat="48.3327898661518" lon="-0.9548476608170033"><ele>163.0</ele><time>2026-04-06T13:04:34Z</time></trkpt><trkpt lat="48.332575753201" lon="-0.9546675235967647"><ele>163.0</ele><time>2026-04-06T13:04:35Z</time></trkpt><trkpt lat="48.33236130581044" lon="-0.954490474404957"><ele>163.0</ele><time>2026-04-06T13:04:36Z</time></trkpt><trkpt lat="48.33215003992727" lon="-0.9543158013199659"><ele>163.5</ele><time>2026-04-06T13:04:37Z</time></trkpt><trkpt lat="48.33193949601791" lon="-0.9541437528279864"><ele>164.0</ele><time>2026-04-06T13:04:38Z</time></trkpt><trkpt lat="48.331729955238494" lon="-0.9539636526561693"><ele>164.0</ele><time>2026-04-06T13:04:39Z</time></trkpt><trkpt lat="48.331518660825964" lon="-0.9537839876976762"><ele>164.0</ele><time>2026-04-06T13:04:40Z</time></trkpt><trkpt lat="48.331309410164934" lon="-0.9536089122008411"><ele>164.0</ele><time>2026-04-06T13:04:41Z</time></trkpt><trkpt lat="48.331103757258866" lon="-0.953441748533633"><ele>164.0</ele><time>2026-04-06T13:04:42Z</time></trkpt><trkpt lat="48.330898849202164" lon="-0.9532776325411326"><ele>164.0</ele><time>2026-04-06T13:04:43Z</time></trkpt><trkpt lat="48.330697397217016" lon="-0.9531105442412571"><ele>164.0</ele><time>2026-04-06T13:04:44Z</time></trkpt><trkpt lat="48.33049366068193" lon="-0.9529380385858783"><ele>165.0</ele><time>2026-04-06T13:04:45Z</time></trkpt><trkpt lat="48.33029038865985" lon="-0.9527647182787542"><ele>166.0</ele><time>2026-04-06T13:04:46Z</time></trkpt><trkpt lat="48.33008369344663" lon="-0.9525941092734515"><ele>165.0</ele><time>2026-04-06T13:04:47Z</time></trkpt><trkpt lat="48.3298741496994" lon="-0.9524186228333515"><ele>164.0</ele><time>2026-04-06T13:04:48Z</time></trkpt><trkpt lat="48.329662662367646" lon="-0.9522289023024935"><ele>163.0</ele><time>2026-04-06T13:04:49Z</time></trkpt><trkpt lat="48.32944682988967" lon="-0.9520229675589875"><ele>162.0</ele><time>2026-04-06T13:04:50Z</time></trkpt><trkpt lat="48.3292259502229" lon="-0.9518391314296294"><ele>161.0</ele><time>2026-04-06T13:04:51Z</time></trkpt><trkpt lat="48.32899521929298" lon="-0.9516570797515482"><ele>160.0</ele><time>2026-04-06T13:04:52Z</time></trkpt><trkpt lat="48.328762658434584" lon="-0.951462527722263"><ele>160.0</ele><time>2026-04-06T13:04:53Z</time></trkpt><trkpt lat="48.32852792220754" lon="-0.9512666487500449"><ele>160.0</ele><time>2026-04-06T13:04:54Z</time></trkpt><trkpt lat="48.328287684287574" lon="-0.9510827581060696"><ele>160.5</ele><time>2026-04-06T13:04:55Z</time></trkpt><trkpt lat="48.32804136514923" lon="-0.9509007044185637"><ele>161.0</ele><time>2026-04-06T13:04:56Z</time></trkpt><trkpt lat="48.32780140297307" lon="-0.9507023217657216"><ele>161.0</ele><time>2026-04-06T13:04:57Z</time></trkpt><trkpt lat="48.32756719746387" lon="-0.9505007954949108"><ele>161.0</ele><time>2026-04-06T13:04:58Z</time></trkpt><trkpt lat="48.32733412020758" lon="-0.9503059020749584"><ele>162.0</ele><time>2026-04-06T13:04:59Z</time></trkpt><trkpt lat="48.327103016738995" lon="-0.9501170578389248"><ele>163.0</ele><time>2026-04-06T13:05:00Z</time></trkpt><trkpt lat="48.32687419408762" lon="-0.9499227655216189"><ele>160.5</ele><time>2026-04-06T13:05:01Z</time></trkpt><trkpt lat="48.326646530297076" lon="-0.9497297930086888"><ele>158.0</ele><time>2026-04-06T13:05:02Z</time></trkpt><trkpt lat="48.326420369503296" lon="-0.9495433535025048"><ele>160.0</ele><time>2026-04-06T13:05:03Z</time></trkpt><trkpt lat="48.3261979537433" lon="-0.9493542215496787"><ele>162.0</ele><time>2026-04-06T13:05:04Z</time></trkpt><trkpt lat="48.32597892433769" lon="-0.9491662648137524"><ele>162.0</ele><time>2026-04-06T13:05:05Z</time></trkpt><trkpt lat="48.325760822168526" lon="-0.9489832733389261"><ele>162.0</ele><time>2026-04-06T13:05:06Z</time></trkpt><trkpt lat="48.32554228721072" lon="-0.9488009120337917"><ele>163.0</ele><time>2026-04-06T13:05:07Z</time></trkpt><trkpt lat="48.32532026666278" lon="-0.9486166611521485"><ele>164.0</ele><time>2026-04-06T13:05:08Z</time></trkpt><trkpt lat="48.3250995941431" lon="-0.948436906284231"><ele>164.0</ele><time>2026-04-06T13:05:09Z</time></trkpt><trkpt lat="48.32487885043368" lon="-0.9482584109615407"><ele>164.0</ele><time>2026-04-06T13:05:10Z</time></trkpt><trkpt lat="48.32465867628101" lon="-0.9480775669860326"><ele>164.0</ele><time>2026-04-06T13:05:11Z</time></trkpt><trkpt lat="48.32444055320442" lon="-0.9478918569119801"><ele>164.0</ele><time>2026-04-06T13:05:12Z</time></trkpt><trkpt lat="48.32422077173306" lon="-0.9477093006494477"><ele>165.0</ele><time>2026-04-06T13:05:13Z</time></trkpt><trkpt lat="48.32400234120831" lon="-0.9475273579933516"><ele>166.0</ele><time>2026-04-06T13:05:14Z</time></trkpt><trkpt lat="48.32378477133371" lon="-0.9473438454917767"><ele>166.0</ele><time>2026-04-06T13:05:15Z</time></trkpt><trkpt lat="48.323566442921994" lon="-0.9471633921361802"><ele>166.0</ele><time>2026-04-06T13:05:16Z</time></trkpt><trkpt lat="48.3233482503153" lon="-0.9469896457216005"><ele>166.0</ele><time>2026-04-06T13:05:17Z</time></trkpt><trkpt lat="48.3231363565117" lon="-0.9468249435462956"><ele>166.0</ele><time>2026-04-06T13:05:18Z</time></trkpt><trkpt lat="48.32293149128014" lon="-0.9466525816782826"><ele>165.5</ele><time>2026-04-06T13:05:19Z</time></trkpt><trkpt lat="48.32272123368569" lon="-0.9464807080119638"><ele>165.0</ele><time>2026-04-06T13:05:20Z</time></trkpt><trkpt lat="48.32251202886746" lon="-0.9463110719024255"><ele>165.0</ele><time>2026-04-06T13:05:21Z</time></trkpt><trkpt lat="48.32230264278943" lon="-0.9461390286347908"><ele>165.0</ele><time>2026-04-06T13:05:22Z</time></trkpt><trkpt lat="48.32209240724789" lon="-0.9459673758735782"><ele>165.5</ele><time>2026-04-06T13:05:23Z</time></trkpt><trkpt lat="48.321882350774665" lon="-0.9457962819706733"><ele>166.0</ele><time>2026-04-06T13:05:24Z</time></trkpt><trkpt lat="48.32167312555835" lon="-0.9456264621175801"><ele>166.0</ele><time>2026-04-06T13:05:25Z</time></trkpt><trkpt lat="48.321462791803185" lon="-0.9454601174902215"><ele>166.0</ele><time>2026-04-06T13:05:26Z</time></trkpt><trkpt lat="48.32125725540316" lon="-0.9452933188721764"><ele>166.0</ele><time>2026-04-06T13:05:27Z</time></trkpt><trkpt lat="48.321051514496205" lon="-0.9451226562607"><ele>166.0</ele><time>2026-04-06T13:05:28Z</time></trkpt><trkpt lat="48.32084476229233" lon="-0.9449528272107277"><ele>165.5</ele><time>2026-04-06T13:05:29Z</time></trkpt><trkpt lat="48.320638406703154" lon="-0.9447817979674769"><ele>165.0</ele><time>2026-04-06T13:05:30Z</time></trkpt><trkpt lat="48.32043257284089" lon="-0.9446138147066765"><ele>164.5</ele><time>2026-04-06T13:05:31Z</time></trkpt><trkpt lat="48.32022799007267" lon="-0.9444426988310669"><ele>164.0</ele><time>2026-04-06T13:05:32Z</time></trkpt><trkpt lat="48.32002323640303" lon="-0.9442707732444151"><ele>162.5</ele><time>2026-04-06T13:05:33Z</time></trkpt><trkpt lat="48.31981642238747" lon="-0.9441022197038912"><ele>161.0</ele><time>2026-04-06T13:05:34Z</time></trkpt><trkpt lat="48.319607902142025" lon="-0.9439361248583995"><ele>157.0</ele><time>2026-04-06T13:05:35Z</time></trkpt><trkpt lat="48.319399195235675" lon="-0.9437709410396441"><ele>153.0</ele><time>2026-04-06T13:05:36Z</time></trkpt><trkpt lat="48.31919051345348" lon="-0.94360163445161"><ele>153.0</ele><time>2026-04-06T13:05:37Z</time></trkpt><trkpt lat="48.31898046644143" lon="-0.9434259896138109"><ele>153.0</ele><time>2026-04-06T13:05:38Z</time></trkpt><trkpt lat="48.31877119347474" lon="-0.9432542149392942"><ele>148.5</ele><time>2026-04-06T13:05:39Z</time></trkpt><trkpt lat="48.318562776291834" lon="-0.943085654974829"><ele>144.0</ele><time>2026-04-06T13:05:40Z</time></trkpt><trkpt lat="48.31835898076406" lon="-0.942907547040802"><ele>144.0</ele><time>2026-04-06T13:05:41Z</time></trkpt><trkpt lat="48.318160642595394" lon="-0.942725044326212"><ele>144.0</ele><time>2026-04-06T13:05:42Z</time></trkpt><trkpt lat="48.3179517368041" lon="-0.9425682828860064"><ele>141.5</ele><time>2026-04-06T13:05:43Z</time></trkpt><trkpt lat="48.31774088930924" lon="-0.942411269829356"><ele>139.0</ele><time>2026-04-06T13:05:44Z</time></trkpt><trkpt lat="48.31753793586033" lon="-0.9422337643055939"><ele>139.0</ele><time>2026-04-06T13:05:45Z</time></trkpt><trkpt lat="48.31733443875798" lon="-0.9420555227953894"><ele>139.0</ele><time>2026-04-06T13:05:46Z</time></trkpt><trkpt lat="48.31712459572069" lon="-0.9418869466509058"><ele>137.0</ele><time>2026-04-06T13:05:47Z</time></trkpt><trkpt lat="48.31691360653832" lon="-0.9417201069693893"><ele>135.0</ele><time>2026-04-06T13:05:48Z</time></trkpt><trkpt lat="48.31670167973908" lon="-0.9415563164041512"><ele>135.0</ele><time>2026-04-06T13:05:49Z</time></trkpt><trkpt lat="48.3164879115492" lon="-0.9413972582549123"><ele>135.0</ele><time>2026-04-06T13:05:50Z</time></trkpt><trkpt lat="48.316269761292894" lon="-0.9412481534150279"><ele>134.0</ele><time>2026-04-06T13:05:51Z</time></trkpt><trkpt lat="48.316057271888845" lon="-0.9411072513303195"><ele>133.0</ele><time>2026-04-06T13:05:52Z</time></trkpt><trkpt lat="48.315853842045804" lon="-0.9409807706144999"><ele>133.0</ele><time>2026-04-06T13:05:53Z</time></trkpt><trkpt lat="48.31565369758233" lon="-0.9408632605073157"><ele>133.0</ele><time>2026-04-06T13:05:54Z</time></trkpt><trkpt lat="48.31544928586808" lon="-0.9407505324589971"><ele>133.0</ele><time>2026-04-06T13:05:55Z</time></trkpt><trkpt lat="48.31524511934817" lon="-0.9406447276862793"><ele>132.0</ele><time>2026-04-06T13:05:56Z</time></trkpt><trkpt lat="48.31504316541674" lon="-0.9405412722035685"><ele>131.0</ele><time>2026-04-06T13:05:57Z</time></trkpt><trkpt lat="48.31484151196063" lon="-0.9404389455210913"><ele>130.0</ele><time>2026-04-06T13:05:58Z</time></trkpt><trkpt lat="48.31463884612064" lon="-0.940343164743736"><ele>129.33333333333334</ele><time>2026-04-06T13:05:59Z</time></trkpt><trkpt lat="48.31443580747552" lon="-0.9402540072492837"><ele>128.66666666666666</ele><time>2026-04-06T13:06:00Z</time></trkpt><trkpt lat="48.31423319961747" lon="-0.9401747005786729"><ele>128.0</ele><time>2026-04-06T13:06:01Z</time></trkpt><trkpt lat="48.31403073535293" lon="-0.9400986646064401"><ele>126.0</ele><time>2026-04-06T13:06:02Z</time></trkpt><trkpt lat="48.31383186263213" lon="-0.9400305308634705"><ele>124.0</ele><time>2026-04-06T13:06:03Z</time></trkpt><trkpt lat="48.31363782958371" lon="-0.939964732463008"><ele>122.0</ele><time>2026-04-06T13:06:04Z</time></trkpt><trkpt lat="48.31344660491708" lon="-0.9399042892604573"><ele>122.0</ele><time>2026-04-06T13:06:05Z</time></trkpt><trkpt lat="48.3132548823016" lon="-0.9398465526857027"><ele>122.0</ele><time>2026-04-06T13:06:06Z</time></trkpt><trkpt lat="48.31306161511155" lon="-0.9398009213844499"><ele>122.0</ele><time>2026-04-06T13:06:07Z</time></trkpt><trkpt lat="48.31286318928341" lon="-0.9397599590518378"><ele>121.66666666666666</ele><time>2026-04-06T13:06:08Z</time></trkpt><trkpt lat="48.312674270415144" lon="-0.9397331566832903"><ele>121.33333333333334</ele><time>2026-04-06T13:06:09Z</time></trkpt><trkpt lat="48.312484519588324" lon="-0.9396931608850401"><ele>121.0</ele><time>2026-04-06T13:06:10Z</time></trkpt><trkpt lat="48.312294477056064" lon="-0.9396555391888314"><ele>121.33333333333334</ele><time>2026-04-06T13:06:11Z</time></trkpt><trkpt lat="48.312107051717426" lon="-0.9395969579224007"><ele>121.66666666666666</ele><time>2026-04-06T13:06:12Z</time></trkpt><trkpt lat="48.311920940987775" lon="-0.9395943054184073"><ele>122.0</ele><time>2026-04-06T13:06:13Z</time></trkpt><trkpt lat="48.31174400774123" lon="-0.9395703084914561"><ele>122.0</ele><time>2026-04-06T13:06:14Z</time></trkpt><trkpt lat="48.31157630000633" lon="-0.9395220115100423"><ele>122.0</ele><time>2026-04-06T13:06:15Z</time></trkpt><trkpt lat="48.31141235352935" lon="-0.9395056830237739"><ele>122.0</ele><time>2026-04-06T13:06:16Z</time></trkpt><trkpt lat="48.3112469843763" lon="-0.9394881755386032"><ele>122.66666666666666</ele><time>2026-04-06T13:06:17Z</time></trkpt><trkpt lat="48.31108212575154" lon="-0.9394630159597241"><ele>123.33333333333334</ele><time>2026-04-06T13:06:18Z</time></trkpt><trkpt lat="48.310925792497414" lon="-0.9394251629506805"><ele>124.0</ele><time>2026-04-06T13:06:19Z</time></trkpt><trkpt lat="48.3107751365578" lon="-0.9393766829508281"><ele>124.0</ele><time>2026-04-06T13:06:20Z</time></trkpt><trkpt lat="48.310627038039485" lon="-0.939321117359473"><ele>124.0</ele><time>2026-04-06T13:06:21Z</time></trkpt><trkpt lat="48.31048496173202" lon="-0.9392524215164251"><ele>124.0</ele><time>2026-04-06T13:06:22Z</time></trkpt><trkpt lat="48.310351767306436" lon="-0.9391662284537367"><ele>124.0</ele><time>2026-04-06T13:06:23Z</time></trkpt><trkpt lat="48.31022774516743" lon="-0.9390702773390694"><ele>124.0</ele><time>2026-04-06T13:06:24Z</time></trkpt><trkpt lat="48.310114764706235" lon="-0.938968905850916"><ele>124.0</ele><time>2026-04-06T13:06:25Z</time></trkpt><trkpt lat="48.310011328428686" lon="-0.9388655226532183"><ele>124.0</ele><time>2026-04-06T13:06:26Z</time></trkpt><trkpt lat="48.30991967726157" lon="-0.9387639831352473"><ele>124.0</ele><time>2026-04-06T13:06:27Z</time></trkpt><trkpt lat="48.309840645128446" lon="-0.9386661314291084"><ele>124.00000000000001</ele><time>2026-04-06T13:06:28Z</time></trkpt><trkpt lat="48.309766443959404" lon="-0.938581288156888"><ele>124.0</ele><time>2026-04-06T13:06:29Z</time></trkpt><trkpt lat="48.309693778244124" lon="-0.9385063469382532"><ele>124.0</ele><time>2026-04-06T13:06:30Z</time></trkpt><trkpt lat="48.309621310637844" lon="-0.9384498929311591"><ele>124.0</ele><time>2026-04-06T13:06:31Z</time></trkpt><trkpt lat="48.30953951307408" lon="-0.9384394425020046"><ele>124.00000000000001</ele><time>2026-04-06T13:06:32Z</time></trkpt><trkpt lat="48.30945127650489" lon="-0.938498657209725"><ele>124.0</ele><time>2026-04-06T13:06:33Z</time></trkpt><trkpt lat="48.30938282586838" lon="-0.9386052333504155"><ele>123.75</ele><time>2026-04-06T13:06:34Z</time></trkpt><trkpt lat="48.30932832172392" lon="-0.9387443014367304"><ele>123.5</ele><time>2026-04-06T13:06:35Z</time></trkpt><trkpt lat="48.30925616571662" lon="-0.9388721834302812"><ele>123.25</ele><time>2026-04-06T13:06:36Z</time></trkpt><trkpt lat="48.30915774346639" lon="-0.9389885065004583"><ele>123.0</ele><time>2026-04-06T13:06:37Z</time></trkpt><trkpt lat="48.309041010775786" lon="-0.9390786059245573"><ele>123.0</ele><time>2026-04-06T13:06:38Z</time></trkpt><trkpt lat="48.30892120673324" lon="-0.9391249080415084"><ele>123.0</ele><time>2026-04-06T13:06:39Z</time></trkpt><trkpt lat="48.30878131752053" lon="-0.9391309430074851"><ele>123.0</ele><time>2026-04-06T13:06:40Z</time></trkpt><trkpt lat="48.308632341850256" lon="-0.9391110587222664"><ele>123.0</ele><time>2026-04-06T13:06:41Z</time></trkpt><trkpt lat="48.308484547988826" lon="-0.9390951285126666"><ele>121.33333333333334</ele><time>2026-04-06T13:06:42Z</time></trkpt><trkpt lat="48.30832906295223" lon="-0.9390757789067161"><ele>119.66666666666667</ele><time>2026-04-06T13:06:43Z</time></trkpt><trkpt lat="48.308163487413196" lon="-0.9390547599914497"><ele>118.0</ele><time>2026-04-06T13:06:44Z</time></trkpt><trkpt lat="48.30799779173362" lon="-0.9390300987463267"><ele>118.0</ele><time>2026-04-06T13:06:45Z</time></trkpt><trkpt lat="48.30782509977113" lon="-0.9390110625259249"><ele>118.0</ele><time>2026-04-06T13:06:46Z</time></trkpt><trkpt lat="48.307648236836215" lon="-0.9389883404187455"><ele>118.0</ele><time>2026-04-06T13:06:47Z</time></trkpt><trkpt lat="48.30746976779519" lon="-0.9389607026432303"><ele>118.0</ele><time>2026-04-06T13:06:48Z</time></trkpt><trkpt lat="48.30729726614909" lon="-0.9389366099624423"><ele>118.0</ele><time>2026-04-06T13:06:49Z</time></trkpt><trkpt lat="48.307121419331125" lon="-0.9389137165437637"><ele>118.0</ele><time>2026-04-06T13:06:50Z</time></trkpt><trkpt lat="48.306947916588726" lon="-0.9388986074182895"><ele>118.33333333333334</ele><time>2026-04-06T13:06:51Z</time></trkpt><trkpt lat="48.306771267624164" lon="-0.9388802819805119"><ele>118.66666666666666</ele><time>2026-04-06T13:06:52Z</time></trkpt><trkpt lat="48.30659360828273" lon="-0.93885784154032"><ele>119.0</ele><time>2026-04-06T13:06:53Z</time></trkpt><trkpt lat="48.306417896365545" lon="-0.9388403383504135"><ele>118.66666666666666</ele><time>2026-04-06T13:06:54Z</time></trkpt><trkpt lat="48.30624294228883" lon="-0.9388160521141713"><ele>118.33333333333334</ele><time>2026-04-06T13:06:55Z</time></trkpt><trkpt lat="48.30606640994082" lon="-0.9387825148397118"><ele>118.0</ele><time>2026-04-06T13:06:56Z</time></trkpt><trkpt lat="48.30589327053735" lon="-0.9387647662626122"><ele>118.0</ele><time>2026-04-06T13:06:57Z</time></trkpt><trkpt lat="48.305718732768945" lon="-0.9387466448510522"><ele>118.0</ele><time>2026-04-06T13:06:58Z</time></trkpt><trkpt lat="48.30554154224844" lon="-0.9387188946707613"><ele>118.0</ele><time>2026-04-06T13:06:59Z</time></trkpt><trkpt lat="48.30536145923251" lon="-0.9386954039040385"><ele>118.0</ele><time>2026-04-06T13:07:00Z</time></trkpt><trkpt lat="48.30518013396582" lon="-0.9386695162663458"><ele>118.0</ele><time>2026-04-06T13:07:01Z</time></trkpt><trkpt lat="48.305000099975025" lon="-0.9386432943573484"><ele>118.0</ele><time>2026-04-06T13:07:02Z</time></trkpt><trkpt lat="48.30482145221769" lon="-0.9386116747953298"><ele>118.66666666666667</ele><time>2026-04-06T13:07:03Z</time></trkpt><trkpt lat="48.30463973720458" lon="-0.9385695620264868"><ele>119.33333333333334</ele><time>2026-04-06T13:07:04Z</time></trkpt><trkpt lat="48.304463483545035" lon="-0.9385103690303722"><ele>120.0</ele><time>2026-04-06T13:07:05Z</time></trkpt><trkpt lat="48.3042872312865" lon="-0.9384477220774269"><ele>120.66666666666666</ele><time>2026-04-06T13:07:06Z</time></trkpt><trkpt lat="48.30411032928671" lon="-0.9383791635145381"><ele>121.33333333333333</ele><time>2026-04-06T13:07:07Z</time></trkpt><trkpt lat="48.30393650036335" lon="-0.9382808459873392"><ele>122.0</ele><time>2026-04-06T13:07:08Z</time></trkpt><trkpt lat="48.30376808408368" lon="-0.9381810603851419"><ele>122.0</ele><time>2026-04-06T13:07:09Z</time></trkpt><trkpt lat="48.303602139167225" lon="-0.9380822769092565"><ele>122.0</ele><time>2026-04-06T13:07:10Z</time></trkpt><trkpt lat="48.30343844548054" lon="-0.9379762268821035"><ele>122.0</ele><time>2026-04-06T13:07:11Z</time></trkpt><trkpt lat="48.30327444968387" lon="-0.9378743793595148"><ele>122.0</ele><time>2026-04-06T13:07:12Z</time></trkpt><trkpt lat="48.30311101293987" lon="-0.9377738803926889"><ele>122.0</ele><time>2026-04-06T13:07:13Z</time></trkpt><trkpt lat="48.30294932982355" lon="-0.9376736729812777"><ele>122.0</ele><time>2026-04-06T13:07:14Z</time></trkpt><trkpt lat="48.30278679185665" lon="-0.9375796780459866"><ele>125.33333333333333</ele><time>2026-04-06T13:07:15Z</time></trkpt><trkpt lat="48.30262716170284" lon="-0.9374824113175322"><ele>128.66666666666666</ele><time>2026-04-06T13:07:16Z</time></trkpt><trkpt lat="48.30247952574443" lon="-0.9373830990693034"><ele>132.0</ele><time>2026-04-06T13:07:17Z</time></trkpt><trkpt lat="48.30233835177528" lon="-0.9372970515115389"><ele>130.75</ele><time>2026-04-06T13:07:18Z</time></trkpt><trkpt lat="48.30220001134031" lon="-0.9372174521495831"><ele>129.5</ele><time>2026-04-06T13:07:19Z</time></trkpt><trkpt lat="48.30206966197865" lon="-0.9371448069071922"><ele>128.25</ele><time>2026-04-06T13:07:20Z</time></trkpt><trkpt lat="48.30194628412201" lon="-0.9370800805804653"><ele>127.0</ele><time>2026-04-06T13:07:21Z</time></trkpt><trkpt lat="48.301819898876076" lon="-0.9370247427643871"><ele>127.0</ele><time>2026-04-06T13:07:22Z</time></trkpt><trkpt lat="48.30169180052348" lon="-0.9369740918411861"><ele>127.0</ele><time>2026-04-06T13:07:23Z</time></trkpt><trkpt lat="48.301562203552834" lon="-0.936966124529067"><ele>127.0</ele><time>2026-04-06T13:07:24Z</time></trkpt><trkpt lat="48.30143780802312" lon="-0.9369112207394676"><ele>127.0</ele><time>2026-04-06T13:07:25Z</time></trkpt><trkpt lat="48.301319448804605" lon="-0.9369080964087333"><ele>127.25</ele><time>2026-04-06T13:07:26Z</time></trkpt><trkpt lat="48.30119624509505" lon="-0.9368851585175842"><ele>127.5</ele><time>2026-04-06T13:07:27Z</time></trkpt><trkpt lat="48.30107266080355" lon="-0.9368727428219044"><ele>127.75</ele><time>2026-04-06T13:07:28Z</time></trkpt><trkpt lat="48.300933626552634" lon="-0.9368651663843292"><ele>128.0</ele><time>2026-04-06T13:07:29Z</time></trkpt><trkpt lat="48.30080381054354" lon="-0.936858092278664"><ele>128.0</ele><time>2026-04-06T13:07:30Z</time></trkpt><trkpt lat="48.30068270907072" lon="-0.9368514930585166"><ele>128.0</ele><time>2026-04-06T13:07:31Z</time></trkpt><trkpt lat="48.30056878542901" lon="-0.936845485550155"><ele>128.0</ele><time>2026-04-06T13:07:32Z</time></trkpt><trkpt lat="48.300464026346454" lon="-0.9368392119250595"><ele>128.0</ele><time>2026-04-06T13:07:33Z</time></trkpt><trkpt lat="48.30036136431853" lon="-0.9368331099793628"><ele>128.0</ele><time>2026-04-06T13:07:34Z</time></trkpt><trkpt lat="48.300258160904626" lon="-0.9368269758564147"><ele>128.4</ele><time>2026-04-06T13:07:35Z</time></trkpt><trkpt lat="48.300160691016934" lon="-0.9368211825169626"><ele>128.8</ele><time>2026-04-06T13:07:36Z</time></trkpt><trkpt lat="48.30006618411658" lon="-0.9368155652888333"><ele>129.2</ele><time>2026-04-06T13:07:37Z</time></trkpt><trkpt lat="48.2999773741085" lon="-0.9367911674604399"><ele>129.6</ele><time>2026-04-06T13:07:38Z</time></trkpt><trkpt lat="48.2998917545371" lon="-0.9367874695777729"><ele>130.0</ele><time>2026-04-06T13:07:39Z</time></trkpt><trkpt lat="48.299804223847396" lon="-0.9367880335670394"><ele>131.2</ele><time>2026-04-06T13:07:40Z</time></trkpt><trkpt lat="48.29971732048057" lon="-0.936781243771916"><ele>132.4</ele><time>2026-04-06T13:07:41Z</time></trkpt><trkpt lat="48.299651728654254" lon="-0.9367681346897779"><ele>133.6</ele><time>2026-04-06T13:07:42Z</time></trkpt><trkpt lat="48.29958677883133" lon="-0.9367560807482475"><ele>134.8</ele><time>2026-04-06T13:07:44Z</time></trkpt><trkpt lat="48.299468306855516" lon="-0.9367514318391706"><ele>136.0</ele><time>2026-04-06T13:07:51Z</time></trkpt><trkpt lat="48.29934682762689" lon="-0.9367727831596193"><ele>135.99999999999997</ele><time>2026-04-06T13:07:53Z</time></trkpt><trkpt lat="48.29927969795748" lon="-0.9367704401114357"><ele>136.0</ele><time>2026-04-06T13:07:54Z</time></trkpt><trkpt lat="48.299209845923556" lon="-0.936765038561293"><ele>136.0</ele><time>2026-04-06T13:07:55Z</time></trkpt><trkpt lat="48.299137321839744" lon="-0.9367604015033292"><ele>136.0</ele><time>2026-04-06T13:07:56Z</time></trkpt><trkpt lat="48.29906944931807" lon="-0.9367618250536403"><ele>136.0</ele><time>2026-04-06T13:07:57Z</time></trkpt><trkpt lat="48.299000334029884" lon="-0.9367598764527917"><ele>135.99999999999997</ele><time>2026-04-06T13:07:58Z</time></trkpt><trkpt lat="48.29892525464744" lon="-0.936757433963628"><ele>136.0</ele><time>2026-04-06T13:07:59Z</time></trkpt><trkpt lat="48.29883693400251" lon="-0.936750094954337"><ele>136.0</ele><time>2026-04-06T13:08:00Z</time></trkpt><trkpt lat="48.29873978365873" lon="-0.9367441943939029"><ele>136.0</ele><time>2026-04-06T13:08:01Z</time></trkpt><trkpt lat="48.29865051135163" lon="-0.9367430904558797"><ele>136.0</ele><time>2026-04-06T13:08:02Z</time></trkpt><trkpt lat="48.298560448565645" lon="-0.9367364898784052"><ele>136.0</ele><time>2026-04-06T13:08:03Z</time></trkpt><trkpt lat="48.298469281259436" lon="-0.9367276034448938"><ele>136.0</ele><time>2026-04-06T13:08:04Z</time></trkpt><trkpt lat="48.29837133250957" lon="-0.9367186352023263"><ele>136.2</ele><time>2026-04-06T13:08:05Z</time></trkpt><trkpt lat="48.298275961343265" lon="-0.9367186012029488"><ele>136.39999999999998</ele><time>2026-04-06T13:08:06Z</time></trkpt><trkpt lat="48.298180234819085" lon="-0.936718826664748"><ele>136.6</ele><time>2026-04-06T13:08:07Z</time></trkpt><trkpt lat="48.29808441607988" lon="-0.9367108751175559"><ele>136.79999999999998</ele><time>2026-04-06T13:08:08Z</time></trkpt><trkpt lat="48.29799016446723" lon="-0.936696132772805"><ele>137.0</ele><time>2026-04-06T13:08:09Z</time></trkpt><trkpt lat="48.29788980744211" lon="-0.9366966060308143"><ele>137.0</ele><time>2026-04-06T13:08:10Z</time></trkpt><trkpt lat="48.29779277997171" lon="-0.9366969516518645"><ele>137.0</ele><time>2026-04-06T13:08:11Z</time></trkpt><trkpt lat="48.297693091926746" lon="-0.9366846315307145"><ele>137.0</ele><time>2026-04-06T13:08:12Z</time></trkpt><trkpt lat="48.29757364189186" lon="-0.936679282956204"><ele>137.0</ele><time>2026-04-06T13:08:13Z</time></trkpt><trkpt lat="48.297456378824734" lon="-0.9366824361915128"><ele>137.0</ele><time>2026-04-06T13:08:14Z</time></trkpt><trkpt lat="48.29735100213239" lon="-0.9366774163570304"><ele>137.4</ele><time>2026-04-06T13:08:15Z</time></trkpt><trkpt lat="48.297247971732716" lon="-0.9366640373224194"><ele>137.79999999999998</ele><time>2026-04-06T13:08:16Z</time></trkpt><trkpt lat="48.29715488703938" lon="-0.9366598693967861"><ele>138.2</ele><time>2026-04-06T13:08:17Z</time></trkpt><trkpt lat="48.29708310531397" lon="-0.9366561520751501"><ele>138.6</ele><time>2026-04-06T13:08:18Z</time></trkpt><trkpt lat="48.296969793257446" lon="-0.9366653984979192"><ele>139.0</ele><time>2026-04-06T13:08:20Z</time></trkpt><trkpt lat="48.29690830571288" lon="-0.9363799298261264"><ele>139.0</ele><time>2026-04-06T13:08:23Z</time></trkpt><trkpt lat="48.29690079021405" lon="-0.936202663647452"><ele>139.0</ele><time>2026-04-06T13:08:25Z</time></trkpt><trkpt lat="48.296886714111885" lon="-0.9360179369698773"><ele>139.0</ele><time>2026-04-06T13:08:27Z</time></trkpt><trkpt lat="48.296882729271836" lon="-0.9359124580542573"><ele>139.0</ele><time>2026-04-06T13:08:28Z</time></trkpt><trkpt lat="48.29688213775461" lon="-0.9358109843939868"><ele>139.0</ele><time>2026-04-06T13:08:29Z</time></trkpt><trkpt lat="48.296880513653846" lon="-0.9357105668370571"><ele>139.0</ele><time>2026-04-06T13:08:30Z</time></trkpt><trkpt lat="48.29688260787275" lon="-0.9356106658609376"><ele>139.0</ele><time>2026-04-06T13:08:31Z</time></trkpt><trkpt lat="48.296881362947836" lon="-0.9355049086211481"><ele>139.0</ele><time>2026-04-06T13:08:32Z</time></trkpt><trkpt lat="48.296875109282496" lon="-0.9353963179230458"><ele>139.0</ele><time>2026-04-06T13:08:33Z</time></trkpt><trkpt lat="48.296874093998525" lon="-0.9352836854987553"><ele>139.0</ele><time>2026-04-06T13:08:34Z</time></trkpt><trkpt lat="48.29686882300975" lon="-0.9351806745909477"><ele>139.0</ele><time>2026-04-06T13:08:35Z</time></trkpt><trkpt lat="48.29683684947873" lon="-0.93500659578015"><ele>139.0</ele><time>2026-04-06T13:08:37Z</time></trkpt><trkpt lat="48.296790238079815" lon="-0.9348543604032428"><ele>139.0</ele><time>2026-04-06T13:08:39Z</time></trkpt><trkpt lat="48.29675016310401" lon="-0.9347798628607461"><ele>139.0</ele><time>2026-04-06T13:08:40Z</time></trkpt><trkpt lat="48.29672759118765" lon="-0.9346768444119571"><ele>139.0</ele><time>2026-04-06T13:08:41Z</time></trkpt><trkpt lat="48.29671462439959" lon="-0.9345605941460375"><ele>139.0</ele><time>2026-04-06T13:08:42Z</time></trkpt><trkpt lat="48.29667613649232" lon="-0.9344426458256383"><ele>139.0</ele><time>2026-04-06T13:08:43Z</time></trkpt><trkpt lat="48.296634256056464" lon="-0.9343337700180248"><ele>139.0</ele><time>2026-04-06T13:08:44Z</time></trkpt><trkpt lat="48.296599246618385" lon="-0.9342284791596192"><ele>139.33333333333334</ele><time>2026-04-06T13:08:45Z</time></trkpt><trkpt lat="48.29656164472372" lon="-0.9341193497401005"><ele>139.66666666666669</ele><time>2026-04-06T13:08:46Z</time></trkpt><trkpt lat="48.29650873011611" lon="-0.9340192401351858"><ele>140.0</ele><time>2026-04-06T13:08:47Z</time></trkpt><trkpt lat="48.296469503857075" lon="-0.9339003645258034"><ele>140.33333333333334</ele><time>2026-04-06T13:08:48Z</time></trkpt><trkpt lat="48.296433472681215" lon="-0.9337720360633488"><ele>140.66666666666666</ele><time>2026-04-06T13:08:49Z</time></trkpt><trkpt lat="48.29640003650524" lon="-0.9336467017667257"><ele>141.0</ele><time>2026-04-06T13:08:50Z</time></trkpt><trkpt lat="48.296365078580095" lon="-0.9335091076433695"><ele>140.8</ele><time>2026-04-06T13:08:51Z</time></trkpt><trkpt lat="48.29633130285227" lon="-0.9333656778918666"><ele>140.6</ele><time>2026-04-06T13:08:52.001Z</time></trkpt><trkpt lat="48.29630142456169" lon="-0.9332292294303826"><ele>140.4</ele><time>2026-04-06T13:08:53.001Z</time></trkpt><trkpt lat="48.2962693792829" lon="-0.9330875123924183"><ele>140.2</ele><time>2026-04-06T13:08:54.001Z</time></trkpt><trkpt lat="48.29623588299752" lon="-0.932942939317898"><ele>140.0</ele><time>2026-04-06T13:08:55.001Z</time></trkpt><trkpt lat="48.29620155738586" lon="-0.9328006911105087"><ele>140.0</ele><time>2026-04-06T13:08:56.001Z</time></trkpt><trkpt lat="48.296159444774894" lon="-0.9326658623326746"><ele>140.0</ele><time>2026-04-06T13:08:57.001Z</time></trkpt><trkpt lat="48.29612100941211" lon="-0.9325347174511248"><ele>140.0</ele><time>2026-04-06T13:08:58.001Z</time></trkpt><trkpt lat="48.29607563416151" lon="-0.9324151595341773"><ele>140.0</ele><time>2026-04-06T13:08:59.001Z</time></trkpt><trkpt lat="48.29602837914996" lon="-0.932293256206731"><ele>140.0</ele><time>2026-04-06T13:09:00.001Z</time></trkpt><trkpt lat="48.29598453786577" lon="-0.9321642722075097"><ele>139.8</ele><time>2026-04-06T13:09:01.001Z</time></trkpt><trkpt lat="48.29591697198709" lon="-0.9320463226550038"><ele>139.6</ele><time>2026-04-06T13:09:02.001Z</time></trkpt><trkpt lat="48.29586204548693" lon="-0.9319228973710582"><ele>139.4</ele><time>2026-04-06T13:09:03.001Z</time></trkpt><trkpt lat="48.29578841619648" lon="-0.9318362264182515"><ele>139.2</ele><time>2026-04-06T13:09:04.001Z</time></trkpt><trkpt lat="48.29570195039495" lon="-0.9317593137756705"><ele>139.0</ele><time>2026-04-06T13:09:05.001Z</time></trkpt><trkpt lat="48.29561683996732" lon="-0.9316819144242239"><ele>138.0</ele><time>2026-04-06T13:09:06.001Z</time></trkpt><trkpt lat="48.29554293110606" lon="-0.9315929047309891"><ele>137.0</ele><time>2026-04-06T13:09:07.001Z</time></trkpt><trkpt lat="48.295487554434466" lon="-0.9314640337018688"><ele>136.0</ele><time>2026-04-06T13:09:08.001Z</time></trkpt><trkpt lat="48.295472405690084" lon="-0.9313181317602951"><ele>135.0</ele><time>2026-04-06T13:09:09.001Z</time></trkpt><trkpt lat="48.29547315973531" lon="-0.9311861305704846"><ele>134.0</ele><time>2026-04-06T13:09:10Z</time></trkpt><trkpt lat="48.29548693888521" lon="-0.9310583386592965"><ele>134.0</ele><time>2026-04-06T13:09:11Z</time></trkpt><trkpt lat="48.29551232575987" lon="-0.9309393557847763"><ele>134.0</ele><time>2026-04-06T13:09:12Z</time></trkpt><trkpt lat="48.295521498332356" lon="-0.9308222390832942"><ele>134.0</ele><time>2026-04-06T13:09:13Z</time></trkpt><trkpt lat="48.29553274054895" lon="-0.9307269897441682"><ele>134.0</ele><time>2026-04-06T13:09:14Z</time></trkpt><trkpt lat="48.29554542303609" lon="-0.9306327242345634"><ele>134.0</ele><time>2026-04-06T13:09:15Z</time></trkpt><trkpt lat="48.29554033343119" lon="-0.9305189675347859"><ele>134.0</ele><time>2026-04-06T13:09:16Z</time></trkpt><trkpt lat="48.29555077800703" lon="-0.9304102603587908"><ele>134.0</ele><time>2026-04-06T13:09:17Z</time></trkpt><trkpt lat="48.29556192699218" lon="-0.930294221728314"><ele>134.5</ele><time>2026-04-06T13:09:18Z</time></trkpt><trkpt lat="48.295571650891596" lon="-0.930174221328795"><ele>135.0</ele><time>2026-04-06T13:09:19Z</time></trkpt><trkpt lat="48.29558135501815" lon="-0.9300515452604476"><ele>135.5</ele><time>2026-04-06T13:09:20Z</time></trkpt><trkpt lat="48.295591279230784" lon="-0.9299282014923997"><ele>136.0</ele><time>2026-04-06T13:09:21Z</time></trkpt><trkpt lat="48.29560097410075" lon="-0.9298077079406679"><ele>136.5</ele><time>2026-04-06T13:09:22Z</time></trkpt><trkpt lat="48.29562364336329" lon="-0.9296938579104952"><ele>137.0</ele><time>2026-04-06T13:09:23Z</time></trkpt><trkpt lat="48.29562493588781" lon="-0.9295911372517622"><ele>137.2</ele><time>2026-04-06T13:09:24Z</time></trkpt><trkpt lat="48.295620237076136" lon="-0.9294967593225372"><ele>137.39999999999998</ele><time>2026-04-06T13:09:25Z</time></trkpt><trkpt lat="48.29558405718899" lon="-0.9293441518934257"><ele>137.60000000000002</ele><time>2026-04-06T13:09:27Z</time></trkpt><trkpt lat="48.295563381778905" lon="-0.9291968226641008"><ele>137.8</ele><time>2026-04-06T13:09:29Z</time></trkpt><trkpt lat="48.295620450718" lon="-0.9290581615668527"><ele>138.0</ele><time>2026-04-06T13:09:31Z</time></trkpt><trkpt lat="48.295678178315576" lon="-0.9289124863847575"><ele>138.66666666666666</ele><time>2026-04-06T13:09:33Z</time></trkpt><trkpt lat="48.29570150271328" lon="-0.9288122505581763"><ele>139.33333333333334</ele><time>2026-04-06T13:09:34Z</time></trkpt><trkpt lat="48.29571275943693" lon="-0.9286946120152271"><ele>140.0</ele><time>2026-04-06T13:09:35Z</time></trkpt><trkpt lat="48.295721955433784" lon="-0.9285708179701124"><ele>140.66666666666669</ele><time>2026-04-06T13:09:36Z</time></trkpt><trkpt lat="48.295733481433025" lon="-0.9284398361579095"><ele>141.33333333333334</ele><time>2026-04-06T13:09:37Z</time></trkpt><trkpt lat="48.295743972659736" lon="-0.9283019886039291"><ele>142.0</ele><time>2026-04-06T13:09:38Z</time></trkpt><trkpt lat="48.29576160189398" lon="-0.9281590004107306"><ele>142.4</ele><time>2026-04-06T13:09:39Z</time></trkpt><trkpt lat="48.29577914971088" lon="-0.9280107383227237"><ele>142.79999999999998</ele><time>2026-04-06T13:09:40Z</time></trkpt><trkpt lat="48.29579263788641" lon="-0.9278568526110205"><ele>143.2</ele><time>2026-04-06T13:09:41Z</time></trkpt><trkpt lat="48.295798959013794" lon="-0.9276999447654763"><ele>143.6</ele><time>2026-04-06T13:09:42Z</time></trkpt><trkpt lat="48.29580829899249" lon="-0.9275599461269626"><ele>144.0</ele><time>2026-04-06T13:09:43Z</time></trkpt><trkpt lat="48.295822660694306" lon="-0.927430719915518"><ele>144.5</ele><time>2026-04-06T13:09:44Z</time></trkpt><trkpt lat="48.295833787553825" lon="-0.9273077797102828"><ele>145.0</ele><time>2026-04-06T13:09:45Z</time></trkpt><trkpt lat="48.29584539418814" lon="-0.9271886008707079"><ele>145.5</ele><time>2026-04-06T13:09:45.999Z</time></trkpt><trkpt lat="48.29585909059368" lon="-0.9270716427814497"><ele>146.0</ele><time>2026-04-06T13:09:46.999Z</time></trkpt><trkpt lat="48.29586858481754" lon="-0.9269646358107639"><ele>146.5</ele><time>2026-04-06T13:09:47.999Z</time></trkpt><trkpt lat="48.295864002278726" lon="-0.9268558932838964"><ele>147.0</ele><time>2026-04-06T13:09:48.999Z</time></trkpt><trkpt lat="48.2958427115175" lon="-0.9267467783361676"><ele>147.2</ele><time>2026-04-06T13:09:49.999Z</time></trkpt><trkpt lat="48.29585104029531" lon="-0.9266311681727463"><ele>147.39999999999998</ele><time>2026-04-06T13:09:50.999Z</time></trkpt><trkpt lat="48.295883372635075" lon="-0.9264904349905381"><ele>147.60000000000002</ele><time>2026-04-06T13:09:51.999Z</time></trkpt><trkpt lat="48.29592856072813" lon="-0.926312588074534"><ele>147.8</ele><time>2026-04-06T13:09:52.999Z</time></trkpt><trkpt lat="48.295947516118" lon="-0.9261454144026551"><ele>148.0</ele><time>2026-04-06T13:09:53.999Z</time></trkpt><trkpt lat="48.29595613711685" lon="-0.9259823035781819"><ele>148.6</ele><time>2026-04-06T13:09:54.999Z</time></trkpt><trkpt lat="48.29597313442499" lon="-0.9258228712705114"><ele>149.20000000000002</ele><time>2026-04-06T13:09:55.999Z</time></trkpt><trkpt lat="48.29599424101416" lon="-0.9256674787254482"><ele>149.8</ele><time>2026-04-06T13:09:56.999Z</time></trkpt><trkpt lat="48.296013576920124" lon="-0.9255162287740829"><ele>150.4</ele><time>2026-04-06T13:09:57.999Z</time></trkpt><trkpt lat="48.29602900211363" lon="-0.9253652691203768"><ele>151.0</ele><time>2026-04-06T13:09:58.999Z</time></trkpt><trkpt lat="48.29604194681941" lon="-0.9252150463192852"><ele>151.0</ele><time>2026-04-06T13:09:59.999Z</time></trkpt><trkpt lat="48.29605657320356" lon="-0.9250644263647083"><ele>151.0</ele><time>2026-04-06T13:10:00.999Z</time></trkpt><trkpt lat="48.296067564666025" lon="-0.9249070457413028"><ele>151.0</ele><time>2026-04-06T13:10:01.999Z</time></trkpt><trkpt lat="48.29608002676935" lon="-0.9247530077138714"><ele>151.0</ele><time>2026-04-06T13:10:02.999Z</time></trkpt><trkpt lat="48.296098642084445" lon="-0.9245996590249068"><ele>151.0</ele><time>2026-04-06T13:10:03.999Z</time></trkpt><trkpt lat="48.29610905977578" lon="-0.9244401637748292"><ele>151.25</ele><time>2026-04-06T13:10:04.999Z</time></trkpt><trkpt lat="48.29612066390136" lon="-0.9242726752590852"><ele>151.5</ele><time>2026-04-06T13:10:05.999Z</time></trkpt><trkpt lat="48.29613986338253" lon="-0.9241069910978371"><ele>151.75</ele><time>2026-04-06T13:10:06.999Z</time></trkpt><trkpt lat="48.29615717348761" lon="-0.9239390348624347"><ele>152.0</ele><time>2026-04-06T13:10:07.999Z</time></trkpt><trkpt lat="48.29617351946798" lon="-0.9237689845410105"><ele>152.0</ele><time>2026-04-06T13:10:08.999Z</time></trkpt><trkpt lat="48.2961893464479" lon="-0.923596534699173"><ele>152.0</ele><time>2026-04-06T13:10:09.999Z</time></trkpt><trkpt lat="48.29620374122907" lon="-0.9234189842732916"><ele>152.0</ele><time>2026-04-06T13:10:10.999Z</time></trkpt><trkpt lat="48.296216867457815" lon="-0.923227023739458"><ele>152.0</ele><time>2026-04-06T13:10:11.999Z</time></trkpt><trkpt lat="48.29623161053297" lon="-0.923035358227143"><ele>152.0</ele><time>2026-04-06T13:10:12.999Z</time></trkpt><trkpt lat="48.29625031368807" lon="-0.9228516382737614"><ele>152.0</ele><time>2026-04-06T13:10:13.999Z</time></trkpt><trkpt lat="48.29627006660188" lon="-0.9226702818071706"><ele>152.0</ele><time>2026-04-06T13:10:14.999Z</time></trkpt><trkpt lat="48.29629140081761" lon="-0.9224874774770448"><ele>152.0</ele><time>2026-04-06T13:10:15.999Z</time></trkpt><trkpt lat="48.296312749026505" lon="-0.9223056923027555"><ele>152.0</ele><time>2026-04-06T13:10:16.999Z</time></trkpt><trkpt lat="48.29633594104242" lon="-0.9221233944050702"><ele>152.0</ele><time>2026-04-06T13:10:17.999Z</time></trkpt><trkpt lat="48.29635596255212" lon="-0.9219404104940438"><ele>152.0</ele><time>2026-04-06T13:10:18.999Z</time></trkpt><trkpt lat="48.29636895525622" lon="-0.9217553253445329"><ele>152.0</ele><time>2026-04-06T13:10:19.999Z</time></trkpt><trkpt lat="48.296380244040115" lon="-0.9215685241146847"><ele>152.0</ele><time>2026-04-06T13:10:20.999Z</time></trkpt><trkpt lat="48.29639707419887" lon="-0.9213820659636556"><ele>152.0</ele><time>2026-04-06T13:10:21.999Z</time></trkpt><trkpt lat="48.29641114936178" lon="-0.9211958463504428"><ele>152.0</ele><time>2026-04-06T13:10:22.999Z</time></trkpt><trkpt lat="48.296428587970915" lon="-0.9210111721055978"><ele>152.0</ele><time>2026-04-06T13:10:23.999Z</time></trkpt><trkpt lat="48.296447581081985" lon="-0.9208266977694609"><ele>152.75</ele><time>2026-04-06T13:10:24.999Z</time></trkpt><trkpt lat="48.29646166338133" lon="-0.920653669471051"><ele>153.5</ele><time>2026-04-06T13:10:25.999Z</time></trkpt><trkpt lat="48.29647721827833" lon="-0.9204836471674831"><ele>154.25</ele><time>2026-04-06T13:10:26.999Z</time></trkpt><trkpt lat="48.29649324758682" lon="-0.9203118141443674"><ele>155.0</ele><time>2026-04-06T13:10:27.999Z</time></trkpt><trkpt lat="48.2965041867926" lon="-0.9201386066129207"><ele>154.75</ele><time>2026-04-06T13:10:28.999Z</time></trkpt><trkpt lat="48.29651041979606" lon="-0.919962387595634"><ele>154.5</ele><time>2026-04-06T13:10:29.999Z</time></trkpt><trkpt lat="48.29653020019103" lon="-0.9197845522337901"><ele>154.25</ele><time>2026-04-06T13:10:30.999Z</time></trkpt><trkpt lat="48.296545315249375" lon="-0.9196093499406067"><ele>154.0</ele><time>2026-04-06T13:10:31.999Z</time></trkpt><trkpt lat="48.29656319227739" lon="-0.9194432165969303"><ele>154.0</ele><time>2026-04-06T13:10:32.999Z</time></trkpt><trkpt lat="48.296584064843685" lon="-0.9192757508539849"><ele>154.0</ele><time>2026-04-06T13:10:33.999Z</time></trkpt><trkpt lat="48.29660955236086" lon="-0.9191068247864926"><ele>154.0</ele><time>2026-04-06T13:10:34.999Z</time></trkpt><trkpt lat="48.29662696900474" lon="-0.9189394677612995"><ele>154.0</ele><time>2026-04-06T13:10:35.999Z</time></trkpt><trkpt lat="48.29664318022459" lon="-0.9187675411662843"><ele>154.0</ele><time>2026-04-06T13:10:36.999Z</time></trkpt><trkpt lat="48.296657740633464" lon="-0.9185969682828691"><ele>154.0</ele><time>2026-04-06T13:10:37.999Z</time></trkpt><trkpt lat="48.29667290727507" lon="-0.9184245597106956"><ele>154.0</ele><time>2026-04-06T13:10:38.999Z</time></trkpt><trkpt lat="48.296689927932924" lon="-0.9182483027727006"><ele>154.0</ele><time>2026-04-06T13:10:39.999Z</time></trkpt><trkpt lat="48.29670702987925" lon="-0.918069921868107"><ele>154.0</ele><time>2026-04-06T13:10:40.999Z</time></trkpt><trkpt lat="48.296723436043685" lon="-0.9178923873133444"><ele>154.0</ele><time>2026-04-06T13:10:41.999Z</time></trkpt><trkpt lat="48.29674034379921" lon="-0.917710715195738"><ele>154.0</ele><time>2026-04-06T13:10:42.999Z</time></trkpt><trkpt lat="48.296755949052795" lon="-0.9175308285441623"><ele>154.0</ele><time>2026-04-06T13:10:43.999Z</time></trkpt><trkpt lat="48.29677036833632" lon="-0.9173530899280506"><ele>154.0</ele><time>2026-04-06T13:10:44.999Z</time></trkpt><trkpt lat="48.29678982131211" lon="-0.9171747031403044"><ele>154.0</ele><time>2026-04-06T13:10:45.999Z</time></trkpt><trkpt lat="48.29680985859485" lon="-0.9169977137808452"><ele>154.0</ele><time>2026-04-06T13:10:46.999Z</time></trkpt><trkpt lat="48.29682784245936" lon="-0.9168192444184305"><ele>154.0</ele><time>2026-04-06T13:10:47.999Z</time></trkpt><trkpt lat="48.29684595085414" lon="-0.9166384237187962"><ele>154.0</ele><time>2026-04-06T13:10:48.999Z</time></trkpt><trkpt lat="48.29686011492831" lon="-0.9164558066868742"><ele>154.0</ele><time>2026-04-06T13:10:49.999Z</time></trkpt><trkpt lat="48.296877196980994" lon="-0.9162697718919343"><ele>154.0</ele><time>2026-04-06T13:10:50.999Z</time></trkpt><trkpt lat="48.296893604051654" lon="-0.9160791054361723"><ele>154.0</ele><time>2026-04-06T13:10:51.999Z</time></trkpt><trkpt lat="48.29691698502913" lon="-0.9158615847971135"><ele>154.0</ele><time>2026-04-06T13:10:52.999Z</time></trkpt><trkpt lat="48.29694144343275" lon="-0.9156362017158591"><ele>154.0</ele><time>2026-04-06T13:10:53.999Z</time></trkpt><trkpt lat="48.296963198238096" lon="-0.9154036748872908"><ele>154.0</ele><time>2026-04-06T13:10:54.999Z</time></trkpt><trkpt lat="48.296986357911344" lon="-0.915169419073306"><ele>154.0</ele><time>2026-04-06T13:10:55.999Z</time></trkpt><trkpt lat="48.297008205250435" lon="-0.9149309812714189"><ele>154.0</ele><time>2026-04-06T13:10:56.999Z</time></trkpt><trkpt lat="48.29703143386493" lon="-0.914691759086637"><ele>154.0</ele><time>2026-04-06T13:10:58Z</time></trkpt><trkpt lat="48.29705574858446" lon="-0.9144609408089166"><ele>154.0</ele><time>2026-04-06T13:10:59Z</time></trkpt><trkpt lat="48.297076677310976" lon="-0.9142494037892199"><ele>154.0</ele><time>2026-04-06T13:11:00Z</time></trkpt><trkpt lat="48.29709384054148" lon="-0.9140496801185115"><ele>154.0</ele><time>2026-04-06T13:11:01Z</time></trkpt><trkpt lat="48.297098211651516" lon="-0.9138636191547307"><ele>154.0</ele><time>2026-04-06T13:11:02Z</time></trkpt><trkpt lat="48.29712470519857" lon="-0.9136919603494229"><ele>154.0</ele><time>2026-04-06T13:11:03Z</time></trkpt><trkpt lat="48.297137135597865" lon="-0.9135301974340282"><ele>154.0</ele><time>2026-04-06T13:11:04Z</time></trkpt><trkpt lat="48.29714736371319" lon="-0.9133772863236235"><ele>154.0</ele><time>2026-04-06T13:11:05Z</time></trkpt><trkpt lat="48.2971588000046" lon="-0.9132316315510994"><ele>154.0</ele><time>2026-04-06T13:11:06Z</time></trkpt><trkpt lat="48.29717772140191" lon="-0.9130984036123392"><ele>154.0</ele><time>2026-04-06T13:11:07Z</time></trkpt><trkpt lat="48.29718903542998" lon="-0.9129657688897539"><ele>154.0</ele><time>2026-04-06T13:11:08Z</time></trkpt><trkpt lat="48.29719816019519" lon="-0.9128340241028375"><ele>154.0</ele><time>2026-04-06T13:11:09Z</time></trkpt><trkpt lat="48.29720642975149" lon="-0.9127085023702781"><ele>154.0</ele><time>2026-04-06T13:11:10Z</time></trkpt><trkpt lat="48.29721693719011" lon="-0.9125891277587149"><ele>154.0</ele><time>2026-04-06T13:11:11Z</time></trkpt><trkpt lat="48.29722672654297" lon="-0.9124786626440837"><ele>154.0</ele><time>2026-04-06T13:11:12Z</time></trkpt><trkpt lat="48.29723260612781" lon="-0.9123728858117801"><ele>154.0</ele><time>2026-04-06T13:11:13Z</time></trkpt><trkpt lat="48.29721893838692" lon="-0.9122763458641474"><ele>153.66666666666669</ele><time>2026-04-06T13:11:14Z</time></trkpt><trkpt lat="48.297179481932446" lon="-0.9121953877641943"><ele>153.33333333333334</ele><time>2026-04-06T13:11:15Z</time></trkpt><trkpt lat="48.29713363651266" lon="-0.9121151710486589"><ele>153.0</ele><time>2026-04-06T13:11:16Z</time></trkpt><trkpt lat="48.29710311315187" lon="-0.912010986925466"><ele>152.66666666666666</ele><time>2026-04-06T13:11:17Z</time></trkpt><trkpt lat="48.29709077057477" lon="-0.9118913842216156"><ele>152.33333333333331</ele><time>2026-04-06T13:11:18Z</time></trkpt><trkpt lat="48.29710105796273" lon="-0.9117672404487613"><ele>152.0</ele><time>2026-04-06T13:11:19Z</time></trkpt><trkpt lat="48.29713647489557" lon="-0.9116567827528036"><ele>152.0</ele><time>2026-04-06T13:11:20Z</time></trkpt><trkpt lat="48.2972012195683" lon="-0.9115879944357251"><ele>152.0</ele><time>2026-04-06T13:11:21Z</time></trkpt><trkpt lat="48.29727059322475" lon="-0.9115464164024957"><ele>152.0</ele><time>2026-04-06T13:11:22Z</time></trkpt><trkpt lat="48.297346478646794" lon="-0.9115438298693916"><ele>152.0</ele><time>2026-04-06T13:11:23Z</time></trkpt><trkpt lat="48.2974140125946" lon="-0.9115737194108818"><ele>152.0</ele><time>2026-04-06T13:11:24Z</time></trkpt><trkpt lat="48.29747181909212" lon="-0.9116205425086149"><ele>152.0</ele><time>2026-04-06T13:11:25Z</time></trkpt><trkpt lat="48.297517262749544" lon="-0.9116981650872877"><ele>152.0</ele><time>2026-04-06T13:11:26Z</time></trkpt><trkpt lat="48.297557420479485" lon="-0.9117959980244278"><ele>152.4</ele><time>2026-04-06T13:11:27Z</time></trkpt><trkpt lat="48.297626922434404" lon="-0.9118594967781156"><ele>152.79999999999998</ele><time>2026-04-06T13:11:28Z</time></trkpt><trkpt lat="48.297711857090086" lon="-0.9119139483204883"><ele>153.2</ele><time>2026-04-06T13:11:29Z</time></trkpt><trkpt lat="48.29782503780507" lon="-0.9119595219181933"><ele>153.6</ele><time>2026-04-06T13:11:30Z</time></trkpt><trkpt lat="48.29794535472841" lon="-0.9119894125210574"><ele>154.0</ele><time>2026-04-06T13:11:31Z</time></trkpt><trkpt lat="48.29807679041708" lon="-0.9120181003232247"><ele>154.0</ele><time>2026-04-06T13:11:32Z</time></trkpt><trkpt lat="48.29823011777066" lon="-0.9120424239842208"><ele>154.0</ele><time>2026-04-06T13:11:33Z</time></trkpt><trkpt lat="48.29841792975254" lon="-0.9120823622086309"><ele>154.0</ele><time>2026-04-06T13:11:34Z</time></trkpt><trkpt lat="48.29859613855401" lon="-0.9121232395487593"><ele>154.0</ele><time>2026-04-06T13:11:35Z</time></trkpt><trkpt lat="48.298787202116316" lon="-0.9121674217286941"><ele>154.0</ele><time>2026-04-06T13:11:36Z</time></trkpt><trkpt lat="48.298984442396744" lon="-0.9122136548713429"><ele>154.0</ele><time>2026-04-06T13:11:37Z</time></trkpt><trkpt lat="48.29917580042094" lon="-0.9122570429427037"><ele>153.33333333333334</ele><time>2026-04-06T13:11:38Z</time></trkpt><trkpt lat="48.2993677852712" lon="-0.9123032573490626"><ele>152.66666666666666</ele><time>2026-04-06T13:11:39Z</time></trkpt><trkpt lat="48.29956464508322" lon="-0.9123447538008506"><ele>152.0</ele><time>2026-04-06T13:11:40Z</time></trkpt><trkpt lat="48.29975935568767" lon="-0.9123880573292306"><ele>150.33333333333331</ele><time>2026-04-06T13:11:41Z</time></trkpt><trkpt lat="48.299950800428945" lon="-0.9124315109765436"><ele>148.66666666666666</ele><time>2026-04-06T13:11:42Z</time></trkpt><trkpt lat="48.30014506750312" lon="-0.9124744212365332"><ele>147.0</ele><time>2026-04-06T13:11:42.999Z</time></trkpt><trkpt lat="48.30034372171499" lon="-0.9125155284557589"><ele>147.0</ele><time>2026-04-06T13:11:43.999Z</time></trkpt><trkpt lat="48.30054472017375" lon="-0.9125558851209967"><ele>147.0</ele><time>2026-04-06T13:11:44.999Z</time></trkpt><trkpt lat="48.30075048852865" lon="-0.9125966312671121"><ele>147.0</ele><time>2026-04-06T13:11:45.999Z</time></trkpt><trkpt lat="48.300962924735366" lon="-0.9126386419907875"><ele>145.33333333333334</ele><time>2026-04-06T13:11:46.999Z</time></trkpt><trkpt lat="48.30117617665637" lon="-0.9126795347528328"><ele>143.66666666666669</ele><time>2026-04-06T13:11:47.999Z</time></trkpt><trkpt lat="48.30138643035314" lon="-0.9127225881687807"><ele>142.0</ele><time>2026-04-06T13:11:48.999Z</time></trkpt><trkpt lat="48.301593933476276" lon="-0.9127714090432689"><ele>142.0</ele><time>2026-04-06T13:11:49.999Z</time></trkpt><trkpt lat="48.30179920916023" lon="-0.9128197848206062"><ele>142.0</ele><time>2026-04-06T13:11:50.999Z</time></trkpt><trkpt lat="48.30199853337865" lon="-0.9128670790223522"><ele>142.0</ele><time>2026-04-06T13:11:51.999Z</time></trkpt><trkpt lat="48.30219257409588" lon="-0.9129141697333609"><ele>142.66666666666669</ele><time>2026-04-06T13:11:52.999Z</time></trkpt><trkpt lat="48.302385028073964" lon="-0.9129608750154411"><ele>143.33333333333334</ele><time>2026-04-06T13:11:53.999Z</time></trkpt><trkpt lat="48.30257828620536" lon="-0.9130112036293182"><ele>144.0</ele><time>2026-04-06T13:11:54.999Z</time></trkpt><trkpt lat="48.30277029935736" lon="-0.9130543386765527"><ele>144.0</ele><time>2026-04-06T13:11:55.999Z</time></trkpt><trkpt lat="48.302961640575994" lon="-0.9130959425080026"><ele>144.0</ele><time>2026-04-06T13:11:56.999Z</time></trkpt><trkpt lat="48.303151693925265" lon="-0.9131395228666366"><ele>144.0</ele><time>2026-04-06T13:11:57.999Z</time></trkpt><trkpt lat="48.30333948248209" lon="-0.9131873225093246"><ele>144.0</ele><time>2026-04-06T13:11:58.999Z</time></trkpt><trkpt lat="48.303525046710575" lon="-0.913241945858301"><ele>144.0</ele><time>2026-04-06T13:11:59.999Z</time></trkpt><trkpt lat="48.303702786208575" lon="-0.9133023661079392"><ele>144.0</ele><time>2026-04-06T13:12:00.999Z</time></trkpt><trkpt lat="48.30386912017799" lon="-0.9133770660816429"><ele>145.0</ele><time>2026-04-06T13:12:01.999Z</time></trkpt><trkpt lat="48.30402481448831" lon="-0.913469877068113"><ele>146.0</ele><time>2026-04-06T13:12:02.999Z</time></trkpt><trkpt lat="48.304169984062554" lon="-0.913565212227563"><ele>147.0</ele><time>2026-04-06T13:12:03.999Z</time></trkpt><trkpt lat="48.30430969571891" lon="-0.9136597207555666"><ele>147.0</ele><time>2026-04-06T13:12:04.999Z</time></trkpt><trkpt lat="48.30444305890058" lon="-0.9137552850875933"><ele>147.0</ele><time>2026-04-06T13:12:05.999Z</time></trkpt><trkpt lat="48.30456917433548" lon="-0.9138533849366307"><ele>147.0</ele><time>2026-04-06T13:12:06.999Z</time></trkpt><trkpt lat="48.30468153162517" lon="-0.9139546912408211"><ele>147.0</ele><time>2026-04-06T13:12:07.999Z</time></trkpt><trkpt lat="48.30478500379029" lon="-0.9140605143329407"><ele>147.2</ele><time>2026-04-06T13:12:08.999Z</time></trkpt><trkpt lat="48.3048797709735" lon="-0.9141681270184527"><ele>147.39999999999998</ele><time>2026-04-06T13:12:09.999Z</time></trkpt><trkpt lat="48.30496942488685" lon="-0.9142667664062252"><ele>147.60000000000002</ele><time>2026-04-06T13:12:10.999Z</time></trkpt><trkpt lat="48.30505627564749" lon="-0.9143608727740538"><ele>147.8</ele><time>2026-04-06T13:12:11.999Z</time></trkpt><trkpt lat="48.30513987335385" lon="-0.9144490069589248"><ele>148.0</ele><time>2026-04-06T13:12:12.999Z</time></trkpt><trkpt lat="48.3052207167865" lon="-0.9145295172480918"><ele>148.20000000000002</ele><time>2026-04-06T13:12:13.999Z</time></trkpt><trkpt lat="48.30529839813417" lon="-0.9146018774560241"><ele>148.4</ele><time>2026-04-06T13:12:14.999Z</time></trkpt><trkpt lat="48.30537871310121" lon="-0.9146557192124101"><ele>148.60000000000002</ele><time>2026-04-06T13:12:15.999Z</time></trkpt><trkpt lat="48.305468022355356" lon="-0.9146713421649134"><ele>148.8</ele><time>2026-04-06T13:12:16.999Z</time></trkpt><trkpt lat="48.30556460121904" lon="-0.9146549230676068"><ele>149.0</ele><time>2026-04-06T13:12:17.999Z</time></trkpt><trkpt lat="48.30566057558138" lon="-0.9145888955250139"><ele>149.25</ele><time>2026-04-06T13:12:18.999Z</time></trkpt><trkpt lat="48.305750739328815" lon="-0.9144746090927203"><ele>149.5</ele><time>2026-04-06T13:12:19.999Z</time></trkpt><trkpt lat="48.305846654521766" lon="-0.9143419297635487"><ele>149.75</ele><time>2026-04-06T13:12:20.999Z</time></trkpt><trkpt lat="48.30592339822702" lon="-0.914132547884693"><ele>150.0</ele><time>2026-04-06T13:12:21.999Z</time></trkpt><trkpt lat="48.30602916157877" lon="-0.9139341535121267"><ele>150.0</ele><time>2026-04-06T13:12:22.999Z</time></trkpt><trkpt lat="48.30614913484203" lon="-0.9137232496210447"><ele>150.0</ele><time>2026-04-06T13:12:23.999Z</time></trkpt><trkpt lat="48.30627483602207" lon="-0.9135175623121763"><ele>150.0</ele><time>2026-04-06T13:12:24.999Z</time></trkpt><trkpt lat="48.30639838631702" lon="-0.913334096534347"><ele>150.0</ele><time>2026-04-06T13:12:25.999Z</time></trkpt><trkpt lat="48.30651645030708" lon="-0.913162831811303"><ele>150.0</ele><time>2026-04-06T13:12:26.999Z</time></trkpt><trkpt lat="48.30663272681131" lon="-0.91300086882083"><ele>150.0</ele><time>2026-04-06T13:12:27.999Z</time></trkpt><trkpt lat="48.306744133168515" lon="-0.9128446596993768"><ele>150.0</ele><time>2026-04-06T13:12:28.999Z</time></trkpt><trkpt lat="48.306864661629504" lon="-0.9127027932935945"><ele>150.0</ele><time>2026-04-06T13:12:29.999Z</time></trkpt><trkpt lat="48.30699342611807" lon="-0.9125627122097568"><ele>150.0</ele><time>2026-04-06T13:12:30.999Z</time></trkpt><trkpt lat="48.30713327145523" lon="-0.9124278367625629"><ele>148.66666666666666</ele><time>2026-04-06T13:12:31.999Z</time></trkpt><trkpt lat="48.30729591753234" lon="-0.9122822037942119"><ele>147.33333333333331</ele><time>2026-04-06T13:12:32.999Z</time></trkpt><trkpt lat="48.30748270365055" lon="-0.9121189010498808"><ele>146.0</ele><time>2026-04-06T13:12:33.999Z</time></trkpt><trkpt lat="48.30769236414873" lon="-0.9119415754685799"><ele>146.0</ele><time>2026-04-06T13:12:34.999Z</time></trkpt><trkpt lat="48.307927739709164" lon="-0.9117687222991696"><ele>146.0</ele><time>2026-04-06T13:12:35.999Z</time></trkpt><trkpt lat="48.308178626458876" lon="-0.9116041453698708"><ele>147.0</ele><time>2026-04-06T13:12:36.999Z</time></trkpt><trkpt lat="48.30844170715083" lon="-0.9114572809623548"><ele>148.0</ele><time>2026-04-06T13:12:37.999Z</time></trkpt><trkpt lat="48.30869958911915" lon="-0.9113061115172802"><ele>149.0</ele><time>2026-04-06T13:12:38.999Z</time></trkpt><trkpt lat="48.308959059159534" lon="-0.911156920916135"><ele>150.0</ele><time>2026-04-06T13:12:39.999Z</time></trkpt><trkpt lat="48.30920543965607" lon="-0.9110078822858401"><ele>148.0</ele><time>2026-04-06T13:12:40.999Z</time></trkpt><trkpt lat="48.309446502661935" lon="-0.9108769921801099"><ele>146.0</ele><time>2026-04-06T13:12:41.999Z</time></trkpt><trkpt lat="48.309678895492574" lon="-0.9107813167043332"><ele>147.5</ele><time>2026-04-06T13:12:42.999Z</time></trkpt><trkpt lat="48.3099030387658" lon="-0.9106632923562138"><ele>149.0</ele><time>2026-04-06T13:12:43.999Z</time></trkpt><trkpt lat="48.31013006465011" lon="-0.9105382882447118"><ele>149.0</ele><time>2026-04-06T13:12:44.999Z</time></trkpt><trkpt lat="48.31035891534418" lon="-0.9104219566043279"><ele>149.0</ele><time>2026-04-06T13:12:45.999Z</time></trkpt><trkpt lat="48.31058923438697" lon="-0.910306206110016"><ele>149.5</ele><time>2026-04-06T13:12:46.999Z</time></trkpt><trkpt lat="48.31081602383258" lon="-0.9101888104011266"><ele>150.0</ele><time>2026-04-06T13:12:47.999Z</time></trkpt><trkpt lat="48.31104046104922" lon="-0.9100727383281909"><ele>150.0</ele><time>2026-04-06T13:12:48.999Z</time></trkpt><trkpt lat="48.31126051466622" lon="-0.9099563926298362"><ele>150.0</ele><time>2026-04-06T13:12:49.999Z</time></trkpt><trkpt lat="48.31147984712736" lon="-0.9098412720929581"><ele>151.5</ele><time>2026-04-06T13:12:50.999Z</time></trkpt><trkpt lat="48.31169628700811" lon="-0.9097153235767488"><ele>153.0</ele><time>2026-04-06T13:12:51.999Z</time></trkpt><trkpt lat="48.31190875239992" lon="-0.9095784733258409"><ele>153.0</ele><time>2026-04-06T13:12:52.999Z</time></trkpt><trkpt lat="48.31212112150068" lon="-0.9094438625210389"><ele>153.0</ele><time>2026-04-06T13:12:53.999Z</time></trkpt><trkpt lat="48.31233377009157" lon="-0.9093078797109801"><ele>155.5</ele><time>2026-04-06T13:12:54.999Z</time></trkpt><trkpt lat="48.312545257594884" lon="-0.9091694666068648"><ele>158.0</ele><time>2026-04-06T13:12:55.999Z</time></trkpt><trkpt lat="48.31275446051024" lon="-0.9090349919386134"><ele>158.0</ele><time>2026-04-06T13:12:56.999Z</time></trkpt><trkpt lat="48.31296290493537" lon="-0.9089061147652261"><ele>158.0</ele><time>2026-04-06T13:12:57.999Z</time></trkpt><trkpt lat="48.313168760089745" lon="-0.9087810282339742"><ele>158.0</ele><time>2026-04-06T13:12:58.999Z</time></trkpt><trkpt lat="48.31337217789633" lon="-0.9086535049728205"><ele>158.33333333333331</ele><time>2026-04-06T13:12:59.999Z</time></trkpt><trkpt lat="48.31357461984647" lon="-0.9085207088436842"><ele>158.66666666666666</ele><time>2026-04-06T13:13:00.999Z</time></trkpt><trkpt lat="48.313775671007285" lon="-0.90839013583086"><ele>159.0</ele><time>2026-04-06T13:13:01.999Z</time></trkpt><trkpt lat="48.313977073446296" lon="-0.9082489478154352"><ele>159.33333333333334</ele><time>2026-04-06T13:13:02.999Z</time></trkpt><trkpt lat="48.31417813878126" lon="-0.9081001383561826"><ele>159.66666666666669</ele><time>2026-04-06T13:13:04Z</time></trkpt><trkpt lat="48.31437260464849" lon="-0.9079289264329592"><ele>160.0</ele><time>2026-04-06T13:13:05Z</time></trkpt><trkpt lat="48.31455966314414" lon="-0.9077359590955523"><ele>160.0</ele><time>2026-04-06T13:13:06Z</time></trkpt><trkpt lat="48.314740259553815" lon="-0.907527879047089"><ele>160.0</ele><time>2026-04-06T13:13:07Z</time></trkpt><trkpt lat="48.31490764206265" lon="-0.9073050435409401"><ele>160.0</ele><time>2026-04-06T13:13:08Z</time></trkpt><trkpt lat="48.315067423192126" lon="-0.9070705530752705"><ele>160.0</ele><time>2026-04-06T13:13:09Z</time></trkpt><trkpt lat="48.315218596370826" lon="-0.9068204394504831"><ele>160.0</ele><time>2026-04-06T13:13:10Z</time></trkpt><trkpt lat="48.31536437949442" lon="-0.9065517235395535"><ele>159.5</ele><time>2026-04-06T13:13:11Z</time></trkpt><trkpt lat="48.31549936942949" lon="-0.9062622715579843"><ele>159.0</ele><time>2026-04-06T13:13:12Z</time></trkpt><trkpt lat="48.31561904986931" lon="-0.9059586445369757"><ele>161.5</ele><time>2026-04-06T13:13:13Z</time></trkpt><trkpt lat="48.315728365876836" lon="-0.9056542074602901"><ele>164.0</ele><time>2026-04-06T13:13:14Z</time></trkpt><trkpt lat="48.31582225851422" lon="-0.9053412549037865"><ele>164.0</ele><time>2026-04-06T13:13:15Z</time></trkpt><trkpt lat="48.315906320876714" lon="-0.9050155707930664"><ele>164.0</ele><time>2026-04-06T13:13:16Z</time></trkpt><trkpt lat="48.31598190635595" lon="-0.9046798880254088"><ele>164.0</ele><time>2026-04-06T13:13:17Z</time></trkpt><trkpt lat="48.31604978578871" lon="-0.9043363176580064"><ele>164.0</ele><time>2026-04-06T13:13:18Z</time></trkpt><trkpt lat="48.316110860697485" lon="-0.9039897780238574"><ele>164.0</ele><time>2026-04-06T13:13:19Z</time></trkpt><trkpt lat="48.31618184903101" lon="-0.903654149745057"><ele>164.0</ele><time>2026-04-06T13:13:20Z</time></trkpt><trkpt lat="48.316253231914594" lon="-0.9033213364913951"><ele>164.0</ele><time>2026-04-06T13:13:21Z</time></trkpt><trkpt lat="48.31631944915012" lon="-0.9029855313759776"><ele>164.0</ele><time>2026-04-06T13:13:22Z</time></trkpt><trkpt lat="48.31638615541383" lon="-0.9026480991818359"><ele>170.0</ele><time>2026-04-06T13:13:23Z</time></trkpt><trkpt lat="48.31645620324658" lon="-0.9023054874741717"><ele>176.0</ele><time>2026-04-06T13:13:24Z</time></trkpt><trkpt lat="48.31652624055502" lon="-0.9019604807275413"><ele>176.5</ele><time>2026-04-06T13:13:25Z</time></trkpt><trkpt lat="48.31659387080992" lon="-0.9016144639255398"><ele>177.0</ele><time>2026-04-06T13:13:26Z</time></trkpt><trkpt lat="48.3166664244618" lon="-0.9012683935715139"><ele>177.0</ele><time>2026-04-06T13:13:27Z</time></trkpt><trkpt lat="48.31674055667685" lon="-0.9009209760353957"><ele>177.0</ele><time>2026-04-06T13:13:28Z</time></trkpt><trkpt lat="48.31681012317318" lon="-0.9005727580390768"><ele>177.0</ele><time>2026-04-06T13:13:29Z</time></trkpt><trkpt lat="48.31687255860135" lon="-0.9002280034289809"><ele>177.0</ele><time>2026-04-06T13:13:30Z</time></trkpt><trkpt lat="48.31693684468171" lon="-0.8998899545955281"><ele>177.0</ele><time>2026-04-06T13:13:31Z</time></trkpt><trkpt lat="48.31700625503468" lon="-0.8995570657092204"><ele>177.0</ele><time>2026-04-06T13:13:32Z</time></trkpt><trkpt lat="48.31706961046331" lon="-0.8992256176019829"><ele>178.5</ele><time>2026-04-06T13:13:33Z</time></trkpt><trkpt lat="48.317136054301834" lon="-0.8988946612787678"><ele>180.0</ele><time>2026-04-06T13:13:34Z</time></trkpt><trkpt lat="48.31721249619013" lon="-0.898567514298999"><ele>184.0</ele><time>2026-04-06T13:13:35Z</time></trkpt><trkpt lat="48.317277427571746" lon="-0.8982337980832271"><ele>188.0</ele><time>2026-04-06T13:13:36Z</time></trkpt><trkpt lat="48.31732968613347" lon="-0.8978898210565254"><ele>188.0</ele><time>2026-04-06T13:13:37Z</time></trkpt><trkpt lat="48.31739993527053" lon="-0.8975554537523539"><ele>188.0</ele><time>2026-04-06T13:13:38Z</time></trkpt><trkpt lat="48.31747872954871" lon="-0.897228972831165"><ele>188.0</ele><time>2026-04-06T13:13:39Z</time></trkpt><trkpt lat="48.317560155781834" lon="-0.896905344116585"><ele>188.0</ele><time>2026-04-06T13:13:40Z</time></trkpt><trkpt lat="48.317655976655885" lon="-0.8965879154374927"><ele>188.5</ele><time>2026-04-06T13:13:41Z</time></trkpt><trkpt lat="48.317759806932095" lon="-0.8962761011980866"><ele>189.0</ele><time>2026-04-06T13:13:42Z</time></trkpt><trkpt lat="48.317871931873874" lon="-0.8959690582570553"><ele>189.0</ele><time>2026-04-06T13:13:43Z</time></trkpt><trkpt lat="48.31799350098811" lon="-0.8956660015193302"><ele>189.0</ele><time>2026-04-06T13:13:44Z</time></trkpt><trkpt lat="48.31812386910555" lon="-0.8953688834580951"><ele>189.0</ele><time>2026-04-06T13:13:45Z</time></trkpt><trkpt lat="48.3182655518905" lon="-0.8950794078661212"><ele>189.0</ele><time>2026-04-06T13:13:46Z</time></trkpt><trkpt lat="48.31842055679079" lon="-0.8948021950128712"><ele>189.0</ele><time>2026-04-06T13:13:47Z</time></trkpt><trkpt lat="48.318578564842184" lon="-0.894527722804113"><ele>189.0</ele><time>2026-04-06T13:13:48Z</time></trkpt><trkpt lat="48.31874195324351" lon="-0.8942567152035229"><ele>187.0</ele><time>2026-04-06T13:13:49Z</time></trkpt><trkpt lat="48.31891049865131" lon="-0.893989884927183"><ele>185.0</ele><time>2026-04-06T13:13:50Z</time></trkpt><trkpt lat="48.31908145126983" lon="-0.8937226943266988"><ele>185.0</ele><time>2026-04-06T13:13:51Z</time></trkpt><trkpt lat="48.31925231932728" lon="-0.8934526908623448"><ele>185.0</ele><time>2026-04-06T13:13:52Z</time></trkpt><trkpt lat="48.31941961712223" lon="-0.8931795496954641"><ele>184.5</ele><time>2026-04-06T13:13:53Z</time></trkpt><trkpt lat="48.31958434497861" lon="-0.8929100682523482"><ele>184.0</ele><time>2026-04-06T13:13:54Z</time></trkpt><trkpt lat="48.31975292951753" lon="-0.8926482764148523"><ele>183.0</ele><time>2026-04-06T13:13:55Z</time></trkpt><trkpt lat="48.31992133388441" lon="-0.8923888354685469"><ele>182.0</ele><time>2026-04-06T13:13:56Z</time></trkpt><trkpt lat="48.32008888714109" lon="-0.892128303501466"><ele>182.0</ele><time>2026-04-06T13:13:57Z</time></trkpt><trkpt lat="48.32025849746487" lon="-0.8918719434755441"><ele>182.0</ele><time>2026-04-06T13:13:58Z</time></trkpt><trkpt lat="48.320438818333415" lon="-0.8916351850465001"><ele>182.0</ele><time>2026-04-06T13:13:59Z</time></trkpt><trkpt lat="48.32062865434422" lon="-0.891413378325184"><ele>182.0</ele><time>2026-04-06T13:14:00Z</time></trkpt><trkpt lat="48.32082212103673" lon="-0.8911981152698859"><ele>182.0</ele><time>2026-04-06T13:14:01Z</time></trkpt><trkpt lat="48.32103105091495" lon="-0.8910172908676633"><ele>182.0</ele><time>2026-04-06T13:14:02Z</time></trkpt><trkpt lat="48.32124479907875" lon="-0.8908515810118521"><ele>183.0</ele><time>2026-04-06T13:14:03Z</time></trkpt><trkpt lat="48.321457464140195" lon="-0.8907007494302736"><ele>184.0</ele><time>2026-04-06T13:14:04Z</time></trkpt><trkpt lat="48.32167890661882" lon="-0.8905780711839063"><ele>184.0</ele><time>2026-04-06T13:14:05Z</time></trkpt><trkpt lat="48.321904208628695" lon="-0.8904737038403996"><ele>184.0</ele><time>2026-04-06T13:14:06Z</time></trkpt><trkpt lat="48.32213406338291" lon="-0.8903886905504967"><ele>183.5</ele><time>2026-04-06T13:14:07Z</time></trkpt><trkpt lat="48.32236548142177" lon="-0.8903163390537868"><ele>183.0</ele><time>2026-04-06T13:14:08Z</time></trkpt><trkpt lat="48.322597749119055" lon="-0.8902529722285822"><ele>183.0</ele><time>2026-04-06T13:14:09Z</time></trkpt><trkpt lat="48.322829018010644" lon="-0.8901894227852598"><ele>183.0</ele><time>2026-04-06T13:14:10Z</time></trkpt><trkpt lat="48.32306753486218" lon="-0.890124027845371"><ele>184.0</ele><time>2026-04-06T13:14:11Z</time></trkpt><trkpt lat="48.32329019581948" lon="-0.8900657013405715"><ele>185.0</ele><time>2026-04-06T13:14:12Z</time></trkpt><trkpt lat="48.3235057888508" lon="-0.8900066823195867"><ele>186.0</ele><time>2026-04-06T13:14:13Z</time></trkpt><trkpt lat="48.32372159199589" lon="-0.889949378623874"><ele>186.66666666666666</ele><time>2026-04-06T13:14:14Z</time></trkpt><trkpt lat="48.32393445905412" lon="-0.889893894780498"><ele>187.33333333333331</ele><time>2026-04-06T13:14:15Z</time></trkpt><trkpt lat="48.32414636529401" lon="-0.8898347576827907"><ele>188.0</ele><time>2026-04-06T13:14:16Z</time></trkpt><trkpt lat="48.324361046787736" lon="-0.8897701695552022"><ele>188.0</ele><time>2026-04-06T13:14:17Z</time></trkpt><trkpt lat="48.32457728184338" lon="-0.8897115220560784"><ele>188.0</ele><time>2026-04-06T13:14:18Z</time></trkpt><trkpt lat="48.32479541901706" lon="-0.8896520955932274"><ele>188.0</ele><time>2026-04-06T13:14:19Z</time></trkpt><trkpt lat="48.32501443170066" lon="-0.8895923600247254"><ele>188.66666666666666</ele><time>2026-04-06T13:14:20Z</time></trkpt><trkpt lat="48.32523485578594" lon="-0.889533757418275"><ele>189.33333333333334</ele><time>2026-04-06T13:14:21Z</time></trkpt><trkpt lat="48.32545489860733" lon="-0.8894750653267455"><ele>190.0</ele><time>2026-04-06T13:14:22Z</time></trkpt><trkpt lat="48.325676123281745" lon="-0.8894161108494826"><ele>190.0</ele><time>2026-04-06T13:14:23Z</time></trkpt><trkpt lat="48.32589900112066" lon="-0.8893581289959835"><ele>190.0</ele><time>2026-04-06T13:14:24Z</time></trkpt><trkpt lat="48.32612256679219" lon="-0.889290470360649"><ele>190.5</ele><time>2026-04-06T13:14:25Z</time></trkpt><trkpt lat="48.326343679082925" lon="-0.889213594090801"><ele>191.0</ele><time>2026-04-06T13:14:26Z</time></trkpt><trkpt lat="48.326558776673416" lon="-0.8891166006059973"><ele>190.33333333333331</ele><time>2026-04-06T13:14:27Z</time></trkpt><trkpt lat="48.326768827910215" lon="-0.889004015648344"><ele>189.66666666666666</ele><time>2026-04-06T13:14:28Z</time></trkpt><trkpt lat="48.326970952517954" lon="-0.8888784315130591"><ele>189.0</ele><time>2026-04-06T13:14:29Z</time></trkpt><trkpt lat="48.32715717698302" lon="-0.8887378941939692"><ele>189.0</ele><time>2026-04-06T13:14:30Z</time></trkpt><trkpt lat="48.32733825061921" lon="-0.8885825705694518"><ele>189.0</ele><time>2026-04-06T13:14:31Z</time></trkpt><trkpt lat="48.32752069384167" lon="-0.8884159695932955"><ele>189.0</ele><time>2026-04-06T13:14:32Z</time></trkpt><trkpt lat="48.32769363131659" lon="-0.888222549210809"><ele>189.0</ele><time>2026-04-06T13:14:33Z</time></trkpt><trkpt lat="48.327856785618515" lon="-0.888008859842043"><ele>189.0</ele><time>2026-04-06T13:14:34Z</time></trkpt><trkpt lat="48.328018745443266" lon="-0.8877901876769106"><ele>189.0</ele><time>2026-04-06T13:14:35Z</time></trkpt><trkpt lat="48.32817567339686" lon="-0.8875626950305419"><ele>188.33333333333334</ele><time>2026-04-06T13:14:36Z</time></trkpt><trkpt lat="48.32832269818117" lon="-0.8873154586581644"><ele>187.66666666666669</ele><time>2026-04-06T13:14:37Z</time></trkpt><trkpt lat="48.32845939826621" lon="-0.8870503574496663"><ele>187.0</ele><time>2026-04-06T13:14:38Z</time></trkpt><trkpt lat="48.32859899382506" lon="-0.8867906055213045"><ele>187.33333333333334</ele><time>2026-04-06T13:14:39Z</time></trkpt><trkpt lat="48.328741316239075" lon="-0.8865329739944505"><ele>187.66666666666666</ele><time>2026-04-06T13:14:39.999Z</time></trkpt><trkpt lat="48.32888214511782" lon="-0.8862742905081198"><ele>188.0</ele><time>2026-04-06T13:14:40.999Z</time></trkpt><trkpt lat="48.32902162934708" lon="-0.8860138168026331"><ele>187.33333333333331</ele><time>2026-04-06T13:14:41.999Z</time></trkpt><trkpt lat="48.329162380095916" lon="-0.885757015450236"><ele>186.66666666666666</ele><time>2026-04-06T13:14:42.999Z</time></trkpt><trkpt lat="48.329305868010444" lon="-0.8855028153553451"><ele>186.0</ele><time>2026-04-06T13:14:43.999Z</time></trkpt><trkpt lat="48.3294469651175" lon="-0.8852419034326195"><ele>186.0</ele><time>2026-04-06T13:14:44.999Z</time></trkpt><trkpt lat="48.3295874660807" lon="-0.8849824615630556"><ele>186.0</ele><time>2026-04-06T13:14:45.999Z</time></trkpt><trkpt lat="48.32973082886264" lon="-0.884725466274295"><ele>186.0</ele><time>2026-04-06T13:14:46.999Z</time></trkpt><trkpt lat="48.32987389953033" lon="-0.8844654148001924"><ele>186.0</ele><time>2026-04-06T13:14:47.999Z</time></trkpt><trkpt lat="48.33002330199129" lon="-0.8842067605839329"><ele>186.0</ele><time>2026-04-06T13:14:48.999Z</time></trkpt><trkpt lat="48.33017093024736" lon="-0.8839479514906833"><ele>186.0</ele><time>2026-04-06T13:14:49.999Z</time></trkpt><trkpt lat="48.33031226150621" lon="-0.8836803408458516"><ele>186.0</ele><time>2026-04-06T13:14:50.999Z</time></trkpt><trkpt lat="48.33045676523683" lon="-0.8834150783869971"><ele>186.5</ele><time>2026-04-06T13:14:51.999Z</time></trkpt><trkpt lat="48.33060047925842" lon="-0.8831484211840818"><ele>187.0</ele><time>2026-04-06T13:14:52.999Z</time></trkpt><trkpt lat="48.330744547865464" lon="-0.8828806742698876"><ele>187.0</ele><time>2026-04-06T13:14:53.999Z</time></trkpt><trkpt lat="48.330892956869384" lon="-0.8826130277730813"><ele>187.0</ele><time>2026-04-06T13:14:54.999Z</time></trkpt><trkpt lat="48.33104110648409" lon="-0.8823430676116784"><ele>187.0</ele><time>2026-04-06T13:14:55.999Z</time></trkpt><trkpt lat="48.331193386505674" lon="-0.8820732635854784"><ele>187.0</ele><time>2026-04-06T13:14:56.999Z</time></trkpt><trkpt lat="48.33134465951751" lon="-0.8818043726616673"><ele>185.0</ele><time>2026-04-06T13:14:57.999Z</time></trkpt><trkpt lat="48.33149916744854" lon="-0.8815426217544143"><ele>183.0</ele><time>2026-04-06T13:14:58.999Z</time></trkpt><trkpt lat="48.33166198118043" lon="-0.881294143236809"><ele>183.0</ele><time>2026-04-06T13:14:59.999Z</time></trkpt><trkpt lat="48.33183286437081" lon="-0.8810629230864343"><ele>183.0</ele><time>2026-04-06T13:15:00.999Z</time></trkpt><trkpt lat="48.332007145262516" lon="-0.8808385422690802"><ele>184.0</ele><time>2026-04-06T13:15:01.999Z</time></trkpt><trkpt lat="48.3321869378796" lon="-0.880624819298213"><ele>185.0</ele><time>2026-04-06T13:15:02.999Z</time></trkpt><trkpt lat="48.33237129141296" lon="-0.8804232982030783"><ele>185.0</ele><time>2026-04-06T13:15:03.999Z</time></trkpt><trkpt lat="48.33256039981771" lon="-0.8802351663668981"><ele>185.0</ele><time>2026-04-06T13:15:04.999Z</time></trkpt><trkpt lat="48.33275445029617" lon="-0.8800605659632804"><ele>185.33333333333331</ele><time>2026-04-06T13:15:05.999Z</time></trkpt><trkpt lat="48.332947706216096" lon="-0.8799009137444961"><ele>185.66666666666666</ele><time>2026-04-06T13:15:06.999Z</time></trkpt><trkpt lat="48.33314225533427" lon="-0.8797611415537726"><ele>186.0</ele><time>2026-04-06T13:15:07.999Z</time></trkpt><trkpt lat="48.333339046040265" lon="-0.8796359585162952"><ele>186.0</ele><time>2026-04-06T13:15:08.999Z</time></trkpt><trkpt lat="48.33353991353547" lon="-0.8795148195833021"><ele>186.0</ele><time>2026-04-06T13:15:10Z</time></trkpt><trkpt lat="48.333749265536696" lon="-0.8794021472585729"><ele>186.0</ele><time>2026-04-06T13:15:11Z</time></trkpt><trkpt lat="48.33396778512246" lon="-0.8793067007040214"><ele>187.0</ele><time>2026-04-06T13:15:12Z</time></trkpt><trkpt lat="48.33419360224355" lon="-0.879218673825639"><ele>188.0</ele><time>2026-04-06T13:15:13Z</time></trkpt><trkpt lat="48.33443566345256" lon="-0.8791331859053608"><ele>188.0</ele><time>2026-04-06T13:15:14Z</time></trkpt><trkpt lat="48.33469144469905" lon="-0.8790573839905149"><ele>188.0</ele><time>2026-04-06T13:15:15Z</time></trkpt><trkpt lat="48.33495906746514" lon="-0.8789774670648475"><ele>189.5</ele><time>2026-04-06T13:15:16Z</time></trkpt><trkpt lat="48.335246170570805" lon="-0.8789063145858369"><ele>191.0</ele><time>2026-04-06T13:15:17Z</time></trkpt><trkpt lat="48.33554284876682" lon="-0.8787970676777176"><ele>190.5</ele><time>2026-04-06T13:15:18Z</time></trkpt><trkpt lat="48.33585376947973" lon="-0.8786963308711315"><ele>190.0</ele><time>2026-04-06T13:15:19Z</time></trkpt><trkpt lat="48.33617773021069" lon="-0.8785913693040699"><ele>190.5</ele><time>2026-04-06T13:15:20Z</time></trkpt><trkpt lat="48.33651452716298" lon="-0.8784819833793986"><ele>191.0</ele><time>2026-04-06T13:15:21Z</time></trkpt><trkpt lat="48.336832798121186" lon="-0.8783724076719113"><ele>191.0</ele><time>2026-04-06T13:15:22Z</time></trkpt><trkpt lat="48.33712008604638" lon="-0.8782600103270882"><ele>191.0</ele><time>2026-04-06T13:15:23Z</time></trkpt><trkpt lat="48.337394858729326" lon="-0.8781703811820735"><ele>192.0</ele><time>2026-04-06T13:15:24Z</time></trkpt><trkpt lat="48.337656997774474" lon="-0.878090074971416"><ele>193.0</ele><time>2026-04-06T13:15:25Z</time></trkpt><trkpt lat="48.33790262450731" lon="-0.8780065324596603"><ele>193.0</ele><time>2026-04-06T13:15:26Z</time></trkpt><trkpt lat="48.338139939865215" lon="-0.8779259286796124"><ele>193.0</ele><time>2026-04-06T13:15:27Z</time></trkpt><trkpt lat="48.338375187124846" lon="-0.8778453810003726"><ele>193.0</ele><time>2026-04-06T13:15:28Z</time></trkpt><trkpt lat="48.33860783308011" lon="-0.8777554461365044"><ele>193.0</ele><time>2026-04-06T13:15:29Z</time></trkpt><trkpt lat="48.33883729306772" lon="-0.8776516451864309"><ele>193.0</ele><time>2026-04-06T13:15:30Z</time></trkpt><trkpt lat="48.339060302301064" lon="-0.877518972255565"><ele>193.0</ele><time>2026-04-06T13:15:31Z</time></trkpt><trkpt lat="48.33927523921396" lon="-0.8773571128173285"><ele>193.0</ele><time>2026-04-06T13:15:32Z</time></trkpt><trkpt lat="48.339481756577165" lon="-0.8771738549871239"><ele>193.0</ele><time>2026-04-06T13:15:33Z</time></trkpt><trkpt lat="48.339683205547665" lon="-0.8769775774935942"><ele>193.5</ele><time>2026-04-06T13:15:34Z</time></trkpt><trkpt lat="48.33987497915319" lon="-0.8767619308317589"><ele>194.0</ele><time>2026-04-06T13:15:35Z</time></trkpt><trkpt lat="48.340063095699435" lon="-0.8765316109923132"><ele>194.0</ele><time>2026-04-06T13:15:36Z</time></trkpt><trkpt lat="48.340237519171126" lon="-0.876284126560619"><ele>194.0</ele><time>2026-04-06T13:15:37Z</time></trkpt><trkpt lat="48.34039587552595" lon="-0.87601680235067"><ele>194.0</ele><time>2026-04-06T13:15:38Z</time></trkpt><trkpt lat="48.34054747039643" lon="-0.8757417748360828"><ele>194.0</ele><time>2026-04-06T13:15:39Z</time></trkpt><trkpt lat="48.34069653429005" lon="-0.875462888988314"><ele>195.5</ele><time>2026-04-06T13:15:40Z</time></trkpt><trkpt lat="48.34083681022062" lon="-0.8751751437326392"><ele>197.0</ele><time>2026-04-06T13:15:41Z</time></trkpt><trkpt lat="48.340975418638614" lon="-0.8748851011699523"><ele>198.0</ele><time>2026-04-06T13:15:42Z</time></trkpt><trkpt lat="48.34111529867014" lon="-0.8745987783993588"><ele>199.0</ele><time>2026-04-06T13:15:43Z</time></trkpt><trkpt lat="48.341233521702556" lon="-0.8742926094265113"><ele>198.0</ele><time>2026-04-06T13:15:44Z</time></trkpt><trkpt lat="48.34136499792398" lon="-0.8740056959092288"><ele>197.0</ele><time>2026-04-06T13:15:45Z</time></trkpt><trkpt lat="48.34143110763235" lon="-0.8736418304897748"><ele>199.5</ele><time>2026-04-06T13:15:46Z</time></trkpt><trkpt lat="48.34150649983235" lon="-0.8732992435147988"><ele>202.0</ele><time>2026-04-06T13:15:47Z</time></trkpt><trkpt lat="48.34157240616415" lon="-0.8729513246159541"><ele>201.0</ele><time>2026-04-06T13:15:48Z</time></trkpt><trkpt lat="48.34163024269068" lon="-0.8725986921776894"><ele>200.0</ele><time>2026-04-06T13:15:49Z</time></trkpt><trkpt lat="48.34167634596693" lon="-0.8722620699044841"><ele>200.0</ele><time>2026-04-06T13:15:50Z</time></trkpt><trkpt lat="48.34171619739971" lon="-0.8719418111452454"><ele>200.0</ele><time>2026-04-06T13:15:51Z</time></trkpt><trkpt lat="48.341753434040264" lon="-0.8716373793689965"><ele>200.0</ele><time>2026-04-06T13:15:52Z</time></trkpt><trkpt lat="48.3417897020197" lon="-0.8713502392506112"><ele>200.0</ele><time>2026-04-06T13:15:53Z</time></trkpt><trkpt lat="48.341825436390906" lon="-0.871078203967459"><ele>200.0</ele><time>2026-04-06T13:15:54Z</time></trkpt><trkpt lat="48.34185667036395" lon="-0.8708285448252877"><ele>200.0</ele><time>2026-04-06T13:15:55Z</time></trkpt><trkpt lat="48.34189002259199" lon="-0.870597924878672"><ele>200.0</ele><time>2026-04-06T13:15:56Z</time></trkpt><trkpt lat="48.34193351737473" lon="-0.8703861230950193"><ele>200.0</ele><time>2026-04-06T13:15:57Z</time></trkpt><trkpt lat="48.34198639518337" lon="-0.8701962583172383"><ele>200.0</ele><time>2026-04-06T13:15:58Z</time></trkpt><trkpt lat="48.34204977765198" lon="-0.8700358870598889"><ele>200.0</ele><time>2026-04-06T13:15:59Z</time></trkpt><trkpt lat="48.34211542287749" lon="-0.8698963550279836"><ele>200.2</ele><time>2026-04-06T13:16:00Z</time></trkpt><trkpt lat="48.34218078404863" lon="-0.8697731102301274"><ele>200.4</ele><time>2026-04-06T13:16:01Z</time></trkpt><trkpt lat="48.342244208177775" lon="-0.8696618042460484"><ele>200.60000000000002</ele><time>2026-04-06T13:16:02Z</time></trkpt><trkpt lat="48.34229501781803" lon="-0.8695431014946476"><ele>200.8</ele><time>2026-04-06T13:16:03Z</time></trkpt><trkpt lat="48.34232181490604" lon="-0.8694083976514113"><ele>201.0</ele><time>2026-04-06T13:16:04Z</time></trkpt><trkpt lat="48.34233097805812" lon="-0.8692660049697418"><ele>202.0</ele><time>2026-04-06T13:16:05Z</time></trkpt><trkpt lat="48.34236892050055" lon="-0.8691333814480047"><ele>203.0</ele><time>2026-04-06T13:16:06Z</time></trkpt><trkpt lat="48.342438297173196" lon="-0.8690417765213454"><ele>204.0</ele><time>2026-04-06T13:16:07Z</time></trkpt><trkpt lat="48.34252441054267" lon="-0.8689870981205785"><ele>205.0</ele><time>2026-04-06T13:16:08Z</time></trkpt><trkpt lat="48.342621314427454" lon="-0.868982393745981"><ele>206.0</ele><time>2026-04-06T13:16:09Z</time></trkpt><trkpt lat="48.34271695441723" lon="-0.8690242657287082"><ele>206.0</ele><time>2026-04-06T13:16:10Z</time></trkpt><trkpt lat="48.34283522263948" lon="-0.8690702887515253"><ele>206.0</ele><time>2026-04-06T13:16:11Z</time></trkpt><trkpt lat="48.34296081632569" lon="-0.8690521030174726"><ele>206.0</ele><time>2026-04-06T13:16:12Z</time></trkpt><trkpt lat="48.343112081278555" lon="-0.8690086904082693"><ele>206.0</ele><time>2026-04-06T13:16:13Z</time></trkpt><trkpt lat="48.3433069090523" lon="-0.8689217025606293"><ele>206.33333333333334</ele><time>2026-04-06T13:16:14Z</time></trkpt><trkpt lat="48.343491847088764" lon="-0.8687796613288183"><ele>206.66666666666669</ele><time>2026-04-06T13:16:15Z</time></trkpt><trkpt lat="48.34367618764064" lon="-0.8685983628833966"><ele>207.0</ele><time>2026-04-06T13:16:16Z</time></trkpt><trkpt lat="48.34385316471886" lon="-0.8683686052940146"><ele>208.5</ele><time>2026-04-06T13:16:17Z</time></trkpt><trkpt lat="48.34400955061505" lon="-0.8681090820777628"><ele>210.0</ele><time>2026-04-06T13:16:18Z</time></trkpt><trkpt lat="48.34415260240466" lon="-0.8678194332100949"><ele>211.5</ele><time>2026-04-06T13:16:19Z</time></trkpt><trkpt lat="48.34427800180769" lon="-0.8675074624995772"><ele>213.0</ele><time>2026-04-06T13:16:20Z</time></trkpt><trkpt lat="48.344390252110294" lon="-0.8671942527614621"><ele>213.0</ele><time>2026-04-06T13:16:21Z</time></trkpt><trkpt lat="48.344496218115886" lon="-0.8668884458895377"><ele>213.0</ele><time>2026-04-06T13:16:22Z</time></trkpt><trkpt lat="48.34460550769669" lon="-0.8665909928030102"><ele>214.33333333333331</ele><time>2026-04-06T13:16:23Z</time></trkpt><trkpt lat="48.3447133016641" lon="-0.8662970750050284"><ele>215.66666666666666</ele><time>2026-04-06T13:16:24Z</time></trkpt><trkpt lat="48.34482225967708" lon="-0.8660073109148262"><ele>217.0</ele><time>2026-04-06T13:16:25Z</time></trkpt><trkpt lat="48.344931792418016" lon="-0.8657218493689093"><ele>218.33333333333331</ele><time>2026-04-06T13:16:26Z</time></trkpt><trkpt lat="48.34503580598947" lon="-0.8654408811753939"><ele>219.66666666666669</ele><time>2026-04-06T13:16:27Z</time></trkpt><trkpt lat="48.34513918858967" lon="-0.8651623601788241"><ele>221.0</ele><time>2026-04-06T13:16:28Z</time></trkpt><trkpt lat="48.3452385964231" lon="-0.8648816232510989"><ele>221.66666666666669</ele><time>2026-04-06T13:16:29Z</time></trkpt><trkpt lat="48.34533308535019" lon="-0.8646143768740133"><ele>222.33333333333331</ele><time>2026-04-06T13:16:30Z</time></trkpt><trkpt lat="48.34541329961642" lon="-0.8643584481237789"><ele>223.0</ele><time>2026-04-06T13:16:31Z</time></trkpt><trkpt lat="48.345470675670846" lon="-0.8640915867123088"><ele>223.66666666666666</ele><time>2026-04-06T13:16:32Z</time></trkpt><trkpt lat="48.34553262519214" lon="-0.8638275999088452"><ele>224.33333333333331</ele><time>2026-04-06T13:16:33Z</time></trkpt><trkpt lat="48.34558366348855" lon="-0.8635580764772881"><ele>225.0</ele><time>2026-04-06T13:16:34Z</time></trkpt><trkpt lat="48.345621026202465" lon="-0.8632957503810225"><ele>226.0</ele><time>2026-04-06T13:16:35Z</time></trkpt><trkpt lat="48.34564422826502" lon="-0.8630486087205745"><ele>227.0</ele><time>2026-04-06T13:16:36Z</time></trkpt><trkpt lat="48.34567954507823" lon="-0.8628193186729247"><ele>228.0</ele><time>2026-04-06T13:16:37Z</time></trkpt><trkpt lat="48.34571250168349" lon="-0.8626002488054432"><ele>228.75</ele><time>2026-04-06T13:16:38Z</time></trkpt><trkpt lat="48.345737643097436" lon="-0.8624026375946291"><ele>229.5</ele><time>2026-04-06T13:16:39Z</time></trkpt><trkpt lat="48.34575507999617" lon="-0.862201512439108"><ele>230.25</ele><time>2026-04-06T13:16:40Z</time></trkpt><trkpt lat="48.34577563354058" lon="-0.8620039583474656"><ele>231.0</ele><time>2026-04-06T13:16:41Z</time></trkpt><trkpt lat="48.34579296137083" lon="-0.8618108201441728"><ele>231.5</ele><time>2026-04-06T13:16:42Z</time></trkpt><trkpt lat="48.34581144223229" lon="-0.8616221441562406"><ele>232.0</ele><time>2026-04-06T13:16:43Z</time></trkpt><trkpt lat="48.345830168534896" lon="-0.8614340810109155"><ele>232.5</ele><time>2026-04-06T13:16:44Z</time></trkpt><trkpt lat="48.3458481012016" lon="-0.8612479468570914"><ele>233.0</ele><time>2026-04-06T13:16:45Z</time></trkpt><trkpt lat="48.34586538814653" lon="-0.8610604880472958"><ele>233.75</ele><time>2026-04-06T13:16:46Z</time></trkpt><trkpt lat="48.34588380283303" lon="-0.8608749738760865"><ele>234.5</ele><time>2026-04-06T13:16:47Z</time></trkpt><trkpt lat="48.345896913063726" lon="-0.8606898111159607"><ele>235.25</ele><time>2026-04-06T13:16:48Z</time></trkpt><trkpt lat="48.345914141550274" lon="-0.8605112947290806"><ele>236.0</ele><time>2026-04-06T13:16:49Z</time></trkpt><trkpt lat="48.345930612861856" lon="-0.8603458279815112"><ele>236.0</ele><time>2026-04-06T13:16:50Z</time></trkpt><trkpt lat="48.34594991099976" lon="-0.8601896239343371"><ele>236.00000000000003</ele><time>2026-04-06T13:16:51Z</time></trkpt><trkpt lat="48.34596292394873" lon="-0.8600373915136522"><ele>236.00000000000003</ele><time>2026-04-06T13:16:51.999Z</time></trkpt><trkpt lat="48.34597410852034" lon="-0.8598966068634617"><ele>236.0</ele><time>2026-04-06T13:16:52.999Z</time></trkpt><trkpt lat="48.3459907121155" lon="-0.8597693759132918"><ele>236.0</ele><time>2026-04-06T13:16:53.999Z</time></trkpt><trkpt lat="48.34600586279951" lon="-0.8596553586302185"><ele>236.4</ele><time>2026-04-06T13:16:54.999Z</time></trkpt><trkpt lat="48.34601376967527" lon="-0.859549341461436"><ele>236.8</ele><time>2026-04-06T13:16:55.999Z</time></trkpt><trkpt lat="48.346017328629586" lon="-0.8594538210895861"><ele>237.20000000000002</ele><time>2026-04-06T13:16:56.999Z</time></trkpt><trkpt lat="48.346038780424664" lon="-0.8592992113243498"><ele>237.60000000000002</ele><time>2026-04-06T13:16:58.999Z</time></trkpt><trkpt lat="48.346225689147786" lon="-0.8592491487976861"><ele>238.0</ele><time>2026-04-06T13:17:00.999Z</time></trkpt><trkpt lat="48.34634104950084" lon="-0.8592648740194982"><ele>238.25</ele><time>2026-04-06T13:17:01.999Z</time></trkpt><trkpt lat="48.34645429698062" lon="-0.8593088343257138"><ele>238.5</ele><time>2026-04-06T13:17:02.999Z</time></trkpt><trkpt lat="48.34657941091236" lon="-0.8593868534581647"><ele>238.75</ele><time>2026-04-06T13:17:03.999Z</time></trkpt><trkpt lat="48.34671642272611" lon="-0.8594648107928354"><ele>239.0</ele><time>2026-04-06T13:17:04.999Z</time></trkpt><trkpt lat="48.34685612614154" lon="-0.8595491278256544"><ele>239.0</ele><time>2026-04-06T13:17:05.999Z</time></trkpt><trkpt lat="48.34698841111928" lon="-0.8596381617446717"><ele>239.0</ele><time>2026-04-06T13:17:06.999Z</time></trkpt><trkpt lat="48.34714341917277" lon="-0.8597233071782143"><ele>239.0</ele><time>2026-04-06T13:17:07.999Z</time></trkpt><trkpt lat="48.3472980212405" lon="-0.8598420527710117"><ele>239.33333333333334</ele><time>2026-04-06T13:17:08.999Z</time></trkpt><trkpt lat="48.34745454876045" lon="-0.8599636109827609"><ele>239.66666666666669</ele><time>2026-04-06T13:17:09.999Z</time></trkpt><trkpt lat="48.34760286023381" lon="-0.860098375390706"><ele>240.0</ele><time>2026-04-06T13:17:10.999Z</time></trkpt><trkpt lat="48.34776137337757" lon="-0.8602093917721568"><ele>239.0</ele><time>2026-04-06T13:17:11.999Z</time></trkpt><trkpt lat="48.34792313444068" lon="-0.860317725712638"><ele>238.0</ele><time>2026-04-06T13:17:12.999Z</time></trkpt><trkpt lat="48.34809317207377" lon="-0.8603971070387506"><ele>237.0</ele><time>2026-04-06T13:17:13.999Z</time></trkpt><trkpt lat="48.34825916012992" lon="-0.8604919407280153"><ele>237.0</ele><time>2026-04-06T13:17:14.999Z</time></trkpt><trkpt lat="48.3484246867217" lon="-0.8605848934056483"><ele>237.0</ele><time>2026-04-06T13:17:16Z</time></trkpt><trkpt lat="48.348588874786564" lon="-0.8606715841100421"><ele>237.0</ele><time>2026-04-06T13:17:17Z</time></trkpt><trkpt lat="48.348752880974104" lon="-0.8607593849235798"><ele>237.0</ele><time>2026-04-06T13:17:18Z</time></trkpt><trkpt lat="48.34891790934738" lon="-0.8608470072168223"><ele>237.0</ele><time>2026-04-06T13:17:19Z</time></trkpt><trkpt lat="48.349082760703446" lon="-0.8609355607321614"><ele>237.0</ele><time>2026-04-06T13:17:20Z</time></trkpt><trkpt lat="48.349247635290816" lon="-0.8610280964084751"><ele>236.33333333333331</ele><time>2026-04-06T13:17:21Z</time></trkpt><trkpt lat="48.34941400312149" lon="-0.8611230953106876"><ele>235.66666666666666</ele><time>2026-04-06T13:17:22Z</time></trkpt><trkpt lat="48.34958305761257" lon="-0.8612153102126419"><ele>235.0</ele><time>2026-04-06T13:17:23Z</time></trkpt><trkpt lat="48.34975235515454" lon="-0.861305904117"><ele>234.33333333333331</ele><time>2026-04-06T13:17:24Z</time></trkpt><trkpt lat="48.34992073591824" lon="-0.8614009997396233"><ele>233.66666666666669</ele><time>2026-04-06T13:17:25Z</time></trkpt><trkpt lat="48.35008688467006" lon="-0.8614993063317219"><ele>233.0</ele><time>2026-04-06T13:17:26Z</time></trkpt><trkpt lat="48.3502480533154" lon="-0.8615978950319343"><ele>233.0</ele><time>2026-04-06T13:17:27Z</time></trkpt><trkpt lat="48.35040801875987" lon="-0.8616968772537076"><ele>233.0</ele><time>2026-04-06T13:17:28Z</time></trkpt><trkpt lat="48.350570491519" lon="-0.8617987027645705"><ele>233.0</ele><time>2026-04-06T13:17:29Z</time></trkpt><trkpt lat="48.35073752214637" lon="-0.8618982746807716"><ele>232.0</ele><time>2026-04-06T13:17:30Z</time></trkpt><trkpt lat="48.350915051379246" lon="-0.8619595079064284"><ele>231.0</ele><time>2026-04-06T13:17:31Z</time></trkpt><trkpt lat="48.351104834333334" lon="-0.8619754612266185"><ele>230.0</ele><time>2026-04-06T13:17:32Z</time></trkpt><trkpt lat="48.35129333028518" lon="-0.8619618315517666"><ele>231.66666666666669</ele><time>2026-04-06T13:17:33Z</time></trkpt><trkpt lat="48.35148419378419" lon="-0.8619498004460431"><ele>233.33333333333331</ele><time>2026-04-06T13:17:34Z</time></trkpt><trkpt lat="48.35167717370245" lon="-0.861961224062723"><ele>235.0</ele><time>2026-04-06T13:17:35Z</time></trkpt><trkpt lat="48.35188257099904" lon="-0.8619931524895348"><ele>235.0</ele><time>2026-04-06T13:17:36Z</time></trkpt><trkpt lat="48.352085889986554" lon="-0.862021039711001"><ele>235.0</ele><time>2026-04-06T13:17:37Z</time></trkpt><trkpt lat="48.35229235746439" lon="-0.8620475158998401"><ele>235.0</ele><time>2026-04-06T13:17:38Z</time></trkpt><trkpt lat="48.352499081697" lon="-0.8620676444568364"><ele>235.33333333333331</ele><time>2026-04-06T13:17:39Z</time></trkpt><trkpt lat="48.352712634525325" lon="-0.8620885328999669"><ele>235.66666666666669</ele><time>2026-04-06T13:17:40Z</time></trkpt><trkpt lat="48.35292810526187" lon="-0.8620988856708399"><ele>236.0</ele><time>2026-04-06T13:17:41Z</time></trkpt><trkpt lat="48.353144157509185" lon="-0.8620932227902516"><ele>236.0</ele><time>2026-04-06T13:17:42Z</time></trkpt><trkpt lat="48.35336060753695" lon="-0.8620873977487433"><ele>236.0</ele><time>2026-04-06T13:17:43Z</time></trkpt><trkpt lat="48.353580881707636" lon="-0.8620940106162288"><ele>236.0</ele><time>2026-04-06T13:17:44Z</time></trkpt><trkpt lat="48.353801566732955" lon="-0.8620648127413273"><ele>235.5</ele><time>2026-04-06T13:17:45Z</time></trkpt><trkpt lat="48.35402092773479" lon="-0.8619800326270584"><ele>235.0</ele><time>2026-04-06T13:17:46Z</time></trkpt><trkpt lat="48.354232748291295" lon="-0.8618474235694866"><ele>232.5</ele><time>2026-04-06T13:17:47Z</time></trkpt><trkpt lat="48.35444885626225" lon="-0.8617151564337419"><ele>230.0</ele><time>2026-04-06T13:17:48Z</time></trkpt><trkpt lat="48.354673174241576" lon="-0.8616174663100378"><ele>231.0</ele><time>2026-04-06T13:17:49Z</time></trkpt><trkpt lat="48.35490120102083" lon="-0.8615435154566098"><ele>232.0</ele><time>2026-04-06T13:17:50Z</time></trkpt><trkpt lat="48.35512586581699" lon="-0.8614851255344751"><ele>232.0</ele><time>2026-04-06T13:17:51Z</time></trkpt><trkpt lat="48.35535310319806" lon="-0.8614322006912875"><ele>232.0</ele><time>2026-04-06T13:17:52Z</time></trkpt><trkpt lat="48.3555846342607" lon="-0.8613722194676258"><ele>232.0</ele><time>2026-04-06T13:17:53Z</time></trkpt><trkpt lat="48.355805968996535" lon="-0.86131138646682"><ele>232.0</ele><time>2026-04-06T13:17:54Z</time></trkpt><trkpt lat="48.35602216680141" lon="-0.8612492430370231"><ele>232.0</ele><time>2026-04-06T13:17:55Z</time></trkpt><trkpt lat="48.35624182143635" lon="-0.8611874777486574"><ele>230.5</ele><time>2026-04-06T13:17:56Z</time></trkpt><trkpt lat="48.35646556152006" lon="-0.861133305138625"><ele>229.0</ele><time>2026-04-06T13:17:57Z</time></trkpt><trkpt lat="48.356697154333006" lon="-0.8611174538898738"><ele>229.0</ele><time>2026-04-06T13:17:58Z</time></trkpt><trkpt lat="48.35693925538461" lon="-0.8611072869489917"><ele>229.0</ele><time>2026-04-06T13:17:59Z</time></trkpt><trkpt lat="48.357172614593566" lon="-0.861112334240466"><ele>226.0</ele><time>2026-04-06T13:18:00Z</time></trkpt><trkpt lat="48.35740307114059" lon="-0.8611406493934302"><ele>223.0</ele><time>2026-04-06T13:18:01Z</time></trkpt><trkpt lat="48.3576400113444" lon="-0.8611817062229251"><ele>223.0</ele><time>2026-04-06T13:18:02Z</time></trkpt><trkpt lat="48.35787234687136" lon="-0.8612333786469797"><ele>223.0</ele><time>2026-04-06T13:18:03Z</time></trkpt><trkpt lat="48.3580996111218" lon="-0.8612899631088231"><ele>221.0</ele><time>2026-04-06T13:18:04Z</time></trkpt><trkpt lat="48.35832878097309" lon="-0.8613470322553942"><ele>219.0</ele><time>2026-04-06T13:18:05Z</time></trkpt><trkpt lat="48.35855581078044" lon="-0.861392211882845"><ele>219.0</ele><time>2026-04-06T13:18:06Z</time></trkpt><trkpt lat="48.35878291243809" lon="-0.8614486373215414"><ele>219.0</ele><time>2026-04-06T13:18:07Z</time></trkpt><trkpt lat="48.359010145364905" lon="-0.8614967110047613"><ele>216.5</ele><time>2026-04-06T13:18:08Z</time></trkpt><trkpt lat="48.35924067932614" lon="-0.8615125658112369"><ele>214.0</ele><time>2026-04-06T13:18:09Z</time></trkpt><trkpt lat="48.35947377580206" lon="-0.8615087715257801"><ele>214.0</ele><time>2026-04-06T13:18:10Z</time></trkpt><trkpt lat="48.35970952718266" lon="-0.861489330810862"><ele>214.0</ele><time>2026-04-06T13:18:11Z</time></trkpt><trkpt lat="48.35994832469705" lon="-0.8614429269185515"><ele>214.0</ele><time>2026-04-06T13:18:12Z</time></trkpt><trkpt lat="48.360183498900895" lon="-0.8613798899337539"><ele>214.0</ele><time>2026-04-06T13:18:13Z</time></trkpt><trkpt lat="48.36041270518463" lon="-0.8612865526674444"><ele>216.0</ele><time>2026-04-06T13:18:14Z</time></trkpt><trkpt lat="48.36063143181359" lon="-0.8611682435348552"><ele>218.0</ele><time>2026-04-06T13:18:15Z</time></trkpt><trkpt lat="48.36084590396001" lon="-0.8610376677280728"><ele>216.0</ele><time>2026-04-06T13:18:16Z</time></trkpt><trkpt lat="48.361051561204725" lon="-0.8608809736011838"><ele>214.0</ele><time>2026-04-06T13:18:17Z</time></trkpt><trkpt lat="48.36125202055877" lon="-0.8607086301226085"><ele>214.0</ele><time>2026-04-06T13:18:18Z</time></trkpt><trkpt lat="48.36144575405447" lon="-0.8605145181305033"><ele>214.0</ele><time>2026-04-06T13:18:19Z</time></trkpt><trkpt lat="48.36163084214511" lon="-0.8602969715559061"><ele>214.0</ele><time>2026-04-06T13:18:20Z</time></trkpt><trkpt lat="48.36180607929519" lon="-0.86006105990333"><ele>214.0</ele><time>2026-04-06T13:18:21Z</time></trkpt><trkpt lat="48.3619711164108" lon="-0.8598075694517222"><ele>214.0</ele><time>2026-04-06T13:18:22Z</time></trkpt><trkpt lat="48.362123494787475" lon="-0.8595356197125278"><ele>214.0</ele><time>2026-04-06T13:18:23Z</time></trkpt><trkpt lat="48.362272342211675" lon="-0.8592596832122705"><ele>213.5</ele><time>2026-04-06T13:18:24Z</time></trkpt><trkpt lat="48.36241904968108" lon="-0.8589843249938336"><ele>213.0</ele><time>2026-04-06T13:18:25Z</time></trkpt><trkpt lat="48.36256335181611" lon="-0.8587067645824483"><ele>213.5</ele><time>2026-04-06T13:18:26Z</time></trkpt><trkpt lat="48.36270706396363" lon="-0.8584300142663045"><ele>214.0</ele><time>2026-04-06T13:18:27Z</time></trkpt><trkpt lat="48.36285326334021" lon="-0.8581579967954447"><ele>214.0</ele><time>2026-04-06T13:18:28Z</time></trkpt><trkpt lat="48.36299861491562" lon="-0.8578848052988014"><ele>214.0</ele><time>2026-04-06T13:18:29Z</time></trkpt><trkpt lat="48.363143943805206" lon="-0.8576081150322328"><ele>213.5</ele><time>2026-04-06T13:18:30Z</time></trkpt><trkpt lat="48.36328878433823" lon="-0.8573306315358146"><ele>213.0</ele><time>2026-04-06T13:18:31Z</time></trkpt><trkpt lat="48.36343508316165" lon="-0.8570530229154192"><ele>212.0</ele><time>2026-04-06T13:18:32Z</time></trkpt><trkpt lat="48.36358011413221" lon="-0.8567762206554864"><ele>211.0</ele><time>2026-04-06T13:18:33Z</time></trkpt><trkpt lat="48.36372852709112" lon="-0.8565021825920116"><ele>211.0</ele><time>2026-04-06T13:18:34Z</time></trkpt><trkpt lat="48.36387500196237" lon="-0.8562256166936104"><ele>211.0</ele><time>2026-04-06T13:18:35Z</time></trkpt><trkpt lat="48.36401489250497" lon="-0.8559446808652358"><ele>211.0</ele><time>2026-04-06T13:18:36Z</time></trkpt><trkpt lat="48.364155149706995" lon="-0.8556659166701226"><ele>211.0</ele><time>2026-04-06T13:18:37Z</time></trkpt><trkpt lat="48.364299968825996" lon="-0.8553924532476105"><ele>211.0</ele><time>2026-04-06T13:18:38Z</time></trkpt><trkpt lat="48.36444607701485" lon="-0.8551223264869562"><ele>211.0</ele><time>2026-04-06T13:18:39Z</time></trkpt><trkpt lat="48.36459126209407" lon="-0.8548491282730342"><ele>211.5</ele><time>2026-04-06T13:18:40Z</time></trkpt><trkpt lat="48.36473397205739" lon="-0.85457306541795"><ele>212.0</ele><time>2026-04-06T13:18:41Z</time></trkpt><trkpt lat="48.36487772719147" lon="-0.8542963181120241"><ele>210.5</ele><time>2026-04-06T13:18:42Z</time></trkpt><trkpt lat="48.3650234124919" lon="-0.8540200863073762"><ele>209.0</ele><time>2026-04-06T13:18:43Z</time></trkpt><trkpt lat="48.36516544222752" lon="-0.8537413480567061"><ele>209.0</ele><time>2026-04-06T13:18:44Z</time></trkpt><trkpt lat="48.36530782266914" lon="-0.8534628725287137"><ele>209.0</ele><time>2026-04-06T13:18:45Z</time></trkpt><trkpt lat="48.36545330371822" lon="-0.8531871075550981"><ele>209.5</ele><time>2026-04-06T13:18:46Z</time></trkpt><trkpt lat="48.36559813694411" lon="-0.8529115433501728"><ele>210.0</ele><time>2026-04-06T13:18:47Z</time></trkpt><trkpt lat="48.365743385981034" lon="-0.8526360132131875"><ele>208.5</ele><time>2026-04-06T13:18:48Z</time></trkpt><trkpt lat="48.365884789837104" lon="-0.8523551003141706"><ele>207.0</ele><time>2026-04-06T13:18:49Z</time></trkpt><trkpt lat="48.36603071336546" lon="-0.8520755947845334"><ele>207.0</ele><time>2026-04-06T13:18:50Z</time></trkpt><trkpt lat="48.36618043285425" lon="-0.8518040660886794"><ele>207.0</ele><time>2026-04-06T13:18:51Z</time></trkpt><trkpt lat="48.366334866012785" lon="-0.8515350477308664"><ele>207.0</ele><time>2026-04-06T13:18:52Z</time></trkpt><trkpt lat="48.36649828893678" lon="-0.8512736620446265"><ele>207.0</ele><time>2026-04-06T13:18:53Z</time></trkpt><trkpt lat="48.36667057316354" lon="-0.85102330679788"><ele>206.0</ele><time>2026-04-06T13:18:54Z</time></trkpt><trkpt lat="48.36685066013921" lon="-0.850785398802851"><ele>205.0</ele><time>2026-04-06T13:18:55Z</time></trkpt><trkpt lat="48.36703419089525" lon="-0.8505537332113499"><ele>204.5</ele><time>2026-04-06T13:18:56Z</time></trkpt><trkpt lat="48.367224614455914" lon="-0.8503368653341732"><ele>204.0</ele><time>2026-04-06T13:18:57Z</time></trkpt><trkpt lat="48.36742092842132" lon="-0.8501345429833157"><ele>202.5</ele><time>2026-04-06T13:18:58Z</time></trkpt><trkpt lat="48.36761449071384" lon="-0.8499235735173649"><ele>201.0</ele><time>2026-04-06T13:18:59Z</time></trkpt><trkpt lat="48.36781172032533" lon="-0.8497153865012881"><ele>201.0</ele><time>2026-04-06T13:19:00Z</time></trkpt><trkpt lat="48.36801518995669" lon="-0.8495123579527547"><ele>201.0</ele><time>2026-04-06T13:19:01Z</time></trkpt><trkpt lat="48.36821039862059" lon="-0.849304788482781"><ele>201.5</ele><time>2026-04-06T13:19:02Z</time></trkpt><trkpt lat="48.3684108486345" lon="-0.8491026560766729"><ele>202.0</ele><time>2026-04-06T13:19:03Z</time></trkpt><trkpt lat="48.36861022263518" lon="-0.848900092858742"><ele>202.0</ele><time>2026-04-06T13:19:04Z</time></trkpt><trkpt lat="48.368804462725514" lon="-0.8486933672038401"><ele>202.0</ele><time>2026-04-06T13:19:05Z</time></trkpt><trkpt lat="48.368997285229426" lon="-0.848484697792523"><ele>202.0</ele><time>2026-04-06T13:19:06Z</time></trkpt><trkpt lat="48.36919087968741" lon="-0.8482800821653109"><ele>202.0</ele><time>2026-04-06T13:19:07Z</time></trkpt><trkpt lat="48.36938617189872" lon="-0.8480770145551315"><ele>202.0</ele><time>2026-04-06T13:19:08Z</time></trkpt><trkpt lat="48.36958129512397" lon="-0.8478684314646301"><ele>202.0</ele><time>2026-04-06T13:19:09Z</time></trkpt><trkpt lat="48.3697741567918" lon="-0.8476564234141861"><ele>201.0</ele><time>2026-04-06T13:19:10Z</time></trkpt><trkpt lat="48.36997059237543" lon="-0.8474494060602117"><ele>200.0</ele><time>2026-04-06T13:19:11Z</time></trkpt><trkpt lat="48.370165945832824" lon="-0.8472410577404239"><ele>200.0</ele><time>2026-04-06T13:19:12Z</time></trkpt><trkpt lat="48.370361700404004" lon="-0.8470297374787069"><ele>200.0</ele><time>2026-04-06T13:19:13Z</time></trkpt><trkpt lat="48.37055836887851" lon="-0.8468206202880925"><ele>200.5</ele><time>2026-04-06T13:19:14Z</time></trkpt><trkpt lat="48.370755066156946" lon="-0.8466137009088884"><ele>201.0</ele><time>2026-04-06T13:19:15Z</time></trkpt><trkpt lat="48.3709536306939" lon="-0.8464056600240899"><ele>201.0</ele><time>2026-04-06T13:19:16Z</time></trkpt><trkpt lat="48.371150094991144" lon="-0.8461961436229782"><ele>201.0</ele><time>2026-04-06T13:19:17Z</time></trkpt><trkpt lat="48.37134498574612" lon="-0.8459886446875127"><ele>201.5</ele><time>2026-04-06T13:19:18Z</time></trkpt><trkpt lat="48.371545885907906" lon="-0.8457814026708177"><ele>202.0</ele><time>2026-04-06T13:19:19Z</time></trkpt><trkpt lat="48.37174335894345" lon="-0.8455734523957172"><ele>202.0</ele><time>2026-04-06T13:19:20Z</time></trkpt><trkpt lat="48.37194108139725" lon="-0.8453634543581838"><ele>202.0</ele><time>2026-04-06T13:19:21Z</time></trkpt><trkpt lat="48.37213812984148" lon="-0.8451540160540898"><ele>201.5</ele><time>2026-04-06T13:19:22Z</time></trkpt><trkpt lat="48.3723359377576" lon="-0.8449442827320788"><ele>201.0</ele><time>2026-04-06T13:19:23Z</time></trkpt><trkpt lat="48.37253436449966" lon="-0.8447367786425314"><ele>201.0</ele><time>2026-04-06T13:19:24Z</time></trkpt><trkpt lat="48.37273435949672" lon="-0.8445283733227211"><ele>201.0</ele><time>2026-04-06T13:19:25Z</time></trkpt><trkpt lat="48.37293264660498" lon="-0.8443163323374112"><ele>202.0</ele><time>2026-04-06T13:19:26Z</time></trkpt><trkpt lat="48.373128490884234" lon="-0.844106982258401"><ele>203.0</ele><time>2026-04-06T13:19:27Z</time></trkpt><trkpt lat="48.373327651054275" lon="-0.8438906948431552"><ele>203.0</ele><time>2026-04-06T13:19:28Z</time></trkpt><trkpt lat="48.373529223051044" lon="-0.8436826003202451"><ele>203.0</ele><time>2026-04-06T13:19:29Z</time></trkpt><trkpt lat="48.37373052087428" lon="-0.8434776212823908"><ele>203.0</ele><time>2026-04-06T13:19:30Z</time></trkpt><trkpt lat="48.373934338684215" lon="-0.8432770857857033"><ele>203.0</ele><time>2026-04-06T13:19:31Z</time></trkpt><trkpt lat="48.3741444156436" lon="-0.8430906693492731"><ele>203.0</ele><time>2026-04-06T13:19:32Z</time></trkpt><trkpt lat="48.374356485681105" lon="-0.8429104225297662"><ele>203.0</ele><time>2026-04-06T13:19:33Z</time></trkpt><trkpt lat="48.37457256041088" lon="-0.8427464599537766"><ele>201.0</ele><time>2026-04-06T13:19:34Z</time></trkpt><trkpt lat="48.37479464282458" lon="-0.842594864218637"><ele>199.0</ele><time>2026-04-06T13:19:35Z</time></trkpt><trkpt lat="48.37501380131195" lon="-0.8424458142660853"><ele>199.0</ele><time>2026-04-06T13:19:36Z</time></trkpt><trkpt lat="48.375239582630996" lon="-0.8423129210255942"><ele>199.0</ele><time>2026-04-06T13:19:37Z</time></trkpt><trkpt lat="48.37546741382856" lon="-0.8421911511952728"><ele>196.0</ele><time>2026-04-06T13:19:38Z</time></trkpt><trkpt lat="48.37569609617442" lon="-0.8420634649123687"><ele>193.0</ele><time>2026-04-06T13:19:39Z</time></trkpt><trkpt lat="48.37592063522104" lon="-0.8419272590717413"><ele>194.0</ele><time>2026-04-06T13:19:40Z</time></trkpt><trkpt lat="48.37615818410132" lon="-0.8417964815168445"><ele>195.0</ele><time>2026-04-06T13:19:41Z</time></trkpt><trkpt lat="48.37639574054156" lon="-0.8416661846536047"><ele>193.0</ele><time>2026-04-06T13:19:42Z</time></trkpt><trkpt lat="48.37663157182415" lon="-0.84153504424971"><ele>191.0</ele><time>2026-04-06T13:19:43Z</time></trkpt><trkpt lat="48.37686780379263" lon="-0.8413996222893666"><ele>191.0</ele><time>2026-04-06T13:19:44Z</time></trkpt><trkpt lat="48.37710554474223" lon="-0.8412667571795907"><ele>191.0</ele><time>2026-04-06T13:19:45Z</time></trkpt><trkpt lat="48.37734404277662" lon="-0.8411282903676626"><ele>191.5</ele><time>2026-04-06T13:19:46Z</time></trkpt><trkpt lat="48.3775825216132" lon="-0.8409935675076945"><ele>192.0</ele><time>2026-04-06T13:19:47Z</time></trkpt><trkpt lat="48.37782443096" lon="-0.8408590290738028"><ele>190.0</ele><time>2026-04-06T13:19:48Z</time></trkpt><trkpt lat="48.3780674405131" lon="-0.8407228450150648"><ele>188.0</ele><time>2026-04-06T13:19:49Z</time></trkpt><trkpt lat="48.37831319473677" lon="-0.840589009163828"><ele>188.0</ele><time>2026-04-06T13:19:50Z</time></trkpt><trkpt lat="48.37855590430977" lon="-0.8404597796220232"><ele>188.0</ele><time>2026-04-06T13:19:51Z</time></trkpt><trkpt lat="48.37879215933345" lon="-0.8403333243754343"><ele>186.5</ele><time>2026-04-06T13:19:52Z</time></trkpt><trkpt lat="48.3790282993422" lon="-0.840202493010905"><ele>185.0</ele><time>2026-04-06T13:19:53Z</time></trkpt><trkpt lat="48.37926814374059" lon="-0.8400703807670113"><ele>184.5</ele><time>2026-04-06T13:19:54Z</time></trkpt><trkpt lat="48.37950429978872" lon="-0.8399367886352993"><ele>184.0</ele><time>2026-04-06T13:19:55Z</time></trkpt><trkpt lat="48.37974001404424" lon="-0.8398029834117874"><ele>182.0</ele><time>2026-04-06T13:19:56Z</time></trkpt><trkpt lat="48.37997387705239" lon="-0.8396707428542128"><ele>180.0</ele><time>2026-04-06T13:19:57Z</time></trkpt><trkpt lat="48.380207523277605" lon="-0.8395384881836052"><ele>180.0</ele><time>2026-04-06T13:19:58Z</time></trkpt><trkpt lat="48.380438247115215" lon="-0.8394142565151044"><ele>180.0</ele><time>2026-04-06T13:19:59Z</time></trkpt><trkpt lat="48.38067212289264" lon="-0.8393050381320076"><ele>183.0</ele><time>2026-04-06T13:20:00Z</time></trkpt><trkpt lat="48.380907677393914" lon="-0.83921026327416"><ele>186.0</ele><time>2026-04-06T13:20:01Z</time></trkpt><trkpt lat="48.38114444894578" lon="-0.8391381852248087"><ele>185.0</ele><time>2026-04-06T13:20:02Z</time></trkpt><trkpt lat="48.38138700980963" lon="-0.8390881495984069"><ele>184.0</ele><time>2026-04-06T13:20:03Z</time></trkpt><trkpt lat="48.38162870725639" lon="-0.8390563313989439"><ele>184.0</ele><time>2026-04-06T13:20:04Z</time></trkpt><trkpt lat="48.38187155937123" lon="-0.8390506259522218"><ele>184.0</ele><time>2026-04-06T13:20:05Z</time></trkpt><trkpt lat="48.38211268237759" lon="-0.8390603106075725"><ele>185.0</ele><time>2026-04-06T13:20:06Z</time></trkpt><trkpt lat="48.38235415001531" lon="-0.8390870656764111"><ele>186.0</ele><time>2026-04-06T13:20:07Z</time></trkpt><trkpt lat="48.38259284820861" lon="-0.8391368824647744"><ele>186.0</ele><time>2026-04-06T13:20:08Z</time></trkpt><trkpt lat="48.38282963459857" lon="-0.8392008811957241"><ele>186.0</ele><time>2026-04-06T13:20:09Z</time></trkpt><trkpt lat="48.38306564344293" lon="-0.8392724173232459"><ele>186.5</ele><time>2026-04-06T13:20:10Z</time></trkpt><trkpt lat="48.38330094209581" lon="-0.8393510640425288"><ele>187.0</ele><time>2026-04-06T13:20:11Z</time></trkpt><trkpt lat="48.383538764455245" lon="-0.8394208671743193"><ele>187.0</ele><time>2026-04-06T13:20:12Z</time></trkpt><trkpt lat="48.383777992101024" lon="-0.8394501740440462"><ele>187.0</ele><time>2026-04-06T13:20:13Z</time></trkpt><trkpt lat="48.38401725714105" lon="-0.8394836764228046"><ele>188.5</ele><time>2026-04-06T13:20:14Z</time></trkpt><trkpt lat="48.38425597893767" lon="-0.839518129111156"><ele>190.0</ele><time>2026-04-06T13:20:15Z</time></trkpt><trkpt lat="48.384494024214725" lon="-0.8395505884435693"><ele>190.33333333333334</ele><time>2026-04-06T13:20:16Z</time></trkpt><trkpt lat="48.38471890899476" lon="-0.8395826079874239"><ele>190.66666666666666</ele><time>2026-04-06T13:20:17Z</time></trkpt><trkpt lat="48.38493013113438" lon="-0.8396075267669141"><ele>191.0</ele><time>2026-04-06T13:20:18Z</time></trkpt><trkpt lat="48.38513176852039" lon="-0.8396301580538307"><ele>191.0</ele><time>2026-04-06T13:20:19Z</time></trkpt><trkpt lat="48.3853230715222" lon="-0.8396532609289604"><ele>191.0</ele><time>2026-04-06T13:20:20Z</time></trkpt><trkpt lat="48.38550554909116" lon="-0.8396781353874965"><ele>191.0</ele><time>2026-04-06T13:20:21Z</time></trkpt><trkpt lat="48.385684532289226" lon="-0.8397028094947379"><ele>192.0</ele><time>2026-04-06T13:20:22Z</time></trkpt><trkpt lat="48.385857335422976" lon="-0.839730535041508"><ele>193.0</ele><time>2026-04-06T13:20:23Z</time></trkpt><trkpt lat="48.3860255245973" lon="-0.8397557040467128"><ele>194.0</ele><time>2026-04-06T13:20:24Z</time></trkpt><trkpt lat="48.38618691901681" lon="-0.839776542851691"><ele>194.0</ele><time>2026-04-06T13:20:25Z</time></trkpt><trkpt lat="48.386338900671795" lon="-0.8397959156214501"><ele>194.0</ele><time>2026-04-06T13:20:26Z</time></trkpt><trkpt lat="48.386482868753845" lon="-0.8398150300789068"><ele>194.0</ele><time>2026-04-06T13:20:27Z</time></trkpt><trkpt lat="48.38662080211451" lon="-0.8398330385947956"><ele>194.0</ele><time>2026-04-06T13:20:28Z</time></trkpt><trkpt lat="48.38675518990993" lon="-0.8398483113059707"><ele>194.25</ele><time>2026-04-06T13:20:29Z</time></trkpt><trkpt lat="48.38688784814635" lon="-0.8398594762521875"><ele>194.5</ele><time>2026-04-06T13:20:30Z</time></trkpt><trkpt lat="48.38702122050287" lon="-0.8398784616616495"><ele>194.75</ele><time>2026-04-06T13:20:31Z</time></trkpt><trkpt lat="48.38715475371697" lon="-0.8398925403067578"><ele>195.0</ele><time>2026-04-06T13:20:32Z</time></trkpt><trkpt lat="48.387288397280685" lon="-0.8398960297628302"><ele>195.25</ele><time>2026-04-06T13:20:33Z</time></trkpt><trkpt lat="48.3874262763975" lon="-0.8399013505231648"><ele>195.5</ele><time>2026-04-06T13:20:34Z</time></trkpt><trkpt lat="48.38756451787857" lon="-0.8398981641915243"><ele>195.75</ele><time>2026-04-06T13:20:35Z</time></trkpt><trkpt lat="48.3877018399787" lon="-0.8399047611889949"><ele>196.0</ele><time>2026-04-06T13:20:36Z</time></trkpt><trkpt lat="48.38783944016594" lon="-0.839918465154415"><ele>196.0</ele><time>2026-04-06T13:20:37Z</time></trkpt><trkpt lat="48.38797746776681" lon="-0.8399086061273826"><ele>196.0</ele><time>2026-04-06T13:20:38Z</time></trkpt><trkpt lat="48.3881163955945" lon="-0.8399062546374393"><ele>196.0</ele><time>2026-04-06T13:20:39Z</time></trkpt><trkpt lat="48.388249012159726" lon="-0.8399167193604815"><ele>196.0</ele><time>2026-04-06T13:20:40Z</time></trkpt><trkpt lat="48.388376271133765" lon="-0.8399243456064145"><ele>196.5</ele><time>2026-04-06T13:20:41Z</time></trkpt><trkpt lat="48.388501791949246" lon="-0.8399310854304632"><ele>197.0</ele><time>2026-04-06T13:20:42Z</time></trkpt><trkpt lat="48.3886260271479" lon="-0.8399340574774816"><ele>197.5</ele><time>2026-04-06T13:20:43Z</time></trkpt><trkpt lat="48.38875032440637" lon="-0.839935687665181"><ele>198.0</ele><time>2026-04-06T13:20:44Z</time></trkpt><trkpt lat="48.38887445128213" lon="-0.8399374527711716"><ele>198.25</ele><time>2026-04-06T13:20:45Z</time></trkpt><trkpt lat="48.38899325146675" lon="-0.8399390512350244"><ele>198.5</ele><time>2026-04-06T13:20:46Z</time></trkpt><trkpt lat="48.3891129349876" lon="-0.8399420590997866"><ele>198.75</ele><time>2026-04-06T13:20:47Z</time></trkpt><trkpt lat="48.38923205674558" lon="-0.8399412640703883"><ele>199.0</ele><time>2026-04-06T13:20:48Z</time></trkpt><trkpt lat="48.38934932135849" lon="-0.8399412902804921"><ele>199.0</ele><time>2026-04-06T13:20:49Z</time></trkpt><trkpt lat="48.38946426598993" lon="-0.8399517371633499"><ele>199.0</ele><time>2026-04-06T13:20:50Z</time></trkpt><trkpt lat="48.38957558497416" lon="-0.8399654348642431"><ele>199.0</ele><time>2026-04-06T13:20:51Z</time></trkpt><trkpt lat="48.38968050061767" lon="-0.8399703413666801"><ele>199.0</ele><time>2026-04-06T13:20:52Z</time></trkpt><trkpt lat="48.389780704274244" lon="-0.8399732625088935"><ele>199.0</ele><time>2026-04-06T13:20:53Z</time></trkpt><trkpt lat="48.389879222105634" lon="-0.8399727085268699"><ele>199.33333333333331</ele><time>2026-04-06T13:20:54Z</time></trkpt><trkpt lat="48.38996965345649" lon="-0.8399769334782131"><ele>199.66666666666666</ele><time>2026-04-06T13:20:55Z</time></trkpt><trkpt lat="48.39005528369978" lon="-0.839977022902349"><ele>200.0</ele><time>2026-04-06T13:20:56Z</time></trkpt><trkpt lat="48.39013520159134" lon="-0.8399778851868982"><ele>200.33333333333331</ele><time>2026-04-06T13:20:57Z</time></trkpt><trkpt lat="48.39021128966616" lon="-0.8399838272344922"><ele>200.66666666666666</ele><time>2026-04-06T13:20:58Z</time></trkpt><trkpt lat="48.39028482570826" lon="-0.8399901675396942"><ele>201.0</ele><time>2026-04-06T13:20:59Z</time></trkpt><trkpt lat="48.39036061927799" lon="-0.8399887280035195"><ele>201.0</ele><time>2026-04-06T13:21:00Z</time></trkpt><trkpt lat="48.39043848941131" lon="-0.8399905676720554"><ele>201.0</ele><time>2026-04-06T13:21:01Z</time></trkpt><trkpt lat="48.39052686549625" lon="-0.8399995263170315"><ele>201.0</ele><time>2026-04-06T13:21:02Z</time></trkpt><trkpt lat="48.39062837509654" lon="-0.8399995399697169"><ele>201.0</ele><time>2026-04-06T13:21:03Z</time></trkpt><trkpt lat="48.39074009589762" lon="-0.8399970156530752"><ele>201.0</ele><time>2026-04-06T13:21:04Z</time></trkpt><trkpt lat="48.39086153343896" lon="-0.840005499819902"><ele>201.20000000000002</ele><time>2026-04-06T13:21:05Z</time></trkpt><trkpt lat="48.390973606200824" lon="-0.8400049953588473"><ele>201.4</ele><time>2026-04-06T13:21:06Z</time></trkpt><trkpt lat="48.39107814745866" lon="-0.8400111374146222"><ele>201.6</ele><time>2026-04-06T13:21:07Z</time></trkpt><trkpt lat="48.391179787696935" lon="-0.8400147531546628"><ele>201.8</ele><time>2026-04-06T13:21:08Z</time></trkpt><trkpt lat="48.39128124149626" lon="-0.8400171941213949"><ele>202.0</ele><time>2026-04-06T13:21:09Z</time></trkpt><trkpt lat="48.39137556877935" lon="-0.8400180569895134"><ele>201.99999999999997</ele><time>2026-04-06T13:21:10Z</time></trkpt><trkpt lat="48.39146760271677" lon="-0.8400194908935431"><ele>202.0</ele><time>2026-04-06T13:21:11Z</time></trkpt><trkpt lat="48.39155507701898" lon="-0.8400251576338518"><ele>202.0</ele><time>2026-04-06T13:21:12Z</time></trkpt><trkpt lat="48.391639461075485" lon="-0.8400333670348635"><ele>202.0</ele><time>2026-04-06T13:21:13Z</time></trkpt><trkpt lat="48.391722531554386" lon="-0.8400275083698812"><ele>201.99999999999997</ele><time>2026-04-06T13:21:14Z</time></trkpt><trkpt lat="48.39180433462484" lon="-0.8399983978484338"><ele>202.0</ele><time>2026-04-06T13:21:15Z</time></trkpt><trkpt lat="48.39188027500272" lon="-0.839952609524194"><ele>202.0</ele><time>2026-04-06T13:21:16Z</time></trkpt><trkpt lat="48.39194741131995" lon="-0.8398903830416338"><ele>202.0</ele><time>2026-04-06T13:21:17Z</time></trkpt><trkpt lat="48.3920110242102" lon="-0.8398229675385014"><ele>202.0</ele><time>2026-04-06T13:21:18Z</time></trkpt><trkpt lat="48.39207434457385" lon="-0.839766367592302"><ele>202.0</ele><time>2026-04-06T13:21:19Z</time></trkpt><trkpt lat="48.39213317714747" lon="-0.8397094183767596"><ele>202.0</ele><time>2026-04-06T13:21:20Z</time></trkpt><trkpt lat="48.39219038044041" lon="-0.8396560148457792"><ele>202.0</ele><time>2026-04-06T13:21:21Z</time></trkpt><trkpt lat="48.39225518097957" lon="-0.8396005559755924"><ele>202.0</ele><time>2026-04-06T13:21:22Z</time></trkpt><trkpt lat="48.392327065800636" lon="-0.8395486624720748"><ele>201.99999999999997</ele><time>2026-04-06T13:21:23Z</time></trkpt><trkpt lat="48.39239884280693" lon="-0.8395000392509078"><ele>202.0</ele><time>2026-04-06T13:21:24Z</time></trkpt><trkpt lat="48.392466245412905" lon="-0.8394485075809761"><ele>202.0</ele><time>2026-04-06T13:21:25Z</time></trkpt><trkpt lat="48.392534143555004" lon="-0.8393861049874694"><ele>202.0</ele><time>2026-04-06T13:21:26Z</time></trkpt><trkpt lat="48.392614036161525" lon="-0.8393040570769581"><ele>201.99999999999997</ele><time>2026-04-06T13:21:27Z</time></trkpt><trkpt lat="48.392713630974335" lon="-0.839217407323235"><ele>202.0</ele><time>2026-04-06T13:21:28Z</time></trkpt><trkpt lat="48.39283730999528" lon="-0.839120126204507"><ele>201.33333333333331</ele><time>2026-04-06T13:21:29Z</time></trkpt><trkpt lat="48.392994021831676" lon="-0.8389908435424621"><ele>200.66666666666669</ele><time>2026-04-06T13:21:30Z</time></trkpt><trkpt lat="48.39317686282294" lon="-0.8388479691629849"><ele>200.0</ele><time>2026-04-06T13:21:31Z</time></trkpt><trkpt lat="48.39338064994384" lon="-0.8386852794065539"><ele>200.0</ele><time>2026-04-06T13:21:32Z</time></trkpt><trkpt lat="48.39360075536096" lon="-0.8385064432482904"><ele>200.0</ele><time>2026-04-06T13:21:33Z</time></trkpt><trkpt lat="48.39383722562328" lon="-0.8383169859309814"><ele>197.5</ele><time>2026-04-06T13:21:34Z</time></trkpt><trkpt lat="48.39406910030787" lon="-0.838131904612186"><ele>195.0</ele><time>2026-04-06T13:21:35Z</time></trkpt><trkpt lat="48.39428735908901" lon="-0.8379513007702144"><ele>195.0</ele><time>2026-04-06T13:21:36Z</time></trkpt><trkpt lat="48.394498254948736" lon="-0.8377749929496321"><ele>195.0</ele><time>2026-04-06T13:21:37Z</time></trkpt><trkpt lat="48.394709990690345" lon="-0.8376063641770376"><ele>192.5</ele><time>2026-04-06T13:21:38Z</time></trkpt><trkpt lat="48.39491459706567" lon="-0.8374329151355575"><ele>190.0</ele><time>2026-04-06T13:21:39Z</time></trkpt><trkpt lat="48.39512141163775" lon="-0.8372614678701422"><ele>190.0</ele><time>2026-04-06T13:21:40Z</time></trkpt><trkpt lat="48.395329463802625" lon="-0.8370945114794762"><ele>190.0</ele><time>2026-04-06T13:21:41Z</time></trkpt><trkpt lat="48.39553713318908" lon="-0.8369217335759478"><ele>187.0</ele><time>2026-04-06T13:21:42Z</time></trkpt><trkpt lat="48.395744024063596" lon="-0.8367476835033387"><ele>184.0</ele><time>2026-04-06T13:21:43Z</time></trkpt><trkpt lat="48.395953355297756" lon="-0.8365782671314111"><ele>184.0</ele><time>2026-04-06T13:21:44Z</time></trkpt><trkpt lat="48.39616196284879" lon="-0.8364099104007549"><ele>184.0</ele><time>2026-04-06T13:21:45Z</time></trkpt><trkpt lat="48.39636748056451" lon="-0.8362417679467993"><ele>182.5</ele><time>2026-04-06T13:21:46Z</time></trkpt><trkpt lat="48.39657294350783" lon="-0.836075218081215"><ele>181.0</ele><time>2026-04-06T13:21:47Z</time></trkpt><trkpt lat="48.396775426003266" lon="-0.8359038628260089"><ele>181.0</ele><time>2026-04-06T13:21:48Z</time></trkpt><trkpt lat="48.39698679302681" lon="-0.835737423398578"><ele>181.0</ele><time>2026-04-06T13:21:49Z</time></trkpt><trkpt lat="48.39719392959291" lon="-0.8355700903240363"><ele>178.0</ele><time>2026-04-06T13:21:50Z</time></trkpt><trkpt lat="48.39740207329311" lon="-0.835405355410316"><ele>175.0</ele><time>2026-04-06T13:21:51Z</time></trkpt><trkpt lat="48.39760709990058" lon="-0.8352391392804516"><ele>176.0</ele><time>2026-04-06T13:21:52Z</time></trkpt><trkpt lat="48.39781267498066" lon="-0.8350760196707553"><ele>177.0</ele><time>2026-04-06T13:21:53Z</time></trkpt><trkpt lat="48.39800545574473" lon="-0.8349013594417494"><ele>173.5</ele><time>2026-04-06T13:21:54Z</time></trkpt><trkpt lat="48.39819135878621" lon="-0.8347067914021935"><ele>170.0</ele><time>2026-04-06T13:21:55Z</time></trkpt><trkpt lat="48.39837874889564" lon="-0.8345048099617622"><ele>169.0</ele><time>2026-04-06T13:21:56Z</time></trkpt><trkpt lat="48.398560873733196" lon="-0.8342858529378426"><ele>168.0</ele><time>2026-04-06T13:21:57Z</time></trkpt><trkpt lat="48.3987390716234" lon="-0.8340562279427114"><ele>169.0</ele><time>2026-04-06T13:21:58Z</time></trkpt><trkpt lat="48.398923310517084" lon="-0.8338348721372784"><ele>170.0</ele><time>2026-04-06T13:21:59Z</time></trkpt><trkpt lat="48.399108589607565" lon="-0.8336202292020579"><ele>170.0</ele><time>2026-04-06T13:22:00Z</time></trkpt><trkpt lat="48.39928801798152" lon="-0.8334026001701023"><ele>170.0</ele><time>2026-04-06T13:22:01Z</time></trkpt><trkpt lat="48.399466286240816" lon="-0.8331872767394857"><ele>170.0</ele><time>2026-04-06T13:22:02Z</time></trkpt><trkpt lat="48.399642188712555" lon="-0.8329736456071287"><ele>170.0</ele><time>2026-04-06T13:22:03Z</time></trkpt><trkpt lat="48.39981963850382" lon="-0.8327587309956705"><ele>172.5</ele><time>2026-04-06T13:22:04Z</time></trkpt><trkpt lat="48.39999471272486" lon="-0.8325430058481714"><ele>175.0</ele><time>2026-04-06T13:22:05Z</time></trkpt><trkpt lat="48.40016981957072" lon="-0.8323293061326028"><ele>175.0</ele><time>2026-04-06T13:22:06Z</time></trkpt><trkpt lat="48.40034853704292" lon="-0.8321157730325585"><ele>175.0</ele><time>2026-04-06T13:22:07Z</time></trkpt><trkpt lat="48.40052700937889" lon="-0.8318989144325721"><ele>175.5</ele><time>2026-04-06T13:22:08Z</time></trkpt><trkpt lat="48.40070428805254" lon="-0.8316778072255174"><ele>176.0</ele><time>2026-04-06T13:22:09Z</time></trkpt><trkpt lat="48.4008814384426" lon="-0.8314562658176268"><ele>176.0</ele><time>2026-04-06T13:22:10Z</time></trkpt><trkpt lat="48.40104402244672" lon="-0.8312116846346213"><ele>176.0</ele><time>2026-04-06T13:22:11Z</time></trkpt><trkpt lat="48.40119870919998" lon="-0.8309565742888166"><ele>177.5</ele><time>2026-04-06T13:22:12Z</time></trkpt><trkpt lat="48.4013543522033" lon="-0.8307034967128869"><ele>179.0</ele><time>2026-04-06T13:22:13Z</time></trkpt><trkpt lat="48.401508229781356" lon="-0.8304478545125124"><ele>179.0</ele><time>2026-04-06T13:22:14Z</time></trkpt><trkpt lat="48.40166226340913" lon="-0.8301896688530503"><ele>179.0</ele><time>2026-04-06T13:22:15Z</time></trkpt><trkpt lat="48.40181622164996" lon="-0.8299276795051421"><ele>178.5</ele><time>2026-04-06T13:22:16Z</time></trkpt><trkpt lat="48.401970194813096" lon="-0.8296652813277078"><ele>178.0</ele><time>2026-04-06T13:22:17Z</time></trkpt><trkpt lat="48.40212673141726" lon="-0.8294043324383477"><ele>179.5</ele><time>2026-04-06T13:22:18Z</time></trkpt><trkpt lat="48.40228265847451" lon="-0.829140851956957"><ele>181.0</ele><time>2026-04-06T13:22:19Z</time></trkpt><trkpt lat="48.402435526230455" lon="-0.8288754694848842"><ele>181.0</ele><time>2026-04-06T13:22:20Z</time></trkpt><trkpt lat="48.40259266094219" lon="-0.8286162330763104"><ele>181.0</ele><time>2026-04-06T13:22:21Z</time></trkpt><trkpt lat="48.40275132306238" lon="-0.8283569969677692"><ele>181.5</ele><time>2026-04-06T13:22:22Z</time></trkpt><trkpt lat="48.402906770727675" lon="-0.828097966341721"><ele>182.0</ele><time>2026-04-06T13:22:23Z</time></trkpt><trkpt lat="48.4030615821085" lon="-0.8278385711826313"><ele>183.5</ele><time>2026-04-06T13:22:24Z</time></trkpt><trkpt lat="48.4032168234632" lon="-0.8275789867841818"><ele>185.0</ele><time>2026-04-06T13:22:25Z</time></trkpt><trkpt lat="48.403371152119526" lon="-0.8273186926163106"><ele>185.0</ele><time>2026-04-06T13:22:26Z</time></trkpt><trkpt lat="48.40352613737484" lon="-0.8270572128562718"><ele>185.0</ele><time>2026-04-06T13:22:27Z</time></trkpt><trkpt lat="48.4036841666112" lon="-0.8267954511274788"><ele>184.0</ele><time>2026-04-06T13:22:28Z</time></trkpt><trkpt lat="48.40384341956246" lon="-0.8265328288881381"><ele>183.0</ele><time>2026-04-06T13:22:29Z</time></trkpt><trkpt lat="48.403999905854356" lon="-0.8262628298944286"><ele>183.0</ele><time>2026-04-06T13:22:30Z</time></trkpt><trkpt lat="48.40415981019465" lon="-0.8259922682232657"><ele>183.0</ele><time>2026-04-06T13:22:31Z</time></trkpt><trkpt lat="48.40431785323135" lon="-0.8257210177311679"><ele>183.0</ele><time>2026-04-06T13:22:32Z</time></trkpt><trkpt lat="48.404468155727216" lon="-0.8254634110242866"><ele>183.0</ele><time>2026-04-06T13:22:33Z</time></trkpt><trkpt lat="48.404611514418384" lon="-0.8252233122346739"><ele>183.0</ele><time>2026-04-06T13:22:34Z</time></trkpt><trkpt lat="48.40474791016097" lon="-0.8249868689439832"><ele>181.66666666666666</ele><time>2026-04-06T13:22:35Z</time></trkpt><trkpt lat="48.404879819023755" lon="-0.8247578856056015"><ele>180.33333333333331</ele><time>2026-04-06T13:22:36Z</time></trkpt><trkpt lat="48.405009225940894" lon="-0.8245402851502203"><ele>179.0</ele><time>2026-04-06T13:22:37Z</time></trkpt><trkpt lat="48.40513293287052" lon="-0.8243365759477759"><ele>180.66666666666666</ele><time>2026-04-06T13:22:38Z</time></trkpt><trkpt lat="48.405252612974174" lon="-0.8241420419569284"><ele>182.33333333333334</ele><time>2026-04-06T13:22:39Z</time></trkpt><trkpt lat="48.40537100979948" lon="-0.8239641279215844"><ele>184.0</ele><time>2026-04-06T13:22:40Z</time></trkpt><trkpt lat="48.405488168289466" lon="-0.8238015258691249"><ele>183.0</ele><time>2026-04-06T13:22:41Z</time></trkpt><trkpt lat="48.40559662703634" lon="-0.8236395239118641"><ele>182.0</ele><time>2026-04-06T13:22:42Z</time></trkpt><trkpt lat="48.40570318214779" lon="-0.8234874662969711"><ele>181.0</ele><time>2026-04-06T13:22:43Z</time></trkpt><trkpt lat="48.405811652740766" lon="-0.8233523427857274"><ele>180.0</ele><time>2026-04-06T13:22:44Z</time></trkpt><trkpt lat="48.405919154047254" lon="-0.8232194277827902"><ele>180.0</ele><time>2026-04-06T13:22:45Z</time></trkpt><trkpt lat="48.40601307808234" lon="-0.8230948810571245"><ele>180.0</ele><time>2026-04-06T13:22:46Z</time></trkpt><trkpt lat="48.40610910875522" lon="-0.8229806952474308"><ele>180.0</ele><time>2026-04-06T13:22:47Z</time></trkpt><trkpt lat="48.40620423969713" lon="-0.8228766524151285"><ele>180.0</ele><time>2026-04-06T13:22:48Z</time></trkpt><trkpt lat="48.406294069985584" lon="-0.8227774575643271"><ele>179.6</ele><time>2026-04-06T13:22:49Z</time></trkpt><trkpt lat="48.40638041073503" lon="-0.8226842351460433"><ele>179.2</ele><time>2026-04-06T13:22:50Z</time></trkpt><trkpt lat="48.40646789491241" lon="-0.8226105303301955"><ele>178.8</ele><time>2026-04-06T13:22:51Z</time></trkpt><trkpt lat="48.406548051734205" lon="-0.8225344159938265"><ele>178.4</ele><time>2026-04-06T13:22:52Z</time></trkpt><trkpt lat="48.4066319400704" lon="-0.8224648554745535"><ele>178.0</ele><time>2026-04-06T13:22:53Z</time></trkpt><trkpt lat="48.40672084277126" lon="-0.8223923100034328"><ele>178.0</ele><time>2026-04-06T13:22:54Z</time></trkpt><trkpt lat="48.40680733425582" lon="-0.8223090738272159"><ele>178.0</ele><time>2026-04-06T13:22:55Z</time></trkpt><trkpt lat="48.406899775192514" lon="-0.8222316815155849"><ele>178.0</ele><time>2026-04-06T13:22:56Z</time></trkpt><trkpt lat="48.40699711592554" lon="-0.822157755771945"><ele>178.0</ele><time>2026-04-06T13:22:57Z</time></trkpt><trkpt lat="48.40709663187625" lon="-0.8220854315704064"><ele>178.0</ele><time>2026-04-06T13:22:58Z</time></trkpt><trkpt lat="48.4071942491728" lon="-0.8220093853107755"><ele>177.4</ele><time>2026-04-06T13:22:59Z</time></trkpt><trkpt lat="48.4072917379937" lon="-0.8219452565721987"><ele>176.8</ele><time>2026-04-06T13:23:00Z</time></trkpt><trkpt lat="48.407393157647" lon="-0.8218923664885066"><ele>176.2</ele><time>2026-04-06T13:23:01Z</time></trkpt><trkpt lat="48.40749136069758" lon="-0.8218283587298904"><ele>175.6</ele><time>2026-04-06T13:23:02Z</time></trkpt><trkpt lat="48.40757971575961" lon="-0.8217505339263949"><ele>175.0</ele><time>2026-04-06T13:23:03Z</time></trkpt><trkpt lat="48.407672187131446" lon="-0.821688257670308"><ele>175.0</ele><time>2026-04-06T13:23:04Z</time></trkpt><trkpt lat="48.407760654748984" lon="-0.8216357561857736"><ele>175.0</ele><time>2026-04-06T13:23:05Z</time></trkpt><trkpt lat="48.40784346157112" lon="-0.8215771534286397"><ele>175.0</ele><time>2026-04-06T13:23:06Z</time></trkpt><trkpt lat="48.40793135899264" lon="-0.8215205094609895"><ele>175.0</ele><time>2026-04-06T13:23:07Z</time></trkpt><trkpt lat="48.408024367064606" lon="-0.8214666085552297"><ele>175.0</ele><time>2026-04-06T13:23:08Z</time></trkpt><trkpt lat="48.40810779261329" lon="-0.8214039230287314"><ele>174.66666666666669</ele><time>2026-04-06T13:23:09Z</time></trkpt><trkpt lat="48.408188486684246" lon="-0.8213509271991983"><ele>174.33333333333334</ele><time>2026-04-06T13:23:10Z</time></trkpt><trkpt lat="48.40826845064631" lon="-0.8212925536816144"><ele>174.0</ele><time>2026-04-06T13:23:11Z</time></trkpt><trkpt lat="48.4083551765721" lon="-0.8212412320538001"><ele>173.66666666666666</ele><time>2026-04-06T13:23:12Z</time></trkpt><trkpt lat="48.40843225322846" lon="-0.8211952174898237"><ele>173.33333333333331</ele><time>2026-04-06T13:23:13Z</time></trkpt><trkpt lat="48.40850238972911" lon="-0.8211536155467545"><ele>173.0</ele><time>2026-04-06T13:23:14Z</time></trkpt><trkpt lat="48.40856565181313" lon="-0.8211110889398218"><ele>173.0</ele><time>2026-04-06T13:23:15Z</time></trkpt><trkpt lat="48.408627402642324" lon="-0.8210701774182084"><ele>173.0</ele><time>2026-04-06T13:23:16Z</time></trkpt><trkpt lat="48.40869096003878" lon="-0.8210277227887317"><ele>173.0</ele><time>2026-04-06T13:23:17Z</time></trkpt><trkpt lat="48.40876072034067" lon="-0.8209863675804763"><ele>173.0</ele><time>2026-04-06T13:23:18Z</time></trkpt><trkpt lat="48.408838870540855" lon="-0.8209399452303294"><ele>173.0</ele><time>2026-04-06T13:23:19Z</time></trkpt><trkpt lat="48.40891837607411" lon="-0.820885753091283"><ele>173.0</ele><time>2026-04-06T13:23:20Z</time></trkpt><trkpt lat="48.40900633388691" lon="-0.8208258903221367"><ele>172.0</ele><time>2026-04-06T13:23:21Z</time></trkpt><trkpt lat="48.40910169913441" lon="-0.8207671384451805"><ele>171.0</ele><time>2026-04-06T13:23:22Z</time></trkpt><trkpt lat="48.40918910919232" lon="-0.820709934167284"><ele>170.0</ele><time>2026-04-06T13:23:23Z</time></trkpt><trkpt lat="48.40927324652529" lon="-0.8206517443698969"><ele>169.0</ele><time>2026-04-06T13:23:24Z</time></trkpt><trkpt lat="48.409358346438445" lon="-0.8205981526555616"><ele>168.0</ele><time>2026-04-06T13:23:25Z</time></trkpt><trkpt lat="48.40944587916471" lon="-0.8205447757111065"><ele>168.0</ele><time>2026-04-06T13:23:26Z</time></trkpt><trkpt lat="48.40953254382709" lon="-0.820486609313929"><ele>168.0</ele><time>2026-04-06T13:23:27Z</time></trkpt><trkpt lat="48.40961502711278" lon="-0.8204329196005797"><ele>168.0</ele><time>2026-04-06T13:23:28Z</time></trkpt><trkpt lat="48.40969084447209" lon="-0.8203806932858123"><ele>168.0</ele><time>2026-04-06T13:23:29Z</time></trkpt><trkpt lat="48.409762732827325" lon="-0.8203382294184889"><ele>168.0</ele><time>2026-04-06T13:23:30Z</time></trkpt><trkpt lat="48.40986093198578" lon="-0.8202736053744517"><ele>167.83333333333334</ele><time>2026-04-06T13:23:32Z</time></trkpt><trkpt lat="48.40996345498578" lon="-0.8202125435862807"><ele>167.66666666666666</ele><time>2026-04-06T13:23:34Z</time></trkpt><trkpt lat="48.4100321380518" lon="-0.8201665964177359"><ele>167.5</ele><time>2026-04-06T13:23:35Z</time></trkpt><trkpt lat="48.41010353301355" lon="-0.8201216631310101"><ele>167.33333333333331</ele><time>2026-04-06T13:23:36Z</time></trkpt><trkpt lat="48.410178493875684" lon="-0.8200760000774373"><ele>167.16666666666666</ele><time>2026-04-06T13:23:37Z</time></trkpt><trkpt lat="48.410255878909396" lon="-0.8200304430966908"><ele>167.0</ele><time>2026-04-06T13:23:38Z</time></trkpt><trkpt lat="48.41033125145049" lon="-0.8199829762276865"><ele>167.0</ele><time>2026-04-06T13:23:39Z</time></trkpt><trkpt lat="48.41040120371989" lon="-0.8199371923256191"><ele>167.0</ele><time>2026-04-06T13:23:40Z</time></trkpt><trkpt lat="48.410464997136195" lon="-0.8198927468634898"><ele>167.0</ele><time>2026-04-06T13:23:41Z</time></trkpt><trkpt lat="48.41052271758937" lon="-0.8198431571115582"><ele>167.0</ele><time>2026-04-06T13:23:42Z</time></trkpt><trkpt lat="48.41059522785458" lon="-0.8197421342912617"><ele>167.0</ele><time>2026-04-06T13:23:44Z</time></trkpt><trkpt lat="48.41071034716632" lon="-0.8196908011846239"><ele>167.0</ele><time>2026-04-06T13:23:48Z</time></trkpt><trkpt lat="48.41079710415087" lon="-0.8198849801733459"><ele>167.0</ele><time>2026-04-06T13:23:50Z</time></trkpt><trkpt lat="48.41085199866622" lon="-0.8199998433254665"><ele>167.0</ele><time>2026-04-06T13:23:51Z</time></trkpt><trkpt lat="48.41089952267842" lon="-0.8201053881854461"><ele>167.0</ele><time>2026-04-06T13:23:52Z</time></trkpt><trkpt lat="48.41095071090326" lon="-0.8202233385051964"><ele>167.0</ele><time>2026-04-06T13:23:53Z</time></trkpt><trkpt lat="48.411010036051785" lon="-0.8203619897935472"><ele>167.0</ele><time>2026-04-06T13:23:54Z</time></trkpt><trkpt lat="48.41107440735848" lon="-0.8205094053976687"><ele>167.0</ele><time>2026-04-06T13:23:55Z</time></trkpt><trkpt lat="48.41113535937919" lon="-0.8206401606044246"><ele>167.0</ele><time>2026-04-06T13:23:56Z</time></trkpt><trkpt lat="48.41119421248115" lon="-0.8207698988741736"><ele>167.0</ele><time>2026-04-06T13:23:57Z</time></trkpt><trkpt lat="48.41125898996814" lon="-0.8209022570546199"><ele>167.0</ele><time>2026-04-06T13:23:58Z</time></trkpt><trkpt lat="48.411321127545186" lon="-0.8210337775606774"><ele>167.0</ele><time>2026-04-06T13:23:59Z</time></trkpt><trkpt lat="48.41138203104991" lon="-0.8211629627414637"><ele>167.8</ele><time>2026-04-06T13:24:00Z</time></trkpt><trkpt lat="48.4114460509337" lon="-0.8212935181878053"><ele>168.6</ele><time>2026-04-06T13:24:01Z</time></trkpt><trkpt lat="48.41150499997943" lon="-0.821430972523756"><ele>169.4</ele><time>2026-04-06T13:24:02Z</time></trkpt><trkpt lat="48.411565708143776" lon="-0.8215678753925161"><ele>170.20000000000002</ele><time>2026-04-06T13:24:03Z</time></trkpt><trkpt lat="48.41162331764472" lon="-0.8217083883372934"><ele>171.0</ele><time>2026-04-06T13:24:04Z</time></trkpt><trkpt lat="48.41169054249948" lon="-0.8218490121173508"><ele>171.0</ele><time>2026-04-06T13:24:05Z</time></trkpt><trkpt lat="48.41175698143596" lon="-0.8219892429614245"><ele>171.0</ele><time>2026-04-06T13:24:06Z</time></trkpt><trkpt lat="48.41181637723096" lon="-0.8221371203190946"><ele>171.0</ele><time>2026-04-06T13:24:07Z</time></trkpt><trkpt lat="48.41187486308793" lon="-0.822282270171147"><ele>171.0</ele><time>2026-04-06T13:24:08Z</time></trkpt><trkpt lat="48.411933675693554" lon="-0.8224211405366926"><ele>171.0</ele><time>2026-04-06T13:24:09Z</time></trkpt><trkpt lat="48.41198259937473" lon="-0.8225671673228774"><ele>171.0</ele><time>2026-04-06T13:24:10Z</time></trkpt><trkpt lat="48.41202974797064" lon="-0.8227176667003646"><ele>171.0</ele><time>2026-04-06T13:24:11Z</time></trkpt><trkpt lat="48.41206763254866" lon="-0.8228716559262517"><ele>171.0</ele><time>2026-04-06T13:24:12Z</time></trkpt><trkpt lat="48.41210072138801" lon="-0.8230288521737621"><ele>171.0</ele><time>2026-04-06T13:24:13Z</time></trkpt><trkpt lat="48.41213777355097" lon="-0.8231851120509283"><ele>171.5</ele><time>2026-04-06T13:24:14Z</time></trkpt><trkpt lat="48.41217562975195" lon="-0.8233408996016623"><ele>172.0</ele><time>2026-04-06T13:24:15Z</time></trkpt><trkpt lat="48.41220149925223" lon="-0.8235129402020989"><ele>172.5</ele><time>2026-04-06T13:24:16Z</time></trkpt><trkpt lat="48.412235289045626" lon="-0.8236788453499935"><ele>173.0</ele><time>2026-04-06T13:24:17Z</time></trkpt><trkpt lat="48.412271979174264" lon="-0.8238461528131079"><ele>173.0</ele><time>2026-04-06T13:24:18Z</time></trkpt><trkpt lat="48.41230392421128" lon="-0.8240156679468988"><ele>173.0</ele><time>2026-04-06T13:24:19Z</time></trkpt><trkpt lat="48.41234034852224" lon="-0.8241916166729937"><ele>173.0</ele><time>2026-04-06T13:24:20Z</time></trkpt><trkpt lat="48.41237872854668" lon="-0.8243658885965596"><ele>173.0</ele><time>2026-04-06T13:24:21Z</time></trkpt><trkpt lat="48.41241910386258" lon="-0.8245397020141543"><ele>172.75</ele><time>2026-04-06T13:24:22Z</time></trkpt><trkpt lat="48.41245649669753" lon="-0.824717918982603"><ele>172.5</ele><time>2026-04-06T13:24:23Z</time></trkpt><trkpt lat="48.412493746281854" lon="-0.8249025893692856"><ele>172.25</ele><time>2026-04-06T13:24:24Z</time></trkpt><trkpt lat="48.41253582280032" lon="-0.8250867974840157"><ele>172.0</ele><time>2026-04-06T13:24:25Z</time></trkpt><trkpt lat="48.412577669669325" lon="-0.8252755707145163"><ele>172.0</ele><time>2026-04-06T13:24:26Z</time></trkpt><trkpt lat="48.4126232589188" lon="-0.8254602189179729"><ele>172.0</ele><time>2026-04-06T13:24:27Z</time></trkpt><trkpt lat="48.41266098690767" lon="-0.825645961638166"><ele>172.0</ele><time>2026-04-06T13:24:28Z</time></trkpt><trkpt lat="48.412711273882834" lon="-0.8258187776390499"><ele>172.0</ele><time>2026-04-06T13:24:29Z</time></trkpt><trkpt lat="48.412740009842686" lon="-0.8259997332555061"><ele>171.5</ele><time>2026-04-06T13:24:30Z</time></trkpt><trkpt lat="48.412778844064725" lon="-0.826176663731115"><ele>171.0</ele><time>2026-04-06T13:24:31Z</time></trkpt><trkpt lat="48.412827448978966" lon="-0.8263489716154158"><ele>170.5</ele><time>2026-04-06T13:24:32Z</time></trkpt><trkpt lat="48.41285223242322" lon="-0.8265395102978347"><ele>170.0</ele><time>2026-04-06T13:24:33Z</time></trkpt><trkpt lat="48.41289753043784" lon="-0.8267195574299145"><ele>169.75</ele><time>2026-04-06T13:24:34Z</time></trkpt><trkpt lat="48.41293264409605" lon="-0.826893605168852"><ele>169.5</ele><time>2026-04-06T13:24:35Z</time></trkpt><trkpt lat="48.41297052945325" lon="-0.8270596647804979"><ele>169.25</ele><time>2026-04-06T13:24:36Z</time></trkpt><trkpt lat="48.413008531682976" lon="-0.8272222628118974"><ele>169.0</ele><time>2026-04-06T13:24:37Z</time></trkpt><trkpt lat="48.413041610792064" lon="-0.8273831849478055"><ele>168.79999999999998</ele><time>2026-04-06T13:24:38Z</time></trkpt><trkpt lat="48.4130742611433" lon="-0.8275402891781256"><ele>168.6</ele><time>2026-04-06T13:24:39Z</time></trkpt><trkpt lat="48.413108824296806" lon="-0.8276877916375512"><ele>168.4</ele><time>2026-04-06T13:24:40Z</time></trkpt><trkpt lat="48.413139931318604" lon="-0.827826678753904"><ele>168.2</ele><time>2026-04-06T13:24:41Z</time></trkpt><trkpt lat="48.41317074039368" lon="-0.8279570741506439"><ele>168.0</ele><time>2026-04-06T13:24:42Z</time></trkpt><trkpt lat="48.41320543336274" lon="-0.8280787109909955"><ele>168.0</ele><time>2026-04-06T13:24:43Z</time></trkpt><trkpt lat="48.41326351132728" lon="-0.8281739758641987"><ele>168.0</ele><time>2026-04-06T13:24:44Z</time></trkpt><trkpt lat="48.41330654081645" lon="-0.8282781630876236"><ele>168.0</ele><time>2026-04-06T13:24:45Z</time></trkpt><trkpt lat="48.41331765037957" lon="-0.8284132647844297"><ele>168.0</ele><time>2026-04-06T13:24:46Z</time></trkpt><trkpt lat="48.413317480275666" lon="-0.828564054834812"><ele>168.0</ele><time>2026-04-06T13:24:47Z</time></trkpt><trkpt lat="48.41333486950937" lon="-0.8287247576401536"><ele>167.8</ele><time>2026-04-06T13:24:48Z</time></trkpt><trkpt lat="48.41336086973634" lon="-0.8288810038599111"><ele>167.60000000000002</ele><time>2026-04-06T13:24:49Z</time></trkpt><trkpt lat="48.41338961483463" lon="-0.8290304329855077"><ele>167.39999999999998</ele><time>2026-04-06T13:24:50Z</time></trkpt><trkpt lat="48.41342244498247" lon="-0.8291701669500399"><ele>167.2</ele><time>2026-04-06T13:24:51Z</time></trkpt><trkpt lat="48.41346590599786" lon="-0.8293076134320704"><ele>167.0</ele><time>2026-04-06T13:24:52Z</time></trkpt><trkpt lat="48.41349770833705" lon="-0.8294536351055792"><ele>167.0</ele><time>2026-04-06T13:24:53Z</time></trkpt><trkpt lat="48.41352972073049" lon="-0.8295994471224934"><ele>167.0</ele><time>2026-04-06T13:24:54Z</time></trkpt><trkpt lat="48.41354770054368" lon="-0.8297563344874286"><ele>167.0</ele><time>2026-04-06T13:24:55Z</time></trkpt><trkpt lat="48.413583644887446" lon="-0.8299121098806466"><ele>167.0</ele><time>2026-04-06T13:24:56Z</time></trkpt><trkpt lat="48.4136201172258" lon="-0.8300600589389365"><ele>167.0</ele><time>2026-04-06T13:24:57Z</time></trkpt><trkpt lat="48.41365164722563" lon="-0.8301984679927717"><ele>167.2</ele><time>2026-04-06T13:24:58Z</time></trkpt><trkpt lat="48.41367952915233" lon="-0.830332068855836"><ele>167.39999999999998</ele><time>2026-04-06T13:24:59Z</time></trkpt><trkpt lat="48.41370892457032" lon="-0.8304591993842243"><ele>167.60000000000002</ele><time>2026-04-06T13:25:00Z</time></trkpt><trkpt lat="48.41376424795664" lon="-0.8305672812211014"><ele>167.8</ele><time>2026-04-06T13:25:01Z</time></trkpt><trkpt lat="48.41383214362505" lon="-0.8306613945723534"><ele>168.0</ele><time>2026-04-06T13:25:02Z</time></trkpt><trkpt lat="48.413887841426316" lon="-0.8307723216873429"><ele>167.75</ele><time>2026-04-06T13:25:03Z</time></trkpt><trkpt lat="48.413875788544004" lon="-0.8309351585238386"><ele>167.5</ele><time>2026-04-06T13:25:04Z</time></trkpt><trkpt lat="48.41386629603031" lon="-0.8311067217551226"><ele>167.25</ele><time>2026-04-06T13:25:05Z</time></trkpt><trkpt lat="48.413889518311414" lon="-0.8313060834661203"><ele>167.0</ele><time>2026-04-06T13:25:06Z</time></trkpt><trkpt lat="48.41393467801334" lon="-0.8315262264470884"><ele>167.0</ele><time>2026-04-06T13:25:07Z</time></trkpt><trkpt lat="48.41399863070419" lon="-0.8317376479317987"><ele>167.0</ele><time>2026-04-06T13:25:08Z</time></trkpt><trkpt lat="48.414047895325155" lon="-0.8319630871188664"><ele>167.0</ele><time>2026-04-06T13:25:09Z</time></trkpt><trkpt lat="48.414099149120105" lon="-0.8321976289407229"><ele>167.0</ele><time>2026-04-06T13:25:10Z</time></trkpt><trkpt lat="48.414156206000754" lon="-0.8324554636727097"><ele>167.0</ele><time>2026-04-06T13:25:11Z</time></trkpt><trkpt lat="48.41422234903313" lon="-0.832758640883812"><ele>167.0</ele><time>2026-04-06T13:25:12Z</time></trkpt><trkpt lat="48.414296537106054" lon="-0.8330986937491792"><ele>166.5</ele><time>2026-04-06T13:25:13Z</time></trkpt><trkpt lat="48.41437766261876" lon="-0.8334738285743217"><ele>166.0</ele><time>2026-04-06T13:25:14Z</time></trkpt><trkpt lat="48.41446516776711" lon="-0.833878845630918"><ele>166.0</ele><time>2026-04-06T13:25:15Z</time></trkpt><trkpt lat="48.414557730780594" lon="-0.8343087162424477"><ele>166.0</ele><time>2026-04-06T13:25:16Z</time></trkpt><trkpt lat="48.414656822884936" lon="-0.8347687047854673"><ele>167.5</ele><time>2026-04-06T13:25:17Z</time></trkpt><trkpt lat="48.414759432628706" lon="-0.8352490626283815"><ele>169.0</ele><time>2026-04-06T13:25:18Z</time></trkpt><trkpt lat="48.41486260664438" lon="-0.8357289781386945"><ele>169.5</ele><time>2026-04-06T13:25:19Z</time></trkpt><trkpt lat="48.41495848489963" lon="-0.836174957304752"><ele>170.0</ele><time>2026-04-06T13:25:20Z</time></trkpt><trkpt lat="48.41504735126195" lon="-0.836588320540405"><ele>170.5</ele><time>2026-04-06T13:25:21Z</time></trkpt><trkpt lat="48.4151327766958" lon="-0.8369825697667771"><ele>171.0</ele><time>2026-04-06T13:25:22Z</time></trkpt><trkpt lat="48.415215749936706" lon="-0.8373563399321364"><ele>172.0</ele><time>2026-04-06T13:25:23Z</time></trkpt><trkpt lat="48.415296558003895" lon="-0.8377175088305774"><ele>173.0</ele><time>2026-04-06T13:25:24Z</time></trkpt><trkpt lat="48.415378299521656" lon="-0.8380732278897921"><ele>173.0</ele><time>2026-04-06T13:25:25Z</time></trkpt><trkpt lat="48.4154712867267" lon="-0.8384233330163372"><ele>173.0</ele><time>2026-04-06T13:25:26Z</time></trkpt><trkpt lat="48.41556835327702" lon="-0.8387590237788449"><ele>172.0</ele><time>2026-04-06T13:25:27Z</time></trkpt><trkpt lat="48.41567999310972" lon="-0.8390865955709119"><ele>171.0</ele><time>2026-04-06T13:25:28Z</time></trkpt><trkpt lat="48.41579683778326" lon="-0.8394116045223905"><ele>170.5</ele><time>2026-04-06T13:25:29Z</time></trkpt><trkpt lat="48.41592015512041" lon="-0.8397368462343572"><ele>170.0</ele><time>2026-04-06T13:25:30Z</time></trkpt><trkpt lat="48.416048886070676" lon="-0.8400590679360392"><ele>170.5</ele><time>2026-04-06T13:25:31Z</time></trkpt><trkpt lat="48.416180576708804" lon="-0.8403799577653344"><ele>171.0</ele><time>2026-04-06T13:25:32Z</time></trkpt><trkpt lat="48.41631268798855" lon="-0.840698457154405"><ele>173.0</ele><time>2026-04-06T13:25:33Z</time></trkpt><trkpt lat="48.41644440525983" lon="-0.8410154670115031"><ele>175.0</ele><time>2026-04-06T13:25:34Z</time></trkpt><trkpt lat="48.416576631931264" lon="-0.8413320822658337"><ele>175.0</ele><time>2026-04-06T13:25:35Z</time></trkpt><trkpt lat="48.416708666945624" lon="-0.8416482386016089"><ele>175.0</ele><time>2026-04-06T13:25:36Z</time></trkpt><trkpt lat="48.41684027779956" lon="-0.8419633792915071"><ele>176.0</ele><time>2026-04-06T13:25:37Z</time></trkpt><trkpt lat="48.41697168604474" lon="-0.8422780348360698"><ele>177.0</ele><time>2026-04-06T13:25:38Z</time></trkpt><trkpt lat="48.41710317712674" lon="-0.8425928884931264"><ele>179.0</ele><time>2026-04-06T13:25:39Z</time></trkpt><trkpt lat="48.417235489304865" lon="-0.8429082129474659"><ele>181.0</ele><time>2026-04-06T13:25:40Z</time></trkpt><trkpt lat="48.417367452434625" lon="-0.8432206935458365"><ele>181.5</ele><time>2026-04-06T13:25:41Z</time></trkpt><trkpt lat="48.417499511791476" lon="-0.8435332568013939"><ele>182.0</ele><time>2026-04-06T13:25:42Z</time></trkpt><trkpt lat="48.417629913956425" lon="-0.8438431000321124"><ele>182.0</ele><time>2026-04-06T13:25:43Z</time></trkpt><trkpt lat="48.41776117198577" lon="-0.8441523054543659"><ele>182.0</ele><time>2026-04-06T13:25:44Z</time></trkpt><trkpt lat="48.41789219080442" lon="-0.8444615507158306"><ele>181.0</ele><time>2026-04-06T13:25:45Z</time></trkpt><trkpt lat="48.4180146803301" lon="-0.8447805571728864"><ele>180.0</ele><time>2026-04-06T13:25:46Z</time></trkpt><trkpt lat="48.4181225079786" lon="-0.8451068092493201"><ele>181.5</ele><time>2026-04-06T13:25:47Z</time></trkpt><trkpt lat="48.41819940280893" lon="-0.8454474865663055"><ele>183.0</ele><time>2026-04-06T13:25:48Z</time></trkpt><trkpt lat="48.418230112882" lon="-0.8457861284210303"><ele>183.66666666666666</ele><time>2026-04-06T13:25:49Z</time></trkpt><trkpt lat="48.41828018740399" lon="-0.8461006243016554"><ele>184.33333333333331</ele><time>2026-04-06T13:25:50Z</time></trkpt><trkpt lat="48.41831333629779" lon="-0.8464136641390836"><ele>185.0</ele><time>2026-04-06T13:25:51Z</time></trkpt><trkpt lat="48.41834572487633" lon="-0.8467195239837149"><ele>185.0</ele><time>2026-04-06T13:25:52Z</time></trkpt><trkpt lat="48.41825398817047" lon="-0.8470444078056715"><ele>185.0</ele><time>2026-04-06T13:25:53Z</time></trkpt><trkpt lat="48.41825194302663" lon="-0.8473479519284671"><ele>185.0</ele><time>2026-04-06T13:25:54Z</time></trkpt><trkpt lat="48.418248676603774" lon="-0.8476500265551122"><ele>184.33333333333331</ele><time>2026-04-06T13:25:55Z</time></trkpt><trkpt lat="48.41824286664239" lon="-0.8479357527282833"><ele>183.66666666666666</ele><time>2026-04-06T13:25:56Z</time></trkpt><trkpt lat="48.41823642094975" lon="-0.8482139150315385"><ele>183.0</ele><time>2026-04-06T13:25:57Z</time></trkpt><trkpt lat="48.41823145885477" lon="-0.8484841023511716"><ele>183.0</ele><time>2026-04-06T13:25:58Z</time></trkpt><trkpt lat="48.41822653209871" lon="-0.8487433607919276"><ele>183.0</ele><time>2026-04-06T13:25:59Z</time></trkpt><trkpt lat="48.41822388216771" lon="-0.848990744576031"><ele>183.0</ele><time>2026-04-06T13:26:00Z</time></trkpt><trkpt lat="48.41821847084323" lon="-0.8492261144925465"><ele>183.0</ele><time>2026-04-06T13:26:01Z</time></trkpt><trkpt lat="48.41821641420227" lon="-0.849454273144638"><ele>183.0</ele><time>2026-04-06T13:26:02Z</time></trkpt><trkpt lat="48.4182168510653" lon="-0.8496763945014751"><ele>183.0</ele><time>2026-04-06T13:26:03Z</time></trkpt><trkpt lat="48.418215105466096" lon="-0.8499006525268207"><ele>183.0</ele><time>2026-04-06T13:26:04Z</time></trkpt><trkpt lat="48.41821022379094" lon="-0.8501259716775148"><ele>183.75</ele><time>2026-04-06T13:26:05Z</time></trkpt><trkpt lat="48.418204362129735" lon="-0.8503526205338917"><ele>184.5</ele><time>2026-04-06T13:26:06Z</time></trkpt><trkpt lat="48.418203077943" lon="-0.85057616204904"><ele>185.25</ele><time>2026-04-06T13:26:07Z</time></trkpt><trkpt lat="48.41820222252441" lon="-0.8507920225583905"><ele>186.0</ele><time>2026-04-06T13:26:08Z</time></trkpt><trkpt lat="48.418199013583475" lon="-0.8510100487965307"><ele>186.5</ele><time>2026-04-06T13:26:09Z</time></trkpt><trkpt lat="48.41819107270149" lon="-0.8512181076724717"><ele>187.0</ele><time>2026-04-06T13:26:10Z</time></trkpt><trkpt lat="48.41818778780524" lon="-0.8514261626702623"><ele>187.5</ele><time>2026-04-06T13:26:11Z</time></trkpt><trkpt lat="48.418199856694194" lon="-0.8516295621937573"><ele>188.0</ele><time>2026-04-06T13:26:12Z</time></trkpt><trkpt lat="48.41819070623207" lon="-0.8518335235820869"><ele>188.25</ele><time>2026-04-06T13:26:13Z</time></trkpt><trkpt lat="48.41818087042134" lon="-0.8520366389019061"><ele>188.5</ele><time>2026-04-06T13:26:14Z</time></trkpt><trkpt lat="48.418196747085105" lon="-0.852236244682934"><ele>188.75</ele><time>2026-04-06T13:26:15Z</time></trkpt><trkpt lat="48.41820455305883" lon="-0.8524368220468665"><ele>189.0</ele><time>2026-04-06T13:26:16Z</time></trkpt><trkpt lat="48.41819856393221" lon="-0.8526354127440838"><ele>189.5</ele><time>2026-04-06T13:26:17Z</time></trkpt><trkpt lat="48.418218321638534" lon="-0.8528366556267886"><ele>190.0</ele><time>2026-04-06T13:26:18Z</time></trkpt><trkpt lat="48.41822951189068" lon="-0.8530445750699944"><ele>190.5</ele><time>2026-04-06T13:26:19Z</time></trkpt><trkpt lat="48.41823166860001" lon="-0.8532532441304816"><ele>191.0</ele><time>2026-04-06T13:26:20Z</time></trkpt><trkpt lat="48.41824178428126" lon="-0.8534623093692011"><ele>191.75</ele><time>2026-04-06T13:26:21Z</time></trkpt><trkpt lat="48.41825123598966" lon="-0.8536719913639033"><ele>192.5</ele><time>2026-04-06T13:26:22Z</time></trkpt><trkpt lat="48.41825910171162" lon="-0.853881895071209"><ele>193.25</ele><time>2026-04-06T13:26:23Z</time></trkpt><trkpt lat="48.418267583132405" lon="-0.8540913153623463"><ele>194.0</ele><time>2026-04-06T13:26:24Z</time></trkpt><trkpt lat="48.41827941381667" lon="-0.854300760635034"><ele>193.75</ele><time>2026-04-06T13:26:25Z</time></trkpt><trkpt lat="48.41829004987444" lon="-0.8545125577825932"><ele>193.5</ele><time>2026-04-06T13:26:26Z</time></trkpt><trkpt lat="48.41830288089763" lon="-0.8547211026404214"><ele>193.25</ele><time>2026-04-06T13:26:27Z</time></trkpt><trkpt lat="48.41831397410059" lon="-0.8549326873885158"><ele>193.0</ele><time>2026-04-06T13:26:28Z</time></trkpt><trkpt lat="48.41832404804715" lon="-0.8551400409145304"><ele>193.0</ele><time>2026-04-06T13:26:29Z</time></trkpt><trkpt lat="48.418328033721224" lon="-0.8553493426844104"><ele>193.0</ele><time>2026-04-06T13:26:30Z</time></trkpt><trkpt lat="48.41833223231356" lon="-0.8555621701848658"><ele>193.0</ele><time>2026-04-06T13:26:31Z</time></trkpt><trkpt lat="48.41834114269152" lon="-0.8557782228927218"><ele>193.0</ele><time>2026-04-06T13:26:32Z</time></trkpt><trkpt lat="48.418350585538754" lon="-0.856006035593308"><ele>193.33333333333331</ele><time>2026-04-06T13:26:33Z</time></trkpt><trkpt lat="48.4183633323051" lon="-0.8562655727554279"><ele>193.66666666666669</ele><time>2026-04-06T13:26:34Z</time></trkpt><trkpt lat="48.41837844404119" lon="-0.856557752925426"><ele>194.0</ele><time>2026-04-06T13:26:35Z</time></trkpt><trkpt lat="48.41839636575051" lon="-0.8568510654511436"><ele>194.0</ele><time>2026-04-06T13:26:36Z</time></trkpt><trkpt lat="48.41841205265957" lon="-0.857134162331014"><ele>194.0</ele><time>2026-04-06T13:26:37Z</time></trkpt><trkpt lat="48.418422381695194" lon="-0.8574283307963526"><ele>194.0</ele><time>2026-04-06T13:26:38Z</time></trkpt><trkpt lat="48.41843629088306" lon="-0.8577209628979396"><ele>193.66666666666669</ele><time>2026-04-06T13:26:39Z</time></trkpt><trkpt lat="48.41845476324252" lon="-0.8580109435607136"><ele>193.33333333333331</ele><time>2026-04-06T13:26:40Z</time></trkpt><trkpt lat="48.41846677419448" lon="-0.8583068587356992"><ele>193.0</ele><time>2026-04-06T13:26:41Z</time></trkpt><trkpt lat="48.418477284923064" lon="-0.8586010746877838"><ele>193.0</ele><time>2026-04-06T13:26:42Z</time></trkpt><trkpt lat="48.41848971186165" lon="-0.8588955091475675"><ele>193.0</ele><time>2026-04-06T13:26:43Z</time></trkpt><trkpt lat="48.4185049806314" lon="-0.8591935160988471"><ele>193.0</ele><time>2026-04-06T13:26:44Z</time></trkpt><trkpt lat="48.41851933644813" lon="-0.8594932885892482"><ele>192.66666666666666</ele><time>2026-04-06T13:26:45Z</time></trkpt><trkpt lat="48.41852847735139" lon="-0.8597943806113227"><ele>192.33333333333331</ele><time>2026-04-06T13:26:46Z</time></trkpt><trkpt lat="48.41854063130492" lon="-0.8600976917421341"><ele>192.0</ele><time>2026-04-06T13:26:47Z</time></trkpt><trkpt lat="48.41856179158957" lon="-0.8604055980294382"><ele>191.33333333333334</ele><time>2026-04-06T13:26:48Z</time></trkpt><trkpt lat="48.41858010602796" lon="-0.8607295089038114"><ele>190.66666666666669</ele><time>2026-04-06T13:26:49Z</time></trkpt><trkpt lat="48.41859283880547" lon="-0.8610670113957346"><ele>190.0</ele><time>2026-04-06T13:26:50Z</time></trkpt><trkpt lat="48.41860998417849" lon="-0.8614067738349569"><ele>190.0</ele><time>2026-04-06T13:26:51Z</time></trkpt><trkpt lat="48.418625279815636" lon="-0.8617436318494176"><ele>190.0</ele><time>2026-04-06T13:26:52Z</time></trkpt><trkpt lat="48.4186430994561" lon="-0.8620798362301133"><ele>190.0</ele><time>2026-04-06T13:26:53Z</time></trkpt><trkpt lat="48.41865576239863" lon="-0.862412981837216"><ele>190.0</ele><time>2026-04-06T13:26:54Z</time></trkpt><trkpt lat="48.418667994122785" lon="-0.8627453244842879"><ele>190.0</ele><time>2026-04-06T13:26:55Z</time></trkpt><trkpt lat="48.41868294090693" lon="-0.8630784707374286"><ele>190.0</ele><time>2026-04-06T13:26:56Z</time></trkpt><trkpt lat="48.41869747023232" lon="-0.8634111204037209"><ele>189.33333333333334</ele><time>2026-04-06T13:26:57Z</time></trkpt><trkpt lat="48.418710365862204" lon="-0.8637451977715039"><ele>188.66666666666666</ele><time>2026-04-06T13:26:58Z</time></trkpt><trkpt lat="48.41872491372656" lon="-0.86407986548469"><ele>188.0</ele><time>2026-04-06T13:26:59Z</time></trkpt><trkpt lat="48.418756357957655" lon="-0.8644129442194907"><ele>188.0</ele><time>2026-04-06T13:27:00Z</time></trkpt><trkpt lat="48.418771992749" lon="-0.8647477821706873"><ele>188.0</ele><time>2026-04-06T13:27:01Z</time></trkpt><trkpt lat="48.418787567754435" lon="-0.8650813397176299"><ele>188.0</ele><time>2026-04-06T13:27:02Z</time></trkpt><trkpt lat="48.41880307179527" lon="-0.8654175340064881"><ele>188.0</ele><time>2026-04-06T13:27:03Z</time></trkpt><trkpt lat="48.41881847121342" lon="-0.8657539467564356"><ele>188.0</ele><time>2026-04-06T13:27:04Z</time></trkpt><trkpt lat="48.41883389610419" lon="-0.8660909159631777"><ele>188.0</ele><time>2026-04-06T13:27:05Z</time></trkpt><trkpt lat="48.41884927441967" lon="-0.866426867707371"><ele>188.33333333333331</ele><time>2026-04-06T13:27:06Z</time></trkpt><trkpt lat="48.41886464566922" lon="-0.8667653903039212"><ele>188.66666666666666</ele><time>2026-04-06T13:27:07Z</time></trkpt><trkpt lat="48.41887937386419" lon="-0.8670961646446554"><ele>189.0</ele><time>2026-04-06T13:27:08Z</time></trkpt><trkpt lat="48.41889399347341" lon="-0.8674245003157451"><ele>188.66666666666666</ele><time>2026-04-06T13:27:09Z</time></trkpt><trkpt lat="48.41891049070873" lon="-0.867751532375655"><ele>188.33333333333331</ele><time>2026-04-06T13:27:10Z</time></trkpt><trkpt lat="48.418926523839346" lon="-0.8680778361132887"><ele>188.0</ele><time>2026-04-06T13:27:11Z</time></trkpt><trkpt lat="48.41894216948122" lon="-0.8684053555529724"><ele>188.66666666666666</ele><time>2026-04-06T13:27:12Z</time></trkpt><trkpt lat="48.418944263852154" lon="-0.8687399144494706"><ele>189.33333333333334</ele><time>2026-04-06T13:27:13Z</time></trkpt><trkpt lat="48.41896366089662" lon="-0.8690708893376728"><ele>190.0</ele><time>2026-04-06T13:27:14Z</time></trkpt><trkpt lat="48.41898062194048" lon="-0.869403672550075"><ele>190.33333333333334</ele><time>2026-04-06T13:27:15Z</time></trkpt><trkpt lat="48.418998464818074" lon="-0.8697350339140574"><ele>190.66666666666666</ele><time>2026-04-06T13:27:16Z</time></trkpt><trkpt lat="48.41901014350927" lon="-0.8700637511049438"><ele>191.0</ele><time>2026-04-06T13:27:17Z</time></trkpt><trkpt lat="48.419020578069556" lon="-0.8703956699597627"><ele>191.66666666666666</ele><time>2026-04-06T13:27:18Z</time></trkpt><trkpt lat="48.41903663443672" lon="-0.8707292687096213"><ele>192.33333333333331</ele><time>2026-04-06T13:27:19Z</time></trkpt><trkpt lat="48.419055775929664" lon="-0.8710642907389432"><ele>193.0</ele><time>2026-04-06T13:27:20Z</time></trkpt><trkpt lat="48.41907261910656" lon="-0.8713964542954622"><ele>193.33333333333331</ele><time>2026-04-06T13:27:21Z</time></trkpt><trkpt lat="48.41908581524229" lon="-0.871726241532417"><ele>193.66666666666669</ele><time>2026-04-06T13:27:22Z</time></trkpt><trkpt lat="48.41910273227524" lon="-0.8720533632290466"><ele>194.0</ele><time>2026-04-06T13:27:23Z</time></trkpt><trkpt lat="48.41911685535577" lon="-0.8723789894271157"><ele>196.0</ele><time>2026-04-06T13:27:24Z</time></trkpt><trkpt lat="48.41913040398534" lon="-0.8727069491888187"><ele>198.0</ele><time>2026-04-06T13:27:25Z</time></trkpt><trkpt lat="48.41914513458435" lon="-0.8730357923106526"><ele>200.0</ele><time>2026-04-06T13:27:26Z</time></trkpt><trkpt lat="48.419159209771315" lon="-0.8733652960349957"><ele>200.33333333333334</ele><time>2026-04-06T13:27:27Z</time></trkpt><trkpt lat="48.41917163855788" lon="-0.8736918602482064"><ele>200.66666666666669</ele><time>2026-04-06T13:27:28Z</time></trkpt><trkpt lat="48.419186836211914" lon="-0.8740130435536098"><ele>201.0</ele><time>2026-04-06T13:27:29Z</time></trkpt><trkpt lat="48.419201673951015" lon="-0.8743347820572426"><ele>201.0</ele><time>2026-04-06T13:27:30Z</time></trkpt><trkpt lat="48.41921722292444" lon="-0.8746566880227413"><ele>201.0</ele><time>2026-04-06T13:27:31Z</time></trkpt><trkpt lat="48.41923543948073" lon="-0.8749871427887298"><ele>201.0</ele><time>2026-04-06T13:27:32Z</time></trkpt><trkpt lat="48.41925301018032" lon="-0.8753245873320744"><ele>201.0</ele><time>2026-04-06T13:27:33Z</time></trkpt><trkpt lat="48.41926590843569" lon="-0.8756593236465464"><ele>201.0</ele><time>2026-04-06T13:27:34Z</time></trkpt><trkpt lat="48.41927998532159" lon="-0.8759903197269674"><ele>201.0</ele><time>2026-04-06T13:27:35Z</time></trkpt><trkpt lat="48.419300076188044" lon="-0.8763198170433881"><ele>200.66666666666669</ele><time>2026-04-06T13:27:36Z</time></trkpt><trkpt lat="48.41932044695361" lon="-0.8766483671068698"><ele>200.33333333333334</ele><time>2026-04-06T13:27:37Z</time></trkpt><trkpt lat="48.41934064208613" lon="-0.8769782116608356"><ele>200.0</ele><time>2026-04-06T13:27:38Z</time></trkpt><trkpt lat="48.41935534851076" lon="-0.8773125340116457"><ele>201.0</ele><time>2026-04-06T13:27:39Z</time></trkpt><trkpt lat="48.419369082201705" lon="-0.8776464247063023"><ele>202.0</ele><time>2026-04-06T13:27:40Z</time></trkpt><trkpt lat="48.419378558984704" lon="-0.8779848099626243"><ele>203.0</ele><time>2026-04-06T13:27:41Z</time></trkpt><trkpt lat="48.419391775494645" lon="-0.8783210889154577"><ele>203.33333333333334</ele><time>2026-04-06T13:27:42Z</time></trkpt><trkpt lat="48.41939956004736" lon="-0.8786581243892945"><ele>203.66666666666669</ele><time>2026-04-06T13:27:43Z</time></trkpt><trkpt lat="48.41940993076173" lon="-0.8789922186449738"><ele>204.0</ele><time>2026-04-06T13:27:44Z</time></trkpt><trkpt lat="48.41942079803723" lon="-0.8793266019508161"><ele>204.0</ele><time>2026-04-06T13:27:45Z</time></trkpt><trkpt lat="48.41943411388868" lon="-0.8796568386297907"><ele>204.0</ele><time>2026-04-06T13:27:46Z</time></trkpt><trkpt lat="48.419447107067285" lon="-0.8799882668297905"><ele>204.0</ele><time>2026-04-06T13:27:47Z</time></trkpt><trkpt lat="48.41945633483513" lon="-0.8803225529930884"><ele>204.5</ele><time>2026-04-06T13:27:48Z</time></trkpt><trkpt lat="48.419467056463944" lon="-0.8806626448441333"><ele>205.0</ele><time>2026-04-06T13:27:49Z</time></trkpt><trkpt lat="48.41947794642174" lon="-0.8810051727457119"><ele>206.0</ele><time>2026-04-06T13:27:50Z</time></trkpt><trkpt lat="48.41949002970767" lon="-0.8813488571697699"><ele>207.0</ele><time>2026-04-06T13:27:51Z</time></trkpt><trkpt lat="48.41950329567861" lon="-0.881696941844249"><ele>208.0</ele><time>2026-04-06T13:27:52Z</time></trkpt><trkpt lat="48.41951702280631" lon="-0.8820467541524317"><ele>209.0</ele><time>2026-04-06T13:27:53Z</time></trkpt><trkpt lat="48.41952885898499" lon="-0.882398376514539"><ele>209.0</ele><time>2026-04-06T13:27:54Z</time></trkpt><trkpt lat="48.419540130463396" lon="-0.8827496664201758"><ele>209.0</ele><time>2026-04-06T13:27:55Z</time></trkpt><trkpt lat="48.41955132126837" lon="-0.8831029062299379"><ele>211.0</ele><time>2026-04-06T13:27:56Z</time></trkpt><trkpt lat="48.41956170276867" lon="-0.8834547235785088"><ele>213.0</ele><time>2026-04-06T13:27:57Z</time></trkpt><trkpt lat="48.419575745480074" lon="-0.883805394630019"><ele>213.0</ele><time>2026-04-06T13:27:58Z</time></trkpt><trkpt lat="48.41959296251166" lon="-0.8841522647863392"><ele>213.0</ele><time>2026-04-06T13:27:59Z</time></trkpt><trkpt lat="48.41960710147513" lon="-0.8844932508617152"><ele>214.0</ele><time>2026-04-06T13:28:00Z</time></trkpt><trkpt lat="48.41962063589559" lon="-0.8848284831334035"><ele>215.0</ele><time>2026-04-06T13:28:01Z</time></trkpt><trkpt lat="48.41963219357907" lon="-0.8851576351749051"><ele>216.0</ele><time>2026-04-06T13:28:02Z</time></trkpt><trkpt lat="48.419637825407946" lon="-0.8854852888769679"><ele>217.66666666666669</ele><time>2026-04-06T13:28:03Z</time></trkpt><trkpt lat="48.419646138287455" lon="-0.885802781961864"><ele>219.33333333333334</ele><time>2026-04-06T13:28:04Z</time></trkpt><trkpt lat="48.41966342013042" lon="-0.8861251516183716"><ele>221.0</ele><time>2026-04-06T13:28:05Z</time></trkpt><trkpt lat="48.4196774711927" lon="-0.8864474316058568"><ele>220.66666666666669</ele><time>2026-04-06T13:28:06Z</time></trkpt><trkpt lat="48.41968367483376" lon="-0.8867691702898047"><ele>220.33333333333331</ele><time>2026-04-06T13:28:07Z</time></trkpt><trkpt lat="48.41969413063165" lon="-0.8870968215649301"><ele>220.0</ele><time>2026-04-06T13:28:08Z</time></trkpt><trkpt lat="48.41970641930975" lon="-0.8874340624091457"><ele>219.5</ele><time>2026-04-06T13:28:09Z</time></trkpt><trkpt lat="48.41971699811318" lon="-0.887781805774002"><ele>219.0</ele><time>2026-04-06T13:28:10Z</time></trkpt><trkpt lat="48.41972596143463" lon="-0.8881277213431238"><ele>218.0</ele><time>2026-04-06T13:28:11Z</time></trkpt><trkpt lat="48.41973564921611" lon="-0.8884803192428468"><ele>217.0</ele><time>2026-04-06T13:28:12Z</time></trkpt><trkpt lat="48.41974136608391" lon="-0.8888247345877046"><ele>217.0</ele><time>2026-04-06T13:28:13Z</time></trkpt><trkpt lat="48.41973865880676" lon="-0.889176212194875"><ele>217.0</ele><time>2026-04-06T13:28:14Z</time></trkpt><trkpt lat="48.419725434310934" lon="-0.8895275264961129"><ele>217.5</ele><time>2026-04-06T13:28:15Z</time></trkpt><trkpt lat="48.41970721339236" lon="-0.889878783453307"><ele>218.0</ele><time>2026-04-06T13:28:16Z</time></trkpt><trkpt lat="48.41968369740992" lon="-0.8902307926285196"><ele>219.0</ele><time>2026-04-06T13:28:17Z</time></trkpt><trkpt lat="48.41965116800572" lon="-0.89057859507207"><ele>220.0</ele><time>2026-04-06T13:28:18Z</time></trkpt><trkpt lat="48.41962360601942" lon="-0.8909216543638184"><ele>221.5</ele><time>2026-04-06T13:28:19Z</time></trkpt><trkpt lat="48.419597521774186" lon="-0.891261170750296"><ele>223.0</ele><time>2026-04-06T13:28:20Z</time></trkpt><trkpt lat="48.41956907689885" lon="-0.8916013168970838"><ele>224.5</ele><time>2026-04-06T13:28:21Z</time></trkpt><trkpt lat="48.41953909036621" lon="-0.8919377481657957"><ele>226.0</ele><time>2026-04-06T13:28:22Z</time></trkpt><trkpt lat="48.41951016862422" lon="-0.8922739358018591"><ele>227.0</ele><time>2026-04-06T13:28:23Z</time></trkpt><trkpt lat="48.41948183773297" lon="-0.8926106295567845"><ele>228.0</ele><time>2026-04-06T13:28:24Z</time></trkpt><trkpt lat="48.41945414944759" lon="-0.8929488837890938"><ele>228.0</ele><time>2026-04-06T13:28:25Z</time></trkpt><trkpt lat="48.41942761726837" lon="-0.8932873522424775"><ele>228.0</ele><time>2026-04-06T13:28:26Z</time></trkpt><trkpt lat="48.419396357346386" lon="-0.8936298633066491"><ele>228.0</ele><time>2026-04-06T13:28:27Z</time></trkpt><trkpt lat="48.41936464979147" lon="-0.8939728179789019"><ele>228.0</ele><time>2026-04-06T13:28:28Z</time></trkpt><trkpt lat="48.41933261596488" lon="-0.8943187869210096"><ele>227.0</ele><time>2026-04-06T13:28:29Z</time></trkpt><trkpt lat="48.419302238917375" lon="-0.8946652042861557"><ele>226.0</ele><time>2026-04-06T13:28:30Z</time></trkpt><trkpt lat="48.41927671387442" lon="-0.8950059428318096"><ele>225.5</ele><time>2026-04-06T13:28:31Z</time></trkpt><trkpt lat="48.419249391913844" lon="-0.8953445059795516"><ele>225.0</ele><time>2026-04-06T13:28:32Z</time></trkpt><trkpt lat="48.41922110095324" lon="-0.8956831561884745"><ele>224.5</ele><time>2026-04-06T13:28:33Z</time></trkpt><trkpt lat="48.41919136686549" lon="-0.8960300288874348"><ele>224.0</ele><time>2026-04-06T13:28:34Z</time></trkpt><trkpt lat="48.41916257517586" lon="-0.896376896174871"><ele>224.0</ele><time>2026-04-06T13:28:35Z</time></trkpt><trkpt lat="48.419133300425294" lon="-0.8967240883569488"><ele>224.0</ele><time>2026-04-06T13:28:36Z</time></trkpt><trkpt lat="48.41910340112265" lon="-0.8970713775862218"><ele>224.0</ele><time>2026-04-06T13:28:37Z</time></trkpt><trkpt lat="48.41907595033189" lon="-0.8974189797234067"><ele>224.0</ele><time>2026-04-06T13:28:38Z</time></trkpt><trkpt lat="48.419046622489994" lon="-0.8977623483555123"><ele>224.0</ele><time>2026-04-06T13:28:39Z</time></trkpt><trkpt lat="48.41901637053591" lon="-0.8981042289954432"><ele>224.0</ele><time>2026-04-06T13:28:40Z</time></trkpt><trkpt lat="48.41899339605592" lon="-0.898446740020889"><ele>224.0</ele><time>2026-04-06T13:28:41Z</time></trkpt><trkpt lat="48.41896968401914" lon="-0.898792609893799"><ele>224.0</ele><time>2026-04-06T13:28:42Z</time></trkpt><trkpt lat="48.418942125763685" lon="-0.8991394435284256"><ele>224.0</ele><time>2026-04-06T13:28:43Z</time></trkpt><trkpt lat="48.41891245227013" lon="-0.8994881927115207"><ele>224.0</ele><time>2026-04-06T13:28:44Z</time></trkpt><trkpt lat="48.41888337776021" lon="-0.8998391639243304"><ele>224.0</ele><time>2026-04-06T13:28:45Z</time></trkpt><trkpt lat="48.418854912617334" lon="-0.9001895208171206"><ele>224.0</ele><time>2026-04-06T13:28:46Z</time></trkpt><trkpt lat="48.41882714791297" lon="-0.9005402151386653"><ele>223.0</ele><time>2026-04-06T13:28:47Z</time></trkpt><trkpt lat="48.418799040524306" lon="-0.9008920236960029"><ele>222.0</ele><time>2026-04-06T13:28:48Z</time></trkpt><trkpt lat="48.41876890075703" lon="-0.9012419257294533"><ele>222.0</ele><time>2026-04-06T13:28:49Z</time></trkpt><trkpt lat="48.41873938678016" lon="-0.9015906801226212"><ele>222.0</ele><time>2026-04-06T13:28:50Z</time></trkpt><trkpt lat="48.41870402703901" lon="-0.9019396623692031"><ele>223.0</ele><time>2026-04-06T13:28:51Z</time></trkpt><trkpt lat="48.418679461548" lon="-0.9022889616806926"><ele>224.0</ele><time>2026-04-06T13:28:52Z</time></trkpt><trkpt lat="48.41865477779006" lon="-0.9026383193554872"><ele>225.0</ele><time>2026-04-06T13:28:53Z</time></trkpt><trkpt lat="48.41862381237886" lon="-0.9029859392283133"><ele>226.0</ele><time>2026-04-06T13:28:54Z</time></trkpt><trkpt lat="48.41859567355862" lon="-0.9033311925828194"><ele>225.5</ele><time>2026-04-06T13:28:55Z</time></trkpt><trkpt lat="48.41856560649054" lon="-0.9036739191978237"><ele>225.0</ele><time>2026-04-06T13:28:56Z</time></trkpt><trkpt lat="48.41853506020435" lon="-0.9040154139950864"><ele>225.0</ele><time>2026-04-06T13:28:57Z</time></trkpt><trkpt lat="48.418505868755695" lon="-0.9043563282509985"><ele>225.0</ele><time>2026-04-06T13:28:58Z</time></trkpt><trkpt lat="48.41847743936767" lon="-0.9046981654917283"><ele>225.0</ele><time>2026-04-06T13:28:59Z</time></trkpt><trkpt lat="48.418449293470545" lon="-0.9050393620531825"><ele>225.0</ele><time>2026-04-06T13:29:00Z</time></trkpt><trkpt lat="48.41842147990627" lon="-0.905384031068695"><ele>225.0</ele><time>2026-04-06T13:29:01Z</time></trkpt><trkpt lat="48.4183937449667" lon="-0.9057307535631993"><ele>225.0</ele><time>2026-04-06T13:29:02Z</time></trkpt><trkpt lat="48.41836466718736" lon="-0.9060775770221663"><ele>225.0</ele><time>2026-04-06T13:29:03Z</time></trkpt><trkpt lat="48.418336088351914" lon="-0.9064292054728864"><ele>225.0</ele><time>2026-04-06T13:29:04Z</time></trkpt><trkpt lat="48.41830551887756" lon="-0.9067823773773708"><ele>224.33333333333331</ele><time>2026-04-06T13:29:05Z</time></trkpt><trkpt lat="48.41827815698319" lon="-0.9071212664335504"><ele>223.66666666666666</ele><time>2026-04-06T13:29:06Z</time></trkpt><trkpt lat="48.41825276590841" lon="-0.9074456149479335"><ele>223.0</ele><time>2026-04-06T13:29:07Z</time></trkpt><trkpt lat="48.418229626579325" lon="-0.9077616130023242"><ele>223.0</ele><time>2026-04-06T13:29:08Z</time></trkpt><trkpt lat="48.418204998446676" lon="-0.9080529347089954"><ele>223.0</ele><time>2026-04-06T13:29:09Z</time></trkpt><trkpt lat="48.418185525929985" lon="-0.9083356407703944"><ele>223.0</ele><time>2026-04-06T13:29:10Z</time></trkpt><trkpt lat="48.41816665566181" lon="-0.9086148751618616"><ele>223.66666666666666</ele><time>2026-04-06T13:29:11Z</time></trkpt><trkpt lat="48.41815494405531" lon="-0.908853401608692"><ele>224.33333333333331</ele><time>2026-04-06T13:29:12Z</time></trkpt><trkpt lat="48.41813744320257" lon="-0.9091025909796461"><ele>225.0</ele><time>2026-04-06T13:29:13Z</time></trkpt><trkpt lat="48.418119891233566" lon="-0.9093370343876163"><ele>225.5</ele><time>2026-04-06T13:29:14Z</time></trkpt><trkpt lat="48.418103950214366" lon="-0.909562140616482"><ele>226.0</ele><time>2026-04-06T13:29:15Z</time></trkpt><trkpt lat="48.41808966836623" lon="-0.9097772869695698"><ele>226.5</ele><time>2026-04-06T13:29:16Z</time></trkpt><trkpt lat="48.41807787512229" lon="-0.9099819425737758"><ele>227.0</ele><time>2026-04-06T13:29:17Z</time></trkpt><trkpt lat="48.418059742541644" lon="-0.9101792101402908"><ele>227.5</ele><time>2026-04-06T13:29:18Z</time></trkpt><trkpt lat="48.41804936987002" lon="-0.910366539421432"><ele>228.0</ele><time>2026-04-06T13:29:19Z</time></trkpt><trkpt lat="48.41803277120624" lon="-0.910541715252042"><ele>228.5</ele><time>2026-04-06T13:29:20Z</time></trkpt><trkpt lat="48.41800742892314" lon="-0.9107040880447529"><ele>229.0</ele><time>2026-04-06T13:29:21Z</time></trkpt><trkpt lat="48.417996671142376" lon="-0.9108627638214926"><ele>229.39999999999998</ele><time>2026-04-06T13:29:22Z</time></trkpt><trkpt lat="48.417988117870465" lon="-0.9110197798517408"><ele>229.79999999999998</ele><time>2026-04-06T13:29:23Z</time></trkpt><trkpt lat="48.417990498734" lon="-0.9111775527471229"><ele>230.20000000000002</ele><time>2026-04-06T13:29:24Z</time></trkpt><trkpt lat="48.41799131584448" lon="-0.9113384502155268"><ele>230.60000000000002</ele><time>2026-04-06T13:29:25Z</time></trkpt><trkpt lat="48.41797762724394" lon="-0.9114903029614835"><ele>231.0</ele><time>2026-04-06T13:29:26Z</time></trkpt><trkpt lat="48.41796555897003" lon="-0.91163014397063"><ele>231.33333333333334</ele><time>2026-04-06T13:29:27Z</time></trkpt><trkpt lat="48.417958158609025" lon="-0.9117580552615868"><ele>231.66666666666669</ele><time>2026-04-06T13:29:28Z</time></trkpt><trkpt lat="48.41795002488845" lon="-0.9118600986925309"><ele>232.0</ele><time>2026-04-06T13:29:29Z</time></trkpt><trkpt lat="48.4179388087459" lon="-0.9120111786831694"><ele>232.33333333333334</ele><time>2026-04-06T13:29:31Z</time></trkpt><trkpt lat="48.41793138967985" lon="-0.9121178542888735"><ele>232.66666666666669</ele><time>2026-04-06T13:29:34Z</time></trkpt><trkpt lat="48.4179084457594" lon="-0.9122458711780739"><ele>233.0</ele><time>2026-04-06T13:29:36Z</time></trkpt><trkpt lat="48.41789243320947" lon="-0.9123492987175168"><ele>233.0</ele><time>2026-04-06T13:29:37Z</time></trkpt><trkpt lat="48.41789112898628" lon="-0.9124499395182036"><ele>233.0</ele><time>2026-04-06T13:29:38Z</time></trkpt><trkpt lat="48.417886896169115" lon="-0.9125585511643656"><ele>233.0</ele><time>2026-04-06T13:29:39Z</time></trkpt><trkpt lat="48.41788194918274" lon="-0.9126729897450152"><ele>233.0</ele><time>2026-04-06T13:29:40Z</time></trkpt><trkpt lat="48.417877355927146" lon="-0.9127781167810477"><ele>233.0</ele><time>2026-04-06T13:29:41Z</time></trkpt><trkpt lat="48.41786910117918" lon="-0.9128778658630122"><ele>233.0</ele><time>2026-04-06T13:29:42Z</time></trkpt><trkpt lat="48.41785941924369" lon="-0.9129809273513749"><ele>233.0</ele><time>2026-04-06T13:29:43Z</time></trkpt><trkpt lat="48.41784742270122" lon="-0.9130862622619454"><ele>232.83333333333334</ele><time>2026-04-06T13:29:44Z</time></trkpt><trkpt lat="48.4178386054856" lon="-0.9131901116001822"><ele>232.66666666666669</ele><time>2026-04-06T13:29:45Z</time></trkpt><trkpt lat="48.41786112856689" lon="-0.9132905287315602"><ele>232.5</ele><time>2026-04-06T13:29:46Z</time></trkpt><trkpt lat="48.41791352038183" lon="-0.9133771476960146"><ele>232.33333333333331</ele><time>2026-04-06T13:29:47Z</time></trkpt><trkpt lat="48.417954881957336" lon="-0.913480781498782"><ele>232.16666666666666</ele><time>2026-04-06T13:29:48Z</time></trkpt><trkpt lat="48.41797982205073" lon="-0.9136025859905006"><ele>232.0</ele><time>2026-04-06T13:29:49Z</time></trkpt><trkpt lat="48.4179969999357" lon="-0.9137353202054541"><ele>231.6</ele><time>2026-04-06T13:29:50Z</time></trkpt><trkpt lat="48.418012259008364" lon="-0.9138886028941148"><ele>231.2</ele><time>2026-04-06T13:29:51Z</time></trkpt><trkpt lat="48.41803850831997" lon="-0.9140552188567465"><ele>230.8</ele><time>2026-04-06T13:29:52Z</time></trkpt><trkpt lat="48.418059088022176" lon="-0.9142143587562176"><ele>230.4</ele><time>2026-04-06T13:29:53Z</time></trkpt><trkpt lat="48.41807748660954" lon="-0.9143863841452908"><ele>230.0</ele><time>2026-04-06T13:29:54Z</time></trkpt><trkpt lat="48.41809488659258" lon="-0.9145786417274621"><ele>230.0</ele><time>2026-04-06T13:29:55Z</time></trkpt><trkpt lat="48.41811409492386" lon="-0.9147804308178455"><ele>230.0</ele><time>2026-04-06T13:29:56Z</time></trkpt><trkpt lat="48.41813486831555" lon="-0.9149753945879507"><ele>230.0</ele><time>2026-04-06T13:29:57Z</time></trkpt><trkpt lat="48.41815246923736" lon="-0.9151789499812363"><ele>230.0</ele><time>2026-04-06T13:29:58Z</time></trkpt><trkpt lat="48.418175457264134" lon="-0.9153744102738863"><ele>230.0</ele><time>2026-04-06T13:29:59Z</time></trkpt><trkpt lat="48.41819872564854" lon="-0.915576077644029"><ele>230.0</ele><time>2026-04-06T13:30:00Z</time></trkpt><trkpt lat="48.41821461606814" lon="-0.9157785009197853"><ele>230.0</ele><time>2026-04-06T13:30:01Z</time></trkpt><trkpt lat="48.41823442218336" lon="-0.9159819076609633"><ele>230.0</ele><time>2026-04-06T13:30:02Z</time></trkpt><trkpt lat="48.41825869335563" lon="-0.916181298276956"><ele>231.0</ele><time>2026-04-06T13:30:03Z</time></trkpt><trkpt lat="48.41827968698383" lon="-0.9163848222269846"><ele>232.0</ele><time>2026-04-06T13:30:04Z</time></trkpt><trkpt lat="48.4183017600261" lon="-0.9165820550600503"><ele>233.0</ele><time>2026-04-06T13:30:05Z</time></trkpt><trkpt lat="48.4183234355379" lon="-0.9167818918984401"><ele>234.0</ele><time>2026-04-06T13:30:06Z</time></trkpt><trkpt lat="48.418341082012915" lon="-0.9169811930732849"><ele>234.0</ele><time>2026-04-06T13:30:07Z</time></trkpt><trkpt lat="48.4183487930539" lon="-0.9171852733756025"><ele>234.0</ele><time>2026-04-06T13:30:08Z</time></trkpt><trkpt lat="48.418348812818124" lon="-0.9173913548081789"><ele>234.0</ele><time>2026-04-06T13:30:09Z</time></trkpt><trkpt lat="48.41834754812496" lon="-0.9176044210964409"><ele>234.0</ele><time>2026-04-06T13:30:10Z</time></trkpt><trkpt lat="48.41834003292411" lon="-0.9178185632704485"><ele>234.25</ele><time>2026-04-06T13:30:11Z</time></trkpt><trkpt lat="48.418336122223806" lon="-0.9180329188912263"><ele>234.5</ele><time>2026-04-06T13:30:12Z</time></trkpt><trkpt lat="48.418335227327375" lon="-0.9182405183743991"><ele>234.75</ele><time>2026-04-06T13:30:13Z</time></trkpt><trkpt lat="48.41832642567376" lon="-0.9184513960209668"><ele>235.0</ele><time>2026-04-06T13:30:14Z</time></trkpt><trkpt lat="48.41832086393759" lon="-0.9186656985352021"><ele>235.33333333333331</ele><time>2026-04-06T13:30:15Z</time></trkpt><trkpt lat="48.418319671337414" lon="-0.9188863916717062"><ele>235.66666666666669</ele><time>2026-04-06T13:30:16Z</time></trkpt><trkpt lat="48.41831365580149" lon="-0.91910778159614"><ele>236.0</ele><time>2026-04-06T13:30:17Z</time></trkpt><trkpt lat="48.41831011927706" lon="-0.9193429933832072"><ele>236.75</ele><time>2026-04-06T13:30:18Z</time></trkpt><trkpt lat="48.418315987462904" lon="-0.9195603801631405"><ele>237.5</ele><time>2026-04-06T13:30:19Z</time></trkpt><trkpt lat="48.41833424599532" lon="-0.9197784942935776"><ele>238.25</ele><time>2026-04-06T13:30:20Z</time></trkpt><trkpt lat="48.418368571894234" lon="-0.919996026550411"><ele>239.0</ele><time>2026-04-06T13:30:21Z</time></trkpt><trkpt lat="48.41842048047471" lon="-0.9202130305364489"><ele>239.66666666666669</ele><time>2026-04-06T13:30:22Z</time></trkpt><trkpt lat="48.41849249976378" lon="-0.9204180974656601"><ele>240.33333333333331</ele><time>2026-04-06T13:30:23Z</time></trkpt><trkpt lat="48.41858541958608" lon="-0.9206227857920454"><ele>241.0</ele><time>2026-04-06T13:30:24Z</time></trkpt><trkpt lat="48.41870443039384" lon="-0.9208060752241569"><ele>241.66666666666666</ele><time>2026-04-06T13:30:25Z</time></trkpt><trkpt lat="48.41881693980026" lon="-0.9210277136768521"><ele>242.33333333333331</ele><time>2026-04-06T13:30:26Z</time></trkpt><trkpt lat="48.41895827435673" lon="-0.9212408886078544"><ele>243.0</ele><time>2026-04-06T13:30:27Z</time></trkpt><trkpt lat="48.41910904022183" lon="-0.9214667730747994"><ele>243.0</ele><time>2026-04-06T13:30:28Z</time></trkpt><trkpt lat="48.4192532716062" lon="-0.9216908421640432"><ele>243.0</ele><time>2026-04-06T13:30:29Z</time></trkpt><trkpt lat="48.41939474489902" lon="-0.9219068854553958"><ele>243.0</ele><time>2026-04-06T13:30:30Z</time></trkpt><trkpt lat="48.41953857063701" lon="-0.922122976730452"><ele>243.33333333333331</ele><time>2026-04-06T13:30:31Z</time></trkpt><trkpt lat="48.41968256855554" lon="-0.9223354895246443"><ele>243.66666666666666</ele><time>2026-04-06T13:30:32Z</time></trkpt><trkpt lat="48.41982753979819" lon="-0.9225307341934114"><ele>244.0</ele><time>2026-04-06T13:30:33Z</time></trkpt><trkpt lat="48.41997882199659" lon="-0.9226857689783322"><ele>244.33333333333331</ele><time>2026-04-06T13:30:34Z</time></trkpt><trkpt lat="48.42013739994062" lon="-0.9228125132489104"><ele>244.66666666666669</ele><time>2026-04-06T13:30:35Z</time></trkpt><trkpt lat="48.420314754271956" lon="-0.9229062861035268"><ele>245.0</ele><time>2026-04-06T13:30:36Z</time></trkpt><trkpt lat="48.42051232783843" lon="-0.9229684868886138"><ele>243.5</ele><time>2026-04-06T13:30:37Z</time></trkpt><trkpt lat="48.42072902511343" lon="-0.9230271599867713"><ele>242.0</ele><time>2026-04-06T13:30:38Z</time></trkpt><trkpt lat="48.42096031638368" lon="-0.9230801612984709"><ele>242.0</ele><time>2026-04-06T13:30:39Z</time></trkpt><trkpt lat="48.42119681966946" lon="-0.9231796810800051"><ele>242.0</ele><time>2026-04-06T13:30:40Z</time></trkpt><trkpt lat="48.42142473904717" lon="-0.9233143727873853"><ele>241.5</ele><time>2026-04-06T13:30:41Z</time></trkpt><trkpt lat="48.421659181039736" lon="-0.9234348220159458"><ele>241.0</ele><time>2026-04-06T13:30:42Z</time></trkpt><trkpt lat="48.42189604139064" lon="-0.9235606380709783"><ele>241.0</ele><time>2026-04-06T13:30:43Z</time></trkpt><trkpt lat="48.422133644675675" lon="-0.9236920047411176"><ele>241.0</ele><time>2026-04-06T13:30:44Z</time></trkpt><trkpt lat="48.42236914482984" lon="-0.9238336159266586"><ele>240.5</ele><time>2026-04-06T13:30:45Z</time></trkpt><trkpt lat="48.42260383439979" lon="-0.9239802685223076"><ele>240.0</ele><time>2026-04-06T13:30:46Z</time></trkpt><trkpt lat="48.422838377592996" lon="-0.9241254398953646"><ele>241.5</ele><time>2026-04-06T13:30:47Z</time></trkpt><trkpt lat="48.42307155936909" lon="-0.924266319011712"><ele>243.0</ele><time>2026-04-06T13:30:48Z</time></trkpt><trkpt lat="48.42330540745288" lon="-0.9244058858485116"><ele>243.0</ele><time>2026-04-06T13:30:49Z</time></trkpt><trkpt lat="48.42353808521599" lon="-0.9245468573126011"><ele>243.0</ele><time>2026-04-06T13:30:50Z</time></trkpt><trkpt lat="48.42377036444307" lon="-0.9246858308883217"><ele>242.0</ele><time>2026-04-06T13:30:51Z</time></trkpt><trkpt lat="48.42400232709843" lon="-0.9248263951955148"><ele>241.0</ele><time>2026-04-06T13:30:52Z</time></trkpt><trkpt lat="48.42423516717624" lon="-0.9249649759418137"><ele>241.5</ele><time>2026-04-06T13:30:53Z</time></trkpt><trkpt lat="48.42446449456071" lon="-0.9251066041163933"><ele>242.0</ele><time>2026-04-06T13:30:54Z</time></trkpt><trkpt lat="48.42469190060015" lon="-0.925246609659787"><ele>241.0</ele><time>2026-04-06T13:30:55Z</time></trkpt><trkpt lat="48.42491867308778" lon="-0.9253823825038511"><ele>240.0</ele><time>2026-04-06T13:30:56Z</time></trkpt><trkpt lat="48.42514334078025" lon="-0.9255213331633708"><ele>240.0</ele><time>2026-04-06T13:30:57Z</time></trkpt><trkpt lat="48.4253665277364" lon="-0.9256637385930945"><ele>240.0</ele><time>2026-04-06T13:30:58Z</time></trkpt><trkpt lat="48.42558997676116" lon="-0.9257991143885697"><ele>239.0</ele><time>2026-04-06T13:30:59Z</time></trkpt><trkpt lat="48.42581610599878" lon="-0.9259268990947407"><ele>238.0</ele><time>2026-04-06T13:31:00Z</time></trkpt><trkpt lat="48.42604612200293" lon="-0.9260443531838861"><ele>238.0</ele><time>2026-04-06T13:31:01Z</time></trkpt><trkpt lat="48.4262782511505" lon="-0.9261481887491522"><ele>238.0</ele><time>2026-04-06T13:31:02Z</time></trkpt><trkpt lat="48.42651350410064" lon="-0.926238294784951"><ele>237.5</ele><time>2026-04-06T13:31:03Z</time></trkpt><trkpt lat="48.42674820725211" lon="-0.9263222075953385"><ele>237.0</ele><time>2026-04-06T13:31:04Z</time></trkpt><trkpt lat="48.42698395244367" lon="-0.9264032287652991"><ele>234.5</ele><time>2026-04-06T13:31:05Z</time></trkpt><trkpt lat="48.42722009716217" lon="-0.9264837583892085"><ele>232.0</ele><time>2026-04-06T13:31:06Z</time></trkpt><trkpt lat="48.42745693988136" lon="-0.9265663777054817"><ele>232.0</ele><time>2026-04-06T13:31:07Z</time></trkpt><trkpt lat="48.42769519216668" lon="-0.926652209558185"><ele>232.0</ele><time>2026-04-06T13:31:08Z</time></trkpt><trkpt lat="48.42793523883128" lon="-0.9267332056307563"><ele>229.5</ele><time>2026-04-06T13:31:09Z</time></trkpt><trkpt lat="48.428174933154686" lon="-0.9268201352655059"><ele>227.0</ele><time>2026-04-06T13:31:10Z</time></trkpt><trkpt lat="48.42841555177565" lon="-0.9269105957076248"><ele>227.0</ele><time>2026-04-06T13:31:11Z</time></trkpt><trkpt lat="48.42865920194941" lon="-0.9269969896790686"><ele>227.0</ele><time>2026-04-06T13:31:12Z</time></trkpt><trkpt lat="48.42890387366949" lon="-0.9270823266014209"><ele>226.5</ele><time>2026-04-06T13:31:13Z</time></trkpt><trkpt lat="48.42914951440061" lon="-0.9271649575333455"><ele>226.0</ele><time>2026-04-06T13:31:14Z</time></trkpt><trkpt lat="48.42939555439451" lon="-0.9272548383293113"><ele>226.0</ele><time>2026-04-06T13:31:15Z</time></trkpt><trkpt lat="48.42963956992823" lon="-0.9273413385382564"><ele>226.0</ele><time>2026-04-06T13:31:16Z</time></trkpt><trkpt lat="48.429882295466705" lon="-0.9274286262149767"><ele>226.0</ele><time>2026-04-06T13:31:17Z</time></trkpt><trkpt lat="48.43012461167563" lon="-0.9275082986534918"><ele>226.0</ele><time>2026-04-06T13:31:18Z</time></trkpt><trkpt lat="48.43036456031898" lon="-0.927599291101056"><ele>226.0</ele><time>2026-04-06T13:31:19Z</time></trkpt><trkpt lat="48.430601276470476" lon="-0.9276883789306938"><ele>226.0</ele><time>2026-04-06T13:31:20Z</time></trkpt><trkpt lat="48.43084450005164" lon="-0.9277728364243858"><ele>226.0</ele><time>2026-04-06T13:31:21Z</time></trkpt><trkpt lat="48.43107860958726" lon="-0.927860937223975"><ele>226.0</ele><time>2026-04-06T13:31:22Z</time></trkpt><trkpt lat="48.43131319518112" lon="-0.9279486019870538"><ele>227.0</ele><time>2026-04-06T13:31:23Z</time></trkpt><trkpt lat="48.43154828494627" lon="-0.9280300130347442"><ele>228.0</ele><time>2026-04-06T13:31:24Z</time></trkpt><trkpt lat="48.4317836779392" lon="-0.9281127926215464"><ele>228.0</ele><time>2026-04-06T13:31:25Z</time></trkpt><trkpt lat="48.432019718329556" lon="-0.9281932457718471"><ele>228.0</ele><time>2026-04-06T13:31:26Z</time></trkpt><trkpt lat="48.43225639004857" lon="-0.9282797233021143"><ele>228.5</ele><time>2026-04-06T13:31:27Z</time></trkpt><trkpt lat="48.43249167685215" lon="-0.9283634325425486"><ele>229.0</ele><time>2026-04-06T13:31:28Z</time></trkpt><trkpt lat="48.432729890451824" lon="-0.9284458601298347"><ele>229.0</ele><time>2026-04-06T13:31:29Z</time></trkpt><trkpt lat="48.432964529034614" lon="-0.9285223374607652"><ele>229.0</ele><time>2026-04-06T13:31:30Z</time></trkpt><trkpt lat="48.4332026891218" lon="-0.9286116081720929"><ele>229.0</ele><time>2026-04-06T13:31:31Z</time></trkpt><trkpt lat="48.43344196491712" lon="-0.9286960827298937"><ele>229.0</ele><time>2026-04-06T13:31:32Z</time></trkpt><trkpt lat="48.433684482960935" lon="-0.928776811761471"><ele>229.5</ele><time>2026-04-06T13:31:33Z</time></trkpt><trkpt lat="48.43392852909822" lon="-0.9288625204475524"><ele>230.0</ele><time>2026-04-06T13:31:34Z</time></trkpt><trkpt lat="48.434171604810295" lon="-0.9289534271697445"><ele>230.0</ele><time>2026-04-06T13:31:35Z</time></trkpt><trkpt lat="48.43441478661188" lon="-0.9290422661531375"><ele>230.0</ele><time>2026-04-06T13:31:36Z</time></trkpt><trkpt lat="48.4346582003597" lon="-0.929131970356081"><ele>230.0</ele><time>2026-04-06T13:31:37Z</time></trkpt><trkpt lat="48.434900041284756" lon="-0.9292223061194119"><ele>230.0</ele><time>2026-04-06T13:31:38Z</time></trkpt><trkpt lat="48.43514777816945" lon="-0.9293134497550966"><ele>230.0</ele><time>2026-04-06T13:31:39Z</time></trkpt><trkpt lat="48.43539666352935" lon="-0.9294032157178406"><ele>230.0</ele><time>2026-04-06T13:31:40Z</time></trkpt><trkpt lat="48.435643901838816" lon="-0.9294936968230558"><ele>229.0</ele><time>2026-04-06T13:31:41Z</time></trkpt><trkpt lat="48.43588813052293" lon="-0.9295753661025931"><ele>228.0</ele><time>2026-04-06T13:31:42Z</time></trkpt><trkpt lat="48.436135290534345" lon="-0.9296603060949927"><ele>228.0</ele><time>2026-04-06T13:31:43Z</time></trkpt><trkpt lat="48.43637886570255" lon="-0.9297450013738953"><ele>228.0</ele><time>2026-04-06T13:31:44Z</time></trkpt><trkpt lat="48.43662008488351" lon="-0.9298311977518527"><ele>228.0</ele><time>2026-04-06T13:31:45Z</time></trkpt><trkpt lat="48.43686226087569" lon="-0.9299148556412772"><ele>228.0</ele><time>2026-04-06T13:31:46Z</time></trkpt><trkpt lat="48.43710578336966" lon="-0.9299971626441442"><ele>227.5</ele><time>2026-04-06T13:31:47Z</time></trkpt><trkpt lat="48.43734584807786" lon="-0.9300785336240682"><ele>227.0</ele><time>2026-04-06T13:31:48Z</time></trkpt><trkpt lat="48.437589403937174" lon="-0.9301713119257424"><ele>227.0</ele><time>2026-04-06T13:31:49Z</time></trkpt><trkpt lat="48.43782889300142" lon="-0.9302576293141662"><ele>227.0</ele><time>2026-04-06T13:31:50Z</time></trkpt><trkpt lat="48.43806608119827" lon="-0.930344641070331"><ele>225.5</ele><time>2026-04-06T13:31:51Z</time></trkpt><trkpt lat="48.43829821232622" lon="-0.9304488324234494"><ele>224.0</ele><time>2026-04-06T13:31:52Z</time></trkpt><trkpt lat="48.43852535588596" lon="-0.9305745646833825"><ele>224.0</ele><time>2026-04-06T13:31:53Z</time></trkpt><trkpt lat="48.43874203455687" lon="-0.9307320143240146"><ele>224.0</ele><time>2026-04-06T13:31:54Z</time></trkpt><trkpt lat="48.43894607286343" lon="-0.9309205485984632"><ele>224.5</ele><time>2026-04-06T13:31:55Z</time></trkpt><trkpt lat="48.43914204607095" lon="-0.9311364028754355"><ele>225.0</ele><time>2026-04-06T13:31:56Z</time></trkpt><trkpt lat="48.43933557567573" lon="-0.9313572727969117"><ele>225.0</ele><time>2026-04-06T13:31:57Z</time></trkpt><trkpt lat="48.43953153313022" lon="-0.9315730729092261"><ele>225.0</ele><time>2026-04-06T13:31:58Z</time></trkpt><trkpt lat="48.43972709592224" lon="-0.9317932400596513"><ele>225.5</ele><time>2026-04-06T13:31:59Z</time></trkpt><trkpt lat="48.43992225880139" lon="-0.932012076538693"><ele>226.0</ele><time>2026-04-06T13:32:00Z</time></trkpt><trkpt lat="48.440119324686115" lon="-0.9322322655104145"><ele>226.0</ele><time>2026-04-06T13:32:01Z</time></trkpt><trkpt lat="48.44032195860774" lon="-0.9324425462791249"><ele>226.0</ele><time>2026-04-06T13:32:02Z</time></trkpt><trkpt lat="48.44052349298382" lon="-0.9326555838279128"><ele>228.0</ele><time>2026-04-06T13:32:03Z</time></trkpt><trkpt lat="48.44072389393599" lon="-0.9328732755258627"><ele>230.0</ele><time>2026-04-06T13:32:04Z</time></trkpt><trkpt lat="48.44092155333928" lon="-0.933090317041491"><ele>230.0</ele><time>2026-04-06T13:32:05Z</time></trkpt><trkpt lat="48.4411190831867" lon="-0.9333173528323612"><ele>230.0</ele><time>2026-04-06T13:32:06Z</time></trkpt><trkpt lat="48.441314256016085" lon="-0.9335496314294015"><ele>231.0</ele><time>2026-04-06T13:32:07Z</time></trkpt><trkpt lat="48.44150306961452" lon="-0.9337974630448794"><ele>232.0</ele><time>2026-04-06T13:32:08Z</time></trkpt><trkpt lat="48.44168360485198" lon="-0.9340590254049076"><ele>232.5</ele><time>2026-04-06T13:32:09Z</time></trkpt><trkpt lat="48.44186241986753" lon="-0.934317893747251"><ele>233.0</ele><time>2026-04-06T13:32:10Z</time></trkpt><trkpt lat="48.44203871601819" lon="-0.9345896181551739"><ele>232.0</ele><time>2026-04-06T13:32:11Z</time></trkpt><trkpt lat="48.44220555899206" lon="-0.934861298150185"><ele>231.0</ele><time>2026-04-06T13:32:12Z</time></trkpt><trkpt lat="48.442373975653155" lon="-0.9351213646867558"><ele>230.5</ele><time>2026-04-06T13:32:13Z</time></trkpt><trkpt lat="48.44255386031424" lon="-0.9353965690321303"><ele>230.0</ele><time>2026-04-06T13:32:14Z</time></trkpt><trkpt lat="48.44272464755815" lon="-0.9356834597645795"><ele>229.5</ele><time>2026-04-06T13:32:15Z</time></trkpt><trkpt lat="48.442881815231424" lon="-0.9359765683542383"><ele>229.0</ele><time>2026-04-06T13:32:16Z</time></trkpt><trkpt lat="48.443038732129516" lon="-0.9362666383059208"><ele>229.0</ele><time>2026-04-06T13:32:17Z</time></trkpt><trkpt lat="48.44319692055326" lon="-0.9365574917848913"><ele>229.0</ele><time>2026-04-06T13:32:18Z</time></trkpt><trkpt lat="48.44335393585414" lon="-0.936850871119658"><ele>227.5</ele><time>2026-04-06T13:32:19Z</time></trkpt><trkpt lat="48.443513038570586" lon="-0.9371451446127217"><ele>226.0</ele><time>2026-04-06T13:32:20Z</time></trkpt><trkpt lat="48.44366750953831" lon="-0.937441910003249"><ele>227.0</ele><time>2026-04-06T13:32:21Z</time></trkpt><trkpt lat="48.443830364470514" lon="-0.9377244820999248"><ele>228.0</ele><time>2026-04-06T13:32:22Z</time></trkpt><trkpt lat="48.44398666561189" lon="-0.9380177979099931"><ele>228.0</ele><time>2026-04-06T13:32:23Z</time></trkpt><trkpt lat="48.444142173511196" lon="-0.9383144691771745"><ele>228.0</ele><time>2026-04-06T13:32:24Z</time></trkpt><trkpt lat="48.44430040176167" lon="-0.9386076112255052"><ele>227.5</ele><time>2026-04-06T13:32:25Z</time></trkpt><trkpt lat="48.444467486537796" lon="-0.9388897498104433"><ele>227.0</ele><time>2026-04-06T13:32:26Z</time></trkpt><trkpt lat="48.444639379352004" lon="-0.9391565462133508"><ele>228.5</ele><time>2026-04-06T13:32:27Z</time></trkpt><trkpt lat="48.44481985927978" lon="-0.939421671334054"><ele>230.0</ele><time>2026-04-06T13:32:28Z</time></trkpt><trkpt lat="48.445009358298506" lon="-0.939669168213369"><ele>230.0</ele><time>2026-04-06T13:32:29Z</time></trkpt><trkpt lat="48.44519420324223" lon="-0.9399181044923739"><ele>230.0</ele><time>2026-04-06T13:32:30Z</time></trkpt><trkpt lat="48.44538526339192" lon="-0.9401580371798116"><ele>231.0</ele><time>2026-04-06T13:32:31Z</time></trkpt><trkpt lat="48.4455829498229" lon="-0.9403753663958375"><ele>232.0</ele><time>2026-04-06T13:32:32Z</time></trkpt><trkpt lat="48.44579202204045" lon="-0.9405881948333276"><ele>232.0</ele><time>2026-04-06T13:32:33Z</time></trkpt><trkpt lat="48.44599701530766" lon="-0.9408125684949268"><ele>232.0</ele><time>2026-04-06T13:32:34Z</time></trkpt><trkpt lat="48.44616464096434" lon="-0.9410453068006497"><ele>231.0</ele><time>2026-04-06T13:32:35Z</time></trkpt><trkpt lat="48.44630893813545" lon="-0.9413117716319995"><ele>230.0</ele><time>2026-04-06T13:32:36Z</time></trkpt><trkpt lat="48.44646740625879" lon="-0.9415882408420719"><ele>229.0</ele><time>2026-04-06T13:32:37Z</time></trkpt><trkpt lat="48.44663096181" lon="-0.9418691429542225"><ele>228.0</ele><time>2026-04-06T13:32:38Z</time></trkpt><trkpt lat="48.44678815038375" lon="-0.942199770506906"><ele>228.0</ele><time>2026-04-06T13:32:39Z</time></trkpt><trkpt lat="48.446947489866965" lon="-0.9425418685490299"><ele>228.0</ele><time>2026-04-06T13:32:40Z</time></trkpt><trkpt lat="48.44711303176972" lon="-0.9428807710141444"><ele>227.0</ele><time>2026-04-06T13:32:41Z</time></trkpt><trkpt lat="48.44728222295269" lon="-0.9432092289573929"><ele>226.0</ele><time>2026-04-06T13:32:42Z</time></trkpt><trkpt lat="48.44744693085956" lon="-0.9435508026559976"><ele>225.0</ele><time>2026-04-06T13:32:43Z</time></trkpt><trkpt lat="48.44762490267546" lon="-0.9438826303575373"><ele>224.0</ele><time>2026-04-06T13:32:44Z</time></trkpt><trkpt lat="48.447789494905436" lon="-0.9442276622503367"><ele>223.5</ele><time>2026-04-06T13:32:45Z</time></trkpt><trkpt lat="48.44794866102014" lon="-0.9445783863571089"><ele>223.0</ele><time>2026-04-06T13:32:46Z</time></trkpt><trkpt lat="48.448091668430976" lon="-0.9449409619526166"><ele>222.5</ele><time>2026-04-06T13:32:47Z</time></trkpt><trkpt lat="48.4482387846431" lon="-0.9452724875395031"><ele>222.0</ele><time>2026-04-06T13:32:48Z</time></trkpt><trkpt lat="48.448369259878994" lon="-0.9456026686734443"><ele>221.5</ele><time>2026-04-06T13:32:49Z</time></trkpt><trkpt lat="48.44848066583649" lon="-0.9459279153800778"><ele>221.0</ele><time>2026-04-06T13:32:50Z</time></trkpt><trkpt lat="48.448585833675935" lon="-0.9462546229325955"><ele>221.0</ele><time>2026-04-06T13:32:51Z</time></trkpt><trkpt lat="48.44869144866111" lon="-0.9465829915718343"><ele>221.0</ele><time>2026-04-06T13:32:52Z</time></trkpt><trkpt lat="48.44879683418843" lon="-0.9469015588686472"><ele>221.5</ele><time>2026-04-06T13:32:53Z</time></trkpt><trkpt lat="48.44890473454373" lon="-0.9472171987840936"><ele>222.0</ele><time>2026-04-06T13:32:54Z</time></trkpt><trkpt lat="48.44900709940722" lon="-0.9475388238415497"><ele>222.0</ele><time>2026-04-06T13:32:55Z</time></trkpt><trkpt lat="48.449099545645495" lon="-0.9478680398313095"><ele>222.0</ele><time>2026-04-06T13:32:56Z</time></trkpt><trkpt lat="48.44918636981413" lon="-0.9481977537119245"><ele>221.5</ele><time>2026-04-06T13:32:57Z</time></trkpt><trkpt lat="48.44926984259182" lon="-0.948531935200011"><ele>221.0</ele><time>2026-04-06T13:32:58Z</time></trkpt><trkpt lat="48.449345310766155" lon="-0.948874189532327"><ele>220.5</ele><time>2026-04-06T13:32:59Z</time></trkpt><trkpt lat="48.44942101279116" lon="-0.9492157187705201"><ele>220.0</ele><time>2026-04-06T13:33:00Z</time></trkpt><trkpt lat="48.44948889821491" lon="-0.9495557788471736"><ele>220.0</ele><time>2026-04-06T13:33:01Z</time></trkpt><trkpt lat="48.449572051625324" lon="-0.9498911573261594"><ele>220.0</ele><time>2026-04-06T13:33:02Z</time></trkpt><trkpt lat="48.449650050568955" lon="-0.9502355328571207"><ele>220.5</ele><time>2026-04-06T13:33:03Z</time></trkpt><trkpt lat="48.44972814721911" lon="-0.9505814150276622"><ele>221.0</ele><time>2026-04-06T13:33:04Z</time></trkpt><trkpt lat="48.44980405620096" lon="-0.9509285917407484"><ele>221.5</ele><time>2026-04-06T13:33:05Z</time></trkpt><trkpt lat="48.449872371648496" lon="-0.951273363981164"><ele>222.0</ele><time>2026-04-06T13:33:06Z</time></trkpt><trkpt lat="48.449926424329874" lon="-0.9516221993314741"><ele>221.5</ele><time>2026-04-06T13:33:07Z</time></trkpt><trkpt lat="48.449970397571015" lon="-0.9519712482846302"><ele>221.0</ele><time>2026-04-06T13:33:08Z</time></trkpt><trkpt lat="48.4500151976485" lon="-0.9523206511042879"><ele>220.0</ele><time>2026-04-06T13:33:09Z</time></trkpt><trkpt lat="48.450067144168045" lon="-0.9526696309329814"><ele>219.0</ele><time>2026-04-06T13:33:10Z</time></trkpt><trkpt lat="48.45011248719436" lon="-0.9530070027428238"><ele>219.0</ele><time>2026-04-06T13:33:11Z</time></trkpt><trkpt lat="48.45014929416503" lon="-0.9533334998999403"><ele>219.0</ele><time>2026-04-06T13:33:12Z</time></trkpt><trkpt lat="48.45017223662656" lon="-0.9536634312276181"><ele>219.0</ele><time>2026-04-06T13:33:13Z</time></trkpt><trkpt lat="48.45017383418602" lon="-0.9539974039124978"><ele>217.0</ele><time>2026-04-06T13:33:14Z</time></trkpt><trkpt lat="48.450161758754625" lon="-0.9543426504617377"><ele>215.0</ele><time>2026-04-06T13:33:15Z</time></trkpt><trkpt lat="48.450140402937045" lon="-0.9546923401391295"><ele>214.0</ele><time>2026-04-06T13:33:16Z</time></trkpt><trkpt lat="48.4501152143982" lon="-0.955050467656809"><ele>213.0</ele><time>2026-04-06T13:33:17Z</time></trkpt><trkpt lat="48.45009519643263" lon="-0.9554170459871412"><ele>213.0</ele><time>2026-04-06T13:33:18Z</time></trkpt><trkpt lat="48.45007278160498" lon="-0.9557876332501349"><ele>213.0</ele><time>2026-04-06T13:33:19Z</time></trkpt><trkpt lat="48.45004365291487" lon="-0.9561602968698893"><ele>212.5</ele><time>2026-04-06T13:33:20Z</time></trkpt><trkpt lat="48.45002464108747" lon="-0.9565352738938975"><ele>212.0</ele><time>2026-04-06T13:33:21Z</time></trkpt><trkpt lat="48.449946183533044" lon="-0.9569030582136672"><ele>212.0</ele><time>2026-04-06T13:33:22Z</time></trkpt><trkpt lat="48.4498793150519" lon="-0.9572697835741327"><ele>212.0</ele><time>2026-04-06T13:33:23Z</time></trkpt><trkpt lat="48.449812145416075" lon="-0.9576179040892148"><ele>212.0</ele><time>2026-04-06T13:33:24Z</time></trkpt><trkpt lat="48.4497521928036" lon="-0.9579515455668921"><ele>212.0</ele><time>2026-04-06T13:33:25Z</time></trkpt><trkpt lat="48.44969878746001" lon="-0.9582679010285803"><ele>212.0</ele><time>2026-04-06T13:33:26Z</time></trkpt><trkpt lat="48.44964962497424" lon="-0.95856649191555"><ele>211.66666666666669</ele><time>2026-04-06T13:33:27Z</time></trkpt><trkpt lat="48.44959090085854" lon="-0.9588514551092783"><ele>211.33333333333331</ele><time>2026-04-06T13:33:28Z</time></trkpt><trkpt lat="48.44954008307863" lon="-0.9591210676479159"><ele>211.0</ele><time>2026-04-06T13:33:29Z</time></trkpt><trkpt lat="48.44949440443044" lon="-0.95936561856681"><ele>211.75</ele><time>2026-04-06T13:33:30Z</time></trkpt><trkpt lat="48.449456781121164" lon="-0.9595806069143944"><ele>212.5</ele><time>2026-04-06T13:33:31Z</time></trkpt><trkpt lat="48.449419977060096" lon="-0.9597787498671839"><ele>213.25</ele><time>2026-04-06T13:33:32Z</time></trkpt><trkpt lat="48.449381865978474" lon="-0.959967609039537"><ele>214.0</ele><time>2026-04-06T13:33:33Z</time></trkpt><trkpt lat="48.44934671818724" lon="-0.9601477355739284"><ele>214.2</ele><time>2026-04-06T13:33:34Z</time></trkpt><trkpt lat="48.44931847755079" lon="-0.9603182716940876"><ele>214.39999999999998</ele><time>2026-04-06T13:33:35Z</time></trkpt><trkpt lat="48.44929120253401" lon="-0.9604780066031634"><ele>214.6</ele><time>2026-04-06T13:33:36Z</time></trkpt><trkpt lat="48.44926660154201" lon="-0.9606337989488919"><ele>214.8</ele><time>2026-04-06T13:33:37Z</time></trkpt><trkpt lat="48.44924822539215" lon="-0.9607836852754509"><ele>215.0</ele><time>2026-04-06T13:33:38Z</time></trkpt><trkpt lat="48.449226338993185" lon="-0.9609229823918253"><ele>215.14285714285714</ele><time>2026-04-06T13:33:39Z</time></trkpt><trkpt lat="48.449207582959055" lon="-0.9610420592604171"><ele>215.2857142857143</ele><time>2026-04-06T13:33:40Z</time></trkpt><trkpt lat="48.449197366962416" lon="-0.9611505048415722"><ele>215.42857142857144</ele><time>2026-04-06T13:33:41Z</time></trkpt><trkpt lat="48.44918232151773" lon="-0.9612547536783796"><ele>215.57142857142856</ele><time>2026-04-06T13:33:42Z</time></trkpt><trkpt lat="48.449164649467626" lon="-0.9613573447324052"><ele>215.71428571428572</ele><time>2026-04-06T13:33:43Z</time></trkpt><trkpt lat="48.449151589518834" lon="-0.9614530923183778"><ele>215.85714285714286</ele><time>2026-04-06T13:33:44Z</time></trkpt><trkpt lat="48.449142248489046" lon="-0.9615505418333211"><ele>216.0</ele><time>2026-04-06T13:33:45Z</time></trkpt><trkpt lat="48.44912987435513" lon="-0.9616460762727274"><ele>215.83333333333334</ele><time>2026-04-06T13:33:46Z</time></trkpt><trkpt lat="48.44911136747584" lon="-0.9617463728849742"><ele>215.66666666666669</ele><time>2026-04-06T13:33:47Z</time></trkpt><trkpt lat="48.44909878889649" lon="-0.9618611346733845"><ele>215.5</ele><time>2026-04-06T13:33:48Z</time></trkpt><trkpt lat="48.44908221542184" lon="-0.9619963388385725"><ele>215.33333333333334</ele><time>2026-04-06T13:33:49Z</time></trkpt><trkpt lat="48.44905942580723" lon="-0.9621451974964367"><ele>215.16666666666669</ele><time>2026-04-06T13:33:50Z</time></trkpt><trkpt lat="48.44903489813458" lon="-0.9622851519168569"><ele>215.0</ele><time>2026-04-06T13:33:51Z</time></trkpt><trkpt lat="48.44901013174827" lon="-0.9624246944995198"><ele>214.2</ele><time>2026-04-06T13:33:52Z</time></trkpt><trkpt lat="48.448984321393226" lon="-0.962563606708056"><ele>213.4</ele><time>2026-04-06T13:33:53Z</time></trkpt><trkpt lat="48.4489558500175" lon="-0.9627024929565847"><ele>212.60000000000002</ele><time>2026-04-06T13:33:54Z</time></trkpt><trkpt lat="48.44892340507456" lon="-0.9628304686184167"><ele>211.8</ele><time>2026-04-06T13:33:55Z</time></trkpt><trkpt lat="48.44888599574013" lon="-0.962958132024435"><ele>211.0</ele><time>2026-04-06T13:33:56Z</time></trkpt><trkpt lat="48.44884948093297" lon="-0.963085075903962"><ele>211.0</ele><time>2026-04-06T13:33:57Z</time></trkpt><trkpt lat="48.448818255367215" lon="-0.9632117299651685"><ele>211.0</ele><time>2026-04-06T13:33:58Z</time></trkpt><trkpt lat="48.448790070922556" lon="-0.9633434591882554"><ele>211.0</ele><time>2026-04-06T13:33:59Z</time></trkpt><trkpt lat="48.44877340701087" lon="-0.9634805673307938"><ele>211.0</ele><time>2026-04-06T13:34:00Z</time></trkpt><trkpt lat="48.44875440226199" lon="-0.963627181472433"><ele>211.0</ele><time>2026-04-06T13:34:01Z</time></trkpt><trkpt lat="48.44872762655026" lon="-0.9637743265374217"><ele>209.8</ele><time>2026-04-06T13:34:02Z</time></trkpt><trkpt lat="48.44873033509741" lon="-0.9639216191695764"><ele>208.60000000000002</ele><time>2026-04-06T13:34:03Z</time></trkpt><trkpt lat="48.448731490739384" lon="-0.9640802173242812"><ele>207.4</ele><time>2026-04-06T13:34:04Z</time></trkpt><trkpt lat="48.44872281314922" lon="-0.9642288577696646"><ele>206.2</ele><time>2026-04-06T13:34:05Z</time></trkpt><trkpt lat="48.448713005346214" lon="-0.9643750478414563"><ele>205.0</ele><time>2026-04-06T13:34:06Z</time></trkpt><trkpt lat="48.44870597837599" lon="-0.9645216717038875"><ele>204.0</ele><time>2026-04-06T13:34:07Z</time></trkpt><trkpt lat="48.44869818194096" lon="-0.9646651463305856"><ele>203.0</ele><time>2026-04-06T13:34:08Z</time></trkpt><trkpt lat="48.44869283767523" lon="-0.9648148340139446"><ele>202.0</ele><time>2026-04-06T13:34:09Z</time></trkpt><trkpt lat="48.44869615026869" lon="-0.9649638182623257"><ele>201.0</ele><time>2026-04-06T13:34:10Z</time></trkpt><trkpt lat="48.448701821424024" lon="-0.9651034903300504"><ele>200.0</ele><time>2026-04-06T13:34:11Z</time></trkpt><trkpt lat="48.44870383778409" lon="-0.9652361147619284"><ele>199.50000000000003</ele><time>2026-04-06T13:34:12Z</time></trkpt><trkpt lat="48.44870759600867" lon="-0.9653672468775811"><ele>199.0</ele><time>2026-04-06T13:34:13Z</time></trkpt><trkpt lat="48.448710182167154" lon="-0.9654859811975801"><ele>198.5</ele><time>2026-04-06T13:34:14Z</time></trkpt><trkpt lat="48.448714266862865" lon="-0.9656486380605138"><ele>198.0</ele><time>2026-04-06T13:34:16Z</time></trkpt><trkpt lat="48.448714854379595" lon="-0.9657591836042422"><ele>197.50000000000003</ele><time>2026-04-06T13:34:18Z</time></trkpt><trkpt lat="48.448694024926446" lon="-0.9658523447902883"><ele>197.0</ele><time>2026-04-06T13:34:20Z</time></trkpt><trkpt lat="48.448581763034944" lon="-0.965935777588251"><ele>196.39999999999998</ele><time>2026-04-06T13:34:22Z</time></trkpt><trkpt lat="48.44851486348005" lon="-0.9659563278170087"><ele>195.79999999999998</ele><time>2026-04-06T13:34:23Z</time></trkpt><trkpt lat="48.448443408939" lon="-0.9659960201244447"><ele>195.2</ele><time>2026-04-06T13:34:24Z</time></trkpt><trkpt lat="48.44835822478155" lon="-0.9660872450086021"><ele>194.6</ele><time>2026-04-06T13:34:25Z</time></trkpt><trkpt lat="48.44828234331958" lon="-0.9662268831801093"><ele>194.0</ele><time>2026-04-06T13:34:26Z</time></trkpt><trkpt lat="48.448184518336284" lon="-0.9663456358152591"><ele>194.0</ele><time>2026-04-06T13:34:27Z</time></trkpt><trkpt lat="48.44807017067544" lon="-0.9664595164649586"><ele>194.0</ele><time>2026-04-06T13:34:28Z</time></trkpt><trkpt lat="48.44796377328012" lon="-0.9665951252062054"><ele>194.0</ele><time>2026-04-06T13:34:29Z</time></trkpt><trkpt lat="48.44785069337188" lon="-0.9667417066161931"><ele>194.0</ele><time>2026-04-06T13:34:30Z</time></trkpt><trkpt lat="48.447729205624" lon="-0.9668966457665554"><ele>192.66666666666669</ele><time>2026-04-06T13:34:31Z</time></trkpt><trkpt lat="48.44760354005831" lon="-0.967063029455515"><ele>191.33333333333334</ele><time>2026-04-06T13:34:32Z</time></trkpt><trkpt lat="48.44746183651404" lon="-0.967231299832749"><ele>190.0</ele><time>2026-04-06T13:34:33Z</time></trkpt><trkpt lat="48.447295343550365" lon="-0.9673926602693019"><ele>195.5</ele><time>2026-04-06T13:34:34Z</time></trkpt><trkpt lat="48.447102753569645" lon="-0.9675444439598613"><ele>201.0</ele><time>2026-04-06T13:34:35Z</time></trkpt><trkpt lat="48.446888245932136" lon="-0.9676921346332502"><ele>201.0</ele><time>2026-04-06T13:34:36Z</time></trkpt><trkpt lat="48.446661294114826" lon="-0.9678449821133148"><ele>201.0</ele><time>2026-04-06T13:34:37Z</time></trkpt><trkpt lat="48.44645804543925" lon="-0.9679768656665796"><ele>202.33333333333331</ele><time>2026-04-06T13:34:38Z</time></trkpt><trkpt lat="48.44625855452536" lon="-0.9680977093703936"><ele>203.66666666666666</ele><time>2026-04-06T13:34:39Z</time></trkpt><trkpt lat="48.446053436136346" lon="-0.9682003112677039"><ele>205.0</ele><time>2026-04-06T13:34:40Z</time></trkpt><trkpt lat="48.4458487150089" lon="-0.9682934995290972"><ele>205.0</ele><time>2026-04-06T13:34:41Z</time></trkpt><trkpt lat="48.44563328893809" lon="-0.968386050054511"><ele>205.0</ele><time>2026-04-06T13:34:42Z</time></trkpt><trkpt lat="48.445414070295065" lon="-0.9684819278137634"><ele>206.5</ele><time>2026-04-06T13:34:43Z</time></trkpt><trkpt lat="48.445203194098475" lon="-0.9686005757773789"><ele>208.0</ele><time>2026-04-06T13:34:44Z</time></trkpt><trkpt lat="48.44498694073862" lon="-0.9686966245814201"><ele>208.0</ele><time>2026-04-06T13:34:45Z</time></trkpt><trkpt lat="48.44477276387726" lon="-0.9687871984188829"><ele>208.0</ele><time>2026-04-06T13:34:46Z</time></trkpt><trkpt lat="48.444552994245285" lon="-0.9688536519455784"><ele>208.0</ele><time>2026-04-06T13:34:47Z</time></trkpt><trkpt lat="48.44433731575849" lon="-0.9689303369019666"><ele>209.0</ele><time>2026-04-06T13:34:48Z</time></trkpt><trkpt lat="48.444114662730215" lon="-0.9689976832829988"><ele>210.0</ele><time>2026-04-06T13:34:49Z</time></trkpt><trkpt lat="48.443889548776035" lon="-0.9690682922889747"><ele>211.0</ele><time>2026-04-06T13:34:50Z</time></trkpt><trkpt lat="48.44366691725601" lon="-0.9691737262614248"><ele>212.0</ele><time>2026-04-06T13:34:51Z</time></trkpt><trkpt lat="48.443438104472804" lon="-0.9692463551667936"><ele>212.5</ele><time>2026-04-06T13:34:52Z</time></trkpt><trkpt lat="48.443207468702795" lon="-0.9693563003449255"><ele>213.0</ele><time>2026-04-06T13:34:53Z</time></trkpt><trkpt lat="48.4429761588539" lon="-0.9694573687556534"><ele>213.5</ele><time>2026-04-06T13:34:54Z</time></trkpt><trkpt lat="48.44274599539763" lon="-0.9695529404451171"><ele>214.0</ele><time>2026-04-06T13:34:55Z</time></trkpt><trkpt lat="48.44251575050035" lon="-0.9696477917918717"><ele>214.0</ele><time>2026-04-06T13:34:56Z</time></trkpt><trkpt lat="48.44228209943416" lon="-0.9697356855786416"><ele>214.0</ele><time>2026-04-06T13:34:57Z</time></trkpt><trkpt lat="48.44205166129773" lon="-0.9698312932859273"><ele>213.5</ele><time>2026-04-06T13:34:58Z</time></trkpt><trkpt lat="48.44182229165505" lon="-0.9699297153275684"><ele>213.0</ele><time>2026-04-06T13:34:59Z</time></trkpt><trkpt lat="48.44159435583679" lon="-0.9700284339137111"><ele>214.0</ele><time>2026-04-06T13:35:00Z</time></trkpt><trkpt lat="48.441372309862935" lon="-0.970124398714021"><ele>215.0</ele><time>2026-04-06T13:35:01Z</time></trkpt><trkpt lat="48.44115249064278" lon="-0.9702179109086873"><ele>215.0</ele><time>2026-04-06T13:35:02Z</time></trkpt><trkpt lat="48.44093543197545" lon="-0.9703075378805917"><ele>215.0</ele><time>2026-04-06T13:35:03Z</time></trkpt><trkpt lat="48.44071661001776" lon="-0.9703841466759556"><ele>215.0</ele><time>2026-04-06T13:35:04Z</time></trkpt><trkpt lat="48.440490088107026" lon="-0.9704286042030267"><ele>215.0</ele><time>2026-04-06T13:35:05Z</time></trkpt><trkpt lat="48.44027243291444" lon="-0.9704382678202411"><ele>215.0</ele><time>2026-04-06T13:35:06Z</time></trkpt><trkpt lat="48.44005464080484" lon="-0.9704212710774227"><ele>215.0</ele><time>2026-04-06T13:35:07Z</time></trkpt><trkpt lat="48.43983673227684" lon="-0.9703701054933418"><ele>215.0</ele><time>2026-04-06T13:35:08Z</time></trkpt><trkpt lat="48.43961642928748" lon="-0.9703020312241654"><ele>215.0</ele><time>2026-04-06T13:35:09Z</time></trkpt><trkpt lat="48.43939435406707" lon="-0.9702356334409278"><ele>216.0</ele><time>2026-04-06T13:35:10Z</time></trkpt><trkpt lat="48.43916750173941" lon="-0.9702017461143312"><ele>217.0</ele><time>2026-04-06T13:35:11Z</time></trkpt><trkpt lat="48.43893778683529" lon="-0.9702220494136738"><ele>219.0</ele><time>2026-04-06T13:35:12Z</time></trkpt><trkpt lat="48.43870361217963" lon="-0.9702589318375903"><ele>221.0</ele><time>2026-04-06T13:35:13Z</time></trkpt><trkpt lat="48.438468632541145" lon="-0.9702885530402376"><ele>221.0</ele><time>2026-04-06T13:35:14Z</time></trkpt><trkpt lat="48.43822932189899" lon="-0.9703523312263101"><ele>221.0</ele><time>2026-04-06T13:35:15Z</time></trkpt><trkpt lat="48.43799197055539" lon="-0.9703611716362454"><ele>223.66666666666669</ele><time>2026-04-06T13:35:16Z</time></trkpt><trkpt lat="48.43775932212727" lon="-0.9703703954166625"><ele>226.33333333333331</ele><time>2026-04-06T13:35:17Z</time></trkpt><trkpt lat="48.437544421602645" lon="-0.9703602573706455"><ele>229.0</ele><time>2026-04-06T13:35:18Z</time></trkpt><trkpt lat="48.43732370591732" lon="-0.9703399494108506"><ele>228.66666666666666</ele><time>2026-04-06T13:35:19Z</time></trkpt><trkpt lat="48.43710129826681" lon="-0.970330198920722"><ele>228.33333333333331</ele><time>2026-04-06T13:35:20Z</time></trkpt><trkpt lat="48.436876603370685" lon="-0.970300605942051"><ele>228.0</ele><time>2026-04-06T13:35:21Z</time></trkpt><trkpt lat="48.43665623085822" lon="-0.9702427999766466"><ele>228.0</ele><time>2026-04-06T13:35:22Z</time></trkpt><trkpt lat="48.43644444914131" lon="-0.9701377532367506"><ele>228.0</ele><time>2026-04-06T13:35:23Z</time></trkpt><trkpt lat="48.43622976614956" lon="-0.970048395371639"><ele>228.0</ele><time>2026-04-06T13:35:24Z</time></trkpt><trkpt lat="48.43602605373412" lon="-0.9699407538277802"><ele>227.66666666666669</ele><time>2026-04-06T13:35:25Z</time></trkpt><trkpt lat="48.43583528174261" lon="-0.9698305036660113"><ele>227.33333333333334</ele><time>2026-04-06T13:35:26Z</time></trkpt><trkpt lat="48.43570171807719" lon="-0.9695228021850926"><ele>227.0</ele><time>2026-04-06T13:35:27Z</time></trkpt><trkpt lat="48.435535777701475" lon="-0.9693938448768862"><ele>227.0</ele><time>2026-04-06T13:35:28Z</time></trkpt><trkpt lat="48.43536165928119" lon="-0.9692983080200495"><ele>227.0</ele><time>2026-04-06T13:35:29Z</time></trkpt><trkpt lat="48.435181204067995" lon="-0.9692755859851181"><ele>227.0</ele><time>2026-04-06T13:35:30Z</time></trkpt><trkpt lat="48.434998533826956" lon="-0.9692967080152792"><ele>227.0</ele><time>2026-04-06T13:35:31Z</time></trkpt><trkpt lat="48.43479765570545" lon="-0.9693702196269898"><ele>227.0</ele><time>2026-04-06T13:35:32Z</time></trkpt><trkpt lat="48.434572808063464" lon="-0.9694817490314801"><ele>227.0</ele><time>2026-04-06T13:35:33Z</time></trkpt><trkpt lat="48.43433658859705" lon="-0.9695863832659937"><ele>226.0</ele><time>2026-04-06T13:35:34Z</time></trkpt><trkpt lat="48.43408377862624" lon="-0.9696936173012322"><ele>225.0</ele><time>2026-04-06T13:35:35Z</time></trkpt><trkpt lat="48.43382838022869" lon="-0.9698071723398765"><ele>223.5</ele><time>2026-04-06T13:35:36Z</time></trkpt><trkpt lat="48.43356877508255" lon="-0.9699263556719417"><ele>222.0</ele><time>2026-04-06T13:35:37Z</time></trkpt><trkpt lat="48.43331095921935" lon="-0.9700688329838991"><ele>220.5</ele><time>2026-04-06T13:35:38Z</time></trkpt><trkpt lat="48.43305331999816" lon="-0.970229569536452"><ele>219.0</ele><time>2026-04-06T13:35:39Z</time></trkpt><trkpt lat="48.432795558951234" lon="-0.9703978243372813"><ele>219.0</ele><time>2026-04-06T13:35:40Z</time></trkpt><trkpt lat="48.432543328274015" lon="-0.9705844816688853"><ele>219.0</ele><time>2026-04-06T13:35:41Z</time></trkpt><trkpt lat="48.432292222820216" lon="-0.9707683276897735"><ele>219.0</ele><time>2026-04-06T13:35:42Z</time></trkpt><trkpt lat="48.432042041506236" lon="-0.9709580754201632"><ele>219.0</ele><time>2026-04-06T13:35:43Z</time></trkpt><trkpt lat="48.43179786364733" lon="-0.9711561815476702"><ele>219.0</ele><time>2026-04-06T13:35:44Z</time></trkpt><trkpt lat="48.431569632342786" lon="-0.9713416558759461"><ele>219.0</ele><time>2026-04-06T13:35:45Z</time></trkpt><trkpt lat="48.43134396107408" lon="-0.971488000831989"><ele>216.5</ele><time>2026-04-06T13:35:46Z</time></trkpt><trkpt lat="48.43111981602077" lon="-0.971600228620378"><ele>214.0</ele><time>2026-04-06T13:35:47Z</time></trkpt><trkpt lat="48.43089255689985" lon="-0.9717091729658033"><ele>213.5</ele><time>2026-04-06T13:35:48Z</time></trkpt><trkpt lat="48.430664622084905" lon="-0.9718148261572445"><ele>213.0</ele><time>2026-04-06T13:35:49Z</time></trkpt><trkpt lat="48.4304380735898" lon="-0.9719067765575002"><ele>211.0</ele><time>2026-04-06T13:35:50Z</time></trkpt><trkpt lat="48.43021661141792" lon="-0.9719787642372141"><ele>209.0</ele><time>2026-04-06T13:35:51Z</time></trkpt><trkpt lat="48.430000320209395" lon="-0.9720424156616023"><ele>207.0</ele><time>2026-04-06T13:35:52Z</time></trkpt><trkpt lat="48.42978982972371" lon="-0.972102987876986"><ele>204.66666666666669</ele><time>2026-04-06T13:35:53Z</time></trkpt><trkpt lat="48.429584254512555" lon="-0.9721640097148538"><ele>202.33333333333334</ele><time>2026-04-06T13:35:54Z</time></trkpt><trkpt lat="48.429387905244866" lon="-0.9722566423012887"><ele>200.0</ele><time>2026-04-06T13:35:55Z</time></trkpt><trkpt lat="48.42920394158144" lon="-0.972403804106133"><ele>200.66666666666669</ele><time>2026-04-06T13:35:56Z</time></trkpt><trkpt lat="48.429045976496276" lon="-0.9726137248714972"><ele>201.33333333333331</ele><time>2026-04-06T13:35:57Z</time></trkpt><trkpt lat="48.42891641608959" lon="-0.9728835571185405"><ele>202.0</ele><time>2026-04-06T13:35:58Z</time></trkpt><trkpt lat="48.42878218397873" lon="-0.9731416780678306"><ele>203.0</ele><time>2026-04-06T13:35:59Z</time></trkpt><trkpt lat="48.42861707381925" lon="-0.9733602787025454"><ele>204.0</ele><time>2026-04-06T13:36:00Z</time></trkpt><trkpt lat="48.42842897654799" lon="-0.9735307732544191"><ele>205.0</ele><time>2026-04-06T13:36:01Z</time></trkpt><trkpt lat="48.428226822783586" lon="-0.9736616196392647"><ele>205.0</ele><time>2026-04-06T13:36:02Z</time></trkpt><trkpt lat="48.42800437621212" lon="-0.9737788720141133"><ele>205.0</ele><time>2026-04-06T13:36:03Z</time></trkpt><trkpt lat="48.42777153172747" lon="-0.9739028476775945"><ele>205.5</ele><time>2026-04-06T13:36:04Z</time></trkpt><trkpt lat="48.42753064508656" lon="-0.9740229229797537"><ele>206.0</ele><time>2026-04-06T13:36:05Z</time></trkpt><trkpt lat="48.4272782923308" lon="-0.9741088391025491"><ele>207.0</ele><time>2026-04-06T13:36:06Z</time></trkpt><trkpt lat="48.42702087369531" lon="-0.9741470095308822"><ele>208.0</ele><time>2026-04-06T13:36:07Z</time></trkpt><trkpt lat="48.42676048992362" lon="-0.9741551217622691"><ele>210.0</ele><time>2026-04-06T13:36:08Z</time></trkpt><trkpt lat="48.4264993234292" lon="-0.974201277414812"><ele>212.0</ele><time>2026-04-06T13:36:09Z</time></trkpt><trkpt lat="48.426245758371685" lon="-0.9742895339396782"><ele>214.0</ele><time>2026-04-06T13:36:10.001Z</time></trkpt><trkpt lat="48.4259969096109" lon="-0.9743940970892097"><ele>216.0</ele><time>2026-04-06T13:36:11.001Z</time></trkpt><trkpt lat="48.42576366762773" lon="-0.9744886115525986"><ele>216.0</ele><time>2026-04-06T13:36:12.001Z</time></trkpt><trkpt lat="48.42554516595795" lon="-0.9745718065656089"><ele>216.0</ele><time>2026-04-06T13:36:13.001Z</time></trkpt><trkpt lat="48.425335600215355" lon="-0.9746473169298979"><ele>216.0</ele><time>2026-04-06T13:36:14.001Z</time></trkpt><trkpt lat="48.425139174573154" lon="-0.9747155528511465"><ele>216.33333333333331</ele><time>2026-04-06T13:36:15.001Z</time></trkpt><trkpt lat="48.42493422258485" lon="-0.9747875213488354"><ele>216.66666666666666</ele><time>2026-04-06T13:36:16.001Z</time></trkpt><trkpt lat="48.42471023359519" lon="-0.9748607322009093"><ele>217.0</ele><time>2026-04-06T13:36:17.001Z</time></trkpt><trkpt lat="48.42446934264006" lon="-0.9749336134925847"><ele>216.0</ele><time>2026-04-06T13:36:18.001Z</time></trkpt><trkpt lat="48.42421901462053" lon="-0.9750182088091631"><ele>215.0</ele><time>2026-04-06T13:36:19.001Z</time></trkpt><trkpt lat="48.42395904692686" lon="-0.9751080439237532"><ele>213.0</ele><time>2026-04-06T13:36:20.001Z</time></trkpt><trkpt lat="48.42369919622075" lon="-0.9752057092599065"><ele>211.0</ele><time>2026-04-06T13:36:21Z</time></trkpt><trkpt lat="48.42343388242904" lon="-0.9753032759504221"><ele>211.0</ele><time>2026-04-06T13:36:22Z</time></trkpt><trkpt lat="48.42317092999503" lon="-0.9754219150951512"><ele>211.0</ele><time>2026-04-06T13:36:23Z</time></trkpt><trkpt lat="48.42290457516099" lon="-0.9755432851400854"><ele>208.5</ele><time>2026-04-06T13:36:24Z</time></trkpt><trkpt lat="48.422630382877074" lon="-0.975635642768655"><ele>206.0</ele><time>2026-04-06T13:36:25Z</time></trkpt><trkpt lat="48.42237324710757" lon="-0.975713614923396"><ele>205.0</ele><time>2026-04-06T13:36:26Z</time></trkpt><trkpt lat="48.4221247259752" lon="-0.9758145895836161"><ele>204.0</ele><time>2026-04-06T13:36:27Z</time></trkpt><trkpt lat="48.42188073461799" lon="-0.9759273935758035"><ele>204.0</ele><time>2026-04-06T13:36:28Z</time></trkpt><trkpt lat="48.42165102082046" lon="-0.9760414936942378"><ele>204.0</ele><time>2026-04-06T13:36:29Z</time></trkpt><trkpt lat="48.421433129068085" lon="-0.9761553441136699"><ele>201.5</ele><time>2026-04-06T13:36:30Z</time></trkpt><trkpt lat="48.42122235017544" lon="-0.976279091028246"><ele>199.0</ele><time>2026-04-06T13:36:31Z</time></trkpt><trkpt lat="48.42102361491403" lon="-0.9764444002171192"><ele>199.0</ele><time>2026-04-06T13:36:32Z</time></trkpt><trkpt lat="48.42083594248225" lon="-0.976646053082243"><ele>199.0</ele><time>2026-04-06T13:36:33Z</time></trkpt><trkpt lat="48.420676665506704" lon="-0.9769050565014391"><ele>198.5</ele><time>2026-04-06T13:36:34Z</time></trkpt><trkpt lat="48.42050849458586" lon="-0.9771646218300714"><ele>198.0</ele><time>2026-04-06T13:36:35Z</time></trkpt><trkpt lat="48.420326596821894" lon="-0.977440650423978"><ele>197.0</ele><time>2026-04-06T13:36:36Z</time></trkpt><trkpt lat="48.42013111312561" lon="-0.9777191956414497"><ele>196.0</ele><time>2026-04-06T13:36:37Z</time></trkpt><trkpt lat="48.419925437355005" lon="-0.9780002502547671"><ele>196.0</ele><time>2026-04-06T13:36:38Z</time></trkpt><trkpt lat="48.41969662975868" lon="-0.9782955264882858"><ele>196.0</ele><time>2026-04-06T13:36:39Z</time></trkpt><trkpt lat="48.419455945003165" lon="-0.978573385399547"><ele>193.0</ele><time>2026-04-06T13:36:40Z</time></trkpt><trkpt lat="48.41919890018675" lon="-0.9788261324820955"><ele>190.0</ele><time>2026-04-06T13:36:41Z</time></trkpt><trkpt lat="48.41896362982776" lon="-0.9790684827223068"><ele>189.5</ele><time>2026-04-06T13:36:42Z</time></trkpt><trkpt lat="48.41873635628316" lon="-0.9792930915533685"><ele>189.0</ele><time>2026-04-06T13:36:43Z</time></trkpt><trkpt lat="48.418512346056644" lon="-0.9794823160291943"><ele>189.0</ele><time>2026-04-06T13:36:44Z</time></trkpt><trkpt lat="48.41827624032975" lon="-0.979636421554793"><ele>189.0</ele><time>2026-04-06T13:36:45Z</time></trkpt><trkpt lat="48.41803783017403" lon="-0.9797721778630276"><ele>188.5</ele><time>2026-04-06T13:36:46Z</time></trkpt><trkpt lat="48.4178023237411" lon="-0.9799166768765953"><ele>188.0</ele><time>2026-04-06T13:36:47Z</time></trkpt><trkpt lat="48.41757375385559" lon="-0.9800961533628644"><ele>187.5</ele><time>2026-04-06T13:36:48Z</time></trkpt><trkpt lat="48.4173582600142" lon="-0.9803045233062854"><ele>187.0</ele><time>2026-04-06T13:36:49Z</time></trkpt><trkpt lat="48.41714367228052" lon="-0.9805344306836409"><ele>187.0</ele><time>2026-04-06T13:36:50Z</time></trkpt><trkpt lat="48.416914359220584" lon="-0.9807786127216567"><ele>187.0</ele><time>2026-04-06T13:36:51Z</time></trkpt><trkpt lat="48.4166721832891" lon="-0.9810240808510549"><ele>187.0</ele><time>2026-04-06T13:36:52Z</time></trkpt><trkpt lat="48.41643606081936" lon="-0.9812578375282669"><ele>187.0</ele><time>2026-04-06T13:36:53Z</time></trkpt><trkpt lat="48.41620421962263" lon="-0.9814961123039788"><ele>186.0</ele><time>2026-04-06T13:36:54Z</time></trkpt><trkpt lat="48.41598555956351" lon="-0.9817380332696666"><ele>185.0</ele><time>2026-04-06T13:36:55Z</time></trkpt><trkpt lat="48.4157765467148" lon="-0.9819637296954477"><ele>185.0</ele><time>2026-04-06T13:36:56Z</time></trkpt><trkpt lat="48.41558855838081" lon="-0.9821933988406986"><ele>185.0</ele><time>2026-04-06T13:36:57Z</time></trkpt><trkpt lat="48.41540035335524" lon="-0.9824029849158151"><ele>183.5</ele><time>2026-04-06T13:36:58Z</time></trkpt><trkpt lat="48.41520640232028" lon="-0.9825965164250682"><ele>182.0</ele><time>2026-04-06T13:36:59Z</time></trkpt><trkpt lat="48.41501286041669" lon="-0.9827905878923588"><ele>182.0</ele><time>2026-04-06T13:37:00Z</time></trkpt><trkpt lat="48.41483712002256" lon="-0.9829924154265542"><ele>182.0</ele><time>2026-04-06T13:37:01Z</time></trkpt><trkpt lat="48.414687164400604" lon="-0.9832232618067928"><ele>182.0</ele><time>2026-04-06T13:37:02Z</time></trkpt><trkpt lat="48.414565918182966" lon="-0.9834744470427158"><ele>181.66666666666666</ele><time>2026-04-06T13:37:03Z</time></trkpt><trkpt lat="48.414498118947776" lon="-0.9837700299668417"><ele>181.33333333333334</ele><time>2026-04-06T13:37:04Z</time></trkpt><trkpt lat="48.41440678942701" lon="-0.9840816451625319"><ele>181.0</ele><time>2026-04-06T13:37:05Z</time></trkpt><trkpt lat="48.41433276507509" lon="-0.9844337151147451"><ele>181.0</ele><time>2026-04-06T13:37:06Z</time></trkpt><trkpt lat="48.41425151215848" lon="-0.9847895152214979"><ele>181.0</ele><time>2026-04-06T13:37:07Z</time></trkpt><trkpt lat="48.41417506340151" lon="-0.9851142856077386"><ele>180.5</ele><time>2026-04-06T13:37:08Z</time></trkpt><trkpt lat="48.41409732661147" lon="-0.9854324459143392"><ele>180.0</ele><time>2026-04-06T13:37:09Z</time></trkpt><trkpt lat="48.41400639237372" lon="-0.9857467125485571"><ele>179.33333333333334</ele><time>2026-04-06T13:37:10Z</time></trkpt><trkpt lat="48.41390249259498" lon="-0.9860478932405154"><ele>178.66666666666669</ele><time>2026-04-06T13:37:11Z</time></trkpt><trkpt lat="48.413790382246496" lon="-0.9863345181309607"><ele>178.0</ele><time>2026-04-06T13:37:12Z</time></trkpt><trkpt lat="48.41367544514059" lon="-0.986619872158187"><ele>177.66666666666669</ele><time>2026-04-06T13:37:13Z</time></trkpt><trkpt lat="48.41355107512103" lon="-0.9868998706481487"><ele>177.33333333333334</ele><time>2026-04-06T13:37:14Z</time></trkpt><trkpt lat="48.41340424802682" lon="-0.987157776340072"><ele>177.0</ele><time>2026-04-06T13:37:15Z</time></trkpt><trkpt lat="48.41323234620766" lon="-0.9873887849460711"><ele>176.5</ele><time>2026-04-06T13:37:16Z</time></trkpt><trkpt lat="48.41304432949336" lon="-0.9876097217682849"><ele>176.0</ele><time>2026-04-06T13:37:17Z</time></trkpt><trkpt lat="48.41284563691497" lon="-0.9878306647300387"><ele>176.66666666666666</ele><time>2026-04-06T13:37:18Z</time></trkpt><trkpt lat="48.41265834388906" lon="-0.9880314533588874"><ele>177.33333333333334</ele><time>2026-04-06T13:37:19Z</time></trkpt><trkpt lat="48.412483528928185" lon="-0.9882212921723208"><ele>178.0</ele><time>2026-04-06T13:37:20Z</time></trkpt><trkpt lat="48.412317190572246" lon="-0.9884018699668807"><ele>179.0</ele><time>2026-04-06T13:37:21Z</time></trkpt><trkpt lat="48.412153016339595" lon="-0.9885738800563754"><ele>180.0</ele><time>2026-04-06T13:37:22Z</time></trkpt><trkpt lat="48.41199811431597" lon="-0.9887384862085244"><ele>181.0</ele><time>2026-04-06T13:37:23Z</time></trkpt><trkpt lat="48.41185150013269" lon="-0.9888935245155117"><ele>181.0</ele><time>2026-04-06T13:37:24Z</time></trkpt><trkpt lat="48.41171613173668" lon="-0.9890367962510991"><ele>181.0</ele><time>2026-04-06T13:37:25Z</time></trkpt><trkpt lat="48.41159922945329" lon="-0.9891706532561283"><ele>181.0</ele><time>2026-04-06T13:37:26Z</time></trkpt><trkpt lat="48.41148943351095" lon="-0.9892945094553083"><ele>181.0</ele><time>2026-04-06T13:37:27Z</time></trkpt><trkpt lat="48.4113887527485" lon="-0.9894053638935832"><ele>179.8</ele><time>2026-04-06T13:37:28Z</time></trkpt><trkpt lat="48.41130217726528" lon="-0.9895023777945446"><ele>178.60000000000002</ele><time>2026-04-06T13:37:29Z</time></trkpt><trkpt lat="48.411223362437916" lon="-0.9895846744510656"><ele>177.4</ele><time>2026-04-06T13:37:30Z</time></trkpt><trkpt lat="48.41116372846819" lon="-0.9896600228854616"><ele>176.2</ele><time>2026-04-06T13:37:31Z</time></trkpt><trkpt lat="48.411108780566025" lon="-0.9897743095927486"><ele>175.0</ele><time>2026-04-06T13:37:33Z</time></trkpt><trkpt lat="48.411018485337344" lon="-0.9898480263964228"><ele>175.0</ele><time>2026-04-06T13:37:39Z</time></trkpt><trkpt lat="48.410950123396084" lon="-0.9897981067815937"><ele>175.0</ele><time>2026-04-06T13:37:40Z</time></trkpt><trkpt lat="48.410874008000526" lon="-0.9896954391025689"><ele>175.0</ele><time>2026-04-06T13:37:41Z</time></trkpt><trkpt lat="48.41080055337708" lon="-0.9896058005340114"><ele>175.0</ele><time>2026-04-06T13:37:42Z</time></trkpt><trkpt lat="48.4107085513965" lon="-0.9894970939423651"><ele>175.0</ele><time>2026-04-06T13:37:43Z</time></trkpt><trkpt lat="48.410596733923" lon="-0.989377285908643"><ele>174.5</ele><time>2026-04-06T13:37:44Z</time></trkpt><trkpt lat="48.41048606956377" lon="-0.9892638722972495"><ele>174.0</ele><time>2026-04-06T13:37:45Z</time></trkpt><trkpt lat="48.4103613983262" lon="-0.9891377983061517"><ele>173.5</ele><time>2026-04-06T13:37:46Z</time></trkpt><trkpt lat="48.41022792099433" lon="-0.9890052190555265"><ele>173.0</ele><time>2026-04-06T13:37:47Z</time></trkpt><trkpt lat="48.41009352259458" lon="-0.9888794924358623"><ele>173.0</ele><time>2026-04-06T13:37:48Z</time></trkpt><trkpt lat="48.40995252722384" lon="-0.9887603705116694"><ele>173.0</ele><time>2026-04-06T13:37:49Z</time></trkpt><trkpt lat="48.409800637878746" lon="-0.9886460466515028"><ele>173.0</ele><time>2026-04-06T13:37:50Z</time></trkpt><trkpt lat="48.409634537948946" lon="-0.9885720986530535"><ele>171.33333333333331</ele><time>2026-04-06T13:37:51Z</time></trkpt><trkpt lat="48.40946756437529" lon="-0.9884988603638183"><ele>169.66666666666666</ele><time>2026-04-06T13:37:52Z</time></trkpt><trkpt lat="48.409307636237465" lon="-0.9884379983498093"><ele>168.0</ele><time>2026-04-06T13:37:53Z</time></trkpt><trkpt lat="48.409151340174056" lon="-0.9883863017397619"><ele>168.0</ele><time>2026-04-06T13:37:54Z</time></trkpt><trkpt lat="48.408998775455245" lon="-0.9883536730966425"><ele>168.0</ele><time>2026-04-06T13:37:55Z</time></trkpt><trkpt lat="48.40884790141119" lon="-0.9883414409161546"><ele>168.0</ele><time>2026-04-06T13:37:56Z</time></trkpt><trkpt lat="48.40870231756019" lon="-0.9883366205075436"><ele>167.0</ele><time>2026-04-06T13:37:57Z</time></trkpt><trkpt lat="48.40856738901549" lon="-0.9883399559940094"><ele>166.0</ele><time>2026-04-06T13:37:58Z</time></trkpt><trkpt lat="48.40843213375995" lon="-0.9883477900157159"><ele>165.0</ele><time>2026-04-06T13:37:59Z</time></trkpt><trkpt lat="48.40830283007278" lon="-0.9883582966018003"><ele>164.0</ele><time>2026-04-06T13:38:00Z</time></trkpt><trkpt lat="48.408185638755775" lon="-0.9883678468426652"><ele>163.66666666666666</ele><time>2026-04-06T13:38:01Z</time></trkpt><trkpt lat="48.40808198233105" lon="-0.9883607097408565"><ele>163.33333333333331</ele><time>2026-04-06T13:38:02Z</time></trkpt><trkpt lat="48.40799387642286" lon="-0.9883846932317234"><ele>163.0</ele><time>2026-04-06T13:38:03Z</time></trkpt><trkpt lat="48.40791266776867" lon="-0.9884253966665671"><ele>162.66666666666666</ele><time>2026-04-06T13:38:04Z</time></trkpt><trkpt lat="48.407850797185894" lon="-0.9885062291343011"><ele>162.33333333333334</ele><time>2026-04-06T13:38:05Z</time></trkpt><trkpt lat="48.40778572699909" lon="-0.9885667697354886"><ele>162.0</ele><time>2026-04-06T13:38:06Z</time></trkpt><trkpt lat="48.407715538632345" lon="-0.9885886140353365"><ele>162.0</ele><time>2026-04-06T13:38:07Z</time></trkpt><trkpt lat="48.40764008087414" lon="-0.9885088240875932"><ele>162.0</ele><time>2026-04-06T13:38:08Z</time></trkpt><trkpt lat="48.407605123511075" lon="-0.9884078507043048"><ele>162.0</ele><time>2026-04-06T13:38:09Z</time></trkpt><trkpt lat="48.407660006295465" lon="-0.9881903997373263"><ele>162.0</ele><time>2026-04-06T13:38:11Z</time></trkpt><trkpt lat="48.40771929020121" lon="-0.9880855445487616"><ele>162.0</ele><time>2026-04-06T13:38:12Z</time></trkpt><trkpt lat="48.40775508211828" lon="-0.9879305493438505"><ele>162.75</ele><time>2026-04-06T13:38:13Z</time></trkpt><trkpt lat="48.407789169296066" lon="-0.9877328720137007"><ele>163.5</ele><time>2026-04-06T13:38:14Z</time></trkpt><trkpt lat="48.40775452946121" lon="-0.9875143205400583"><ele>164.25</ele><time>2026-04-06T13:38:15Z</time></trkpt><trkpt lat="48.40773372483553" lon="-0.9873482245490586"><ele>165.0</ele><time>2026-04-06T13:38:16Z</time></trkpt><trkpt lat="48.40770009299136" lon="-0.9871869110805653"><ele>165.2</ele><time>2026-04-06T13:38:17.001Z</time></trkpt><trkpt lat="48.4076576507011" lon="-0.9870349092544894"><ele>165.4</ele><time>2026-04-06T13:38:18Z</time></trkpt><trkpt lat="48.40759399096956" lon="-0.9869110627855892"><ele>165.60000000000002</ele><time>2026-04-06T13:38:19Z</time></trkpt><trkpt lat="48.4075527950764" lon="-0.9867702566499146"><ele>165.8</ele><time>2026-04-06T13:38:20Z</time></trkpt><trkpt lat="48.407503016961854" lon="-0.9866554360628346"><ele>166.0</ele><time>2026-04-06T13:38:21Z</time></trkpt><trkpt lat="48.407458876151914" lon="-0.9865478648957351"><ele>166.4</ele><time>2026-04-06T13:38:22Z</time></trkpt><trkpt lat="48.40739246898814" lon="-0.9864403769459699"><ele>166.8</ele><time>2026-04-06T13:38:23Z</time></trkpt><trkpt lat="48.4073365971126" lon="-0.9863159318453479"><ele>167.20000000000002</ele><time>2026-04-06T13:38:24Z</time></trkpt><trkpt lat="48.407275624417345" lon="-0.9861832217420152"><ele>167.60000000000002</ele><time>2026-04-06T13:38:25Z</time></trkpt><trkpt lat="48.407212460371305" lon="-0.9860450530062496"><ele>168.0</ele><time>2026-04-06T13:38:26Z</time></trkpt><trkpt lat="48.40714897873146" lon="-0.9858988885034075"><ele>168.75</ele><time>2026-04-06T13:38:27Z</time></trkpt><trkpt lat="48.407077489327214" lon="-0.985740899205448"><ele>169.5</ele><time>2026-04-06T13:38:28Z</time></trkpt><trkpt lat="48.40700403172312" lon="-0.985580333691867"><ele>170.25</ele><time>2026-04-06T13:38:29Z</time></trkpt><trkpt lat="48.40693972040786" lon="-0.9854345950113877"><ele>171.0</ele><time>2026-04-06T13:38:30Z</time></trkpt><trkpt lat="48.40687628818499" lon="-0.985295468633618"><ele>171.0</ele><time>2026-04-06T13:38:31Z</time></trkpt><trkpt lat="48.406815407962085" lon="-0.9851671973722591"><ele>171.0</ele><time>2026-04-06T13:38:32Z</time></trkpt><trkpt lat="48.40675299771176" lon="-0.9850441401813497"><ele>171.0</ele><time>2026-04-06T13:38:33Z</time></trkpt><trkpt lat="48.406686425223796" lon="-0.9849160050547385"><ele>171.0</ele><time>2026-04-06T13:38:34Z</time></trkpt><trkpt lat="48.40662341456615" lon="-0.9847947257280301"><ele>171.0</ele><time>2026-04-06T13:38:35Z</time></trkpt><trkpt lat="48.40656918031555" lon="-0.9846686009160458"><ele>171.4</ele><time>2026-04-06T13:38:36Z</time></trkpt><trkpt lat="48.40652241791667" lon="-0.984559200447146"><ele>171.8</ele><time>2026-04-06T13:38:37Z</time></trkpt><trkpt lat="48.40647755078161" lon="-0.9844492320554704"><ele>172.20000000000002</ele><time>2026-04-06T13:38:38Z</time></trkpt><trkpt lat="48.406433998875656" lon="-0.984335349333414"><ele>172.60000000000002</ele><time>2026-04-06T13:38:39Z</time></trkpt><trkpt lat="48.40638585309862" lon="-0.9842086569723691"><ele>173.0</ele><time>2026-04-06T13:38:40Z</time></trkpt><trkpt lat="48.40633797697598" lon="-0.984071370984198"><ele>172.0</ele><time>2026-04-06T13:38:41Z</time></trkpt><trkpt lat="48.406308595550065" lon="-0.9839193615438725"><ele>171.0</ele><time>2026-04-06T13:38:42Z</time></trkpt><trkpt lat="48.40626416676811" lon="-0.9837629806990605"><ele>170.0</ele><time>2026-04-06T13:38:43Z</time></trkpt><trkpt lat="48.40622391024779" lon="-0.9835916389588311"><ele>169.0</ele><time>2026-04-06T13:38:44Z</time></trkpt><trkpt lat="48.40616747376345" lon="-0.983421357751586"><ele>169.75</ele><time>2026-04-06T13:38:44.999Z</time></trkpt><trkpt lat="48.40614641330522" lon="-0.9832227783476414"><ele>170.5</ele><time>2026-04-06T13:38:45.999Z</time></trkpt><trkpt lat="48.40611478679952" lon="-0.9830217008699201"><ele>171.25</ele><time>2026-04-06T13:38:46.999Z</time></trkpt><trkpt lat="48.40610519987803" lon="-0.9828027905317293"><ele>172.0</ele><time>2026-04-06T13:38:47.999Z</time></trkpt><trkpt lat="48.40610638376574" lon="-0.9825373646967076"><ele>172.66666666666669</ele><time>2026-04-06T13:38:48.999Z</time></trkpt><trkpt lat="48.406117775324894" lon="-0.9822202278240846"><ele>173.33333333333334</ele><time>2026-04-06T13:38:49.999Z</time></trkpt><trkpt lat="48.406133761226734" lon="-0.9818724960632538"><ele>174.0</ele><time>2026-04-06T13:38:50.999Z</time></trkpt><trkpt lat="48.406146675336714" lon="-0.9815019665922682"><ele>174.5</ele><time>2026-04-06T13:38:51.999Z</time></trkpt><trkpt lat="48.406142995579636" lon="-0.9811247336019927"><ele>175.0</ele><time>2026-04-06T13:38:52.999Z</time></trkpt><trkpt lat="48.40612490303661" lon="-0.9807323267536381"><ele>176.0</ele><time>2026-04-06T13:38:53.999Z</time></trkpt><trkpt lat="48.40609878682971" lon="-0.9803424415441895"><ele>177.0</ele><time>2026-04-06T13:38:54.999Z</time></trkpt><trkpt lat="48.40605500121791" lon="-0.9799398144706393"><ele>177.5</ele><time>2026-04-06T13:38:55.999Z</time></trkpt><trkpt lat="48.40598999983932" lon="-0.9795464404051629"><ele>178.0</ele><time>2026-04-06T13:38:56.999Z</time></trkpt><trkpt lat="48.40591079346022" lon="-0.9791542697185138"><ele>178.0</ele><time>2026-04-06T13:38:57.999Z</time></trkpt><trkpt lat="48.405812622118226" lon="-0.9787531074005533"><ele>178.0</ele><time>2026-04-06T13:38:58.999Z</time></trkpt><trkpt lat="48.405698260407256" lon="-0.9783385602622847"><ele>177.0</ele><time>2026-04-06T13:38:59.999Z</time></trkpt><trkpt lat="48.40559013673958" lon="-0.9779273856390578"><ele>176.0</ele><time>2026-04-06T13:39:00.999Z</time></trkpt><trkpt lat="48.40547233243754" lon="-0.9775149933110083"><ele>178.0</ele><time>2026-04-06T13:39:01.999Z</time></trkpt><trkpt lat="48.40535630308944" lon="-0.9771064403175399"><ele>180.0</ele><time>2026-04-06T13:39:02.999Z</time></trkpt><trkpt lat="48.405241986677666" lon="-0.976701302096624"><ele>179.0</ele><time>2026-04-06T13:39:03.999Z</time></trkpt><trkpt lat="48.40512905797272" lon="-0.9762923580302442"><ele>178.0</ele><time>2026-04-06T13:39:04.999Z</time></trkpt><trkpt lat="48.40501409276809" lon="-0.9758841844790158"><ele>177.5</ele><time>2026-04-06T13:39:05.999Z</time></trkpt><trkpt lat="48.404900128176465" lon="-0.9754732178719215"><ele>177.0</ele><time>2026-04-06T13:39:06.999Z</time></trkpt><trkpt lat="48.404787520662545" lon="-0.9750600691818366"><ele>176.0</ele><time>2026-04-06T13:39:07.999Z</time></trkpt><trkpt lat="48.404673564590894" lon="-0.9746477764972311"><ele>175.0</ele><time>2026-04-06T13:39:08.999Z</time></trkpt><trkpt lat="48.40456177207192" lon="-0.9742408284768066"><ele>176.0</ele><time>2026-04-06T13:39:09.999Z</time></trkpt><trkpt lat="48.40444016395373" lon="-0.973863698674982"><ele>177.0</ele><time>2026-04-06T13:39:10.999Z</time></trkpt><trkpt lat="48.404338683463976" lon="-0.9735001213568016"><ele>176.0</ele><time>2026-04-06T13:39:11.999Z</time></trkpt><trkpt lat="48.40425298587839" lon="-0.9731334935763527"><ele>175.0</ele><time>2026-04-06T13:39:12.999Z</time></trkpt><trkpt lat="48.4041484612283" lon="-0.9727813284483741"><ele>174.5</ele><time>2026-04-06T13:39:13.999Z</time></trkpt><trkpt lat="48.4040478576275" lon="-0.9724237620606343"><ele>174.0</ele><time>2026-04-06T13:39:14.999Z</time></trkpt><trkpt lat="48.40394961191667" lon="-0.972073538093929"><ele>174.0</ele><time>2026-04-06T13:39:15.999Z</time></trkpt><trkpt lat="48.40385348282432" lon="-0.9717455147768064"><ele>174.0</ele><time>2026-04-06T13:39:16.999Z</time></trkpt><trkpt lat="48.403765150026295" lon="-0.9714165322196693"><ele>175.0</ele><time>2026-04-06T13:39:17.999Z</time></trkpt><trkpt lat="48.40369069931591" lon="-0.9710774313153726"><ele>176.0</ele><time>2026-04-06T13:39:18.999Z</time></trkpt><trkpt lat="48.403627175513584" lon="-0.9707239063700299"><ele>176.0</ele><time>2026-04-06T13:39:19.999Z</time></trkpt><trkpt lat="48.403589288132316" lon="-0.9703680109002116"><ele>176.0</ele><time>2026-04-06T13:39:20.999Z</time></trkpt><trkpt lat="48.403579209609426" lon="-0.9699936394468538"><ele>176.0</ele><time>2026-04-06T13:39:21.999Z</time></trkpt><trkpt lat="48.40358467096597" lon="-0.9696349804510338"><ele>176.0</ele><time>2026-04-06T13:39:22.999Z</time></trkpt><trkpt lat="48.403587011241015" lon="-0.9693011238892605"><ele>177.0</ele><time>2026-04-06T13:39:23.999Z</time></trkpt><trkpt lat="48.40358731826213" lon="-0.9689475900229761"><ele>178.0</ele><time>2026-04-06T13:39:24.999Z</time></trkpt><trkpt lat="48.40359109017859" lon="-0.9685647714731188"><ele>178.5</ele><time>2026-04-06T13:39:25.999Z</time></trkpt><trkpt lat="48.40357787282567" lon="-0.9681663465416485"><ele>179.0</ele><time>2026-04-06T13:39:26.999Z</time></trkpt><trkpt lat="48.403575278858455" lon="-0.9677582010380297"><ele>180.5</ele><time>2026-04-06T13:39:27.999Z</time></trkpt><trkpt lat="48.40357327360605" lon="-0.9673405780303108"><ele>182.0</ele><time>2026-04-06T13:39:28.999Z</time></trkpt><trkpt lat="48.40357496028936" lon="-0.9669146735386708"><ele>185.0</ele><time>2026-04-06T13:39:29.999Z</time></trkpt><trkpt lat="48.40356946474081" lon="-0.9664858964854397"><ele>188.0</ele><time>2026-04-06T13:39:30.999Z</time></trkpt><trkpt lat="48.403564411460174" lon="-0.9660671126797533"><ele>189.5</ele><time>2026-04-06T13:39:31.999Z</time></trkpt><trkpt lat="48.403573263293545" lon="-0.9656579571228426"><ele>191.0</ele><time>2026-04-06T13:39:32.999Z</time></trkpt><trkpt lat="48.403608284977764" lon="-0.9652575665928772"><ele>192.5</ele><time>2026-04-06T13:39:33.999Z</time></trkpt><trkpt lat="48.403672636166206" lon="-0.9648622063643596"><ele>194.0</ele><time>2026-04-06T13:39:34.999Z</time></trkpt><trkpt lat="48.40376872137003" lon="-0.9644742418963608"><ele>190.0</ele><time>2026-04-06T13:39:35.999Z</time></trkpt><trkpt lat="48.403869919784405" lon="-0.9640793395663909"><ele>186.0</ele><time>2026-04-06T13:39:36.999Z</time></trkpt><trkpt lat="48.40396057295501" lon="-0.9636866445281296"><ele>189.0</ele><time>2026-04-06T13:39:37.999Z</time></trkpt><trkpt lat="48.40405851555703" lon="-0.9632971030533349"><ele>192.0</ele><time>2026-04-06T13:39:38.999Z</time></trkpt><trkpt lat="48.404155594646724" lon="-0.962913588369161"><ele>192.0</ele><time>2026-04-06T13:39:39.999Z</time></trkpt><trkpt lat="48.40424438241481" lon="-0.9625355887084912"><ele>192.0</ele><time>2026-04-06T13:39:40.999Z</time></trkpt><trkpt lat="48.40432971822112" lon="-0.9621587569424302"><ele>195.0</ele><time>2026-04-06T13:39:41.999Z</time></trkpt><trkpt lat="48.40441151971171" lon="-0.9617774934091625"><ele>198.0</ele><time>2026-04-06T13:39:42.999Z</time></trkpt><trkpt lat="48.404483524041254" lon="-0.9613982899332326"><ele>200.5</ele><time>2026-04-06T13:39:43.999Z</time></trkpt><trkpt lat="48.40455016941312" lon="-0.9610280488600783"><ele>203.0</ele><time>2026-04-06T13:39:44.999Z</time></trkpt><trkpt lat="48.40461263181761" lon="-0.9606596821808382"><ele>202.5</ele><time>2026-04-06T13:39:45.999Z</time></trkpt><trkpt lat="48.404676653385835" lon="-0.9603050904142187"><ele>202.0</ele><time>2026-04-06T13:39:46.999Z</time></trkpt><trkpt lat="48.404739855120624" lon="-0.9599557694617764"><ele>204.0</ele><time>2026-04-06T13:39:47.999Z</time></trkpt><trkpt lat="48.40480223654183" lon="-0.9596122590846046"><ele>206.0</ele><time>2026-04-06T13:39:48.999Z</time></trkpt><trkpt lat="48.404864678259216" lon="-0.9592893447856747"><ele>206.33333333333334</ele><time>2026-04-06T13:39:49.999Z</time></trkpt><trkpt lat="48.40492410849431" lon="-0.958978516761787"><ele>206.66666666666669</ele><time>2026-04-06T13:39:50.999Z</time></trkpt><trkpt lat="48.40497948704614" lon="-0.958672814008971"><ele>207.0</ele><time>2026-04-06T13:39:51.999Z</time></trkpt><trkpt lat="48.40503427802515" lon="-0.9583661087593068"><ele>207.33333333333331</ele><time>2026-04-06T13:39:52.999Z</time></trkpt><trkpt lat="48.40509100102666" lon="-0.9580543027656117"><ele>207.66666666666666</ele><time>2026-04-06T13:39:53.999Z</time></trkpt><trkpt lat="48.40515104752267" lon="-0.9577370229128533"><ele>208.0</ele><time>2026-04-06T13:39:54.999Z</time></trkpt><trkpt lat="48.4052115987835" lon="-0.9574071492032007"><ele>208.0</ele><time>2026-04-06T13:39:55.999Z</time></trkpt><trkpt lat="48.405272503139415" lon="-0.9570777924938778"><ele>208.0</ele><time>2026-04-06T13:39:56.999Z</time></trkpt><trkpt lat="48.405334747114246" lon="-0.956756591931734"><ele>208.0</ele><time>2026-04-06T13:39:57.999Z</time></trkpt><trkpt lat="48.405391361012164" lon="-0.9564455753192854"><ele>207.33333333333331</ele><time>2026-04-06T13:39:58.999Z</time></trkpt><trkpt lat="48.405448535620074" lon="-0.9561375479582508"><ele>206.66666666666669</ele><time>2026-04-06T13:39:59.999Z</time></trkpt><trkpt lat="48.405504161052235" lon="-0.9558404215134323"><ele>206.0</ele><time>2026-04-06T13:40:00.999Z</time></trkpt><trkpt lat="48.40555526182103" lon="-0.9555574101544255"><ele>205.0</ele><time>2026-04-06T13:40:01.999Z</time></trkpt><trkpt lat="48.40560812363302" lon="-0.9552813340445426"><ele>204.0</ele><time>2026-04-06T13:40:02.999Z</time></trkpt><trkpt lat="48.40565754223368" lon="-0.9550070718423247"><ele>203.0</ele><time>2026-04-06T13:40:03.999Z</time></trkpt><trkpt lat="48.405704577530436" lon="-0.9547395657799679"><ele>203.0</ele><time>2026-04-06T13:40:04.999Z</time></trkpt><trkpt lat="48.4057554584165" lon="-0.9544688172585215"><ele>203.0</ele><time>2026-04-06T13:40:05.999Z</time></trkpt><trkpt lat="48.40580722168929" lon="-0.9541948048425775"><ele>203.0</ele><time>2026-04-06T13:40:06.999Z</time></trkpt><trkpt lat="48.405860090484914" lon="-0.9539238125471865"><ele>203.0</ele><time>2026-04-06T13:40:07.999Z</time></trkpt><trkpt lat="48.405907481201695" lon="-0.9536667639804975"><ele>203.0</ele><time>2026-04-06T13:40:08.999Z</time></trkpt><trkpt lat="48.405954911581176" lon="-0.9534214097422007"><ele>203.0</ele><time>2026-04-06T13:40:09.999Z</time></trkpt><trkpt lat="48.40599841881349" lon="-0.953180419464101"><ele>203.0</ele><time>2026-04-06T13:40:10.999Z</time></trkpt><trkpt lat="48.406040415603506" lon="-0.9529404925313271"><ele>203.0</ele><time>2026-04-06T13:40:11.999Z</time></trkpt><trkpt lat="48.406080126274055" lon="-0.9526997156822503"><ele>203.0</ele><time>2026-04-06T13:40:12.999Z</time></trkpt><trkpt lat="48.40612376719837" lon="-0.9524575955738279"><ele>203.0</ele><time>2026-04-06T13:40:13.999Z</time></trkpt><trkpt lat="48.40617025801879" lon="-0.9522133652970478"><ele>203.0</ele><time>2026-04-06T13:40:14.999Z</time></trkpt><trkpt lat="48.40621859232326" lon="-0.9519634288862339"><ele>203.0</ele><time>2026-04-06T13:40:15.999Z</time></trkpt><trkpt lat="48.40626570036557" lon="-0.9517099197778522"><ele>203.0</ele><time>2026-04-06T13:40:16.999Z</time></trkpt><trkpt lat="48.40631113969033" lon="-0.9514619662625098"><ele>203.0</ele><time>2026-04-06T13:40:17.999Z</time></trkpt><trkpt lat="48.40635488814171" lon="-0.9512144420088282"><ele>203.0</ele><time>2026-04-06T13:40:18.999Z</time></trkpt><trkpt lat="48.406402246024115" lon="-0.9509668366476821"><ele>203.33333333333334</ele><time>2026-04-06T13:40:19.999Z</time></trkpt><trkpt lat="48.40645906509503" lon="-0.9506973753005337"><ele>203.66666666666669</ele><time>2026-04-06T13:40:20.999Z</time></trkpt><trkpt lat="48.40651280142625" lon="-0.9504315090455279"><ele>204.0</ele><time>2026-04-06T13:40:22Z</time></trkpt><trkpt lat="48.406559957946705" lon="-0.9501798856712592"><ele>204.33333333333331</ele><time>2026-04-06T13:40:23Z</time></trkpt><trkpt lat="48.406609918389634" lon="-0.9499140490652183"><ele>204.66666666666666</ele><time>2026-04-06T13:40:24Z</time></trkpt><trkpt lat="48.4066618004214" lon="-0.9496396269573818"><ele>205.0</ele><time>2026-04-06T13:40:25Z</time></trkpt><trkpt lat="48.406715421514605" lon="-0.9493682256004944"><ele>206.0</ele><time>2026-04-06T13:40:26Z</time></trkpt><trkpt lat="48.40676334654362" lon="-0.9491136244952052"><ele>207.0</ele><time>2026-04-06T13:40:27Z</time></trkpt><trkpt lat="48.406806459583926" lon="-0.9488686286886214"><ele>208.0</ele><time>2026-04-06T13:40:28Z</time></trkpt><trkpt lat="48.40684937203907" lon="-0.9486237825216057"><ele>208.0</ele><time>2026-04-06T13:40:29Z</time></trkpt><trkpt lat="48.406890355034704" lon="-0.9483962637514325"><ele>208.0</ele><time>2026-04-06T13:40:30Z</time></trkpt><trkpt lat="48.406927973730525" lon="-0.9481828427312965"><ele>208.0</ele><time>2026-04-06T13:40:31Z</time></trkpt><trkpt lat="48.406965218165055" lon="-0.9479902757664064"><ele>208.0</ele><time>2026-04-06T13:40:32Z</time></trkpt><trkpt lat="48.40699151046288" lon="-0.9478388562607724"><ele>208.0</ele><time>2026-04-06T13:40:33Z</time></trkpt><trkpt lat="48.40698293302426" lon="-0.9477216915759906"><ele>208.0</ele><time>2026-04-06T13:40:34Z</time></trkpt><trkpt lat="48.40693904993514" lon="-0.9476267842086303"><ele>208.0</ele><time>2026-04-06T13:40:35Z</time></trkpt><trkpt lat="48.4068637945615" lon="-0.9475817228782609"><ele>208.0</ele><time>2026-04-06T13:40:36Z</time></trkpt><trkpt lat="48.40677036194832" lon="-0.9475915544585815"><ele>208.0</ele><time>2026-04-06T13:40:37Z</time></trkpt><trkpt lat="48.406650375903624" lon="-0.9476229127107739"><ele>208.0</ele><time>2026-04-06T13:40:38Z</time></trkpt><trkpt lat="48.40650923793783" lon="-0.947706009335252"><ele>208.0</ele><time>2026-04-06T13:40:39Z</time></trkpt><trkpt lat="48.40632747657901" lon="-0.9477285552128424"><ele>208.0</ele><time>2026-04-06T13:40:40Z</time></trkpt><trkpt lat="48.40611758657152" lon="-0.9477440808847734"><ele>209.0</ele><time>2026-04-06T13:40:41Z</time></trkpt><trkpt lat="48.40588417414176" lon="-0.9477463856442216"><ele>210.0</ele><time>2026-04-06T13:40:42Z</time></trkpt><trkpt lat="48.40567799846081" lon="-0.9477457296428672"><ele>211.0</ele><time>2026-04-06T13:40:43Z</time></trkpt><trkpt lat="48.40547794687523" lon="-0.9477436828311817"><ele>211.66666666666666</ele><time>2026-04-06T13:40:44Z</time></trkpt><trkpt lat="48.40528842807165" lon="-0.9477426658636003"><ele>212.33333333333331</ele><time>2026-04-06T13:40:45Z</time></trkpt><trkpt lat="48.40510784578289" lon="-0.9477389496664997"><ele>213.0</ele><time>2026-04-06T13:40:46Z</time></trkpt><trkpt lat="48.404932637671315" lon="-0.9477219613271923"><ele>213.0</ele><time>2026-04-06T13:40:47Z</time></trkpt><trkpt lat="48.4047561888331" lon="-0.9476944364345717"><ele>213.0</ele><time>2026-04-06T13:40:48Z</time></trkpt><trkpt lat="48.40459931610476" lon="-0.9476644746929733"><ele>213.0</ele><time>2026-04-06T13:40:49Z</time></trkpt><trkpt lat="48.40444701504188" lon="-0.9476326352127051"><ele>213.0</ele><time>2026-04-06T13:40:50Z</time></trkpt><trkpt lat="48.40429712181645" lon="-0.9476009886824812"><ele>213.0</ele><time>2026-04-06T13:40:51Z</time></trkpt><trkpt lat="48.40414966626676" lon="-0.9475677269914878"><ele>213.0</ele><time>2026-04-06T13:40:52Z</time></trkpt><trkpt lat="48.40400319756712" lon="-0.9475346514951708"><ele>213.0</ele><time>2026-04-06T13:40:53Z</time></trkpt><trkpt lat="48.403857676292354" lon="-0.9475039511825508"><ele>212.5</ele><time>2026-04-06T13:40:54Z</time></trkpt><trkpt lat="48.40372075530079" lon="-0.9474750651698496"><ele>212.0</ele><time>2026-04-06T13:40:55Z</time></trkpt><trkpt lat="48.40358564945468" lon="-0.9474469693393135"><ele>211.5</ele><time>2026-04-06T13:40:56Z</time></trkpt><trkpt lat="48.40345487630973" lon="-0.9474209418392502"><ele>211.0</ele><time>2026-04-06T13:40:57Z</time></trkpt><trkpt lat="48.403331726146774" lon="-0.9473964315113252"><ele>211.0</ele><time>2026-04-06T13:40:58Z</time></trkpt><trkpt lat="48.403215547417894" lon="-0.9473733390069647"><ele>211.0</ele><time>2026-04-06T13:40:59Z</time></trkpt><trkpt lat="48.40310674676035" lon="-0.9473519310652382"><ele>211.0</ele><time>2026-04-06T13:41:00Z</time></trkpt><trkpt lat="48.40300080981303" lon="-0.9473310866097062"><ele>211.0</ele><time>2026-04-06T13:41:01Z</time></trkpt><trkpt lat="48.40290078714652" lon="-0.9473114058885147"><ele>211.0</ele><time>2026-04-06T13:41:02Z</time></trkpt><trkpt lat="48.40280161958366" lon="-0.9472918931525004"><ele>211.0</ele><time>2026-04-06T13:41:03Z</time></trkpt><trkpt lat="48.40270247898632" lon="-0.9472725352654188"><ele>211.0</ele><time>2026-04-06T13:41:04Z</time></trkpt><trkpt lat="48.40260169845621" lon="-0.9472528199901001"><ele>211.0</ele><time>2026-04-06T13:41:05Z</time></trkpt><trkpt lat="48.402502004608046" lon="-0.9472333173041524"><ele>211.0</ele><time>2026-04-06T13:41:05.999Z</time></trkpt><trkpt lat="48.40240111273954" lon="-0.9472135802495694"><ele>211.0</ele><time>2026-04-06T13:41:06.999Z</time></trkpt><trkpt lat="48.40229875296389" lon="-0.9471935560370708"><ele>211.0</ele><time>2026-04-06T13:41:07.999Z</time></trkpt><trkpt lat="48.402196853182254" lon="-0.9471718716779095"><ele>211.0</ele><time>2026-04-06T13:41:08.999Z</time></trkpt><trkpt lat="48.402096359851946" lon="-0.9471493027469707"><ele>211.0</ele><time>2026-04-06T13:41:09.999Z</time></trkpt><trkpt lat="48.4020033310907" lon="-0.9471284100594459"><ele>211.0</ele><time>2026-04-06T13:41:10.999Z</time></trkpt><trkpt lat="48.40189962763453" lon="-0.9470954176590398"><ele>211.0</ele><time>2026-04-06T13:41:11.999Z</time></trkpt><trkpt lat="48.40180446944124" lon="-0.9470516025255037"><ele>211.4</ele><time>2026-04-06T13:41:12.999Z</time></trkpt><trkpt lat="48.401713466267104" lon="-0.9469906670862801"><ele>211.8</ele><time>2026-04-06T13:41:13.999Z</time></trkpt><trkpt lat="48.40161827923229" lon="-0.9469469879863804"><ele>212.20000000000002</ele><time>2026-04-06T13:41:14.999Z</time></trkpt><trkpt lat="48.401527730998374" lon="-0.9469130184333874"><ele>212.60000000000002</ele><time>2026-04-06T13:41:15.999Z</time></trkpt><trkpt lat="48.401440297514725" lon="-0.9468805215052895"><ele>213.0</ele><time>2026-04-06T13:41:16.999Z</time></trkpt><trkpt lat="48.401358912533645" lon="-0.946845733464099"><ele>213.0</ele><time>2026-04-06T13:41:17.999Z</time></trkpt><trkpt lat="48.40128326507296" lon="-0.9468120112526409"><ele>213.0</ele><time>2026-04-06T13:41:18.999Z</time></trkpt><trkpt lat="48.40121329237912" lon="-0.9467806491061186"><ele>213.0</ele><time>2026-04-06T13:41:19.999Z</time></trkpt><trkpt lat="48.40115062037224" lon="-0.9467515701904536"><ele>213.0</ele><time>2026-04-06T13:41:20.999Z</time></trkpt><trkpt lat="48.40105052357674" lon="-0.9467178036189338"><ele>213.0</ele><time>2026-04-06T13:41:22.999Z</time></trkpt><trkpt lat="48.40094585087243" lon="-0.9466653018340414"><ele>213.0</ele><time>2026-04-06T13:41:24.999Z</time></trkpt><trkpt lat="48.40087101870889" lon="-0.9466338521540602"><ele>213.0</ele><time>2026-04-06T13:41:25.999Z</time></trkpt><trkpt lat="48.40078124144291" lon="-0.9466024479915163"><ele>213.0</ele><time>2026-04-06T13:41:26.999Z</time></trkpt><trkpt lat="48.400694768346824" lon="-0.9465642190957706"><ele>213.0</ele><time>2026-04-06T13:41:27.999Z</time></trkpt><trkpt lat="48.4005969811241" lon="-0.9465182943238909"><ele>213.0</ele><time>2026-04-06T13:41:28.999Z</time></trkpt><trkpt lat="48.40048422988975" lon="-0.9464804329533449"><ele>213.0</ele><time>2026-04-06T13:41:29.999Z</time></trkpt><trkpt lat="48.40037209449614" lon="-0.9464322016781825"><ele>212.75</ele><time>2026-04-06T13:41:30.999Z</time></trkpt><trkpt lat="48.40026291461511" lon="-0.9464090963536007"><ele>212.5</ele><time>2026-04-06T13:41:31.999Z</time></trkpt><trkpt lat="48.400150305375064" lon="-0.9463623384367369"><ele>212.25</ele><time>2026-04-06T13:41:32.999Z</time></trkpt><trkpt lat="48.40003821550323" lon="-0.9463157961685208"><ele>212.0</ele><time>2026-04-06T13:41:33.999Z</time></trkpt><trkpt lat="48.39992723637844" lon="-0.9462645766680793"><ele>212.0</ele><time>2026-04-06T13:41:34.999Z</time></trkpt><trkpt lat="48.39981514678199" lon="-0.9462183198362155"><ele>212.0</ele><time>2026-04-06T13:41:35.999Z</time></trkpt><trkpt lat="48.39970010775305" lon="-0.9461960471459917"><ele>212.0</ele><time>2026-04-06T13:41:36.999Z</time></trkpt><trkpt lat="48.399584693777854" lon="-0.9461910259788785"><ele>212.0</ele><time>2026-04-06T13:41:37.999Z</time></trkpt><trkpt lat="48.39947012865626" lon="-0.9461921988104701"><ele>212.0</ele><time>2026-04-06T13:41:38.999Z</time></trkpt><trkpt lat="48.39935458386392" lon="-0.9462113775303356"><ele>212.0</ele><time>2026-04-06T13:41:39.999Z</time></trkpt><trkpt lat="48.39924392372989" lon="-0.9462761006284645"><ele>212.0</ele><time>2026-04-06T13:41:40.999Z</time></trkpt><trkpt lat="48.39913045585872" lon="-0.9463257116731851"><ele>212.0</ele><time>2026-04-06T13:41:41.999Z</time></trkpt><trkpt lat="48.39901608058132" lon="-0.9463890694487979"><ele>212.0</ele><time>2026-04-06T13:41:42.999Z</time></trkpt><trkpt lat="48.39889736088352" lon="-0.9464517321650933"><ele>212.0</ele><time>2026-04-06T13:41:43.999Z</time></trkpt><trkpt lat="48.398797756009714" lon="-0.946589783511248"><ele>212.0</ele><time>2026-04-06T13:41:44.999Z</time></trkpt><trkpt lat="48.398674917387076" lon="-0.9467236849730328"><ele>212.0</ele><time>2026-04-06T13:41:45.999Z</time></trkpt><trkpt lat="48.39855438538501" lon="-0.9468914109015988"><ele>211.66666666666669</ele><time>2026-04-06T13:41:46.999Z</time></trkpt><trkpt lat="48.39842466182623" lon="-0.947070273046506"><ele>211.33333333333331</ele><time>2026-04-06T13:41:47.999Z</time></trkpt><trkpt lat="48.39828834486627" lon="-0.947259554465016"><ele>211.0</ele><time>2026-04-06T13:41:48.999Z</time></trkpt><trkpt lat="48.39817054684562" lon="-0.94746358366517"><ele>211.0</ele><time>2026-04-06T13:41:49.999Z</time></trkpt><trkpt lat="48.39803436895288" lon="-0.9476492118127436"><ele>211.0</ele><time>2026-04-06T13:41:50.999Z</time></trkpt><trkpt lat="48.39788438587198" lon="-0.9478246445170594"><ele>211.0</ele><time>2026-04-06T13:41:51.999Z</time></trkpt><trkpt lat="48.3977147913946" lon="-0.9479644774613443"><ele>210.66666666666666</ele><time>2026-04-06T13:41:52.999Z</time></trkpt><trkpt lat="48.39754041815225" lon="-0.9480863686125499"><ele>210.33333333333331</ele><time>2026-04-06T13:41:53.999Z</time></trkpt><trkpt lat="48.397367024017896" lon="-0.9482198800690831"><ele>210.0</ele><time>2026-04-06T13:41:54.999Z</time></trkpt><trkpt lat="48.3971891304216" lon="-0.9483594919117463"><ele>210.0</ele><time>2026-04-06T13:41:55.999Z</time></trkpt><trkpt lat="48.3970060416586" lon="-0.948503180764431"><ele>210.0</ele><time>2026-04-06T13:41:56.999Z</time></trkpt><trkpt lat="48.39681957847996" lon="-0.9486495181270431"><ele>210.0</ele><time>2026-04-06T13:41:57.999Z</time></trkpt><trkpt lat="48.39662788836776" lon="-0.9487999572383548"><ele>210.0</ele><time>2026-04-06T13:41:58.999Z</time></trkpt><trkpt lat="48.396432158627384" lon="-0.9489535671461923"><ele>210.0</ele><time>2026-04-06T13:41:59.999Z</time></trkpt><trkpt lat="48.39623614425614" lon="-0.949107399867942"><ele>210.0</ele><time>2026-04-06T13:42:00.999Z</time></trkpt><trkpt lat="48.396036994115995" lon="-0.9492666321518851"><ele>210.33333333333331</ele><time>2026-04-06T13:42:01.999Z</time></trkpt><trkpt lat="48.39585399164296" lon="-0.9494132373795907"><ele>210.66666666666666</ele><time>2026-04-06T13:42:02.999Z</time></trkpt><trkpt lat="48.395679655918165" lon="-0.949553105175379"><ele>211.0</ele><time>2026-04-06T13:42:03.999Z</time></trkpt><trkpt lat="48.39550197995957" lon="-0.949694944329222"><ele>211.0</ele><time>2026-04-06T13:42:04.999Z</time></trkpt><trkpt lat="48.39532321657204" lon="-0.9498324502105036"><ele>211.0</ele><time>2026-04-06T13:42:05.999Z</time></trkpt><trkpt lat="48.395142364357056" lon="-0.9499644404941711"><ele>211.0</ele><time>2026-04-06T13:42:06.999Z</time></trkpt><trkpt lat="48.39495589350575" lon="-0.9500947740354431"><ele>210.66666666666666</ele><time>2026-04-06T13:42:07.999Z</time></trkpt><trkpt lat="48.3947614690368" lon="-0.9502125364099265"><ele>210.33333333333331</ele><time>2026-04-06T13:42:08.999Z</time></trkpt><trkpt lat="48.39456153940884" lon="-0.9503015729255754"><ele>210.0</ele><time>2026-04-06T13:42:09.999Z</time></trkpt><trkpt lat="48.39435721844699" lon="-0.950385423778081"><ele>211.0</ele><time>2026-04-06T13:42:10.999Z</time></trkpt><trkpt lat="48.39415837782478" lon="-0.9504649507751718"><ele>212.0</ele><time>2026-04-06T13:42:11.999Z</time></trkpt><trkpt lat="48.39397507937432" lon="-0.9505382616088598"><ele>213.0</ele><time>2026-04-06T13:42:12.999Z</time></trkpt><trkpt lat="48.39379976560257" lon="-0.9505923528320583"><ele>213.0</ele><time>2026-04-06T13:42:13.999Z</time></trkpt><trkpt lat="48.39363746846781" lon="-0.9506972178633729"><ele>213.0</ele><time>2026-04-06T13:42:14.999Z</time></trkpt><trkpt lat="48.39346832163066" lon="-0.9507680559364645"><ele>213.0</ele><time>2026-04-06T13:42:15.999Z</time></trkpt><trkpt lat="48.39331608195246" lon="-0.9508731497404393"><ele>213.0</ele><time>2026-04-06T13:42:16.999Z</time></trkpt><trkpt lat="48.393183142991596" lon="-0.9509979114718411"><ele>213.0</ele><time>2026-04-06T13:42:17.999Z</time></trkpt><trkpt lat="48.393068262683286" lon="-0.9511015140870815"><ele>213.0</ele><time>2026-04-06T13:42:18.999Z</time></trkpt><trkpt lat="48.39297222593262" lon="-0.9511922302714302"><ele>213.0</ele><time>2026-04-06T13:42:19.999Z</time></trkpt><trkpt lat="48.39288146498941" lon="-0.9512492217536749"><ele>213.0</ele><time>2026-04-06T13:42:20.999Z</time></trkpt><trkpt lat="48.39280694073387" lon="-0.9513320405993252"><ele>213.0</ele><time>2026-04-06T13:42:21.999Z</time></trkpt><trkpt lat="48.392755099781766" lon="-0.9514399951491658"><ele>213.0</ele><time>2026-04-06T13:42:22.999Z</time></trkpt><trkpt lat="48.39270934497114" lon="-0.951540649999182"><ele>213.0</ele><time>2026-04-06T13:42:23.999Z</time></trkpt><trkpt lat="48.39273395955385" lon="-0.951715625841563"><ele>213.0</ele><time>2026-04-06T13:42:24.999Z</time></trkpt><trkpt lat="48.39275814807952" lon="-0.951895096389714"><ele>212.66666666666669</ele><time>2026-04-06T13:42:25.999Z</time></trkpt><trkpt lat="48.39278939085806" lon="-0.9521210660347008"><ele>212.33333333333334</ele><time>2026-04-06T13:42:26.999Z</time></trkpt><trkpt lat="48.39281781768929" lon="-0.9523561912946956"><ele>212.0</ele><time>2026-04-06T13:42:28Z</time></trkpt><trkpt lat="48.39284386812518" lon="-0.9526179054213664"><ele>210.66666666666669</ele><time>2026-04-06T13:42:29Z</time></trkpt><trkpt lat="48.39287370597628" lon="-0.952904832667385"><ele>209.33333333333331</ele><time>2026-04-06T13:42:30Z</time></trkpt><trkpt lat="48.392905725703606" lon="-0.9531806007011159"><ele>208.0</ele><time>2026-04-06T13:42:31Z</time></trkpt><trkpt lat="48.392937766805055" lon="-0.9534635175197743"><ele>208.0</ele><time>2026-04-06T13:42:32Z</time></trkpt><trkpt lat="48.392972175801994" lon="-0.9537514271657753"><ele>208.0</ele><time>2026-04-06T13:42:33Z</time></trkpt><trkpt lat="48.3930076425307" lon="-0.9540446456838947"><ele>208.0</ele><time>2026-04-06T13:42:34Z</time></trkpt><trkpt lat="48.393037919618074" lon="-0.9543387908075839"><ele>208.66666666666666</ele><time>2026-04-06T13:42:35Z</time></trkpt><trkpt lat="48.39306703488026" lon="-0.954627793664784"><ele>209.33333333333331</ele><time>2026-04-06T13:42:36Z</time></trkpt><trkpt lat="48.39309862957113" lon="-0.9549140012100215"><ele>210.0</ele><time>2026-04-06T13:42:37Z</time></trkpt><trkpt lat="48.39313087825893" lon="-0.9551911960727999"><ele>210.66666666666669</ele><time>2026-04-06T13:42:38Z</time></trkpt><trkpt lat="48.393158318238505" lon="-0.9554642836123654"><ele>211.33333333333334</ele><time>2026-04-06T13:42:39Z</time></trkpt><trkpt lat="48.39318524765763" lon="-0.9557338277344477"><ele>212.0</ele><time>2026-04-06T13:42:40Z</time></trkpt><trkpt lat="48.39321258136102" lon="-0.9560031392372357"><ele>212.33333333333334</ele><time>2026-04-06T13:42:41Z</time></trkpt><trkpt lat="48.39324105831561" lon="-0.9562707940610459"><ele>212.66666666666669</ele><time>2026-04-06T13:42:42Z</time></trkpt><trkpt lat="48.393268481161435" lon="-0.956527939337394"><ele>213.0</ele><time>2026-04-06T13:42:43Z</time></trkpt><trkpt lat="48.393295923425896" lon="-0.9567843306434598"><ele>213.0</ele><time>2026-04-06T13:42:44Z</time></trkpt><trkpt lat="48.393321596223934" lon="-0.9570513982631905"><ele>213.0</ele><time>2026-04-06T13:42:45Z</time></trkpt><trkpt lat="48.39335064417759" lon="-0.9573234571053149"><ele>213.0</ele><time>2026-04-06T13:42:46Z</time></trkpt><trkpt lat="48.39337983600297" lon="-0.9575921067738065"><ele>209.66666666666669</ele><time>2026-04-06T13:42:47Z</time></trkpt><trkpt lat="48.393425669777706" lon="-0.9578558825320594"><ele>206.33333333333334</ele><time>2026-04-06T13:42:48Z</time></trkpt><trkpt lat="48.39345749663833" lon="-0.9581232012347668"><ele>203.0</ele><time>2026-04-06T13:42:49Z</time></trkpt><trkpt lat="48.393489137555" lon="-0.9583889581733218"><ele>201.66666666666669</ele><time>2026-04-06T13:42:50Z</time></trkpt><trkpt lat="48.39352010628695" lon="-0.958649069413228"><ele>200.33333333333331</ele><time>2026-04-06T13:42:51Z</time></trkpt><trkpt lat="48.39355103258744" lon="-0.9589106889799548"><ele>199.0</ele><time>2026-04-06T13:42:52Z</time></trkpt><trkpt lat="48.39358085401106" lon="-0.9591670484818416"><ele>197.66666666666666</ele><time>2026-04-06T13:42:53Z</time></trkpt><trkpt lat="48.39359486099505" lon="-0.9594263930252853"><ele>196.33333333333331</ele><time>2026-04-06T13:42:54Z</time></trkpt><trkpt lat="48.39362191880423" lon="-0.9596801124568441"><ele>195.0</ele><time>2026-04-06T13:42:55Z</time></trkpt><trkpt lat="48.393657464450094" lon="-0.9599301258212146"><ele>194.33333333333331</ele><time>2026-04-06T13:42:56Z</time></trkpt><trkpt lat="48.393647568272684" lon="-0.9601695549471708"><ele>193.66666666666666</ele><time>2026-04-06T13:42:57Z</time></trkpt><trkpt lat="48.393644533443386" lon="-0.9603878204803672"><ele>193.0</ele><time>2026-04-06T13:42:58Z</time></trkpt><trkpt lat="48.39362055398896" lon="-0.9606066220451425"><ele>193.0</ele><time>2026-04-06T13:42:59Z</time></trkpt><trkpt lat="48.39357245671193" lon="-0.9608173532099114"><ele>193.0</ele><time>2026-04-06T13:43:00Z</time></trkpt><trkpt lat="48.393524198902895" lon="-0.961040944713923"><ele>193.0</ele><time>2026-04-06T13:43:01Z</time></trkpt><trkpt lat="48.39347191935727" lon="-0.9612788943173747"><ele>193.0</ele><time>2026-04-06T13:43:02Z</time></trkpt><trkpt lat="48.393421062383595" lon="-0.9615208654254148"><ele>193.0</ele><time>2026-04-06T13:43:03Z</time></trkpt><trkpt lat="48.39336240890304" lon="-0.961794597814357"><ele>193.0</ele><time>2026-04-06T13:43:04Z</time></trkpt><trkpt lat="48.39329611277092" lon="-0.9620946306040618"><ele>192.0</ele><time>2026-04-06T13:43:05Z</time></trkpt><trkpt lat="48.39322566009796" lon="-0.9624279275150472"><ele>191.0</ele><time>2026-04-06T13:43:06Z</time></trkpt><trkpt lat="48.39314602067603" lon="-0.9627900484076879"><ele>190.5</ele><time>2026-04-06T13:43:07Z</time></trkpt><trkpt lat="48.393067210259204" lon="-0.9631607262032253"><ele>190.0</ele><time>2026-04-06T13:43:08Z</time></trkpt><trkpt lat="48.39298667755004" lon="-0.9635354978393361"><ele>188.5</ele><time>2026-04-06T13:43:09Z</time></trkpt><trkpt lat="48.392907325730256" lon="-0.9639079721341155"><ele>187.0</ele><time>2026-04-06T13:43:10Z</time></trkpt><trkpt lat="48.39282431696739" lon="-0.9642907078696955"><ele>187.0</ele><time>2026-04-06T13:43:11Z</time></trkpt><trkpt lat="48.39274437703214" lon="-0.9646840309462459"><ele>187.0</ele><time>2026-04-06T13:43:12Z</time></trkpt><trkpt lat="48.3926544250306" lon="-0.9650717825584115"><ele>185.5</ele><time>2026-04-06T13:43:13Z</time></trkpt><trkpt lat="48.39257401505027" lon="-0.9654682518823222"><ele>184.0</ele><time>2026-04-06T13:43:14Z</time></trkpt><trkpt lat="48.392489794940715" lon="-0.9658607440040181"><ele>183.0</ele><time>2026-04-06T13:43:15Z</time></trkpt><trkpt lat="48.39240263261933" lon="-0.9662551293052035"><ele>182.0</ele><time>2026-04-06T13:43:16Z</time></trkpt><trkpt lat="48.392320817781595" lon="-0.966629216787294"><ele>182.0</ele><time>2026-04-06T13:43:17Z</time></trkpt><trkpt lat="48.39223614077595" lon="-0.9669828170051337"><ele>182.0</ele><time>2026-04-06T13:43:18Z</time></trkpt><trkpt lat="48.39214921655962" lon="-0.9673186125242602"><ele>181.0</ele><time>2026-04-06T13:43:19Z</time></trkpt><trkpt lat="48.392053901219874" lon="-0.9676609844243359"><ele>180.0</ele><time>2026-04-06T13:43:20Z</time></trkpt><trkpt lat="48.39196025783035" lon="-0.9679919554774638"><ele>180.0</ele><time>2026-04-06T13:43:21Z</time></trkpt><trkpt lat="48.39187095998167" lon="-0.9683080244246809"><ele>180.0</ele><time>2026-04-06T13:43:22Z</time></trkpt><trkpt lat="48.3917879498305" lon="-0.9686093640458165"><ele>180.0</ele><time>2026-04-06T13:43:23Z</time></trkpt><trkpt lat="48.39170944400419" lon="-0.9688951748530182"><ele>180.66666666666666</ele><time>2026-04-06T13:43:24Z</time></trkpt><trkpt lat="48.39163859834194" lon="-0.9691531164406167"><ele>181.33333333333331</ele><time>2026-04-06T13:43:25Z</time></trkpt><trkpt lat="48.39157800685184" lon="-0.9693792107034639"><ele>182.0</ele><time>2026-04-06T13:43:26Z</time></trkpt><trkpt lat="48.39153444558893" lon="-0.9695958247735625"><ele>182.25</ele><time>2026-04-06T13:43:27Z</time></trkpt><trkpt lat="48.3915267130433" lon="-0.9698163433065182"><ele>182.5</ele><time>2026-04-06T13:43:28Z</time></trkpt><trkpt lat="48.391542503057494" lon="-0.9700414663598563"><ele>182.75</ele><time>2026-04-06T13:43:29Z</time></trkpt><trkpt lat="48.39158771311946" lon="-0.9702562866151913"><ele>183.0</ele><time>2026-04-06T13:43:30Z</time></trkpt><trkpt lat="48.39165425630021" lon="-0.9704799272018447"><ele>183.33333333333334</ele><time>2026-04-06T13:43:31Z</time></trkpt><trkpt lat="48.391742080510745" lon="-0.9707372295219701"><ele>183.66666666666669</ele><time>2026-04-06T13:43:32Z</time></trkpt><trkpt lat="48.391836304394296" lon="-0.97102660275175"><ele>184.0</ele><time>2026-04-06T13:43:33Z</time></trkpt><trkpt lat="48.39191470575926" lon="-0.9712952638680307"><ele>185.0</ele><time>2026-04-06T13:43:34Z</time></trkpt><trkpt lat="48.39199490646515" lon="-0.971542025224126"><ele>186.0</ele><time>2026-04-06T13:43:35Z</time></trkpt><trkpt lat="48.39206765782376" lon="-0.9717742387985279"><ele>187.0</ele><time>2026-04-06T13:43:36Z</time></trkpt><trkpt lat="48.39213536910249" lon="-0.971989372611607"><ele>187.5</ele><time>2026-04-06T13:43:37Z</time></trkpt><trkpt lat="48.39219834063142" lon="-0.9721947007689785"><ele>188.0</ele><time>2026-04-06T13:43:38Z</time></trkpt><trkpt lat="48.39226404696884" lon="-0.9723863326145041"><ele>188.5</ele><time>2026-04-06T13:43:39Z</time></trkpt><trkpt lat="48.39232095805198" lon="-0.9725734660480712"><ele>189.0</ele><time>2026-04-06T13:43:40Z</time></trkpt><trkpt lat="48.39237099358552" lon="-0.9727654838154595"><ele>189.33333333333334</ele><time>2026-04-06T13:43:41Z</time></trkpt><trkpt lat="48.392393559381205" lon="-0.972979575484793"><ele>189.66666666666669</ele><time>2026-04-06T13:43:42Z</time></trkpt><trkpt lat="48.39240282562726" lon="-0.9732113006187552"><ele>190.0</ele><time>2026-04-06T13:43:43Z</time></trkpt><trkpt lat="48.39241565361582" lon="-0.9734523997209701"><ele>189.33333333333334</ele><time>2026-04-06T13:43:44Z</time></trkpt><trkpt lat="48.392426111962074" lon="-0.973713369221646"><ele>188.66666666666666</ele><time>2026-04-06T13:43:45Z</time></trkpt><trkpt lat="48.3924347391402" lon="-0.973991501840063"><ele>188.0</ele><time>2026-04-06T13:43:46Z</time></trkpt><trkpt lat="48.392448349133424" lon="-0.9742829008146611"><ele>187.0</ele><time>2026-04-06T13:43:47Z</time></trkpt><trkpt lat="48.39245947212652" lon="-0.9745693771084021"><ele>186.0</ele><time>2026-04-06T13:43:48Z</time></trkpt><trkpt lat="48.392467702637404" lon="-0.9748415136226588"><ele>185.0</ele><time>2026-04-06T13:43:49Z</time></trkpt><trkpt lat="48.39247926133001" lon="-0.975101857965907"><ele>183.66666666666666</ele><time>2026-04-06T13:43:50Z</time></trkpt><trkpt lat="48.3924936131161" lon="-0.9753551299831152"><ele>182.33333333333334</ele><time>2026-04-06T13:43:51Z</time></trkpt><trkpt lat="48.39250791013188" lon="-0.97559742190993"><ele>181.0</ele><time>2026-04-06T13:43:52Z</time></trkpt><trkpt lat="48.392512168017134" lon="-0.9758419289066423"><ele>180.66666666666669</ele><time>2026-04-06T13:43:53Z</time></trkpt><trkpt lat="48.39251734172549" lon="-0.976101560964273"><ele>180.33333333333334</ele><time>2026-04-06T13:43:54Z</time></trkpt><trkpt lat="48.392471156892725" lon="-0.976367518788996"><ele>180.0</ele><time>2026-04-06T13:43:55Z</time></trkpt><trkpt lat="48.3924203659877" lon="-0.9766366331990841"><ele>179.33333333333334</ele><time>2026-04-06T13:43:56Z</time></trkpt><trkpt lat="48.392359065899015" lon="-0.9769073976505003"><ele>178.66666666666669</ele><time>2026-04-06T13:43:57Z</time></trkpt><trkpt lat="48.3922908124394" lon="-0.9771832744383737"><ele>178.0</ele><time>2026-04-06T13:43:58Z</time></trkpt><trkpt lat="48.39222167399487" lon="-0.9774669023553237"><ele>179.33333333333334</ele><time>2026-04-06T13:43:59Z</time></trkpt><trkpt lat="48.39214845207684" lon="-0.977757646672476"><ele>180.66666666666666</ele><time>2026-04-06T13:44:00Z</time></trkpt><trkpt lat="48.39207410875739" lon="-0.9780574686825653"><ele>182.0</ele><time>2026-04-06T13:44:01Z</time></trkpt><trkpt lat="48.39200549061878" lon="-0.9783579536197636"><ele>182.0</ele><time>2026-04-06T13:44:02Z</time></trkpt><trkpt lat="48.39193915482676" lon="-0.9786613258834258"><ele>182.0</ele><time>2026-04-06T13:44:03Z</time></trkpt><trkpt lat="48.39186749833931" lon="-0.9789682783989206"><ele>182.0</ele><time>2026-04-06T13:44:04Z</time></trkpt><trkpt lat="48.391797107629706" lon="-0.9792704367403676"><ele>181.66666666666666</ele><time>2026-04-06T13:44:05Z</time></trkpt><trkpt lat="48.391721930325495" lon="-0.9795832594426999"><ele>181.33333333333334</ele><time>2026-04-06T13:44:06Z</time></trkpt><trkpt lat="48.391645771988806" lon="-0.9798967962403501"><ele>181.0</ele><time>2026-04-06T13:44:07Z</time></trkpt><trkpt lat="48.39156940518749" lon="-0.9802093486072921"><ele>181.0</ele><time>2026-04-06T13:44:08Z</time></trkpt><trkpt lat="48.3915019833505" lon="-0.9804979412372244"><ele>181.0</ele><time>2026-04-06T13:44:09Z</time></trkpt><trkpt lat="48.39144115596829" lon="-0.980770324051666"><ele>181.0</ele><time>2026-04-06T13:44:09.999Z</time></trkpt><trkpt lat="48.391382539172426" lon="-0.981027537606704"><ele>180.33333333333334</ele><time>2026-04-06T13:44:10.999Z</time></trkpt><trkpt lat="48.39132431278161" lon="-0.9812712105556426"><ele>179.66666666666666</ele><time>2026-04-06T13:44:11.999Z</time></trkpt><trkpt lat="48.391270439326895" lon="-0.9815028692699022"><ele>179.0</ele><time>2026-04-06T13:44:12.999Z</time></trkpt><trkpt lat="48.391217058305386" lon="-0.9817276939247057"><ele>178.33333333333331</ele><time>2026-04-06T13:44:13.999Z</time></trkpt><trkpt lat="48.391164452691534" lon="-0.9819561140565618"><ele>177.66666666666666</ele><time>2026-04-06T13:44:14.999Z</time></trkpt><trkpt lat="48.39109909991192" lon="-0.9821853792028622"><ele>177.0</ele><time>2026-04-06T13:44:15.999Z</time></trkpt><trkpt lat="48.39101074575306" lon="-0.9824047971102355"><ele>177.0</ele><time>2026-04-06T13:44:16.999Z</time></trkpt><trkpt lat="48.39090363643867" lon="-0.9826132944921215"><ele>177.0</ele><time>2026-04-06T13:44:17.999Z</time></trkpt><trkpt lat="48.39079200573091" lon="-0.982800852520792"><ele>177.0</ele><time>2026-04-06T13:44:18.999Z</time></trkpt><trkpt lat="48.39067771000953" lon="-0.9829755908316027"><ele>177.0</ele><time>2026-04-06T13:44:19.999Z</time></trkpt><trkpt lat="48.39055851574646" lon="-0.9831458719500825"><ele>177.0</ele><time>2026-04-06T13:44:20.999Z</time></trkpt><trkpt lat="48.39044943099237" lon="-0.9833298173825769"><ele>177.0</ele><time>2026-04-06T13:44:21.999Z</time></trkpt><trkpt lat="48.39035470389544" lon="-0.9835302536104319"><ele>176.33333333333334</ele><time>2026-04-06T13:44:22.999Z</time></trkpt><trkpt lat="48.3902782382932" lon="-0.9837488835571861"><ele>175.66666666666669</ele><time>2026-04-06T13:44:23.999Z</time></trkpt><trkpt lat="48.390211532023585" lon="-0.983976564406258"><ele>175.0</ele><time>2026-04-06T13:44:24.999Z</time></trkpt><trkpt lat="48.390144304672354" lon="-0.9842029156445447"><ele>174.33333333333334</ele><time>2026-04-06T13:44:25.999Z</time></trkpt><trkpt lat="48.39007894016993" lon="-0.984424026169648"><ele>173.66666666666666</ele><time>2026-04-06T13:44:26.999Z</time></trkpt><trkpt lat="48.39001413506986" lon="-0.9846340571217721"><ele>173.0</ele><time>2026-04-06T13:44:27.999Z</time></trkpt><trkpt lat="48.38995819496172" lon="-0.9848408234334993"><ele>172.0</ele><time>2026-04-06T13:44:28.999Z</time></trkpt><trkpt lat="48.38990035182453" lon="-0.9850397854947999"><ele>171.0</ele><time>2026-04-06T13:44:29.999Z</time></trkpt><trkpt lat="48.38984150865823" lon="-0.9852321780963981"><ele>170.0</ele><time>2026-04-06T13:44:30.999Z</time></trkpt><trkpt lat="48.38978390091918" lon="-0.9854202420422261"><ele>169.0</ele><time>2026-04-06T13:44:31.999Z</time></trkpt><trkpt lat="48.38972406204187" lon="-0.9855996204176285"><ele>169.5</ele><time>2026-04-06T13:44:33Z</time></trkpt><trkpt lat="48.38967450379844" lon="-0.9857730050971033"><ele>170.0</ele><time>2026-04-06T13:44:34Z</time></trkpt><trkpt lat="48.38963249564548" lon="-0.9859461104895234"><ele>170.5</ele><time>2026-04-06T13:44:35Z</time></trkpt><trkpt lat="48.389593560777925" lon="-0.9861080513963272"><ele>171.0</ele><time>2026-04-06T13:44:36Z</time></trkpt><trkpt lat="48.389563083480226" lon="-0.9862728522409971"><ele>171.25</ele><time>2026-04-06T13:44:37Z</time></trkpt><trkpt lat="48.3895470971674" lon="-0.9864659321986975"><ele>171.5</ele><time>2026-04-06T13:44:38Z</time></trkpt><trkpt lat="48.38955050426585" lon="-0.9866733203075997"><ele>171.75</ele><time>2026-04-06T13:44:39Z</time></trkpt><trkpt lat="48.389562293440825" lon="-0.986873121464358"><ele>172.0</ele><time>2026-04-06T13:44:40Z</time></trkpt><trkpt lat="48.38958336974318" lon="-0.987070412693483"><ele>172.75</ele><time>2026-04-06T13:44:41Z</time></trkpt><trkpt lat="48.38961272823568" lon="-0.9872679499908751"><ele>173.5</ele><time>2026-04-06T13:44:42Z</time></trkpt><trkpt lat="48.38964821794146" lon="-0.9874630803817597"><ele>174.25</ele><time>2026-04-06T13:44:43Z</time></trkpt><trkpt lat="48.38968485272142" lon="-0.9876508686918656"><ele>175.0</ele><time>2026-04-06T13:44:44Z</time></trkpt><trkpt lat="48.38972146079197" lon="-0.9878354061821213"><ele>175.25</ele><time>2026-04-06T13:44:45Z</time></trkpt><trkpt lat="48.389756637009256" lon="-0.9880227094408595"><ele>175.5</ele><time>2026-04-06T13:44:46Z</time></trkpt><trkpt lat="48.38979319687481" lon="-0.9882063406430864"><ele>175.75</ele><time>2026-04-06T13:44:47Z</time></trkpt><trkpt lat="48.389827321873575" lon="-0.9883736867589696"><ele>176.0</ele><time>2026-04-06T13:44:48Z</time></trkpt><trkpt lat="48.38986123096828" lon="-0.988529144299216"><ele>176.16666666666666</ele><time>2026-04-06T13:44:49Z</time></trkpt><trkpt lat="48.389893242949455" lon="-0.9886711786964176"><ele>176.33333333333331</ele><time>2026-04-06T13:44:50Z</time></trkpt><trkpt lat="48.3899236846891" lon="-0.9888007248872481"><ele>176.5</ele><time>2026-04-06T13:44:51Z</time></trkpt><trkpt lat="48.38994988705309" lon="-0.9889033194530826"><ele>176.66666666666666</ele><time>2026-04-06T13:44:52Z</time></trkpt><trkpt lat="48.38997522620496" lon="-0.9890489221921617"><ele>176.83333333333334</ele><time>2026-04-06T13:44:54Z</time></trkpt><trkpt lat="48.389976322663735" lon="-0.9891450852240766"><ele>177.0</ele><time>2026-04-06T13:44:57Z</time></trkpt><trkpt lat="48.38982949252943" lon="-0.9892336680380385"><ele>177.75</ele><time>2026-04-06T13:45:00Z</time></trkpt><trkpt lat="48.389728192533035" lon="-0.9892257698684503"><ele>178.5</ele><time>2026-04-06T13:45:01Z</time></trkpt><trkpt lat="48.3896209444615" lon="-0.9892279561150571"><ele>179.25</ele><time>2026-04-06T13:45:02Z</time></trkpt><trkpt lat="48.38950269589356" lon="-0.9892321841973022"><ele>180.0</ele><time>2026-04-06T13:45:03Z</time></trkpt><trkpt lat="48.389368266560815" lon="-0.9892455687434668"><ele>180.0</ele><time>2026-04-06T13:45:04Z</time></trkpt><trkpt lat="48.38922687206837" lon="-0.98925448533437"><ele>180.0</ele><time>2026-04-06T13:45:05Z</time></trkpt><trkpt lat="48.389094722458154" lon="-0.9892694763247719"><ele>180.0</ele><time>2026-04-06T13:45:06Z</time></trkpt><trkpt lat="48.38896149047485" lon="-0.9892649440000786"><ele>180.0</ele><time>2026-04-06T13:45:07Z</time></trkpt><trkpt lat="48.38882614470744" lon="-0.989273503949238"><ele>180.5</ele><time>2026-04-06T13:45:08Z</time></trkpt><trkpt lat="48.388691556545595" lon="-0.9892819554548059"><ele>181.0</ele><time>2026-04-06T13:45:09Z</time></trkpt><trkpt lat="48.388556554968034" lon="-0.9892892931045874"><ele>181.5</ele><time>2026-04-06T13:45:10Z</time></trkpt><trkpt lat="48.38842135687005" lon="-0.9892786800813649"><ele>182.0</ele><time>2026-04-06T13:45:11Z</time></trkpt><trkpt lat="48.38828679841092" lon="-0.9892898064886702"><ele>182.0</ele><time>2026-04-06T13:45:12Z</time></trkpt><trkpt lat="48.388149709946724" lon="-0.9893191496639846"><ele>182.0</ele><time>2026-04-06T13:45:13Z</time></trkpt><trkpt lat="48.38801110357939" lon="-0.9893219656593156"><ele>182.0</ele><time>2026-04-06T13:45:14Z</time></trkpt><trkpt lat="48.38787929652448" lon="-0.9893127173199965"><ele>182.0</ele><time>2026-04-06T13:45:15Z</time></trkpt><trkpt lat="48.38775903458576" lon="-0.9893115476823059"><ele>182.25</ele><time>2026-04-06T13:45:16Z</time></trkpt><trkpt lat="48.387644159925244" lon="-0.9893195208996585"><ele>182.5</ele><time>2026-04-06T13:45:17Z</time></trkpt><trkpt lat="48.3875251954665" lon="-0.9893329425108879"><ele>182.75</ele><time>2026-04-06T13:45:18Z</time></trkpt><trkpt lat="48.38740257807747" lon="-0.9893295328939985"><ele>183.0</ele><time>2026-04-06T13:45:19Z</time></trkpt><trkpt lat="48.38727743391318" lon="-0.9893638643120396"><ele>182.5</ele><time>2026-04-06T13:45:20Z</time></trkpt><trkpt lat="48.38714867340222" lon="-0.9893734882542861"><ele>182.0</ele><time>2026-04-06T13:45:21Z</time></trkpt><trkpt lat="48.387015933069414" lon="-0.9893771741577381"><ele>181.5</ele><time>2026-04-06T13:45:22Z</time></trkpt><trkpt lat="48.386886302838676" lon="-0.9893787545784113"><ele>181.0</ele><time>2026-04-06T13:45:23Z</time></trkpt><trkpt lat="48.38676572730142" lon="-0.9893605900561819"><ele>181.0</ele><time>2026-04-06T13:45:24Z</time></trkpt><trkpt lat="48.3866474394363" lon="-0.9893614077969135"><ele>181.0</ele><time>2026-04-06T13:45:25Z</time></trkpt><trkpt lat="48.38652906396953" lon="-0.9893549686400362"><ele>181.0</ele><time>2026-04-06T13:45:26Z</time></trkpt><trkpt lat="48.386412894829505" lon="-0.9893405886341855"><ele>181.0</ele><time>2026-04-06T13:45:27Z</time></trkpt><trkpt lat="48.386295854999275" lon="-0.989324908792637"><ele>181.0</ele><time>2026-04-06T13:45:28Z</time></trkpt><trkpt lat="48.386181519472245" lon="-0.989299488658851"><ele>181.0</ele><time>2026-04-06T13:45:29Z</time></trkpt><trkpt lat="48.38606693190119" lon="-0.9892634044506852"><ele>181.0</ele><time>2026-04-06T13:45:30Z</time></trkpt><trkpt lat="48.385955530186195" lon="-0.9892212955803856"><ele>181.0</ele><time>2026-04-06T13:45:31Z</time></trkpt><trkpt lat="48.385845546496995" lon="-0.9891763653360447"><ele>180.5</ele><time>2026-04-06T13:45:32Z</time></trkpt><trkpt lat="48.385735474557634" lon="-0.9891207343461259"><ele>180.0</ele><time>2026-04-06T13:45:33Z</time></trkpt><trkpt lat="48.38562831365799" lon="-0.9890607880755762"><ele>179.5</ele><time>2026-04-06T13:45:34Z</time></trkpt><trkpt lat="48.38552074969682" lon="-0.9890004416227568"><ele>179.0</ele><time>2026-04-06T13:45:35Z</time></trkpt><trkpt lat="48.385418426186845" lon="-0.9889371027100223"><ele>178.39999999999998</ele><time>2026-04-06T13:45:36Z</time></trkpt><trkpt lat="48.38531159631708" lon="-0.9889067133155025"><ele>177.8</ele><time>2026-04-06T13:45:37Z</time></trkpt><trkpt lat="48.38521832578057" lon="-0.9888411800003435"><ele>177.2</ele><time>2026-04-06T13:45:38Z</time></trkpt><trkpt lat="48.385133255936076" lon="-0.988778005797625"><ele>176.60000000000002</ele><time>2026-04-06T13:45:39Z</time></trkpt><trkpt lat="48.38505781938935" lon="-0.9887206782185756"><ele>176.0</ele><time>2026-04-06T13:45:40Z</time></trkpt><trkpt lat="48.38498860486512" lon="-0.9886680790705622"><ele>176.0</ele><time>2026-04-06T13:45:41Z</time></trkpt><trkpt lat="48.384883869232134" lon="-0.9885884858946198"><ele>176.0</ele><time>2026-04-06T13:45:43Z</time></trkpt><trkpt lat="48.38482679702105" lon="-0.9885275694403469"><ele>176.0</ele><time>2026-04-06T13:45:46Z</time></trkpt><trkpt lat="48.38487593354702" lon="-0.9883620665536746"><ele>176.0</ele><time>2026-04-06T13:45:47Z</time></trkpt><trkpt lat="48.38483348873331" lon="-0.9885256881660646"><ele>176.0</ele><time>2026-04-06T13:45:48Z</time></trkpt><trkpt lat="48.384888156054544" lon="-0.9885917436539489"><ele>176.0</ele><time>2026-04-06T13:45:55Z</time></trkpt><trkpt lat="48.384991451209736" lon="-0.988253758446409"><ele>176.0</ele><time>2026-04-06T13:46:55Z</time></trkpt></trkseg></trk></gpx>